<?xml version="1.0" encoding="UTF-8" standalone="no" ?>
<gpx xmlns="http://www.topografix.com/GPX/1/1" xmlns:xsi="http://www.w3.org/2001/XMLSchema-instance" xsi:schemaLocation="http://www.topografix.com/GPX/1/1 http://www.topografix.com/GPX/1/1/gpx.xsd" version="1.1" creator="VisuGPX - https://www.visugpx.com">
  <metadata>
    <name>simandres - viennes</name>
    <desc><![CDATA[sortie VTT du 16-08-2009 avec cycles discover en PomPom.]]></desc>
  </metadata>
  <trk>
    <name><![CDATA[001-2009/08/16-09:28:23]]></name>
    <trkseg>
      <trkpt lat="45.6208" lon="4.87216">
        <ele>197</ele>
        <time>2009-08-16T07:28:23Z</time>
      </trkpt>
      <trkpt lat="45.62057" lon="4.87193">
        <ele>197</ele>
        <time>2009-08-16T07:28:41Z</time>
      </trkpt>
      <trkpt lat="45.62047" lon="4.87192">
        <ele>197</ele>
        <time>2009-08-16T07:28:45Z</time>
      </trkpt>
      <trkpt lat="45.62036" lon="4.87191">
        <ele>197</ele>
        <time>2009-08-16T07:28:49Z</time>
      </trkpt>
      <trkpt lat="45.62026" lon="4.87187">
        <ele>198</ele>
        <time>2009-08-16T07:28:53Z</time>
      </trkpt>
      <trkpt lat="45.62016" lon="4.8718">
        <ele>198</ele>
        <time>2009-08-16T07:28:57Z</time>
      </trkpt>
      <trkpt lat="45.62001" lon="4.87172">
        <ele>199</ele>
        <time>2009-08-16T07:29:02Z</time>
      </trkpt>
      <trkpt lat="45.6199" lon="4.87165">
        <ele>199</ele>
        <time>2009-08-16T07:29:06Z</time>
      </trkpt>
      <trkpt lat="45.61978" lon="4.87152">
        <ele>199</ele>
        <time>2009-08-16T07:29:11Z</time>
      </trkpt>
      <trkpt lat="45.61969" lon="4.87143">
        <ele>199</ele>
        <time>2009-08-16T07:29:15Z</time>
      </trkpt>
      <trkpt lat="45.61961" lon="4.87134">
        <ele>199</ele>
        <time>2009-08-16T07:29:19Z</time>
      </trkpt>
      <trkpt lat="45.61952" lon="4.87125">
        <ele>200</ele>
        <time>2009-08-16T07:29:23Z</time>
      </trkpt>
      <trkpt lat="45.61943" lon="4.87117">
        <ele>200</ele>
        <time>2009-08-16T07:29:27Z</time>
      </trkpt>
      <trkpt lat="45.61931" lon="4.87108">
        <ele>200</ele>
        <time>2009-08-16T07:29:32Z</time>
      </trkpt>
      <trkpt lat="45.61922" lon="4.871">
        <ele>200</ele>
        <time>2009-08-16T07:29:36Z</time>
      </trkpt>
      <trkpt lat="45.61912" lon="4.87091">
        <ele>201</ele>
        <time>2009-08-16T07:29:40Z</time>
      </trkpt>
      <trkpt lat="45.61902" lon="4.87081">
        <ele>201</ele>
        <time>2009-08-16T07:29:44Z</time>
      </trkpt>
      <trkpt lat="45.61889" lon="4.87069">
        <ele>201</ele>
        <time>2009-08-16T07:29:49Z</time>
      </trkpt>
      <trkpt lat="45.61877" lon="4.8706">
        <ele>202</ele>
        <time>2009-08-16T07:29:53Z</time>
      </trkpt>
      <trkpt lat="45.61863" lon="4.87053">
        <ele>202</ele>
        <time>2009-08-16T07:29:58Z</time>
      </trkpt>
      <trkpt lat="45.61851" lon="4.87048">
        <ele>202</ele>
        <time>2009-08-16T07:30:02Z</time>
      </trkpt>
      <trkpt lat="45.61837" lon="4.87043">
        <ele>202</ele>
        <time>2009-08-16T07:30:07Z</time>
      </trkpt>
      <trkpt lat="45.61825" lon="4.87041">
        <ele>204</ele>
        <time>2009-08-16T07:30:11Z</time>
      </trkpt>
      <trkpt lat="45.6181" lon="4.87038">
        <ele>205</ele>
        <time>2009-08-16T07:30:16Z</time>
      </trkpt>
      <trkpt lat="45.61798" lon="4.87037">
        <ele>205</ele>
        <time>2009-08-16T07:30:20Z</time>
      </trkpt>
      <trkpt lat="45.61786" lon="4.87034">
        <ele>205</ele>
        <time>2009-08-16T07:30:24Z</time>
      </trkpt>
      <trkpt lat="45.61775" lon="4.87032">
        <ele>205</ele>
        <time>2009-08-16T07:30:28Z</time>
      </trkpt>
      <trkpt lat="45.61763" lon="4.8703">
        <ele>205</ele>
        <time>2009-08-16T07:30:32Z</time>
      </trkpt>
      <trkpt lat="45.61747" lon="4.87027">
        <ele>207</ele>
        <time>2009-08-16T07:30:37Z</time>
      </trkpt>
      <trkpt lat="45.61734" lon="4.87025">
        <ele>207</ele>
        <time>2009-08-16T07:30:41Z</time>
      </trkpt>
      <trkpt lat="45.61721" lon="4.87023">
        <ele>207</ele>
        <time>2009-08-16T07:30:45Z</time>
      </trkpt>
      <trkpt lat="45.6171" lon="4.87023">
        <ele>207</ele>
        <time>2009-08-16T07:30:49Z</time>
      </trkpt>
      <trkpt lat="45.61698" lon="4.87022">
        <ele>208</ele>
        <time>2009-08-16T07:30:53Z</time>
      </trkpt>
      <trkpt lat="45.61686" lon="4.87023">
        <ele>208</ele>
        <time>2009-08-16T07:30:57Z</time>
      </trkpt>
      <trkpt lat="45.6167" lon="4.87025">
        <ele>208</ele>
        <time>2009-08-16T07:31:02Z</time>
      </trkpt>
      <trkpt lat="45.61658" lon="4.87026">
        <ele>210</ele>
        <time>2009-08-16T07:31:06Z</time>
      </trkpt>
      <trkpt lat="45.61645" lon="4.87027">
        <ele>210</ele>
        <time>2009-08-16T07:31:10Z</time>
      </trkpt>
      <trkpt lat="45.61632" lon="4.87027">
        <ele>210</ele>
        <time>2009-08-16T07:31:14Z</time>
      </trkpt>
      <trkpt lat="45.6162" lon="4.87029">
        <ele>210</ele>
        <time>2009-08-16T07:31:18Z</time>
      </trkpt>
      <trkpt lat="45.61608" lon="4.87032">
        <ele>210</ele>
        <time>2009-08-16T07:31:22Z</time>
      </trkpt>
      <trkpt lat="45.61596" lon="4.87033">
        <ele>210</ele>
        <time>2009-08-16T07:31:26Z</time>
      </trkpt>
      <trkpt lat="45.61579" lon="4.87035">
        <ele>212</ele>
        <time>2009-08-16T07:31:31Z</time>
      </trkpt>
      <trkpt lat="45.61566" lon="4.87035">
        <ele>212</ele>
        <time>2009-08-16T07:31:35Z</time>
      </trkpt>
      <trkpt lat="45.61554" lon="4.87035">
        <ele>212</ele>
        <time>2009-08-16T07:31:39Z</time>
      </trkpt>
      <trkpt lat="45.61538" lon="4.87037">
        <ele>213</ele>
        <time>2009-08-16T07:31:44Z</time>
      </trkpt>
      <trkpt lat="45.61525" lon="4.87038">
        <ele>213</ele>
        <time>2009-08-16T07:31:48Z</time>
      </trkpt>
      <trkpt lat="45.61513" lon="4.8704">
        <ele>213</ele>
        <time>2009-08-16T07:31:52Z</time>
      </trkpt>
      <trkpt lat="45.61498" lon="4.87041">
        <ele>214</ele>
        <time>2009-08-16T07:31:57Z</time>
      </trkpt>
      <trkpt lat="45.61482" lon="4.87043">
        <ele>214</ele>
        <time>2009-08-16T07:32:02Z</time>
      </trkpt>
      <trkpt lat="45.61468" lon="4.87043">
        <ele>214</ele>
        <time>2009-08-16T07:32:06Z</time>
      </trkpt>
      <trkpt lat="45.61452" lon="4.87043">
        <ele>213</ele>
        <time>2009-08-16T07:32:11Z</time>
      </trkpt>
      <trkpt lat="45.61438" lon="4.87037">
        <ele>213</ele>
        <time>2009-08-16T07:32:15Z</time>
      </trkpt>
      <trkpt lat="45.61414" lon="4.87019">
        <ele>212</ele>
        <time>2009-08-16T07:32:20Z</time>
      </trkpt>
      <trkpt lat="45.61391" lon="4.87002">
        <ele>212</ele>
        <time>2009-08-16T07:32:24Z</time>
      </trkpt>
      <trkpt lat="45.61368" lon="4.86995">
        <ele>210</ele>
        <time>2009-08-16T07:32:28Z</time>
      </trkpt>
      <trkpt lat="45.61344" lon="4.86994">
        <ele>210</ele>
        <time>2009-08-16T07:32:33Z</time>
      </trkpt>
      <trkpt lat="45.61322" lon="4.86999">
        <ele>210</ele>
        <time>2009-08-16T07:32:38Z</time>
      </trkpt>
      <trkpt lat="45.61301" lon="4.8701">
        <ele>212</ele>
        <time>2009-08-16T07:32:43Z</time>
      </trkpt>
      <trkpt lat="45.61283" lon="4.8702">
        <ele>212</ele>
        <time>2009-08-16T07:32:48Z</time>
      </trkpt>
      <trkpt lat="45.61269" lon="4.87027">
        <ele>212</ele>
        <time>2009-08-16T07:32:52Z</time>
      </trkpt>
      <trkpt lat="45.61248" lon="4.87037">
        <ele>213</ele>
        <time>2009-08-16T07:32:57Z</time>
      </trkpt>
      <trkpt lat="45.61234" lon="4.87045">
        <ele>213</ele>
        <time>2009-08-16T07:33:01Z</time>
      </trkpt>
      <trkpt lat="45.61219" lon="4.87052">
        <ele>213</ele>
        <time>2009-08-16T07:33:05Z</time>
      </trkpt>
      <trkpt lat="45.61206" lon="4.87059">
        <ele>214</ele>
        <time>2009-08-16T07:33:09Z</time>
      </trkpt>
      <trkpt lat="45.61192" lon="4.87067">
        <ele>214</ele>
        <time>2009-08-16T07:33:13Z</time>
      </trkpt>
      <trkpt lat="45.61173" lon="4.87076">
        <ele>215</ele>
        <time>2009-08-16T07:33:18Z</time>
      </trkpt>
      <trkpt lat="45.61159" lon="4.87084">
        <ele>216</ele>
        <time>2009-08-16T07:33:22Z</time>
      </trkpt>
      <trkpt lat="45.61142" lon="4.87091">
        <ele>216</ele>
        <time>2009-08-16T07:33:26Z</time>
      </trkpt>
      <trkpt lat="45.61123" lon="4.87102">
        <ele>216</ele>
        <time>2009-08-16T07:33:31Z</time>
      </trkpt>
      <trkpt lat="45.61106" lon="4.87112">
        <ele>216</ele>
        <time>2009-08-16T07:33:35Z</time>
      </trkpt>
      <trkpt lat="45.6109" lon="4.87124">
        <ele>216</ele>
        <time>2009-08-16T07:33:39Z</time>
      </trkpt>
      <trkpt lat="45.61068" lon="4.87145">
        <ele>217</ele>
        <time>2009-08-16T07:33:44Z</time>
      </trkpt>
      <trkpt lat="45.61042" lon="4.87166">
        <ele>218</ele>
        <time>2009-08-16T07:33:49Z</time>
      </trkpt>
      <trkpt lat="45.61014" lon="4.87146">
        <ele>218</ele>
        <time>2009-08-16T07:33:54Z</time>
      </trkpt>
      <trkpt lat="45.60991" lon="4.8713">
        <ele>219</ele>
        <time>2009-08-16T07:33:59Z</time>
      </trkpt>
      <trkpt lat="45.60976" lon="4.87121">
        <ele>219</ele>
        <time>2009-08-16T07:34:04Z</time>
      </trkpt>
      <trkpt lat="45.60975" lon="4.8712">
        <ele>219</ele>
        <time>2009-08-16T07:34:11Z</time>
      </trkpt>
      <trkpt lat="45.60973" lon="4.8712">
        <ele>219</ele>
        <time>2009-08-16T07:34:16Z</time>
      </trkpt>
      <trkpt lat="45.60967" lon="4.87118">
        <ele>219</ele>
        <time>2009-08-16T07:34:20Z</time>
      </trkpt>
      <trkpt lat="45.60959" lon="4.87115">
        <ele>219</ele>
        <time>2009-08-16T07:34:24Z</time>
      </trkpt>
      <trkpt lat="45.60949" lon="4.87111">
        <ele>219</ele>
        <time>2009-08-16T07:34:28Z</time>
      </trkpt>
      <trkpt lat="45.60941" lon="4.87108">
        <ele>219</ele>
        <time>2009-08-16T07:34:32Z</time>
      </trkpt>
      <trkpt lat="45.60931" lon="4.87103">
        <ele>219</ele>
        <time>2009-08-16T07:34:36Z</time>
      </trkpt>
      <trkpt lat="45.60918" lon="4.87097">
        <ele>219</ele>
        <time>2009-08-16T07:34:41Z</time>
      </trkpt>
      <trkpt lat="45.60906" lon="4.87091">
        <ele>220</ele>
        <time>2009-08-16T07:34:45Z</time>
      </trkpt>
      <trkpt lat="45.60892" lon="4.87081">
        <ele>219</ele>
        <time>2009-08-16T07:34:50Z</time>
      </trkpt>
      <trkpt lat="45.60881" lon="4.8707">
        <ele>219</ele>
        <time>2009-08-16T07:34:54Z</time>
      </trkpt>
      <trkpt lat="45.60871" lon="4.87056">
        <ele>219</ele>
        <time>2009-08-16T07:34:58Z</time>
      </trkpt>
      <trkpt lat="45.60862" lon="4.87037">
        <ele>219</ele>
        <time>2009-08-16T07:35:02Z</time>
      </trkpt>
      <trkpt lat="45.60855" lon="4.87008">
        <ele>219</ele>
        <time>2009-08-16T07:35:07Z</time>
      </trkpt>
      <trkpt lat="45.6085" lon="4.86982">
        <ele>218</ele>
        <time>2009-08-16T07:35:11Z</time>
      </trkpt>
      <trkpt lat="45.60845" lon="4.86957">
        <ele>217</ele>
        <time>2009-08-16T07:35:15Z</time>
      </trkpt>
      <trkpt lat="45.6084" lon="4.86932">
        <ele>217</ele>
        <time>2009-08-16T07:35:19Z</time>
      </trkpt>
      <trkpt lat="45.60835" lon="4.86908">
        <ele>218</ele>
        <time>2009-08-16T07:35:23Z</time>
      </trkpt>
      <trkpt lat="45.60831" lon="4.86885">
        <ele>220</ele>
        <time>2009-08-16T07:35:27Z</time>
      </trkpt>
      <trkpt lat="45.60827" lon="4.86859">
        <ele>220</ele>
        <time>2009-08-16T07:35:32Z</time>
      </trkpt>
      <trkpt lat="45.60822" lon="4.86832">
        <ele>221</ele>
        <time>2009-08-16T07:35:37Z</time>
      </trkpt>
      <trkpt lat="45.60819" lon="4.86804">
        <ele>221</ele>
        <time>2009-08-16T07:35:42Z</time>
      </trkpt>
      <trkpt lat="45.60817" lon="4.86776">
        <ele>221</ele>
        <time>2009-08-16T07:35:47Z</time>
      </trkpt>
      <trkpt lat="45.60815" lon="4.86754">
        <ele>221</ele>
        <time>2009-08-16T07:35:51Z</time>
      </trkpt>
      <trkpt lat="45.60814" lon="4.86731">
        <ele>222</ele>
        <time>2009-08-16T07:35:55Z</time>
      </trkpt>
      <trkpt lat="45.60812" lon="4.86709">
        <ele>222</ele>
        <time>2009-08-16T07:35:59Z</time>
      </trkpt>
      <trkpt lat="45.6081" lon="4.86685">
        <ele>222</ele>
        <time>2009-08-16T07:36:03Z</time>
      </trkpt>
      <trkpt lat="45.60809" lon="4.86663">
        <ele>222</ele>
        <time>2009-08-16T07:36:07Z</time>
      </trkpt>
      <trkpt lat="45.60808" lon="4.86636">
        <ele>223</ele>
        <time>2009-08-16T07:36:12Z</time>
      </trkpt>
      <trkpt lat="45.60807" lon="4.86615">
        <ele>223</ele>
        <time>2009-08-16T07:36:16Z</time>
      </trkpt>
      <trkpt lat="45.60806" lon="4.86587">
        <ele>223</ele>
        <time>2009-08-16T07:36:21Z</time>
      </trkpt>
      <trkpt lat="45.60804" lon="4.86566">
        <ele>223</ele>
        <time>2009-08-16T07:36:25Z</time>
      </trkpt>
      <trkpt lat="45.60803" lon="4.86545">
        <ele>223</ele>
        <time>2009-08-16T07:36:29Z</time>
      </trkpt>
      <trkpt lat="45.60802" lon="4.86524">
        <ele>224</ele>
        <time>2009-08-16T07:36:33Z</time>
      </trkpt>
      <trkpt lat="45.60801" lon="4.86502">
        <ele>224</ele>
        <time>2009-08-16T07:36:37Z</time>
      </trkpt>
      <trkpt lat="45.608" lon="4.86479">
        <ele>224</ele>
        <time>2009-08-16T07:36:41Z</time>
      </trkpt>
      <trkpt lat="45.60799" lon="4.86455">
        <ele>224</ele>
        <time>2009-08-16T07:36:45Z</time>
      </trkpt>
      <trkpt lat="45.60798" lon="4.86431">
        <ele>224</ele>
        <time>2009-08-16T07:36:49Z</time>
      </trkpt>
      <trkpt lat="45.60797" lon="4.86406">
        <ele>225</ele>
        <time>2009-08-16T07:36:53Z</time>
      </trkpt>
      <trkpt lat="45.60796" lon="4.86374">
        <ele>225</ele>
        <time>2009-08-16T07:36:58Z</time>
      </trkpt>
      <trkpt lat="45.60796" lon="4.86351">
        <ele>225</ele>
        <time>2009-08-16T07:37:02Z</time>
      </trkpt>
      <trkpt lat="45.60795" lon="4.86329">
        <ele>224</ele>
        <time>2009-08-16T07:37:06Z</time>
      </trkpt>
      <trkpt lat="45.60796" lon="4.86305">
        <ele>224</ele>
        <time>2009-08-16T07:37:10Z</time>
      </trkpt>
      <trkpt lat="45.60795" lon="4.86281">
        <ele>224</ele>
        <time>2009-08-16T07:37:14Z</time>
      </trkpt>
      <trkpt lat="45.60794" lon="4.86255">
        <ele>224</ele>
        <time>2009-08-16T07:37:18Z</time>
      </trkpt>
      <trkpt lat="45.60794" lon="4.86229">
        <ele>222</ele>
        <time>2009-08-16T07:37:22Z</time>
      </trkpt>
      <trkpt lat="45.60794" lon="4.86203">
        <ele>222</ele>
        <time>2009-08-16T07:37:26Z</time>
      </trkpt>
      <trkpt lat="45.60795" lon="4.86177">
        <ele>222</ele>
        <time>2009-08-16T07:37:30Z</time>
      </trkpt>
      <trkpt lat="45.60793" lon="4.86148">
        <ele>221</ele>
        <time>2009-08-16T07:37:34Z</time>
      </trkpt>
      <trkpt lat="45.60788" lon="4.86118">
        <ele>222</ele>
        <time>2009-08-16T07:37:38Z</time>
      </trkpt>
      <trkpt lat="45.60781" lon="4.86086">
        <ele>222</ele>
        <time>2009-08-16T07:37:42Z</time>
      </trkpt>
      <trkpt lat="45.60766" lon="4.86043">
        <ele>221</ele>
        <time>2009-08-16T07:37:47Z</time>
      </trkpt>
      <trkpt lat="45.60748" lon="4.86012">
        <ele>222</ele>
        <time>2009-08-16T07:37:51Z</time>
      </trkpt>
      <trkpt lat="45.60726" lon="4.8598">
        <ele>221</ele>
        <time>2009-08-16T07:37:55Z</time>
      </trkpt>
      <trkpt lat="45.60704" lon="4.85946">
        <ele>220</ele>
        <time>2009-08-16T07:37:59Z</time>
      </trkpt>
      <trkpt lat="45.60686" lon="4.85907">
        <ele>219</ele>
        <time>2009-08-16T07:38:03Z</time>
      </trkpt>
      <trkpt lat="45.60673" lon="4.85868">
        <ele>219</ele>
        <time>2009-08-16T07:38:07Z</time>
      </trkpt>
      <trkpt lat="45.60665" lon="4.85828">
        <ele>218</ele>
        <time>2009-08-16T07:38:11Z</time>
      </trkpt>
      <trkpt lat="45.60659" lon="4.85791">
        <ele>217</ele>
        <time>2009-08-16T07:38:15Z</time>
      </trkpt>
      <trkpt lat="45.60641" lon="4.85777">
        <ele>217</ele>
        <time>2009-08-16T07:38:19Z</time>
      </trkpt>
      <trkpt lat="45.60621" lon="4.85776">
        <ele>218</ele>
        <time>2009-08-16T07:38:23Z</time>
      </trkpt>
      <trkpt lat="45.606" lon="4.85773">
        <ele>218</ele>
        <time>2009-08-16T07:38:27Z</time>
      </trkpt>
      <trkpt lat="45.60578" lon="4.85771">
        <ele>219</ele>
        <time>2009-08-16T07:38:31Z</time>
      </trkpt>
      <trkpt lat="45.60558" lon="4.85767">
        <ele>219</ele>
        <time>2009-08-16T07:38:35Z</time>
      </trkpt>
      <trkpt lat="45.60537" lon="4.85762">
        <ele>219</ele>
        <time>2009-08-16T07:38:39Z</time>
      </trkpt>
      <trkpt lat="45.60517" lon="4.85757">
        <ele>219</ele>
        <time>2009-08-16T07:38:43Z</time>
      </trkpt>
      <trkpt lat="45.60496" lon="4.8575">
        <ele>219</ele>
        <time>2009-08-16T07:38:47Z</time>
      </trkpt>
      <trkpt lat="45.60477" lon="4.85743">
        <ele>218</ele>
        <time>2009-08-16T07:38:51Z</time>
      </trkpt>
      <trkpt lat="45.60458" lon="4.85736">
        <ele>218</ele>
        <time>2009-08-16T07:38:55Z</time>
      </trkpt>
      <trkpt lat="45.60442" lon="4.85728">
        <ele>218</ele>
        <time>2009-08-16T07:38:59Z</time>
      </trkpt>
      <trkpt lat="45.60427" lon="4.85721">
        <ele>218</ele>
        <time>2009-08-16T07:39:03Z</time>
      </trkpt>
      <trkpt lat="45.60412" lon="4.85713">
        <ele>219</ele>
        <time>2009-08-16T07:39:07Z</time>
      </trkpt>
      <trkpt lat="45.60398" lon="4.85704">
        <ele>219</ele>
        <time>2009-08-16T07:39:11Z</time>
      </trkpt>
      <trkpt lat="45.60383" lon="4.85694">
        <ele>219</ele>
        <time>2009-08-16T07:39:15Z</time>
      </trkpt>
      <trkpt lat="45.60367" lon="4.8568">
        <ele>219</ele>
        <time>2009-08-16T07:39:19Z</time>
      </trkpt>
      <trkpt lat="45.60354" lon="4.85665">
        <ele>218</ele>
        <time>2009-08-16T07:39:23Z</time>
      </trkpt>
      <trkpt lat="45.60342" lon="4.85648">
        <ele>218</ele>
        <time>2009-08-16T07:39:27Z</time>
      </trkpt>
      <trkpt lat="45.60331" lon="4.85629">
        <ele>220</ele>
        <time>2009-08-16T07:39:31Z</time>
      </trkpt>
      <trkpt lat="45.6032" lon="4.8561">
        <ele>219</ele>
        <time>2009-08-16T07:39:35Z</time>
      </trkpt>
      <trkpt lat="45.60308" lon="4.85591">
        <ele>219</ele>
        <time>2009-08-16T07:39:39Z</time>
      </trkpt>
      <trkpt lat="45.60296" lon="4.85571">
        <ele>218</ele>
        <time>2009-08-16T07:39:43Z</time>
      </trkpt>
      <trkpt lat="45.60282" lon="4.85552">
        <ele>218</ele>
        <time>2009-08-16T07:39:47Z</time>
      </trkpt>
      <trkpt lat="45.60267" lon="4.85531">
        <ele>218</ele>
        <time>2009-08-16T07:39:51Z</time>
      </trkpt>
      <trkpt lat="45.60252" lon="4.85508">
        <ele>218</ele>
        <time>2009-08-16T07:39:55Z</time>
      </trkpt>
      <trkpt lat="45.60238" lon="4.85488">
        <ele>219</ele>
        <time>2009-08-16T07:39:59Z</time>
      </trkpt>
      <trkpt lat="45.60223" lon="4.85471">
        <ele>220</ele>
        <time>2009-08-16T07:40:03Z</time>
      </trkpt>
      <trkpt lat="45.6021" lon="4.85455">
        <ele>220</ele>
        <time>2009-08-16T07:40:07Z</time>
      </trkpt>
      <trkpt lat="45.60197" lon="4.85438">
        <ele>220</ele>
        <time>2009-08-16T07:40:11Z</time>
      </trkpt>
      <trkpt lat="45.60184" lon="4.85419">
        <ele>221</ele>
        <time>2009-08-16T07:40:15Z</time>
      </trkpt>
      <trkpt lat="45.6017" lon="4.85399">
        <ele>220</ele>
        <time>2009-08-16T07:40:19Z</time>
      </trkpt>
      <trkpt lat="45.60158" lon="4.85383">
        <ele>221</ele>
        <time>2009-08-16T07:40:23Z</time>
      </trkpt>
      <trkpt lat="45.60152" lon="4.85374">
        <ele>221</ele>
        <time>2009-08-16T07:40:27Z</time>
      </trkpt>
      <trkpt lat="45.60151" lon="4.85367">
        <ele>221</ele>
        <time>2009-08-16T07:40:33Z</time>
      </trkpt>
      <trkpt lat="45.6015" lon="4.85365">
        <ele>221</ele>
        <time>2009-08-16T07:40:39Z</time>
      </trkpt>
      <trkpt lat="45.60145" lon="4.85354">
        <ele>221</ele>
        <time>2009-08-16T07:40:43Z</time>
      </trkpt>
      <trkpt lat="45.60129" lon="4.85349">
        <ele>221</ele>
        <time>2009-08-16T07:40:47Z</time>
      </trkpt>
      <trkpt lat="45.60112" lon="4.85344">
        <ele>221</ele>
        <time>2009-08-16T07:40:51Z</time>
      </trkpt>
      <trkpt lat="45.60095" lon="4.85337">
        <ele>222</ele>
        <time>2009-08-16T07:40:55Z</time>
      </trkpt>
      <trkpt lat="45.60077" lon="4.85327">
        <ele>222</ele>
        <time>2009-08-16T07:40:59Z</time>
      </trkpt>
      <trkpt lat="45.60059" lon="4.85316">
        <ele>222</ele>
        <time>2009-08-16T07:41:03Z</time>
      </trkpt>
      <trkpt lat="45.60043" lon="4.85302">
        <ele>222</ele>
        <time>2009-08-16T07:41:07Z</time>
      </trkpt>
      <trkpt lat="45.60028" lon="4.85288">
        <ele>222</ele>
        <time>2009-08-16T07:41:11Z</time>
      </trkpt>
      <trkpt lat="45.60013" lon="4.85273">
        <ele>223</ele>
        <time>2009-08-16T07:41:15Z</time>
      </trkpt>
      <trkpt lat="45.6" lon="4.85257">
        <ele>224</ele>
        <time>2009-08-16T07:41:19Z</time>
      </trkpt>
      <trkpt lat="45.59987" lon="4.85242">
        <ele>223</ele>
        <time>2009-08-16T07:41:23Z</time>
      </trkpt>
      <trkpt lat="45.59973" lon="4.85232">
        <ele>224</ele>
        <time>2009-08-16T07:41:27Z</time>
      </trkpt>
      <trkpt lat="45.59962" lon="4.85224">
        <ele>224</ele>
        <time>2009-08-16T07:41:31Z</time>
      </trkpt>
      <trkpt lat="45.59956" lon="4.85208">
        <ele>224</ele>
        <time>2009-08-16T07:41:35Z</time>
      </trkpt>
      <trkpt lat="45.59949" lon="4.85194">
        <ele>224</ele>
        <time>2009-08-16T07:41:39Z</time>
      </trkpt>
      <trkpt lat="45.59935" lon="4.85189">
        <ele>224</ele>
        <time>2009-08-16T07:41:43Z</time>
      </trkpt>
      <trkpt lat="45.59921" lon="4.85199">
        <ele>224</ele>
        <time>2009-08-16T07:41:47Z</time>
      </trkpt>
      <trkpt lat="45.59909" lon="4.85218">
        <ele>226</ele>
        <time>2009-08-16T07:41:51Z</time>
      </trkpt>
      <trkpt lat="45.59889" lon="4.85229">
        <ele>227</ele>
        <time>2009-08-16T07:41:55Z</time>
      </trkpt>
      <trkpt lat="45.59867" lon="4.85234">
        <ele>227</ele>
        <time>2009-08-16T07:41:59Z</time>
      </trkpt>
      <trkpt lat="45.59849" lon="4.85236">
        <ele>228</ele>
        <time>2009-08-16T07:42:03Z</time>
      </trkpt>
      <trkpt lat="45.59835" lon="4.85238">
        <ele>228</ele>
        <time>2009-08-16T07:42:07Z</time>
      </trkpt>
      <trkpt lat="45.59821" lon="4.85241">
        <ele>230</ele>
        <time>2009-08-16T07:42:11Z</time>
      </trkpt>
      <trkpt lat="45.59805" lon="4.85245">
        <ele>230</ele>
        <time>2009-08-16T07:42:15Z</time>
      </trkpt>
      <trkpt lat="45.59791" lon="4.85248">
        <ele>231</ele>
        <time>2009-08-16T07:42:19Z</time>
      </trkpt>
      <trkpt lat="45.59777" lon="4.85251">
        <ele>233</ele>
        <time>2009-08-16T07:42:23Z</time>
      </trkpt>
      <trkpt lat="45.59766" lon="4.85256">
        <ele>233</ele>
        <time>2009-08-16T07:42:27Z</time>
      </trkpt>
      <trkpt lat="45.59749" lon="4.85262">
        <ele>235</ele>
        <time>2009-08-16T07:42:32Z</time>
      </trkpt>
      <trkpt lat="45.59731" lon="4.85271">
        <ele>236</ele>
        <time>2009-08-16T07:42:36Z</time>
      </trkpt>
      <trkpt lat="45.59719" lon="4.85268">
        <ele>237</ele>
        <time>2009-08-16T07:42:40Z</time>
      </trkpt>
      <trkpt lat="45.59702" lon="4.85272">
        <ele>237</ele>
        <time>2009-08-16T07:42:44Z</time>
      </trkpt>
      <trkpt lat="45.59687" lon="4.85273">
        <ele>237</ele>
        <time>2009-08-16T07:42:48Z</time>
      </trkpt>
      <trkpt lat="45.59673" lon="4.85277">
        <ele>238</ele>
        <time>2009-08-16T07:42:52Z</time>
      </trkpt>
      <trkpt lat="45.59658" lon="4.85279">
        <ele>240</ele>
        <time>2009-08-16T07:42:56Z</time>
      </trkpt>
      <trkpt lat="45.59646" lon="4.85283">
        <ele>240</ele>
        <time>2009-08-16T07:43:00Z</time>
      </trkpt>
      <trkpt lat="45.59634" lon="4.85287">
        <ele>240</ele>
        <time>2009-08-16T07:43:04Z</time>
      </trkpt>
      <trkpt lat="45.59621" lon="4.85291">
        <ele>241</ele>
        <time>2009-08-16T07:43:08Z</time>
      </trkpt>
      <trkpt lat="45.59609" lon="4.85296">
        <ele>241</ele>
        <time>2009-08-16T07:43:12Z</time>
      </trkpt>
      <trkpt lat="45.59596" lon="4.85301">
        <ele>241</ele>
        <time>2009-08-16T07:43:16Z</time>
      </trkpt>
      <trkpt lat="45.59588" lon="4.85304">
        <ele>241</ele>
        <time>2009-08-16T07:43:20Z</time>
      </trkpt>
      <trkpt lat="45.59577" lon="4.85309">
        <ele>243</ele>
        <time>2009-08-16T07:43:24Z</time>
      </trkpt>
      <trkpt lat="45.59567" lon="4.85314">
        <ele>243</ele>
        <time>2009-08-16T07:43:28Z</time>
      </trkpt>
      <trkpt lat="45.59555" lon="4.85319">
        <ele>243</ele>
        <time>2009-08-16T07:43:32Z</time>
      </trkpt>
      <trkpt lat="45.59542" lon="4.85326">
        <ele>244</ele>
        <time>2009-08-16T07:43:37Z</time>
      </trkpt>
      <trkpt lat="45.59532" lon="4.85331">
        <ele>244</ele>
        <time>2009-08-16T07:43:41Z</time>
      </trkpt>
      <trkpt lat="45.5952" lon="4.85338">
        <ele>248</ele>
        <time>2009-08-16T07:43:45Z</time>
      </trkpt>
      <trkpt lat="45.59508" lon="4.85345">
        <ele>248</ele>
        <time>2009-08-16T07:43:49Z</time>
      </trkpt>
      <trkpt lat="45.59495" lon="4.85351">
        <ele>247</ele>
        <time>2009-08-16T07:43:53Z</time>
      </trkpt>
      <trkpt lat="45.59484" lon="4.85357">
        <ele>248</ele>
        <time>2009-08-16T07:43:57Z</time>
      </trkpt>
      <trkpt lat="45.59472" lon="4.85364">
        <ele>248</ele>
        <time>2009-08-16T07:44:01Z</time>
      </trkpt>
      <trkpt lat="45.59459" lon="4.85373">
        <ele>248</ele>
        <time>2009-08-16T07:44:05Z</time>
      </trkpt>
      <trkpt lat="45.59447" lon="4.85383">
        <ele>248</ele>
        <time>2009-08-16T07:44:09Z</time>
      </trkpt>
      <trkpt lat="45.59435" lon="4.85393">
        <ele>248</ele>
        <time>2009-08-16T07:44:13Z</time>
      </trkpt>
      <trkpt lat="45.59423" lon="4.85402">
        <ele>248</ele>
        <time>2009-08-16T07:44:17Z</time>
      </trkpt>
      <trkpt lat="45.5941" lon="4.85414">
        <ele>247</ele>
        <time>2009-08-16T07:44:21Z</time>
      </trkpt>
      <trkpt lat="45.59398" lon="4.85427">
        <ele>249</ele>
        <time>2009-08-16T07:44:25Z</time>
      </trkpt>
      <trkpt lat="45.59385" lon="4.85441">
        <ele>250</ele>
        <time>2009-08-16T07:44:29Z</time>
      </trkpt>
      <trkpt lat="45.59372" lon="4.85457">
        <ele>251</ele>
        <time>2009-08-16T07:44:33Z</time>
      </trkpt>
      <trkpt lat="45.5936" lon="4.85473">
        <ele>251</ele>
        <time>2009-08-16T07:44:37Z</time>
      </trkpt>
      <trkpt lat="45.59349" lon="4.8549">
        <ele>252</ele>
        <time>2009-08-16T07:44:41Z</time>
      </trkpt>
      <trkpt lat="45.59336" lon="4.85512">
        <ele>255</ele>
        <time>2009-08-16T07:44:45Z</time>
      </trkpt>
      <trkpt lat="45.59322" lon="4.85535">
        <ele>259</ele>
        <time>2009-08-16T07:44:49Z</time>
      </trkpt>
      <trkpt lat="45.5931" lon="4.85558">
        <ele>260</ele>
        <time>2009-08-16T07:44:53Z</time>
      </trkpt>
      <trkpt lat="45.59295" lon="4.85589">
        <ele>262</ele>
        <time>2009-08-16T07:44:58Z</time>
      </trkpt>
      <trkpt lat="45.59286" lon="4.85612">
        <ele>263</ele>
        <time>2009-08-16T07:45:02Z</time>
      </trkpt>
      <trkpt lat="45.59275" lon="4.85636">
        <ele>263</ele>
        <time>2009-08-16T07:45:07Z</time>
      </trkpt>
      <trkpt lat="45.59268" lon="4.85663">
        <ele>263</ele>
        <time>2009-08-16T07:45:11Z</time>
      </trkpt>
      <trkpt lat="45.5926" lon="4.8569">
        <ele>264</ele>
        <time>2009-08-16T07:45:15Z</time>
      </trkpt>
      <trkpt lat="45.59253" lon="4.85715">
        <ele>264</ele>
        <time>2009-08-16T07:45:19Z</time>
      </trkpt>
      <trkpt lat="45.59245" lon="4.85739">
        <ele>263</ele>
        <time>2009-08-16T07:45:23Z</time>
      </trkpt>
      <trkpt lat="45.59235" lon="4.85763">
        <ele>263</ele>
        <time>2009-08-16T07:45:27Z</time>
      </trkpt>
      <trkpt lat="45.59227" lon="4.85786">
        <ele>264</ele>
        <time>2009-08-16T07:45:31Z</time>
      </trkpt>
      <trkpt lat="45.59218" lon="4.85807">
        <ele>265</ele>
        <time>2009-08-16T07:45:35Z</time>
      </trkpt>
      <trkpt lat="45.59207" lon="4.85828">
        <ele>265</ele>
        <time>2009-08-16T07:45:39Z</time>
      </trkpt>
      <trkpt lat="45.59196" lon="4.85848">
        <ele>265</ele>
        <time>2009-08-16T07:45:43Z</time>
      </trkpt>
      <trkpt lat="45.59186" lon="4.85864">
        <ele>264</ele>
        <time>2009-08-16T07:45:47Z</time>
      </trkpt>
      <trkpt lat="45.59178" lon="4.85876">
        <ele>264</ele>
        <time>2009-08-16T07:45:51Z</time>
      </trkpt>
      <trkpt lat="45.59172" lon="4.85885">
        <ele>263</ele>
        <time>2009-08-16T07:45:55Z</time>
      </trkpt>
      <trkpt lat="45.59164" lon="4.85893">
        <ele>265</ele>
        <time>2009-08-16T07:45:59Z</time>
      </trkpt>
      <trkpt lat="45.59155" lon="4.85901">
        <ele>264</ele>
        <time>2009-08-16T07:46:03Z</time>
      </trkpt>
      <trkpt lat="45.59147" lon="4.8591">
        <ele>265</ele>
        <time>2009-08-16T07:46:07Z</time>
      </trkpt>
      <trkpt lat="45.59141" lon="4.85919">
        <ele>262</ele>
        <time>2009-08-16T07:46:11Z</time>
      </trkpt>
      <trkpt lat="45.59135" lon="4.85928">
        <ele>263</ele>
        <time>2009-08-16T07:46:15Z</time>
      </trkpt>
      <trkpt lat="45.59128" lon="4.85937">
        <ele>263</ele>
        <time>2009-08-16T07:46:19Z</time>
      </trkpt>
      <trkpt lat="45.59123" lon="4.85945">
        <ele>263</ele>
        <time>2009-08-16T07:46:23Z</time>
      </trkpt>
      <trkpt lat="45.59117" lon="4.85954">
        <ele>263</ele>
        <time>2009-08-16T07:46:27Z</time>
      </trkpt>
      <trkpt lat="45.59111" lon="4.85964">
        <ele>263</ele>
        <time>2009-08-16T07:46:31Z</time>
      </trkpt>
      <trkpt lat="45.59102" lon="4.85975">
        <ele>263</ele>
        <time>2009-08-16T07:46:35Z</time>
      </trkpt>
      <trkpt lat="45.5909" lon="4.8599">
        <ele>262</ele>
        <time>2009-08-16T07:46:39Z</time>
      </trkpt>
      <trkpt lat="45.59078" lon="4.86003">
        <ele>262</ele>
        <time>2009-08-16T07:46:43Z</time>
      </trkpt>
      <trkpt lat="45.59068" lon="4.86015">
        <ele>264</ele>
        <time>2009-08-16T07:46:47Z</time>
      </trkpt>
      <trkpt lat="45.59058" lon="4.86026">
        <ele>265</ele>
        <time>2009-08-16T07:46:51Z</time>
      </trkpt>
      <trkpt lat="45.59047" lon="4.86038">
        <ele>266</ele>
        <time>2009-08-16T07:46:55Z</time>
      </trkpt>
      <trkpt lat="45.59037" lon="4.86049">
        <ele>266</ele>
        <time>2009-08-16T07:46:59Z</time>
      </trkpt>
      <trkpt lat="45.59027" lon="4.86058">
        <ele>266</ele>
        <time>2009-08-16T07:47:03Z</time>
      </trkpt>
      <trkpt lat="45.59018" lon="4.86067">
        <ele>266</ele>
        <time>2009-08-16T07:47:07Z</time>
      </trkpt>
      <trkpt lat="45.59009" lon="4.86075">
        <ele>265</ele>
        <time>2009-08-16T07:47:11Z</time>
      </trkpt>
      <trkpt lat="45.59001" lon="4.86083">
        <ele>265</ele>
        <time>2009-08-16T07:47:15Z</time>
      </trkpt>
      <trkpt lat="45.58991" lon="4.8609">
        <ele>266</ele>
        <time>2009-08-16T07:47:19Z</time>
      </trkpt>
      <trkpt lat="45.58982" lon="4.86098">
        <ele>266</ele>
        <time>2009-08-16T07:47:23Z</time>
      </trkpt>
      <trkpt lat="45.58973" lon="4.86105">
        <ele>267</ele>
        <time>2009-08-16T07:47:27Z</time>
      </trkpt>
      <trkpt lat="45.58963" lon="4.86111">
        <ele>267</ele>
        <time>2009-08-16T07:47:31Z</time>
      </trkpt>
      <trkpt lat="45.58953" lon="4.86117">
        <ele>267</ele>
        <time>2009-08-16T07:47:35Z</time>
      </trkpt>
      <trkpt lat="45.58943" lon="4.86121">
        <ele>267</ele>
        <time>2009-08-16T07:47:39Z</time>
      </trkpt>
      <trkpt lat="45.58934" lon="4.86126">
        <ele>268</ele>
        <time>2009-08-16T07:47:43Z</time>
      </trkpt>
      <trkpt lat="45.58924" lon="4.8613">
        <ele>267</ele>
        <time>2009-08-16T07:47:47Z</time>
      </trkpt>
      <trkpt lat="45.58913" lon="4.86133">
        <ele>271</ele>
        <time>2009-08-16T07:47:51Z</time>
      </trkpt>
      <trkpt lat="45.58902" lon="4.86135">
        <ele>272</ele>
        <time>2009-08-16T07:47:55Z</time>
      </trkpt>
      <trkpt lat="45.58893" lon="4.86136">
        <ele>272</ele>
        <time>2009-08-16T07:47:59Z</time>
      </trkpt>
      <trkpt lat="45.58885" lon="4.86137">
        <ele>272</ele>
        <time>2009-08-16T07:48:03Z</time>
      </trkpt>
      <trkpt lat="45.58875" lon="4.86138">
        <ele>273</ele>
        <time>2009-08-16T07:48:07Z</time>
      </trkpt>
      <trkpt lat="45.58866" lon="4.86139">
        <ele>273</ele>
        <time>2009-08-16T07:48:11Z</time>
      </trkpt>
      <trkpt lat="45.58858" lon="4.86139">
        <ele>274</ele>
        <time>2009-08-16T07:48:15Z</time>
      </trkpt>
      <trkpt lat="45.5885" lon="4.8614">
        <ele>274</ele>
        <time>2009-08-16T07:48:19Z</time>
      </trkpt>
      <trkpt lat="45.58842" lon="4.8614">
        <ele>274</ele>
        <time>2009-08-16T07:48:23Z</time>
      </trkpt>
      <trkpt lat="45.58835" lon="4.8614">
        <ele>274</ele>
        <time>2009-08-16T07:48:27Z</time>
      </trkpt>
      <trkpt lat="45.58828" lon="4.86141">
        <ele>279</ele>
        <time>2009-08-16T07:48:31Z</time>
      </trkpt>
      <trkpt lat="45.58821" lon="4.86141">
        <ele>279</ele>
        <time>2009-08-16T07:48:35Z</time>
      </trkpt>
      <trkpt lat="45.58813" lon="4.86142">
        <ele>280</ele>
        <time>2009-08-16T07:48:39Z</time>
      </trkpt>
      <trkpt lat="45.58806" lon="4.86143">
        <ele>280</ele>
        <time>2009-08-16T07:48:43Z</time>
      </trkpt>
      <trkpt lat="45.58799" lon="4.86143">
        <ele>281</ele>
        <time>2009-08-16T07:48:47Z</time>
      </trkpt>
      <trkpt lat="45.58791" lon="4.86143">
        <ele>281</ele>
        <time>2009-08-16T07:48:51Z</time>
      </trkpt>
      <trkpt lat="45.58784" lon="4.86144">
        <ele>282</ele>
        <time>2009-08-16T07:48:55Z</time>
      </trkpt>
      <trkpt lat="45.58776" lon="4.86144">
        <ele>282</ele>
        <time>2009-08-16T07:48:59Z</time>
      </trkpt>
      <trkpt lat="45.58769" lon="4.86145">
        <ele>282</ele>
        <time>2009-08-16T07:49:03Z</time>
      </trkpt>
      <trkpt lat="45.58763" lon="4.86145">
        <ele>283</ele>
        <time>2009-08-16T07:49:07Z</time>
      </trkpt>
      <trkpt lat="45.58756" lon="4.86146">
        <ele>283</ele>
        <time>2009-08-16T07:49:11Z</time>
      </trkpt>
      <trkpt lat="45.58749" lon="4.86147">
        <ele>287</ele>
        <time>2009-08-16T07:49:15Z</time>
      </trkpt>
      <trkpt lat="45.58742" lon="4.86147">
        <ele>287</ele>
        <time>2009-08-16T07:49:19Z</time>
      </trkpt>
      <trkpt lat="45.58734" lon="4.86148">
        <ele>287</ele>
        <time>2009-08-16T07:49:23Z</time>
      </trkpt>
      <trkpt lat="45.58726" lon="4.86149">
        <ele>288</ele>
        <time>2009-08-16T07:49:27Z</time>
      </trkpt>
      <trkpt lat="45.58719" lon="4.86149">
        <ele>288</ele>
        <time>2009-08-16T07:49:31Z</time>
      </trkpt>
      <trkpt lat="45.58711" lon="4.86149">
        <ele>289</ele>
        <time>2009-08-16T07:49:35Z</time>
      </trkpt>
      <trkpt lat="45.58705" lon="4.86149">
        <ele>289</ele>
        <time>2009-08-16T07:49:39Z</time>
      </trkpt>
      <trkpt lat="45.58698" lon="4.86149">
        <ele>289</ele>
        <time>2009-08-16T07:49:43Z</time>
      </trkpt>
      <trkpt lat="45.58689" lon="4.8615">
        <ele>289</ele>
        <time>2009-08-16T07:49:47Z</time>
      </trkpt>
      <trkpt lat="45.58679" lon="4.86149">
        <ele>289</ele>
        <time>2009-08-16T07:49:51Z</time>
      </trkpt>
      <trkpt lat="45.58669" lon="4.86147">
        <ele>290</ele>
        <time>2009-08-16T07:49:55Z</time>
      </trkpt>
      <trkpt lat="45.58658" lon="4.86144">
        <ele>293</ele>
        <time>2009-08-16T07:49:59Z</time>
      </trkpt>
      <trkpt lat="45.58648" lon="4.8614">
        <ele>294</ele>
        <time>2009-08-16T07:50:03Z</time>
      </trkpt>
      <trkpt lat="45.58637" lon="4.86135">
        <ele>294</ele>
        <time>2009-08-16T07:50:07Z</time>
      </trkpt>
      <trkpt lat="45.58627" lon="4.86129">
        <ele>295</ele>
        <time>2009-08-16T07:50:11Z</time>
      </trkpt>
      <trkpt lat="45.58618" lon="4.86123">
        <ele>296</ele>
        <time>2009-08-16T07:50:15Z</time>
      </trkpt>
      <trkpt lat="45.58608" lon="4.86117">
        <ele>296</ele>
        <time>2009-08-16T07:50:19Z</time>
      </trkpt>
      <trkpt lat="45.58598" lon="4.86112">
        <ele>297</ele>
        <time>2009-08-16T07:50:23Z</time>
      </trkpt>
      <trkpt lat="45.58587" lon="4.86107">
        <ele>298</ele>
        <time>2009-08-16T07:50:27Z</time>
      </trkpt>
      <trkpt lat="45.58578" lon="4.86102">
        <ele>300</ele>
        <time>2009-08-16T07:50:31Z</time>
      </trkpt>
      <trkpt lat="45.58569" lon="4.86097">
        <ele>300</ele>
        <time>2009-08-16T07:50:35Z</time>
      </trkpt>
      <trkpt lat="45.5856" lon="4.8609">
        <ele>300</ele>
        <time>2009-08-16T07:50:39Z</time>
      </trkpt>
      <trkpt lat="45.58552" lon="4.86084">
        <ele>300</ele>
        <time>2009-08-16T07:50:43Z</time>
      </trkpt>
      <trkpt lat="45.58543" lon="4.86078">
        <ele>302</ele>
        <time>2009-08-16T07:50:47Z</time>
      </trkpt>
      <trkpt lat="45.58533" lon="4.86072">
        <ele>302</ele>
        <time>2009-08-16T07:50:51Z</time>
      </trkpt>
      <trkpt lat="45.58524" lon="4.86066">
        <ele>302</ele>
        <time>2009-08-16T07:50:55Z</time>
      </trkpt>
      <trkpt lat="45.58514" lon="4.8606">
        <ele>302</ele>
        <time>2009-08-16T07:50:59Z</time>
      </trkpt>
      <trkpt lat="45.58505" lon="4.86054">
        <ele>302</ele>
        <time>2009-08-16T07:51:03Z</time>
      </trkpt>
      <trkpt lat="45.58495" lon="4.86049">
        <ele>302</ele>
        <time>2009-08-16T07:51:07Z</time>
      </trkpt>
      <trkpt lat="45.58486" lon="4.86045">
        <ele>302</ele>
        <time>2009-08-16T07:51:11Z</time>
      </trkpt>
      <trkpt lat="45.58476" lon="4.86039">
        <ele>302</ele>
        <time>2009-08-16T07:51:15Z</time>
      </trkpt>
      <trkpt lat="45.58465" lon="4.86033">
        <ele>302</ele>
        <time>2009-08-16T07:51:19Z</time>
      </trkpt>
      <trkpt lat="45.58453" lon="4.86027">
        <ele>302</ele>
        <time>2009-08-16T07:51:23Z</time>
      </trkpt>
      <trkpt lat="45.58439" lon="4.86019">
        <ele>302</ele>
        <time>2009-08-16T07:51:27Z</time>
      </trkpt>
      <trkpt lat="45.58425" lon="4.86012">
        <ele>303</ele>
        <time>2009-08-16T07:51:31Z</time>
      </trkpt>
      <trkpt lat="45.58409" lon="4.86005">
        <ele>302</ele>
        <time>2009-08-16T07:51:35Z</time>
      </trkpt>
      <trkpt lat="45.58393" lon="4.85998">
        <ele>304</ele>
        <time>2009-08-16T07:51:39Z</time>
      </trkpt>
      <trkpt lat="45.58379" lon="4.85991">
        <ele>304</ele>
        <time>2009-08-16T07:51:43Z</time>
      </trkpt>
      <trkpt lat="45.58365" lon="4.85985">
        <ele>304</ele>
        <time>2009-08-16T07:51:47Z</time>
      </trkpt>
      <trkpt lat="45.58349" lon="4.85977">
        <ele>303</ele>
        <time>2009-08-16T07:51:51Z</time>
      </trkpt>
      <trkpt lat="45.58333" lon="4.8597">
        <ele>302</ele>
        <time>2009-08-16T07:51:55Z</time>
      </trkpt>
      <trkpt lat="45.58319" lon="4.85962">
        <ele>302</ele>
        <time>2009-08-16T07:51:59Z</time>
      </trkpt>
      <trkpt lat="45.58313" lon="4.85959">
        <ele>302</ele>
        <time>2009-08-16T07:52:19Z</time>
      </trkpt>
      <trkpt lat="45.58314" lon="4.85959">
        <ele>302</ele>
        <time>2009-08-16T07:52:25Z</time>
      </trkpt>
      <trkpt lat="45.58317" lon="4.85958">
        <ele>302</ele>
        <time>2009-08-16T07:52:33Z</time>
      </trkpt>
      <trkpt lat="45.58318" lon="4.85958">
        <ele>302</ele>
        <time>2009-08-16T07:52:43Z</time>
      </trkpt>
      <trkpt lat="45.58317" lon="4.85961">
        <ele>302</ele>
        <time>2009-08-16T07:52:47Z</time>
      </trkpt>
      <trkpt lat="45.58318" lon="4.8596">
        <ele>302</ele>
        <time>2009-08-16T07:52:51Z</time>
      </trkpt>
      <trkpt lat="45.58318" lon="4.8596">
        <ele>302</ele>
        <time>2009-08-16T07:52:59Z</time>
      </trkpt>
      <trkpt lat="45.58314" lon="4.85962">
        <ele>302</ele>
        <time>2009-08-16T07:53:07Z</time>
      </trkpt>
      <trkpt lat="45.58316" lon="4.8596">
        <ele>302</ele>
        <time>2009-08-16T07:53:23Z</time>
      </trkpt>
      <trkpt lat="45.58319" lon="4.85958">
        <ele>302</ele>
        <time>2009-08-16T07:53:28Z</time>
      </trkpt>
      <trkpt lat="45.58322" lon="4.85959">
        <ele>302</ele>
        <time>2009-08-16T07:53:32Z</time>
      </trkpt>
      <trkpt lat="45.58322" lon="4.85963">
        <ele>302</ele>
        <time>2009-08-16T07:53:38Z</time>
      </trkpt>
      <trkpt lat="45.58321" lon="4.85964">
        <ele>302</ele>
        <time>2009-08-16T07:53:42Z</time>
      </trkpt>
      <trkpt lat="45.58323" lon="4.85964">
        <ele>302</ele>
        <time>2009-08-16T07:53:56Z</time>
      </trkpt>
      <trkpt lat="45.58323" lon="4.85963">
        <ele>302</ele>
        <time>2009-08-16T07:54:12Z</time>
      </trkpt>
      <trkpt lat="45.58324" lon="4.85961">
        <ele>302</ele>
        <time>2009-08-16T07:54:23Z</time>
      </trkpt>
      <trkpt lat="45.58325" lon="4.8596">
        <ele>302</ele>
        <time>2009-08-16T07:54:30Z</time>
      </trkpt>
      <trkpt lat="45.58325" lon="4.85957">
        <ele>303</ele>
        <time>2009-08-16T07:54:42Z</time>
      </trkpt>
      <trkpt lat="45.58326" lon="4.85956">
        <ele>303</ele>
        <time>2009-08-16T07:54:50Z</time>
      </trkpt>
      <trkpt lat="45.58324" lon="4.85956">
        <ele>303</ele>
        <time>2009-08-16T07:54:57Z</time>
      </trkpt>
      <trkpt lat="45.58318" lon="4.85954">
        <ele>303</ele>
        <time>2009-08-16T07:55:01Z</time>
      </trkpt>
      <trkpt lat="45.58306" lon="4.85954">
        <ele>302</ele>
        <time>2009-08-16T07:55:05Z</time>
      </trkpt>
      <trkpt lat="45.58293" lon="4.85953">
        <ele>302</ele>
        <time>2009-08-16T07:55:09Z</time>
      </trkpt>
      <trkpt lat="45.58281" lon="4.85952">
        <ele>302</ele>
        <time>2009-08-16T07:55:13Z</time>
      </trkpt>
      <trkpt lat="45.58265" lon="4.85949">
        <ele>302</ele>
        <time>2009-08-16T07:55:17Z</time>
      </trkpt>
      <trkpt lat="45.58247" lon="4.85942">
        <ele>299</ele>
        <time>2009-08-16T07:55:21Z</time>
      </trkpt>
      <trkpt lat="45.58226" lon="4.85928">
        <ele>299</ele>
        <time>2009-08-16T07:55:25Z</time>
      </trkpt>
      <trkpt lat="45.58203" lon="4.8591">
        <ele>300</ele>
        <time>2009-08-16T07:55:29Z</time>
      </trkpt>
      <trkpt lat="45.58178" lon="4.85889">
        <ele>299</ele>
        <time>2009-08-16T07:55:33Z</time>
      </trkpt>
      <trkpt lat="45.58151" lon="4.85869">
        <ele>294</ele>
        <time>2009-08-16T07:55:37Z</time>
      </trkpt>
      <trkpt lat="45.58126" lon="4.85847">
        <ele>294</ele>
        <time>2009-08-16T07:55:41Z</time>
      </trkpt>
      <trkpt lat="45.581" lon="4.85824">
        <ele>295</ele>
        <time>2009-08-16T07:55:45Z</time>
      </trkpt>
      <trkpt lat="45.58072" lon="4.85803">
        <ele>293</ele>
        <time>2009-08-16T07:55:49Z</time>
      </trkpt>
      <trkpt lat="45.5804" lon="4.85793">
        <ele>293</ele>
        <time>2009-08-16T07:55:53Z</time>
      </trkpt>
      <trkpt lat="45.5801" lon="4.85791">
        <ele>292</ele>
        <time>2009-08-16T07:55:57Z</time>
      </trkpt>
      <trkpt lat="45.5798" lon="4.85791">
        <ele>290</ele>
        <time>2009-08-16T07:56:01Z</time>
      </trkpt>
      <trkpt lat="45.57951" lon="4.8579">
        <ele>290</ele>
        <time>2009-08-16T07:56:05Z</time>
      </trkpt>
      <trkpt lat="45.57921" lon="4.8579">
        <ele>290</ele>
        <time>2009-08-16T07:56:09Z</time>
      </trkpt>
      <trkpt lat="45.57893" lon="4.85789">
        <ele>289</ele>
        <time>2009-08-16T07:56:13Z</time>
      </trkpt>
      <trkpt lat="45.57864" lon="4.85788">
        <ele>289</ele>
        <time>2009-08-16T07:56:17Z</time>
      </trkpt>
      <trkpt lat="45.57835" lon="4.85786">
        <ele>289</ele>
        <time>2009-08-16T07:56:21Z</time>
      </trkpt>
      <trkpt lat="45.57805" lon="4.85784">
        <ele>287</ele>
        <time>2009-08-16T07:56:25Z</time>
      </trkpt>
      <trkpt lat="45.57776" lon="4.85782">
        <ele>286</ele>
        <time>2009-08-16T07:56:29Z</time>
      </trkpt>
      <trkpt lat="45.57748" lon="4.85782">
        <ele>283</ele>
        <time>2009-08-16T07:56:33Z</time>
      </trkpt>
      <trkpt lat="45.57719" lon="4.85781">
        <ele>283</ele>
        <time>2009-08-16T07:56:37Z</time>
      </trkpt>
      <trkpt lat="45.57689" lon="4.8578">
        <ele>282</ele>
        <time>2009-08-16T07:56:41Z</time>
      </trkpt>
      <trkpt lat="45.57661" lon="4.8578">
        <ele>280</ele>
        <time>2009-08-16T07:56:45Z</time>
      </trkpt>
      <trkpt lat="45.57633" lon="4.85779">
        <ele>280</ele>
        <time>2009-08-16T07:56:49Z</time>
      </trkpt>
      <trkpt lat="45.57605" lon="4.85778">
        <ele>279</ele>
        <time>2009-08-16T07:56:53Z</time>
      </trkpt>
      <trkpt lat="45.57577" lon="4.85778">
        <ele>278</ele>
        <time>2009-08-16T07:56:57Z</time>
      </trkpt>
      <trkpt lat="45.5755" lon="4.85776">
        <ele>278</ele>
        <time>2009-08-16T07:57:01Z</time>
      </trkpt>
      <trkpt lat="45.57522" lon="4.85775">
        <ele>277</ele>
        <time>2009-08-16T07:57:05Z</time>
      </trkpt>
      <trkpt lat="45.57494" lon="4.85775">
        <ele>276</ele>
        <time>2009-08-16T07:57:09Z</time>
      </trkpt>
      <trkpt lat="45.57465" lon="4.85774">
        <ele>276</ele>
        <time>2009-08-16T07:57:13Z</time>
      </trkpt>
      <trkpt lat="45.57435" lon="4.85773">
        <ele>276</ele>
        <time>2009-08-16T07:57:17Z</time>
      </trkpt>
      <trkpt lat="45.57402" lon="4.85772">
        <ele>274</ele>
        <time>2009-08-16T07:57:21Z</time>
      </trkpt>
      <trkpt lat="45.57369" lon="4.85771">
        <ele>274</ele>
        <time>2009-08-16T07:57:25Z</time>
      </trkpt>
      <trkpt lat="45.57336" lon="4.85769">
        <ele>273</ele>
        <time>2009-08-16T07:57:29Z</time>
      </trkpt>
      <trkpt lat="45.57305" lon="4.8577">
        <ele>272</ele>
        <time>2009-08-16T07:57:33Z</time>
      </trkpt>
      <trkpt lat="45.57273" lon="4.85773">
        <ele>272</ele>
        <time>2009-08-16T07:57:37Z</time>
      </trkpt>
      <trkpt lat="45.57241" lon="4.85775">
        <ele>271</ele>
        <time>2009-08-16T07:57:41Z</time>
      </trkpt>
      <trkpt lat="45.57209" lon="4.85777">
        <ele>270</ele>
        <time>2009-08-16T07:57:45Z</time>
      </trkpt>
      <trkpt lat="45.57177" lon="4.85781">
        <ele>270</ele>
        <time>2009-08-16T07:57:49Z</time>
      </trkpt>
      <trkpt lat="45.57144" lon="4.85784">
        <ele>269</ele>
        <time>2009-08-16T07:57:53Z</time>
      </trkpt>
      <trkpt lat="45.57111" lon="4.85787">
        <ele>269</ele>
        <time>2009-08-16T07:57:57Z</time>
      </trkpt>
      <trkpt lat="45.57081" lon="4.8579">
        <ele>270</ele>
        <time>2009-08-16T07:58:01Z</time>
      </trkpt>
      <trkpt lat="45.57051" lon="4.85791">
        <ele>270</ele>
        <time>2009-08-16T07:58:05Z</time>
      </trkpt>
      <trkpt lat="45.57023" lon="4.85793">
        <ele>270</ele>
        <time>2009-08-16T07:58:09Z</time>
      </trkpt>
      <trkpt lat="45.56997" lon="4.85795">
        <ele>270</ele>
        <time>2009-08-16T07:58:13Z</time>
      </trkpt>
      <trkpt lat="45.56971" lon="4.85798">
        <ele>270</ele>
        <time>2009-08-16T07:58:17Z</time>
      </trkpt>
      <trkpt lat="45.56946" lon="4.858">
        <ele>269</ele>
        <time>2009-08-16T07:58:21Z</time>
      </trkpt>
      <trkpt lat="45.56921" lon="4.858">
        <ele>269</ele>
        <time>2009-08-16T07:58:25Z</time>
      </trkpt>
      <trkpt lat="45.56894" lon="4.858">
        <ele>268</ele>
        <time>2009-08-16T07:58:29Z</time>
      </trkpt>
      <trkpt lat="45.56867" lon="4.85798">
        <ele>267</ele>
        <time>2009-08-16T07:58:33Z</time>
      </trkpt>
      <trkpt lat="45.5684" lon="4.85796">
        <ele>267</ele>
        <time>2009-08-16T07:58:37Z</time>
      </trkpt>
      <trkpt lat="45.56814" lon="4.85795">
        <ele>266</ele>
        <time>2009-08-16T07:58:41Z</time>
      </trkpt>
      <trkpt lat="45.56788" lon="4.85793">
        <ele>266</ele>
        <time>2009-08-16T07:58:45Z</time>
      </trkpt>
      <trkpt lat="45.56763" lon="4.85793">
        <ele>266</ele>
        <time>2009-08-16T07:58:49Z</time>
      </trkpt>
      <trkpt lat="45.56739" lon="4.85796">
        <ele>267</ele>
        <time>2009-08-16T07:58:53Z</time>
      </trkpt>
      <trkpt lat="45.56718" lon="4.85803">
        <ele>268</ele>
        <time>2009-08-16T07:58:57Z</time>
      </trkpt>
      <trkpt lat="45.56695" lon="4.85811">
        <ele>268</ele>
        <time>2009-08-16T07:59:01Z</time>
      </trkpt>
      <trkpt lat="45.56673" lon="4.85818">
        <ele>269</ele>
        <time>2009-08-16T07:59:05Z</time>
      </trkpt>
      <trkpt lat="45.56651" lon="4.85826">
        <ele>271</ele>
        <time>2009-08-16T07:59:09Z</time>
      </trkpt>
      <trkpt lat="45.56631" lon="4.85832">
        <ele>272</ele>
        <time>2009-08-16T07:59:13Z</time>
      </trkpt>
      <trkpt lat="45.56615" lon="4.85818">
        <ele>272</ele>
        <time>2009-08-16T07:59:17Z</time>
      </trkpt>
      <trkpt lat="45.56605" lon="4.85796">
        <ele>273</ele>
        <time>2009-08-16T07:59:21Z</time>
      </trkpt>
      <trkpt lat="45.56599" lon="4.85774">
        <ele>273</ele>
        <time>2009-08-16T07:59:25Z</time>
      </trkpt>
      <trkpt lat="45.56595" lon="4.85755">
        <ele>274</ele>
        <time>2009-08-16T07:59:29Z</time>
      </trkpt>
      <trkpt lat="45.56587" lon="4.85737">
        <ele>275</ele>
        <time>2009-08-16T07:59:33Z</time>
      </trkpt>
      <trkpt lat="45.5658" lon="4.8572">
        <ele>277</ele>
        <time>2009-08-16T07:59:37Z</time>
      </trkpt>
      <trkpt lat="45.56574" lon="4.85703">
        <ele>277</ele>
        <time>2009-08-16T07:59:41Z</time>
      </trkpt>
      <trkpt lat="45.56569" lon="4.85685">
        <ele>277</ele>
        <time>2009-08-16T07:59:45Z</time>
      </trkpt>
      <trkpt lat="45.56564" lon="4.85669">
        <ele>278</ele>
        <time>2009-08-16T07:59:49Z</time>
      </trkpt>
      <trkpt lat="45.56559" lon="4.85654">
        <ele>279</ele>
        <time>2009-08-16T07:59:53Z</time>
      </trkpt>
      <trkpt lat="45.56553" lon="4.8564">
        <ele>280</ele>
        <time>2009-08-16T07:59:57Z</time>
      </trkpt>
      <trkpt lat="45.56548" lon="4.85629">
        <ele>280</ele>
        <time>2009-08-16T08:00:01Z</time>
      </trkpt>
      <trkpt lat="45.56545" lon="4.85615">
        <ele>280</ele>
        <time>2009-08-16T08:00:05Z</time>
      </trkpt>
      <trkpt lat="45.56541" lon="4.85602">
        <ele>281</ele>
        <time>2009-08-16T08:00:09Z</time>
      </trkpt>
      <trkpt lat="45.56538" lon="4.85589">
        <ele>281</ele>
        <time>2009-08-16T08:00:13Z</time>
      </trkpt>
      <trkpt lat="45.56532" lon="4.85578">
        <ele>282</ele>
        <time>2009-08-16T08:00:17Z</time>
      </trkpt>
      <trkpt lat="45.56527" lon="4.85566">
        <ele>282</ele>
        <time>2009-08-16T08:00:21Z</time>
      </trkpt>
      <trkpt lat="45.5652" lon="4.85554">
        <ele>282</ele>
        <time>2009-08-16T08:00:25Z</time>
      </trkpt>
      <trkpt lat="45.56513" lon="4.85543">
        <ele>282</ele>
        <time>2009-08-16T08:00:29Z</time>
      </trkpt>
      <trkpt lat="45.56505" lon="4.85532">
        <ele>283</ele>
        <time>2009-08-16T08:00:33Z</time>
      </trkpt>
      <trkpt lat="45.56497" lon="4.85521">
        <ele>284</ele>
        <time>2009-08-16T08:00:37Z</time>
      </trkpt>
      <trkpt lat="45.56488" lon="4.8551">
        <ele>283</ele>
        <time>2009-08-16T08:00:41Z</time>
      </trkpt>
      <trkpt lat="45.56478" lon="4.85497">
        <ele>284</ele>
        <time>2009-08-16T08:00:45Z</time>
      </trkpt>
      <trkpt lat="45.56468" lon="4.85485">
        <ele>284</ele>
        <time>2009-08-16T08:00:49Z</time>
      </trkpt>
      <trkpt lat="45.56457" lon="4.85475">
        <ele>284</ele>
        <time>2009-08-16T08:00:53Z</time>
      </trkpt>
      <trkpt lat="45.56445" lon="4.85465">
        <ele>284</ele>
        <time>2009-08-16T08:00:57Z</time>
      </trkpt>
      <trkpt lat="45.56434" lon="4.85456">
        <ele>284</ele>
        <time>2009-08-16T08:01:01Z</time>
      </trkpt>
      <trkpt lat="45.56422" lon="4.85447">
        <ele>284</ele>
        <time>2009-08-16T08:01:05Z</time>
      </trkpt>
      <trkpt lat="45.56412" lon="4.85441">
        <ele>284</ele>
        <time>2009-08-16T08:01:09Z</time>
      </trkpt>
      <trkpt lat="45.56402" lon="4.85432">
        <ele>284</ele>
        <time>2009-08-16T08:01:13Z</time>
      </trkpt>
      <trkpt lat="45.56391" lon="4.85424">
        <ele>284</ele>
        <time>2009-08-16T08:01:17Z</time>
      </trkpt>
      <trkpt lat="45.56382" lon="4.85416">
        <ele>283</ele>
        <time>2009-08-16T08:01:21Z</time>
      </trkpt>
      <trkpt lat="45.56372" lon="4.85406">
        <ele>283</ele>
        <time>2009-08-16T08:01:25Z</time>
      </trkpt>
      <trkpt lat="45.56361" lon="4.85396">
        <ele>283</ele>
        <time>2009-08-16T08:01:29Z</time>
      </trkpt>
      <trkpt lat="45.56351" lon="4.85388">
        <ele>283</ele>
        <time>2009-08-16T08:01:33Z</time>
      </trkpt>
      <trkpt lat="45.56341" lon="4.85379">
        <ele>283</ele>
        <time>2009-08-16T08:01:37Z</time>
      </trkpt>
      <trkpt lat="45.56331" lon="4.8537">
        <ele>284</ele>
        <time>2009-08-16T08:01:41Z</time>
      </trkpt>
      <trkpt lat="45.5632" lon="4.85362">
        <ele>284</ele>
        <time>2009-08-16T08:01:45Z</time>
      </trkpt>
      <trkpt lat="45.5631" lon="4.85355">
        <ele>284</ele>
        <time>2009-08-16T08:01:49Z</time>
      </trkpt>
      <trkpt lat="45.563" lon="4.85348">
        <ele>284</ele>
        <time>2009-08-16T08:01:53Z</time>
      </trkpt>
      <trkpt lat="45.56289" lon="4.85341">
        <ele>284</ele>
        <time>2009-08-16T08:01:57Z</time>
      </trkpt>
      <trkpt lat="45.56278" lon="4.85335">
        <ele>284</ele>
        <time>2009-08-16T08:02:01Z</time>
      </trkpt>
      <trkpt lat="45.56267" lon="4.85329">
        <ele>284</ele>
        <time>2009-08-16T08:02:05Z</time>
      </trkpt>
      <trkpt lat="45.56255" lon="4.85323">
        <ele>284</ele>
        <time>2009-08-16T08:02:09Z</time>
      </trkpt>
      <trkpt lat="45.56242" lon="4.85316">
        <ele>285</ele>
        <time>2009-08-16T08:02:13Z</time>
      </trkpt>
      <trkpt lat="45.5623" lon="4.8531">
        <ele>285</ele>
        <time>2009-08-16T08:02:17Z</time>
      </trkpt>
      <trkpt lat="45.56219" lon="4.85303">
        <ele>286</ele>
        <time>2009-08-16T08:02:21Z</time>
      </trkpt>
      <trkpt lat="45.56209" lon="4.85297">
        <ele>286</ele>
        <time>2009-08-16T08:02:25Z</time>
      </trkpt>
      <trkpt lat="45.56199" lon="4.85291">
        <ele>286</ele>
        <time>2009-08-16T08:02:29Z</time>
      </trkpt>
      <trkpt lat="45.56187" lon="4.85285">
        <ele>286</ele>
        <time>2009-08-16T08:02:33Z</time>
      </trkpt>
      <trkpt lat="45.56177" lon="4.85278">
        <ele>286</ele>
        <time>2009-08-16T08:02:37Z</time>
      </trkpt>
      <trkpt lat="45.56167" lon="4.85271">
        <ele>286</ele>
        <time>2009-08-16T08:02:41Z</time>
      </trkpt>
      <trkpt lat="45.56158" lon="4.85263">
        <ele>288</ele>
        <time>2009-08-16T08:02:45Z</time>
      </trkpt>
      <trkpt lat="45.56149" lon="4.85257">
        <ele>288</ele>
        <time>2009-08-16T08:02:49Z</time>
      </trkpt>
      <trkpt lat="45.56142" lon="4.8525">
        <ele>289</ele>
        <time>2009-08-16T08:02:53Z</time>
      </trkpt>
      <trkpt lat="45.56135" lon="4.85243">
        <ele>290</ele>
        <time>2009-08-16T08:02:57Z</time>
      </trkpt>
      <trkpt lat="45.56129" lon="4.85237">
        <ele>290</ele>
        <time>2009-08-16T08:03:01Z</time>
      </trkpt>
      <trkpt lat="45.56122" lon="4.85232">
        <ele>290</ele>
        <time>2009-08-16T08:03:05Z</time>
      </trkpt>
      <trkpt lat="45.56113" lon="4.85225">
        <ele>290</ele>
        <time>2009-08-16T08:03:09Z</time>
      </trkpt>
      <trkpt lat="45.56105" lon="4.85217">
        <ele>291</ele>
        <time>2009-08-16T08:03:13Z</time>
      </trkpt>
      <trkpt lat="45.56098" lon="4.85208">
        <ele>291</ele>
        <time>2009-08-16T08:03:17Z</time>
      </trkpt>
      <trkpt lat="45.56089" lon="4.85195">
        <ele>291</ele>
        <time>2009-08-16T08:03:22Z</time>
      </trkpt>
      <trkpt lat="45.56081" lon="4.85184">
        <ele>294</ele>
        <time>2009-08-16T08:03:26Z</time>
      </trkpt>
      <trkpt lat="45.5607" lon="4.8517">
        <ele>294</ele>
        <time>2009-08-16T08:03:31Z</time>
      </trkpt>
      <trkpt lat="45.56055" lon="4.85154">
        <ele>294</ele>
        <time>2009-08-16T08:03:36Z</time>
      </trkpt>
      <trkpt lat="45.5604" lon="4.85136">
        <ele>295</ele>
        <time>2009-08-16T08:03:40Z</time>
      </trkpt>
      <trkpt lat="45.56031" lon="4.85122">
        <ele>295</ele>
        <time>2009-08-16T08:03:45Z</time>
      </trkpt>
      <trkpt lat="45.56023" lon="4.85109">
        <ele>295</ele>
        <time>2009-08-16T08:03:49Z</time>
      </trkpt>
      <trkpt lat="45.56017" lon="4.85098">
        <ele>296</ele>
        <time>2009-08-16T08:03:53Z</time>
      </trkpt>
      <trkpt lat="45.56012" lon="4.85082">
        <ele>296</ele>
        <time>2009-08-16T08:03:57Z</time>
      </trkpt>
      <trkpt lat="45.56005" lon="4.85063">
        <ele>296</ele>
        <time>2009-08-16T08:04:02Z</time>
      </trkpt>
      <trkpt lat="45.56002" lon="4.85044">
        <ele>296</ele>
        <time>2009-08-16T08:04:06Z</time>
      </trkpt>
      <trkpt lat="45.56" lon="4.85027">
        <ele>300</ele>
        <time>2009-08-16T08:04:10Z</time>
      </trkpt>
      <trkpt lat="45.55996" lon="4.85012">
        <ele>300</ele>
        <time>2009-08-16T08:04:14Z</time>
      </trkpt>
      <trkpt lat="45.55994" lon="4.84994">
        <ele>300</ele>
        <time>2009-08-16T08:04:18Z</time>
      </trkpt>
      <trkpt lat="45.55996" lon="4.84972">
        <ele>302</ele>
        <time>2009-08-16T08:04:23Z</time>
      </trkpt>
      <trkpt lat="45.55995" lon="4.84955">
        <ele>302</ele>
        <time>2009-08-16T08:04:27Z</time>
      </trkpt>
      <trkpt lat="45.55993" lon="4.84934">
        <ele>303</ele>
        <time>2009-08-16T08:04:32Z</time>
      </trkpt>
      <trkpt lat="45.55994" lon="4.84918">
        <ele>302</ele>
        <time>2009-08-16T08:04:36Z</time>
      </trkpt>
      <trkpt lat="45.55994" lon="4.84903">
        <ele>303</ele>
        <time>2009-08-16T08:04:40Z</time>
      </trkpt>
      <trkpt lat="45.55995" lon="4.84884">
        <ele>304</ele>
        <time>2009-08-16T08:04:44Z</time>
      </trkpt>
      <trkpt lat="45.55993" lon="4.84869">
        <ele>304</ele>
        <time>2009-08-16T08:04:49Z</time>
      </trkpt>
      <trkpt lat="45.55993" lon="4.84847">
        <ele>304</ele>
        <time>2009-08-16T08:04:54Z</time>
      </trkpt>
      <trkpt lat="45.55989" lon="4.84824">
        <ele>303</ele>
        <time>2009-08-16T08:04:59Z</time>
      </trkpt>
      <trkpt lat="45.55983" lon="4.84801">
        <ele>303</ele>
        <time>2009-08-16T08:05:04Z</time>
      </trkpt>
      <trkpt lat="45.55978" lon="4.84777">
        <ele>303</ele>
        <time>2009-08-16T08:05:08Z</time>
      </trkpt>
      <trkpt lat="45.55979" lon="4.84735">
        <ele>301</ele>
        <time>2009-08-16T08:05:12Z</time>
      </trkpt>
      <trkpt lat="45.55995" lon="4.84698">
        <ele>300</ele>
        <time>2009-08-16T08:05:16Z</time>
      </trkpt>
      <trkpt lat="45.56014" lon="4.84662">
        <ele>296</ele>
        <time>2009-08-16T08:05:20Z</time>
      </trkpt>
      <trkpt lat="45.56033" lon="4.84623">
        <ele>296</ele>
        <time>2009-08-16T08:05:25Z</time>
      </trkpt>
      <trkpt lat="45.56047" lon="4.84571">
        <ele>297</ele>
        <time>2009-08-16T08:05:30Z</time>
      </trkpt>
      <trkpt lat="45.56056" lon="4.8452">
        <ele>298</ele>
        <time>2009-08-16T08:05:35Z</time>
      </trkpt>
      <trkpt lat="45.56063" lon="4.84484">
        <ele>298</ele>
        <time>2009-08-16T08:05:40Z</time>
      </trkpt>
      <trkpt lat="45.5607" lon="4.8446">
        <ele>299</ele>
        <time>2009-08-16T08:05:44Z</time>
      </trkpt>
      <trkpt lat="45.56077" lon="4.84428">
        <ele>299</ele>
        <time>2009-08-16T08:05:48Z</time>
      </trkpt>
      <trkpt lat="45.56084" lon="4.84401">
        <ele>297</ele>
        <time>2009-08-16T08:05:52Z</time>
      </trkpt>
      <trkpt lat="45.56091" lon="4.84371">
        <ele>297</ele>
        <time>2009-08-16T08:05:56Z</time>
      </trkpt>
      <trkpt lat="45.56097" lon="4.84337">
        <ele>298</ele>
        <time>2009-08-16T08:06:00Z</time>
      </trkpt>
      <trkpt lat="45.56104" lon="4.84302">
        <ele>298</ele>
        <time>2009-08-16T08:06:05Z</time>
      </trkpt>
      <trkpt lat="45.56115" lon="4.84257">
        <ele>298</ele>
        <time>2009-08-16T08:06:10Z</time>
      </trkpt>
      <trkpt lat="45.5613" lon="4.84217">
        <ele>298</ele>
        <time>2009-08-16T08:06:15Z</time>
      </trkpt>
      <trkpt lat="45.56143" lon="4.8418">
        <ele>298</ele>
        <time>2009-08-16T08:06:20Z</time>
      </trkpt>
      <trkpt lat="45.5615" lon="4.8414">
        <ele>298</ele>
        <time>2009-08-16T08:06:24Z</time>
      </trkpt>
      <trkpt lat="45.56153" lon="4.84106">
        <ele>298</ele>
        <time>2009-08-16T08:06:28Z</time>
      </trkpt>
      <trkpt lat="45.56156" lon="4.8407">
        <ele>297</ele>
        <time>2009-08-16T08:06:33Z</time>
      </trkpt>
      <trkpt lat="45.56161" lon="4.84034">
        <ele>297</ele>
        <time>2009-08-16T08:06:37Z</time>
      </trkpt>
      <trkpt lat="45.5617" lon="4.83986">
        <ele>294</ele>
        <time>2009-08-16T08:06:42Z</time>
      </trkpt>
      <trkpt lat="45.56186" lon="4.83935">
        <ele>293</ele>
        <time>2009-08-16T08:06:47Z</time>
      </trkpt>
      <trkpt lat="45.56205" lon="4.83882">
        <ele>292</ele>
        <time>2009-08-16T08:06:52Z</time>
      </trkpt>
      <trkpt lat="45.56224" lon="4.83829">
        <ele>291</ele>
        <time>2009-08-16T08:06:57Z</time>
      </trkpt>
      <trkpt lat="45.56249" lon="4.83779">
        <ele>290</ele>
        <time>2009-08-16T08:07:02Z</time>
      </trkpt>
      <trkpt lat="45.56273" lon="4.83723">
        <ele>287</ele>
        <time>2009-08-16T08:07:07Z</time>
      </trkpt>
      <trkpt lat="45.56307" lon="4.83671">
        <ele>285</ele>
        <time>2009-08-16T08:07:11Z</time>
      </trkpt>
      <trkpt lat="45.56336" lon="4.83625">
        <ele>280</ele>
        <time>2009-08-16T08:07:15Z</time>
      </trkpt>
      <trkpt lat="45.56345" lon="4.83559">
        <ele>278</ele>
        <time>2009-08-16T08:07:19Z</time>
      </trkpt>
      <trkpt lat="45.56349" lon="4.83489">
        <ele>275</ele>
        <time>2009-08-16T08:07:23Z</time>
      </trkpt>
      <trkpt lat="45.56375" lon="4.83431">
        <ele>274</ele>
        <time>2009-08-16T08:07:27Z</time>
      </trkpt>
      <trkpt lat="45.56407" lon="4.83383">
        <ele>274</ele>
        <time>2009-08-16T08:07:31Z</time>
      </trkpt>
      <trkpt lat="45.56434" lon="4.83338">
        <ele>272</ele>
        <time>2009-08-16T08:07:35Z</time>
      </trkpt>
      <trkpt lat="45.5645" lon="4.83294">
        <ele>272</ele>
        <time>2009-08-16T08:07:39Z</time>
      </trkpt>
      <trkpt lat="45.56457" lon="4.83253">
        <ele>273</ele>
        <time>2009-08-16T08:07:43Z</time>
      </trkpt>
      <trkpt lat="45.56463" lon="4.8322">
        <ele>273</ele>
        <time>2009-08-16T08:07:47Z</time>
      </trkpt>
      <trkpt lat="45.56467" lon="4.83203">
        <ele>273</ele>
        <time>2009-08-16T08:07:52Z</time>
      </trkpt>
      <trkpt lat="45.56467" lon="4.83191">
        <ele>273</ele>
        <time>2009-08-16T08:07:57Z</time>
      </trkpt>
      <trkpt lat="45.56466" lon="4.83182">
        <ele>273</ele>
        <time>2009-08-16T08:08:02Z</time>
      </trkpt>
      <trkpt lat="45.56465" lon="4.83172">
        <ele>273</ele>
        <time>2009-08-16T08:08:06Z</time>
      </trkpt>
      <trkpt lat="45.56465" lon="4.83167">
        <ele>273</ele>
        <time>2009-08-16T08:08:25Z</time>
      </trkpt>
      <trkpt lat="45.56463" lon="4.8317">
        <ele>273</ele>
        <time>2009-08-16T08:08:30Z</time>
      </trkpt>
      <trkpt lat="45.56462" lon="4.83171">
        <ele>273</ele>
        <time>2009-08-16T08:08:35Z</time>
      </trkpt>
      <trkpt lat="45.56458" lon="4.83172">
        <ele>274</ele>
        <time>2009-08-16T08:08:39Z</time>
      </trkpt>
      <trkpt lat="45.56454" lon="4.83175">
        <ele>274</ele>
        <time>2009-08-16T08:08:44Z</time>
      </trkpt>
      <trkpt lat="45.56454" lon="4.83174">
        <ele>274</ele>
        <time>2009-08-16T08:08:51Z</time>
      </trkpt>
      <trkpt lat="45.56453" lon="4.83177">
        <ele>274</ele>
        <time>2009-08-16T08:09:06Z</time>
      </trkpt>
      <trkpt lat="45.56454" lon="4.83177">
        <ele>274</ele>
        <time>2009-08-16T08:09:10Z</time>
      </trkpt>
      <trkpt lat="45.56456" lon="4.83177">
        <ele>274</ele>
        <time>2009-08-16T08:09:23Z</time>
      </trkpt>
      <trkpt lat="45.56457" lon="4.83176">
        <ele>274</ele>
        <time>2009-08-16T08:09:29Z</time>
      </trkpt>
      <trkpt lat="45.56459" lon="4.83175">
        <ele>273</ele>
        <time>2009-08-16T08:09:34Z</time>
      </trkpt>
      <trkpt lat="45.56461" lon="4.83174">
        <ele>273</ele>
        <time>2009-08-16T08:09:41Z</time>
      </trkpt>
      <trkpt lat="45.56463" lon="4.83174">
        <ele>273</ele>
        <time>2009-08-16T08:09:49Z</time>
      </trkpt>
      <trkpt lat="45.56462" lon="4.83172">
        <ele>273</ele>
        <time>2009-08-16T08:10:02Z</time>
      </trkpt>
      <trkpt lat="45.56462" lon="4.83166">
        <ele>273</ele>
        <time>2009-08-16T08:10:10Z</time>
      </trkpt>
      <trkpt lat="45.56465" lon="4.83165">
        <ele>273</ele>
        <time>2009-08-16T08:10:15Z</time>
      </trkpt>
      <trkpt lat="45.56466" lon="4.83163">
        <ele>273</ele>
        <time>2009-08-16T08:10:19Z</time>
      </trkpt>
      <trkpt lat="45.56467" lon="4.83161">
        <ele>273</ele>
        <time>2009-08-16T08:10:25Z</time>
      </trkpt>
      <trkpt lat="45.56468" lon="4.8316">
        <ele>272</ele>
        <time>2009-08-16T08:10:34Z</time>
      </trkpt>
      <trkpt lat="45.56468" lon="4.83158">
        <ele>272</ele>
        <time>2009-08-16T08:10:45Z</time>
      </trkpt>
      <trkpt lat="45.5647" lon="4.83158">
        <ele>272</ele>
        <time>2009-08-16T08:11:08Z</time>
      </trkpt>
      <trkpt lat="45.56468" lon="4.83157">
        <ele>272</ele>
        <time>2009-08-16T08:11:43Z</time>
      </trkpt>
      <trkpt lat="45.56466" lon="4.83155">
        <ele>273</ele>
        <time>2009-08-16T08:11:47Z</time>
      </trkpt>
      <trkpt lat="45.56466" lon="4.83143">
        <ele>272</ele>
        <time>2009-08-16T08:11:51Z</time>
      </trkpt>
      <trkpt lat="45.56465" lon="4.83123">
        <ele>272</ele>
        <time>2009-08-16T08:11:55Z</time>
      </trkpt>
      <trkpt lat="45.56466" lon="4.83097">
        <ele>272</ele>
        <time>2009-08-16T08:11:59Z</time>
      </trkpt>
      <trkpt lat="45.56468" lon="4.83063">
        <ele>270</ele>
        <time>2009-08-16T08:12:03Z</time>
      </trkpt>
      <trkpt lat="45.56475" lon="4.83023">
        <ele>269</ele>
        <time>2009-08-16T08:12:07Z</time>
      </trkpt>
      <trkpt lat="45.56488" lon="4.82981">
        <ele>266</ele>
        <time>2009-08-16T08:12:11Z</time>
      </trkpt>
      <trkpt lat="45.56502" lon="4.8294">
        <ele>263</ele>
        <time>2009-08-16T08:12:15Z</time>
      </trkpt>
      <trkpt lat="45.56513" lon="4.82914">
        <ele>261</ele>
        <time>2009-08-16T08:12:19Z</time>
      </trkpt>
      <trkpt lat="45.56532" lon="4.82918">
        <ele>263</ele>
        <time>2009-08-16T08:12:23Z</time>
      </trkpt>
      <trkpt lat="45.56547" lon="4.82928">
        <ele>263</ele>
        <time>2009-08-16T08:12:27Z</time>
      </trkpt>
      <trkpt lat="45.56551" lon="4.82929">
        <ele>263</ele>
        <time>2009-08-16T08:12:34Z</time>
      </trkpt>
      <trkpt lat="45.56554" lon="4.82927">
        <ele>263</ele>
        <time>2009-08-16T08:12:38Z</time>
      </trkpt>
      <trkpt lat="45.5656" lon="4.82926">
        <ele>262</ele>
        <time>2009-08-16T08:12:42Z</time>
      </trkpt>
      <trkpt lat="45.56563" lon="4.82928">
        <ele>262</ele>
        <time>2009-08-16T08:12:46Z</time>
      </trkpt>
      <trkpt lat="45.56569" lon="4.82934">
        <ele>262</ele>
        <time>2009-08-16T08:12:50Z</time>
      </trkpt>
      <trkpt lat="45.56581" lon="4.82944">
        <ele>263</ele>
        <time>2009-08-16T08:12:54Z</time>
      </trkpt>
      <trkpt lat="45.56598" lon="4.82957">
        <ele>260</ele>
        <time>2009-08-16T08:12:58Z</time>
      </trkpt>
      <trkpt lat="45.56615" lon="4.82973">
        <ele>260</ele>
        <time>2009-08-16T08:13:02Z</time>
      </trkpt>
      <trkpt lat="45.56631" lon="4.8299">
        <ele>259</ele>
        <time>2009-08-16T08:13:06Z</time>
      </trkpt>
      <trkpt lat="45.56646" lon="4.8301">
        <ele>260</ele>
        <time>2009-08-16T08:13:10Z</time>
      </trkpt>
      <trkpt lat="45.56661" lon="4.83031">
        <ele>260</ele>
        <time>2009-08-16T08:13:14Z</time>
      </trkpt>
      <trkpt lat="45.56676" lon="4.8305">
        <ele>258</ele>
        <time>2009-08-16T08:13:18Z</time>
      </trkpt>
      <trkpt lat="45.56691" lon="4.83067">
        <ele>258</ele>
        <time>2009-08-16T08:13:22Z</time>
      </trkpt>
      <trkpt lat="45.56708" lon="4.8308">
        <ele>258</ele>
        <time>2009-08-16T08:13:26Z</time>
      </trkpt>
      <trkpt lat="45.56721" lon="4.83088">
        <ele>259</ele>
        <time>2009-08-16T08:13:30Z</time>
      </trkpt>
      <trkpt lat="45.56724" lon="4.8309">
        <ele>259</ele>
        <time>2009-08-16T08:13:34Z</time>
      </trkpt>
      <trkpt lat="45.56732" lon="4.83098">
        <ele>258</ele>
        <time>2009-08-16T08:13:38Z</time>
      </trkpt>
      <trkpt lat="45.56742" lon="4.8311">
        <ele>258</ele>
        <time>2009-08-16T08:13:42Z</time>
      </trkpt>
      <trkpt lat="45.56749" lon="4.83132">
        <ele>258</ele>
        <time>2009-08-16T08:13:46Z</time>
      </trkpt>
      <trkpt lat="45.56757" lon="4.83165">
        <ele>257</ele>
        <time>2009-08-16T08:13:50Z</time>
      </trkpt>
      <trkpt lat="45.5677" lon="4.83195">
        <ele>254</ele>
        <time>2009-08-16T08:13:54Z</time>
      </trkpt>
      <trkpt lat="45.56788" lon="4.83212">
        <ele>254</ele>
        <time>2009-08-16T08:13:58Z</time>
      </trkpt>
      <trkpt lat="45.56812" lon="4.83218">
        <ele>252</ele>
        <time>2009-08-16T08:14:02Z</time>
      </trkpt>
      <trkpt lat="45.56839" lon="4.83218">
        <ele>248</ele>
        <time>2009-08-16T08:14:06Z</time>
      </trkpt>
      <trkpt lat="45.56851" lon="4.83221">
        <ele>248</ele>
        <time>2009-08-16T08:14:12Z</time>
      </trkpt>
      <trkpt lat="45.56858" lon="4.83216">
        <ele>248</ele>
        <time>2009-08-16T08:14:17Z</time>
      </trkpt>
      <trkpt lat="45.56883" lon="4.83203">
        <ele>247</ele>
        <time>2009-08-16T08:14:21Z</time>
      </trkpt>
      <trkpt lat="45.56904" lon="4.83187">
        <ele>245</ele>
        <time>2009-08-16T08:14:25Z</time>
      </trkpt>
      <trkpt lat="45.56935" lon="4.83174">
        <ele>239</ele>
        <time>2009-08-16T08:14:29Z</time>
      </trkpt>
      <trkpt lat="45.56954" lon="4.83166">
        <ele>235</ele>
        <time>2009-08-16T08:14:33Z</time>
      </trkpt>
      <trkpt lat="45.56953" lon="4.8317">
        <ele>237</ele>
        <time>2009-08-16T08:14:37Z</time>
      </trkpt>
      <trkpt lat="45.5695" lon="4.83176">
        <ele>238</ele>
        <time>2009-08-16T08:14:41Z</time>
      </trkpt>
      <trkpt lat="45.5695" lon="4.83176">
        <ele>238</ele>
        <time>2009-08-16T08:14:51Z</time>
      </trkpt>
      <trkpt lat="45.56948" lon="4.83181">
        <ele>238</ele>
        <time>2009-08-16T08:14:56Z</time>
      </trkpt>
      <trkpt lat="45.56944" lon="4.83185">
        <ele>238</ele>
        <time>2009-08-16T08:15:02Z</time>
      </trkpt>
      <trkpt lat="45.56944" lon="4.83184">
        <ele>238</ele>
        <time>2009-08-16T08:15:11Z</time>
      </trkpt>
      <trkpt lat="45.56945" lon="4.8318">
        <ele>238</ele>
        <time>2009-08-16T08:15:18Z</time>
      </trkpt>
      <trkpt lat="45.56948" lon="4.83176">
        <ele>238</ele>
        <time>2009-08-16T08:15:22Z</time>
      </trkpt>
      <trkpt lat="45.56948" lon="4.83177">
        <ele>238</ele>
        <time>2009-08-16T08:15:29Z</time>
      </trkpt>
      <trkpt lat="45.56949" lon="4.83179">
        <ele>238</ele>
        <time>2009-08-16T08:15:34Z</time>
      </trkpt>
      <trkpt lat="45.56952" lon="4.83178">
        <ele>237</ele>
        <time>2009-08-16T08:15:40Z</time>
      </trkpt>
      <trkpt lat="45.56954" lon="4.83179">
        <ele>237</ele>
        <time>2009-08-16T08:15:51Z</time>
      </trkpt>
      <trkpt lat="45.56956" lon="4.8318">
        <ele>237</ele>
        <time>2009-08-16T08:15:58Z</time>
      </trkpt>
      <trkpt lat="45.56957" lon="4.8318">
        <ele>237</ele>
        <time>2009-08-16T08:16:05Z</time>
      </trkpt>
      <trkpt lat="45.5696" lon="4.83178">
        <ele>237</ele>
        <time>2009-08-16T08:16:10Z</time>
      </trkpt>
      <trkpt lat="45.56963" lon="4.83178">
        <ele>236</ele>
        <time>2009-08-16T08:16:15Z</time>
      </trkpt>
      <trkpt lat="45.56966" lon="4.83175">
        <ele>236</ele>
        <time>2009-08-16T08:16:19Z</time>
      </trkpt>
      <trkpt lat="45.5697" lon="4.83176">
        <ele>236</ele>
        <time>2009-08-16T08:16:24Z</time>
      </trkpt>
      <trkpt lat="45.56973" lon="4.83176">
        <ele>235</ele>
        <time>2009-08-16T08:16:28Z</time>
      </trkpt>
      <trkpt lat="45.56977" lon="4.83177">
        <ele>235</ele>
        <time>2009-08-16T08:16:33Z</time>
      </trkpt>
      <trkpt lat="45.56978" lon="4.83178">
        <ele>235</ele>
        <time>2009-08-16T08:16:39Z</time>
      </trkpt>
      <trkpt lat="45.56985" lon="4.83179">
        <ele>234</ele>
        <time>2009-08-16T08:16:43Z</time>
      </trkpt>
      <trkpt lat="45.56992" lon="4.83182">
        <ele>233</ele>
        <time>2009-08-16T08:16:47Z</time>
      </trkpt>
      <trkpt lat="45.56998" lon="4.83185">
        <ele>233</ele>
        <time>2009-08-16T08:16:51Z</time>
      </trkpt>
      <trkpt lat="45.57003" lon="4.83187">
        <ele>232</ele>
        <time>2009-08-16T08:16:55Z</time>
      </trkpt>
      <trkpt lat="45.57009" lon="4.83187">
        <ele>232</ele>
        <time>2009-08-16T08:16:59Z</time>
      </trkpt>
      <trkpt lat="45.57018" lon="4.83189">
        <ele>232</ele>
        <time>2009-08-16T08:17:03Z</time>
      </trkpt>
      <trkpt lat="45.57031" lon="4.83185">
        <ele>233</ele>
        <time>2009-08-16T08:17:07Z</time>
      </trkpt>
      <trkpt lat="45.57038" lon="4.83185">
        <ele>233</ele>
        <time>2009-08-16T08:17:13Z</time>
      </trkpt>
      <trkpt lat="45.57037" lon="4.83184">
        <ele>233</ele>
        <time>2009-08-16T08:17:22Z</time>
      </trkpt>
      <trkpt lat="45.57036" lon="4.83182">
        <ele>233</ele>
        <time>2009-08-16T08:17:27Z</time>
      </trkpt>
      <trkpt lat="45.57037" lon="4.83183">
        <ele>233</ele>
        <time>2009-08-16T08:17:32Z</time>
      </trkpt>
      <trkpt lat="45.57036" lon="4.83186">
        <ele>233</ele>
        <time>2009-08-16T08:17:38Z</time>
      </trkpt>
      <trkpt lat="45.57036" lon="4.83188">
        <ele>233</ele>
        <time>2009-08-16T08:17:42Z</time>
      </trkpt>
      <trkpt lat="45.57036" lon="4.8319">
        <ele>233</ele>
        <time>2009-08-16T08:17:48Z</time>
      </trkpt>
      <trkpt lat="45.57037" lon="4.83188">
        <ele>233</ele>
        <time>2009-08-16T08:17:55Z</time>
      </trkpt>
      <trkpt lat="45.57038" lon="4.83188">
        <ele>233</ele>
        <time>2009-08-16T08:18:04Z</time>
      </trkpt>
      <trkpt lat="45.57039" lon="4.83189">
        <ele>233</ele>
        <time>2009-08-16T08:18:12Z</time>
      </trkpt>
      <trkpt lat="45.57043" lon="4.8319">
        <ele>233</ele>
        <time>2009-08-16T08:18:19Z</time>
      </trkpt>
      <trkpt lat="45.57052" lon="4.83189">
        <ele>234</ele>
        <time>2009-08-16T08:18:23Z</time>
      </trkpt>
      <trkpt lat="45.57058" lon="4.83193">
        <ele>234</ele>
        <time>2009-08-16T08:18:27Z</time>
      </trkpt>
      <trkpt lat="45.57059" lon="4.83194">
        <ele>234</ele>
        <time>2009-08-16T08:18:32Z</time>
      </trkpt>
      <trkpt lat="45.57054" lon="4.83192">
        <ele>234</ele>
        <time>2009-08-16T08:18:36Z</time>
      </trkpt>
      <trkpt lat="45.57051" lon="4.83193">
        <ele>234</ele>
        <time>2009-08-16T08:18:40Z</time>
      </trkpt>
      <trkpt lat="45.57048" lon="4.83191">
        <ele>234</ele>
        <time>2009-08-16T08:18:44Z</time>
      </trkpt>
      <trkpt lat="45.57047" lon="4.83187">
        <ele>234</ele>
        <time>2009-08-16T08:18:50Z</time>
      </trkpt>
      <trkpt lat="45.57048" lon="4.83191">
        <ele>234</ele>
        <time>2009-08-16T08:18:54Z</time>
      </trkpt>
      <trkpt lat="45.57051" lon="4.83193">
        <ele>234</ele>
        <time>2009-08-16T08:18:59Z</time>
      </trkpt>
      <trkpt lat="45.57053" lon="4.83197">
        <ele>234</ele>
        <time>2009-08-16T08:19:06Z</time>
      </trkpt>
      <trkpt lat="45.57052" lon="4.83198">
        <ele>234</ele>
        <time>2009-08-16T08:19:12Z</time>
      </trkpt>
      <trkpt lat="45.57051" lon="4.83199">
        <ele>234</ele>
        <time>2009-08-16T08:19:16Z</time>
      </trkpt>
      <trkpt lat="45.57053" lon="4.83199">
        <ele>234</ele>
        <time>2009-08-16T08:19:21Z</time>
      </trkpt>
      <trkpt lat="45.57056" lon="4.83199">
        <ele>234</ele>
        <time>2009-08-16T08:19:25Z</time>
      </trkpt>
      <trkpt lat="45.5706" lon="4.83199">
        <ele>234</ele>
        <time>2009-08-16T08:19:29Z</time>
      </trkpt>
      <trkpt lat="45.57058" lon="4.832">
        <ele>234</ele>
        <time>2009-08-16T08:19:37Z</time>
      </trkpt>
      <trkpt lat="45.57055" lon="4.83202">
        <ele>234</ele>
        <time>2009-08-16T08:19:42Z</time>
      </trkpt>
      <trkpt lat="45.57054" lon="4.83202">
        <ele>234</ele>
        <time>2009-08-16T08:19:46Z</time>
      </trkpt>
      <trkpt lat="45.57053" lon="4.832">
        <ele>234</ele>
        <time>2009-08-16T08:19:50Z</time>
      </trkpt>
      <trkpt lat="45.57053" lon="4.83197">
        <ele>234</ele>
        <time>2009-08-16T08:19:57Z</time>
      </trkpt>
      <trkpt lat="45.57055" lon="4.83195">
        <ele>234</ele>
        <time>2009-08-16T08:20:05Z</time>
      </trkpt>
      <trkpt lat="45.57053" lon="4.83192">
        <ele>234</ele>
        <time>2009-08-16T08:20:13Z</time>
      </trkpt>
      <trkpt lat="45.57054" lon="4.83194">
        <ele>234</ele>
        <time>2009-08-16T08:20:18Z</time>
      </trkpt>
      <trkpt lat="45.57057" lon="4.83195">
        <ele>234</ele>
        <time>2009-08-16T08:20:24Z</time>
      </trkpt>
      <trkpt lat="45.57057" lon="4.83195">
        <ele>234</ele>
        <time>2009-08-16T08:20:37Z</time>
      </trkpt>
      <trkpt lat="45.57054" lon="4.83191">
        <ele>234</ele>
        <time>2009-08-16T08:20:41Z</time>
      </trkpt>
      <trkpt lat="45.57051" lon="4.83188">
        <ele>234</ele>
        <time>2009-08-16T08:20:46Z</time>
      </trkpt>
      <trkpt lat="45.57049" lon="4.83186">
        <ele>234</ele>
        <time>2009-08-16T08:20:54Z</time>
      </trkpt>
      <trkpt lat="45.57049" lon="4.83188">
        <ele>234</ele>
        <time>2009-08-16T08:20:59Z</time>
      </trkpt>
      <trkpt lat="45.5705" lon="4.83191">
        <ele>234</ele>
        <time>2009-08-16T08:21:03Z</time>
      </trkpt>
      <trkpt lat="45.57053" lon="4.83194">
        <ele>234</ele>
        <time>2009-08-16T08:21:08Z</time>
      </trkpt>
      <trkpt lat="45.57054" lon="4.83197">
        <ele>234</ele>
        <time>2009-08-16T08:21:13Z</time>
      </trkpt>
      <trkpt lat="45.57055" lon="4.832">
        <ele>234</ele>
        <time>2009-08-16T08:21:17Z</time>
      </trkpt>
      <trkpt lat="45.57053" lon="4.83203">
        <ele>234</ele>
        <time>2009-08-16T08:21:24Z</time>
      </trkpt>
      <trkpt lat="45.57053" lon="4.83205">
        <ele>234</ele>
        <time>2009-08-16T08:21:29Z</time>
      </trkpt>
      <trkpt lat="45.57055" lon="4.83204">
        <ele>234</ele>
        <time>2009-08-16T08:21:34Z</time>
      </trkpt>
      <trkpt lat="45.57048" lon="4.83209">
        <ele>233</ele>
        <time>2009-08-16T08:21:39Z</time>
      </trkpt>
      <trkpt lat="45.57048" lon="4.83211">
        <ele>233</ele>
        <time>2009-08-16T08:21:46Z</time>
      </trkpt>
      <trkpt lat="45.57049" lon="4.83212">
        <ele>233</ele>
        <time>2009-08-16T08:21:51Z</time>
      </trkpt>
      <trkpt lat="45.5705" lon="4.83211">
        <ele>233</ele>
        <time>2009-08-16T08:21:55Z</time>
      </trkpt>
      <trkpt lat="45.57054" lon="4.83207">
        <ele>233</ele>
        <time>2009-08-16T08:21:59Z</time>
      </trkpt>
      <trkpt lat="45.57053" lon="4.83209">
        <ele>233</ele>
        <time>2009-08-16T08:22:03Z</time>
      </trkpt>
      <trkpt lat="45.57053" lon="4.83206">
        <ele>233</ele>
        <time>2009-08-16T08:22:07Z</time>
      </trkpt>
      <trkpt lat="45.57054" lon="4.83208">
        <ele>233</ele>
        <time>2009-08-16T08:22:13Z</time>
      </trkpt>
      <trkpt lat="45.57057" lon="4.8321">
        <ele>233</ele>
        <time>2009-08-16T08:22:17Z</time>
      </trkpt>
      <trkpt lat="45.57061" lon="4.83213">
        <ele>233</ele>
        <time>2009-08-16T08:22:21Z</time>
      </trkpt>
      <trkpt lat="45.57066" lon="4.83218">
        <ele>233</ele>
        <time>2009-08-16T08:22:25Z</time>
      </trkpt>
      <trkpt lat="45.57071" lon="4.8322">
        <ele>233</ele>
        <time>2009-08-16T08:22:29Z</time>
      </trkpt>
      <trkpt lat="45.57077" lon="4.83226">
        <ele>233</ele>
        <time>2009-08-16T08:22:33Z</time>
      </trkpt>
      <trkpt lat="45.57079" lon="4.83232">
        <ele>232</ele>
        <time>2009-08-16T08:22:37Z</time>
      </trkpt>
      <trkpt lat="45.57081" lon="4.83238">
        <ele>231</ele>
        <time>2009-08-16T08:22:41Z</time>
      </trkpt>
      <trkpt lat="45.57076" lon="4.83244">
        <ele>231</ele>
        <time>2009-08-16T08:22:46Z</time>
      </trkpt>
      <trkpt lat="45.57076" lon="4.83247">
        <ele>231</ele>
        <time>2009-08-16T08:22:50Z</time>
      </trkpt>
      <trkpt lat="45.57078" lon="4.83251">
        <ele>231</ele>
        <time>2009-08-16T08:22:56Z</time>
      </trkpt>
      <trkpt lat="45.57078" lon="4.83253">
        <ele>231</ele>
        <time>2009-08-16T08:23:01Z</time>
      </trkpt>
      <trkpt lat="45.5708" lon="4.83253">
        <ele>231</ele>
        <time>2009-08-16T08:23:06Z</time>
      </trkpt>
      <trkpt lat="45.57078" lon="4.83256">
        <ele>231</ele>
        <time>2009-08-16T08:23:11Z</time>
      </trkpt>
      <trkpt lat="45.57074" lon="4.83251">
        <ele>231</ele>
        <time>2009-08-16T08:23:15Z</time>
      </trkpt>
      <trkpt lat="45.57075" lon="4.83245">
        <ele>231</ele>
        <time>2009-08-16T08:23:21Z</time>
      </trkpt>
      <trkpt lat="45.57075" lon="4.8324">
        <ele>232</ele>
        <time>2009-08-16T08:23:25Z</time>
      </trkpt>
      <trkpt lat="45.57074" lon="4.83236">
        <ele>232</ele>
        <time>2009-08-16T08:23:31Z</time>
      </trkpt>
      <trkpt lat="45.57073" lon="4.83236">
        <ele>232</ele>
        <time>2009-08-16T08:23:39Z</time>
      </trkpt>
      <trkpt lat="45.57072" lon="4.83234">
        <ele>232</ele>
        <time>2009-08-16T08:23:51Z</time>
      </trkpt>
      <trkpt lat="45.57074" lon="4.83232">
        <ele>232</ele>
        <time>2009-08-16T08:23:57Z</time>
      </trkpt>
      <trkpt lat="45.57073" lon="4.83235">
        <ele>232</ele>
        <time>2009-08-16T08:24:03Z</time>
      </trkpt>
      <trkpt lat="45.57077" lon="4.83236">
        <ele>232</ele>
        <time>2009-08-16T08:24:07Z</time>
      </trkpt>
      <trkpt lat="45.57083" lon="4.83238">
        <ele>231</ele>
        <time>2009-08-16T08:24:11Z</time>
      </trkpt>
      <trkpt lat="45.57085" lon="4.83243">
        <ele>232</ele>
        <time>2009-08-16T08:24:15Z</time>
      </trkpt>
      <trkpt lat="45.57089" lon="4.83246">
        <ele>232</ele>
        <time>2009-08-16T08:24:19Z</time>
      </trkpt>
      <trkpt lat="45.57093" lon="4.83254">
        <ele>233</ele>
        <time>2009-08-16T08:24:24Z</time>
      </trkpt>
      <trkpt lat="45.57098" lon="4.83263">
        <ele>234</ele>
        <time>2009-08-16T08:24:28Z</time>
      </trkpt>
      <trkpt lat="45.57108" lon="4.83274">
        <ele>236</ele>
        <time>2009-08-16T08:24:32Z</time>
      </trkpt>
      <trkpt lat="45.57111" lon="4.83287">
        <ele>237</ele>
        <time>2009-08-16T08:24:36Z</time>
      </trkpt>
      <trkpt lat="45.57114" lon="4.83307">
        <ele>237</ele>
        <time>2009-08-16T08:24:40Z</time>
      </trkpt>
      <trkpt lat="45.57116" lon="4.83323">
        <ele>238</ele>
        <time>2009-08-16T08:24:44Z</time>
      </trkpt>
      <trkpt lat="45.57121" lon="4.83339">
        <ele>241</ele>
        <time>2009-08-16T08:24:48Z</time>
      </trkpt>
      <trkpt lat="45.57123" lon="4.83349">
        <ele>241</ele>
        <time>2009-08-16T08:24:52Z</time>
      </trkpt>
      <trkpt lat="45.57126" lon="4.83363">
        <ele>241</ele>
        <time>2009-08-16T08:24:56Z</time>
      </trkpt>
      <trkpt lat="45.57132" lon="4.83373">
        <ele>242</ele>
        <time>2009-08-16T08:25:00Z</time>
      </trkpt>
      <trkpt lat="45.57135" lon="4.83378">
        <ele>242</ele>
        <time>2009-08-16T08:25:04Z</time>
      </trkpt>
      <trkpt lat="45.57137" lon="4.83383">
        <ele>243</ele>
        <time>2009-08-16T08:25:08Z</time>
      </trkpt>
      <trkpt lat="45.57135" lon="4.83395">
        <ele>243</ele>
        <time>2009-08-16T08:25:12Z</time>
      </trkpt>
      <trkpt lat="45.57129" lon="4.83403">
        <ele>243</ele>
        <time>2009-08-16T08:25:17Z</time>
      </trkpt>
      <trkpt lat="45.57123" lon="4.8341">
        <ele>242</ele>
        <time>2009-08-16T08:25:21Z</time>
      </trkpt>
      <trkpt lat="45.57116" lon="4.83418">
        <ele>244</ele>
        <time>2009-08-16T08:25:25Z</time>
      </trkpt>
      <trkpt lat="45.57105" lon="4.83425">
        <ele>243</ele>
        <time>2009-08-16T08:25:29Z</time>
      </trkpt>
      <trkpt lat="45.57087" lon="4.83441">
        <ele>243</ele>
        <time>2009-08-16T08:25:33Z</time>
      </trkpt>
      <trkpt lat="45.57072" lon="4.8346">
        <ele>241</ele>
        <time>2009-08-16T08:25:37Z</time>
      </trkpt>
      <trkpt lat="45.57058" lon="4.83478">
        <ele>242</ele>
        <time>2009-08-16T08:25:41Z</time>
      </trkpt>
      <trkpt lat="45.57046" lon="4.83494">
        <ele>242</ele>
        <time>2009-08-16T08:25:45Z</time>
      </trkpt>
      <trkpt lat="45.57035" lon="4.83504">
        <ele>243</ele>
        <time>2009-08-16T08:25:49Z</time>
      </trkpt>
      <trkpt lat="45.57035" lon="4.83501">
        <ele>243</ele>
        <time>2009-08-16T08:25:54Z</time>
      </trkpt>
      <trkpt lat="45.5704" lon="4.83496">
        <ele>242</ele>
        <time>2009-08-16T08:25:58Z</time>
      </trkpt>
      <trkpt lat="45.57044" lon="4.83497">
        <ele>242</ele>
        <time>2009-08-16T08:26:03Z</time>
      </trkpt>
      <trkpt lat="45.57045" lon="4.83496">
        <ele>242</ele>
        <time>2009-08-16T08:26:07Z</time>
      </trkpt>
      <trkpt lat="45.57044" lon="4.83494">
        <ele>242</ele>
        <time>2009-08-16T08:26:11Z</time>
      </trkpt>
      <trkpt lat="45.57042" lon="4.83491">
        <ele>242</ele>
        <time>2009-08-16T08:26:16Z</time>
      </trkpt>
      <trkpt lat="45.57041" lon="4.8349">
        <ele>242</ele>
        <time>2009-08-16T08:26:21Z</time>
      </trkpt>
      <trkpt lat="45.5704" lon="4.8349">
        <ele>242</ele>
        <time>2009-08-16T08:26:26Z</time>
      </trkpt>
      <trkpt lat="45.57039" lon="4.83491">
        <ele>242</ele>
        <time>2009-08-16T08:26:32Z</time>
      </trkpt>
      <trkpt lat="45.57039" lon="4.83495">
        <ele>242</ele>
        <time>2009-08-16T08:26:42Z</time>
      </trkpt>
      <trkpt lat="45.5704" lon="4.83499">
        <ele>242</ele>
        <time>2009-08-16T08:26:46Z</time>
      </trkpt>
      <trkpt lat="45.57038" lon="4.83504">
        <ele>243</ele>
        <time>2009-08-16T08:26:50Z</time>
      </trkpt>
      <trkpt lat="45.57038" lon="4.8351">
        <ele>243</ele>
        <time>2009-08-16T08:26:54Z</time>
      </trkpt>
      <trkpt lat="45.57035" lon="4.83518">
        <ele>243</ele>
        <time>2009-08-16T08:26:59Z</time>
      </trkpt>
      <trkpt lat="45.57031" lon="4.83524">
        <ele>243</ele>
        <time>2009-08-16T08:27:03Z</time>
      </trkpt>
      <trkpt lat="45.57026" lon="4.8353">
        <ele>243</ele>
        <time>2009-08-16T08:27:07Z</time>
      </trkpt>
      <trkpt lat="45.57025" lon="4.83537">
        <ele>243</ele>
        <time>2009-08-16T08:27:13Z</time>
      </trkpt>
      <trkpt lat="45.57022" lon="4.83545">
        <ele>243</ele>
        <time>2009-08-16T08:27:18Z</time>
      </trkpt>
      <trkpt lat="45.57022" lon="4.83548">
        <ele>244</ele>
        <time>2009-08-16T08:27:26Z</time>
      </trkpt>
      <trkpt lat="45.57024" lon="4.83549">
        <ele>244</ele>
        <time>2009-08-16T08:27:32Z</time>
      </trkpt>
      <trkpt lat="45.57022" lon="4.83549">
        <ele>244</ele>
        <time>2009-08-16T08:27:37Z</time>
      </trkpt>
      <trkpt lat="45.57019" lon="4.83553">
        <ele>243</ele>
        <time>2009-08-16T08:27:46Z</time>
      </trkpt>
      <trkpt lat="45.57018" lon="4.83554">
        <ele>243</ele>
        <time>2009-08-16T08:27:50Z</time>
      </trkpt>
      <trkpt lat="45.57017" lon="4.83555">
        <ele>243</ele>
        <time>2009-08-16T08:27:56Z</time>
      </trkpt>
      <trkpt lat="45.57016" lon="4.83553">
        <ele>243</ele>
        <time>2009-08-16T08:28:00Z</time>
      </trkpt>
      <trkpt lat="45.57015" lon="4.83556">
        <ele>243</ele>
        <time>2009-08-16T08:28:07Z</time>
      </trkpt>
      <trkpt lat="45.57016" lon="4.83557">
        <ele>243</ele>
        <time>2009-08-16T08:28:11Z</time>
      </trkpt>
      <trkpt lat="45.57017" lon="4.83558">
        <ele>243</ele>
        <time>2009-08-16T08:28:15Z</time>
      </trkpt>
      <trkpt lat="45.57015" lon="4.83562">
        <ele>243</ele>
        <time>2009-08-16T08:28:19Z</time>
      </trkpt>
      <trkpt lat="45.57013" lon="4.83566">
        <ele>243</ele>
        <time>2009-08-16T08:28:23Z</time>
      </trkpt>
      <trkpt lat="45.57012" lon="4.83572">
        <ele>243</ele>
        <time>2009-08-16T08:28:28Z</time>
      </trkpt>
      <trkpt lat="45.57011" lon="4.8358">
        <ele>243</ele>
        <time>2009-08-16T08:28:32Z</time>
      </trkpt>
      <trkpt lat="45.57007" lon="4.83591">
        <ele>244</ele>
        <time>2009-08-16T08:28:36Z</time>
      </trkpt>
      <trkpt lat="45.57005" lon="4.83612">
        <ele>247</ele>
        <time>2009-08-16T08:28:40Z</time>
      </trkpt>
      <trkpt lat="45.57" lon="4.83629">
        <ele>244</ele>
        <time>2009-08-16T08:28:44Z</time>
      </trkpt>
      <trkpt lat="45.56995" lon="4.83643">
        <ele>245</ele>
        <time>2009-08-16T08:28:48Z</time>
      </trkpt>
      <trkpt lat="45.5699" lon="4.83658">
        <ele>245</ele>
        <time>2009-08-16T08:28:52Z</time>
      </trkpt>
      <trkpt lat="45.56987" lon="4.83669">
        <ele>245</ele>
        <time>2009-08-16T08:28:57Z</time>
      </trkpt>
      <trkpt lat="45.56993" lon="4.83676">
        <ele>245</ele>
        <time>2009-08-16T08:29:01Z</time>
      </trkpt>
      <trkpt lat="45.56998" lon="4.83684">
        <ele>245</ele>
        <time>2009-08-16T08:29:05Z</time>
      </trkpt>
      <trkpt lat="45.57004" lon="4.83693">
        <ele>249</ele>
        <time>2009-08-16T08:29:09Z</time>
      </trkpt>
      <trkpt lat="45.5701" lon="4.83705">
        <ele>250</ele>
        <time>2009-08-16T08:29:13Z</time>
      </trkpt>
      <trkpt lat="45.57013" lon="4.83717">
        <ele>250</ele>
        <time>2009-08-16T08:29:17Z</time>
      </trkpt>
      <trkpt lat="45.57018" lon="4.83731">
        <ele>250</ele>
        <time>2009-08-16T08:29:21Z</time>
      </trkpt>
      <trkpt lat="45.57022" lon="4.83746">
        <ele>249</ele>
        <time>2009-08-16T08:29:25Z</time>
      </trkpt>
      <trkpt lat="45.57025" lon="4.83762">
        <ele>250</ele>
        <time>2009-08-16T08:29:29Z</time>
      </trkpt>
      <trkpt lat="45.57029" lon="4.83772">
        <ele>251</ele>
        <time>2009-08-16T08:29:33Z</time>
      </trkpt>
      <trkpt lat="45.57032" lon="4.83778">
        <ele>251</ele>
        <time>2009-08-16T08:29:37Z</time>
      </trkpt>
      <trkpt lat="45.57036" lon="4.83785">
        <ele>252</ele>
        <time>2009-08-16T08:29:41Z</time>
      </trkpt>
      <trkpt lat="45.5704" lon="4.83791">
        <ele>252</ele>
        <time>2009-08-16T08:29:45Z</time>
      </trkpt>
      <trkpt lat="45.57043" lon="4.83797">
        <ele>252</ele>
        <time>2009-08-16T08:29:50Z</time>
      </trkpt>
      <trkpt lat="45.5704" lon="4.83801">
        <ele>252</ele>
        <time>2009-08-16T08:29:54Z</time>
      </trkpt>
      <trkpt lat="45.57037" lon="4.83804">
        <ele>252</ele>
        <time>2009-08-16T08:29:58Z</time>
      </trkpt>
      <trkpt lat="45.57036" lon="4.83802">
        <ele>252</ele>
        <time>2009-08-16T08:30:03Z</time>
      </trkpt>
      <trkpt lat="45.57038" lon="4.83806">
        <ele>252</ele>
        <time>2009-08-16T08:30:07Z</time>
      </trkpt>
      <trkpt lat="45.57037" lon="4.83809">
        <ele>252</ele>
        <time>2009-08-16T08:30:14Z</time>
      </trkpt>
      <trkpt lat="45.57037" lon="4.83813">
        <ele>252</ele>
        <time>2009-08-16T08:30:20Z</time>
      </trkpt>
      <trkpt lat="45.57036" lon="4.83816">
        <ele>252</ele>
        <time>2009-08-16T08:30:26Z</time>
      </trkpt>
      <trkpt lat="45.57036" lon="4.83818">
        <ele>252</ele>
        <time>2009-08-16T08:30:37Z</time>
      </trkpt>
      <trkpt lat="45.57036" lon="4.83816">
        <ele>252</ele>
        <time>2009-08-16T08:30:41Z</time>
      </trkpt>
      <trkpt lat="45.57037" lon="4.83819">
        <ele>252</ele>
        <time>2009-08-16T08:30:45Z</time>
      </trkpt>
      <trkpt lat="45.57037" lon="4.83821">
        <ele>252</ele>
        <time>2009-08-16T08:30:49Z</time>
      </trkpt>
      <trkpt lat="45.57038" lon="4.83822">
        <ele>252</ele>
        <time>2009-08-16T08:31:12Z</time>
      </trkpt>
      <trkpt lat="45.57038" lon="4.83821">
        <ele>252</ele>
        <time>2009-08-16T08:31:21Z</time>
      </trkpt>
      <trkpt lat="45.57038" lon="4.8382">
        <ele>252</ele>
        <time>2009-08-16T08:31:29Z</time>
      </trkpt>
      <trkpt lat="45.5704" lon="4.83821">
        <ele>252</ele>
        <time>2009-08-16T08:31:35Z</time>
      </trkpt>
      <trkpt lat="45.57039" lon="4.83822">
        <ele>252</ele>
        <time>2009-08-16T08:31:52Z</time>
      </trkpt>
      <trkpt lat="45.5704" lon="4.83826">
        <ele>252</ele>
        <time>2009-08-16T08:31:58Z</time>
      </trkpt>
      <trkpt lat="45.5704" lon="4.83828">
        <ele>252</ele>
        <time>2009-08-16T08:32:03Z</time>
      </trkpt>
      <trkpt lat="45.57042" lon="4.83831">
        <ele>252</ele>
        <time>2009-08-16T08:32:10Z</time>
      </trkpt>
      <trkpt lat="45.57043" lon="4.83834">
        <ele>253</ele>
        <time>2009-08-16T08:32:16Z</time>
      </trkpt>
      <trkpt lat="45.57041" lon="4.83838">
        <ele>253</ele>
        <time>2009-08-16T08:32:21Z</time>
      </trkpt>
      <trkpt lat="45.57043" lon="4.83837">
        <ele>253</ele>
        <time>2009-08-16T08:32:26Z</time>
      </trkpt>
      <trkpt lat="45.57041" lon="4.83838">
        <ele>253</ele>
        <time>2009-08-16T08:32:32Z</time>
      </trkpt>
      <trkpt lat="45.57039" lon="4.83834">
        <ele>253</ele>
        <time>2009-08-16T08:32:36Z</time>
      </trkpt>
      <trkpt lat="45.57036" lon="4.8383">
        <ele>252</ele>
        <time>2009-08-16T08:32:42Z</time>
      </trkpt>
      <trkpt lat="45.57033" lon="4.83831">
        <ele>252</ele>
        <time>2009-08-16T08:32:52Z</time>
      </trkpt>
      <trkpt lat="45.57032" lon="4.83841">
        <ele>253</ele>
        <time>2009-08-16T08:32:57Z</time>
      </trkpt>
      <trkpt lat="45.57039" lon="4.83838">
        <ele>253</ele>
        <time>2009-08-16T08:33:02Z</time>
      </trkpt>
      <trkpt lat="45.57041" lon="4.83837">
        <ele>253</ele>
        <time>2009-08-16T08:33:14Z</time>
      </trkpt>
      <trkpt lat="45.57042" lon="4.83838">
        <ele>253</ele>
        <time>2009-08-16T08:33:22Z</time>
      </trkpt>
      <trkpt lat="45.57044" lon="4.8384">
        <ele>253</ele>
        <time>2009-08-16T08:33:27Z</time>
      </trkpt>
      <trkpt lat="45.57046" lon="4.83838">
        <ele>253</ele>
        <time>2009-08-16T08:33:33Z</time>
      </trkpt>
      <trkpt lat="45.57044" lon="4.83838">
        <ele>253</ele>
        <time>2009-08-16T08:33:46Z</time>
      </trkpt>
      <trkpt lat="45.57043" lon="4.83838">
        <ele>253</ele>
        <time>2009-08-16T08:34:00Z</time>
      </trkpt>
      <trkpt lat="45.57041" lon="4.83837">
        <ele>253</ele>
        <time>2009-08-16T08:34:05Z</time>
      </trkpt>
      <trkpt lat="45.57038" lon="4.83837">
        <ele>253</ele>
        <time>2009-08-16T08:34:17Z</time>
      </trkpt>
      <trkpt lat="45.57036" lon="4.83839">
        <ele>253</ele>
        <time>2009-08-16T08:34:24Z</time>
      </trkpt>
      <trkpt lat="45.57039" lon="4.83839">
        <ele>253</ele>
        <time>2009-08-16T08:34:28Z</time>
      </trkpt>
      <trkpt lat="45.57038" lon="4.83841">
        <ele>253</ele>
        <time>2009-08-16T08:34:38Z</time>
      </trkpt>
      <trkpt lat="45.57039" lon="4.83839">
        <ele>253</ele>
        <time>2009-08-16T08:34:47Z</time>
      </trkpt>
      <trkpt lat="45.57039" lon="4.83837">
        <ele>253</ele>
        <time>2009-08-16T08:34:56Z</time>
      </trkpt>
      <trkpt lat="45.57037" lon="4.83838">
        <ele>253</ele>
        <time>2009-08-16T08:35:00Z</time>
      </trkpt>
      <trkpt lat="45.57036" lon="4.83837">
        <ele>253</ele>
        <time>2009-08-16T08:35:07Z</time>
      </trkpt>
      <trkpt lat="45.57037" lon="4.83835">
        <ele>253</ele>
        <time>2009-08-16T08:35:11Z</time>
      </trkpt>
      <trkpt lat="45.57041" lon="4.83832">
        <ele>252</ele>
        <time>2009-08-16T08:35:15Z</time>
      </trkpt>
      <trkpt lat="45.57046" lon="4.83831">
        <ele>252</ele>
        <time>2009-08-16T08:35:20Z</time>
      </trkpt>
      <trkpt lat="45.5705" lon="4.8383">
        <ele>253</ele>
        <time>2009-08-16T08:35:24Z</time>
      </trkpt>
      <trkpt lat="45.57053" lon="4.83831">
        <ele>253</ele>
        <time>2009-08-16T08:35:28Z</time>
      </trkpt>
      <trkpt lat="45.57054" lon="4.83832">
        <ele>253</ele>
        <time>2009-08-16T08:35:40Z</time>
      </trkpt>
      <trkpt lat="45.57052" lon="4.83832">
        <ele>253</ele>
        <time>2009-08-16T08:35:46Z</time>
      </trkpt>
      <trkpt lat="45.57051" lon="4.83831">
        <ele>253</ele>
        <time>2009-08-16T08:35:51Z</time>
      </trkpt>
      <trkpt lat="45.5705" lon="4.83831">
        <ele>253</ele>
        <time>2009-08-16T08:35:56Z</time>
      </trkpt>
      <trkpt lat="45.57047" lon="4.8383">
        <ele>252</ele>
        <time>2009-08-16T08:36:00Z</time>
      </trkpt>
      <trkpt lat="45.57045" lon="4.8383">
        <ele>252</ele>
        <time>2009-08-16T08:36:06Z</time>
      </trkpt>
      <trkpt lat="45.57044" lon="4.83829">
        <ele>252</ele>
        <time>2009-08-16T08:36:13Z</time>
      </trkpt>
      <trkpt lat="45.57043" lon="4.83829">
        <ele>252</ele>
        <time>2009-08-16T08:36:36Z</time>
      </trkpt>
      <trkpt lat="45.57041" lon="4.83829">
        <ele>252</ele>
        <time>2009-08-16T08:36:40Z</time>
      </trkpt>
      <trkpt lat="45.57039" lon="4.83826">
        <ele>252</ele>
        <time>2009-08-16T08:36:45Z</time>
      </trkpt>
      <trkpt lat="45.57038" lon="4.83823">
        <ele>252</ele>
        <time>2009-08-16T08:36:50Z</time>
      </trkpt>
      <trkpt lat="45.57041" lon="4.83824">
        <ele>252</ele>
        <time>2009-08-16T08:36:54Z</time>
      </trkpt>
      <trkpt lat="45.57044" lon="4.83825">
        <ele>252</ele>
        <time>2009-08-16T08:36:59Z</time>
      </trkpt>
      <trkpt lat="45.57045" lon="4.83826">
        <ele>252</ele>
        <time>2009-08-16T08:37:03Z</time>
      </trkpt>
      <trkpt lat="45.57044" lon="4.83827">
        <ele>252</ele>
        <time>2009-08-16T08:37:27Z</time>
      </trkpt>
      <trkpt lat="45.57043" lon="4.83827">
        <ele>252</ele>
        <time>2009-08-16T08:37:35Z</time>
      </trkpt>
      <trkpt lat="45.57042" lon="4.83828">
        <ele>252</ele>
        <time>2009-08-16T08:37:47Z</time>
      </trkpt>
      <trkpt lat="45.5704" lon="4.83826">
        <ele>252</ele>
        <time>2009-08-16T08:37:56Z</time>
      </trkpt>
      <trkpt lat="45.57041" lon="4.83828">
        <ele>252</ele>
        <time>2009-08-16T08:38:03Z</time>
      </trkpt>
      <trkpt lat="45.57043" lon="4.83831">
        <ele>252</ele>
        <time>2009-08-16T08:38:07Z</time>
      </trkpt>
      <trkpt lat="45.57045" lon="4.83832">
        <ele>252</ele>
        <time>2009-08-16T08:38:16Z</time>
      </trkpt>
      <trkpt lat="45.57041" lon="4.83836">
        <ele>253</ele>
        <time>2009-08-16T08:38:20Z</time>
      </trkpt>
      <trkpt lat="45.57036" lon="4.83839">
        <ele>253</ele>
        <time>2009-08-16T08:38:24Z</time>
      </trkpt>
      <trkpt lat="45.57034" lon="4.83842">
        <ele>253</ele>
        <time>2009-08-16T08:38:32Z</time>
      </trkpt>
      <trkpt lat="45.57034" lon="4.83844">
        <ele>253</ele>
        <time>2009-08-16T08:38:36Z</time>
      </trkpt>
      <trkpt lat="45.57034" lon="4.83847">
        <ele>253</ele>
        <time>2009-08-16T08:38:41Z</time>
      </trkpt>
      <trkpt lat="45.57033" lon="4.83846">
        <ele>253</ele>
        <time>2009-08-16T08:38:48Z</time>
      </trkpt>
      <trkpt lat="45.57033" lon="4.83847">
        <ele>253</ele>
        <time>2009-08-16T08:38:55Z</time>
      </trkpt>
      <trkpt lat="45.57034" lon="4.83848">
        <ele>253</ele>
        <time>2009-08-16T08:39:01Z</time>
      </trkpt>
      <trkpt lat="45.57035" lon="4.8385">
        <ele>253</ele>
        <time>2009-08-16T08:39:07Z</time>
      </trkpt>
      <trkpt lat="45.57038" lon="4.83851">
        <ele>253</ele>
        <time>2009-08-16T08:39:14Z</time>
      </trkpt>
      <trkpt lat="45.57036" lon="4.8385">
        <ele>253</ele>
        <time>2009-08-16T08:39:25Z</time>
      </trkpt>
      <trkpt lat="45.57036" lon="4.83849">
        <ele>253</ele>
        <time>2009-08-16T08:39:34Z</time>
      </trkpt>
      <trkpt lat="45.57034" lon="4.83851">
        <ele>253</ele>
        <time>2009-08-16T08:39:38Z</time>
      </trkpt>
      <trkpt lat="45.57035" lon="4.83853">
        <ele>253</ele>
        <time>2009-08-16T08:39:45Z</time>
      </trkpt>
      <trkpt lat="45.57031" lon="4.83855">
        <ele>253</ele>
        <time>2009-08-16T08:39:50Z</time>
      </trkpt>
      <trkpt lat="45.57027" lon="4.83856">
        <ele>253</ele>
        <time>2009-08-16T08:39:54Z</time>
      </trkpt>
      <trkpt lat="45.57026" lon="4.83855">
        <ele>253</ele>
        <time>2009-08-16T08:39:58Z</time>
      </trkpt>
      <trkpt lat="45.57028" lon="4.83853">
        <ele>253</ele>
        <time>2009-08-16T08:40:03Z</time>
      </trkpt>
      <trkpt lat="45.57033" lon="4.83853">
        <ele>253</ele>
        <time>2009-08-16T08:40:07Z</time>
      </trkpt>
      <trkpt lat="45.57041" lon="4.83853">
        <ele>253</ele>
        <time>2009-08-16T08:40:12Z</time>
      </trkpt>
      <trkpt lat="45.57044" lon="4.83856">
        <ele>254</ele>
        <time>2009-08-16T08:40:16Z</time>
      </trkpt>
      <trkpt lat="45.57044" lon="4.83857">
        <ele>254</ele>
        <time>2009-08-16T08:40:20Z</time>
      </trkpt>
      <trkpt lat="45.57039" lon="4.83855">
        <ele>253</ele>
        <time>2009-08-16T08:40:25Z</time>
      </trkpt>
      <trkpt lat="45.57038" lon="4.83851">
        <ele>253</ele>
        <time>2009-08-16T08:40:33Z</time>
      </trkpt>
      <trkpt lat="45.57037" lon="4.83848">
        <ele>253</ele>
        <time>2009-08-16T08:40:37Z</time>
      </trkpt>
      <trkpt lat="45.57034" lon="4.83848">
        <ele>253</ele>
        <time>2009-08-16T08:40:48Z</time>
      </trkpt>
      <trkpt lat="45.57035" lon="4.83851">
        <ele>253</ele>
        <time>2009-08-16T08:40:53Z</time>
      </trkpt>
      <trkpt lat="45.57042" lon="4.83861">
        <ele>254</ele>
        <time>2009-08-16T08:40:57Z</time>
      </trkpt>
      <trkpt lat="45.57053" lon="4.83882">
        <ele>254</ele>
        <time>2009-08-16T08:41:01Z</time>
      </trkpt>
      <trkpt lat="45.57062" lon="4.83901">
        <ele>254</ele>
        <time>2009-08-16T08:41:05Z</time>
      </trkpt>
      <trkpt lat="45.57067" lon="4.83914">
        <ele>255</ele>
        <time>2009-08-16T08:41:09Z</time>
      </trkpt>
      <trkpt lat="45.57067" lon="4.83929">
        <ele>255</ele>
        <time>2009-08-16T08:41:13Z</time>
      </trkpt>
      <trkpt lat="45.57068" lon="4.83944">
        <ele>255</ele>
        <time>2009-08-16T08:41:17Z</time>
      </trkpt>
      <trkpt lat="45.5707" lon="4.8396">
        <ele>255</ele>
        <time>2009-08-16T08:41:21Z</time>
      </trkpt>
      <trkpt lat="45.57071" lon="4.8397">
        <ele>255</ele>
        <time>2009-08-16T08:41:25Z</time>
      </trkpt>
      <trkpt lat="45.57071" lon="4.83982">
        <ele>255</ele>
        <time>2009-08-16T08:41:29Z</time>
      </trkpt>
      <trkpt lat="45.57072" lon="4.83994">
        <ele>255</ele>
        <time>2009-08-16T08:41:33Z</time>
      </trkpt>
      <trkpt lat="45.57072" lon="4.84004">
        <ele>255</ele>
        <time>2009-08-16T08:41:37Z</time>
      </trkpt>
      <trkpt lat="45.57074" lon="4.84011">
        <ele>255</ele>
        <time>2009-08-16T08:41:41Z</time>
      </trkpt>
      <trkpt lat="45.57077" lon="4.84019">
        <ele>255</ele>
        <time>2009-08-16T08:41:46Z</time>
      </trkpt>
      <trkpt lat="45.57078" lon="4.84027">
        <ele>254</ele>
        <time>2009-08-16T08:41:51Z</time>
      </trkpt>
      <trkpt lat="45.57079" lon="4.84037">
        <ele>254</ele>
        <time>2009-08-16T08:41:55Z</time>
      </trkpt>
      <trkpt lat="45.57082" lon="4.84047">
        <ele>254</ele>
        <time>2009-08-16T08:41:59Z</time>
      </trkpt>
      <trkpt lat="45.57084" lon="4.84055">
        <ele>258</ele>
        <time>2009-08-16T08:42:03Z</time>
      </trkpt>
      <trkpt lat="45.57087" lon="4.84064">
        <ele>257</ele>
        <time>2009-08-16T08:42:08Z</time>
      </trkpt>
      <trkpt lat="45.57089" lon="4.8407">
        <ele>257</ele>
        <time>2009-08-16T08:42:12Z</time>
      </trkpt>
      <trkpt lat="45.57091" lon="4.84078">
        <ele>256</ele>
        <time>2009-08-16T08:42:16Z</time>
      </trkpt>
      <trkpt lat="45.57094" lon="4.84085">
        <ele>255</ele>
        <time>2009-08-16T08:42:20Z</time>
      </trkpt>
      <trkpt lat="45.57096" lon="4.84092">
        <ele>256</ele>
        <time>2009-08-16T08:42:24Z</time>
      </trkpt>
      <trkpt lat="45.57102" lon="4.841">
        <ele>256</ele>
        <time>2009-08-16T08:42:28Z</time>
      </trkpt>
      <trkpt lat="45.57107" lon="4.84103">
        <ele>257</ele>
        <time>2009-08-16T08:42:32Z</time>
      </trkpt>
      <trkpt lat="45.57113" lon="4.84105">
        <ele>257</ele>
        <time>2009-08-16T08:42:36Z</time>
      </trkpt>
      <trkpt lat="45.57118" lon="4.84107">
        <ele>257</ele>
        <time>2009-08-16T08:42:41Z</time>
      </trkpt>
      <trkpt lat="45.57122" lon="4.84109">
        <ele>258</ele>
        <time>2009-08-16T08:42:45Z</time>
      </trkpt>
      <trkpt lat="45.5713" lon="4.84111">
        <ele>258</ele>
        <time>2009-08-16T08:42:50Z</time>
      </trkpt>
      <trkpt lat="45.57136" lon="4.84111">
        <ele>259</ele>
        <time>2009-08-16T08:42:54Z</time>
      </trkpt>
      <trkpt lat="45.57141" lon="4.84111">
        <ele>259</ele>
        <time>2009-08-16T08:42:58Z</time>
      </trkpt>
      <trkpt lat="45.57148" lon="4.84111">
        <ele>259</ele>
        <time>2009-08-16T08:43:02Z</time>
      </trkpt>
      <trkpt lat="45.57154" lon="4.84113">
        <ele>260</ele>
        <time>2009-08-16T08:43:07Z</time>
      </trkpt>
      <trkpt lat="45.57158" lon="4.84115">
        <ele>260</ele>
        <time>2009-08-16T08:43:11Z</time>
      </trkpt>
      <trkpt lat="45.57163" lon="4.84116">
        <ele>260</ele>
        <time>2009-08-16T08:43:15Z</time>
      </trkpt>
      <trkpt lat="45.57169" lon="4.84116">
        <ele>264</ele>
        <time>2009-08-16T08:43:19Z</time>
      </trkpt>
      <trkpt lat="45.57176" lon="4.84116">
        <ele>264</ele>
        <time>2009-08-16T08:43:23Z</time>
      </trkpt>
      <trkpt lat="45.57183" lon="4.84118">
        <ele>264</ele>
        <time>2009-08-16T08:43:27Z</time>
      </trkpt>
      <trkpt lat="45.57189" lon="4.84121">
        <ele>264</ele>
        <time>2009-08-16T08:43:31Z</time>
      </trkpt>
      <trkpt lat="45.57198" lon="4.84124">
        <ele>264</ele>
        <time>2009-08-16T08:43:35Z</time>
      </trkpt>
      <trkpt lat="45.57208" lon="4.84127">
        <ele>264</ele>
        <time>2009-08-16T08:43:39Z</time>
      </trkpt>
      <trkpt lat="45.57217" lon="4.8413">
        <ele>265</ele>
        <time>2009-08-16T08:43:43Z</time>
      </trkpt>
      <trkpt lat="45.57227" lon="4.84134">
        <ele>265</ele>
        <time>2009-08-16T08:43:47Z</time>
      </trkpt>
      <trkpt lat="45.57239" lon="4.84136">
        <ele>265</ele>
        <time>2009-08-16T08:43:51Z</time>
      </trkpt>
      <trkpt lat="45.57251" lon="4.84135">
        <ele>267</ele>
        <time>2009-08-16T08:43:55Z</time>
      </trkpt>
      <trkpt lat="45.57264" lon="4.84133">
        <ele>267</ele>
        <time>2009-08-16T08:43:59Z</time>
      </trkpt>
      <trkpt lat="45.57276" lon="4.84134">
        <ele>267</ele>
        <time>2009-08-16T08:44:03Z</time>
      </trkpt>
      <trkpt lat="45.5729" lon="4.84135">
        <ele>267</ele>
        <time>2009-08-16T08:44:07Z</time>
      </trkpt>
      <trkpt lat="45.57302" lon="4.84138">
        <ele>267</ele>
        <time>2009-08-16T08:44:11Z</time>
      </trkpt>
      <trkpt lat="45.57314" lon="4.84141">
        <ele>267</ele>
        <time>2009-08-16T08:44:15Z</time>
      </trkpt>
      <trkpt lat="45.57325" lon="4.84144">
        <ele>267</ele>
        <time>2009-08-16T08:44:19Z</time>
      </trkpt>
      <trkpt lat="45.57337" lon="4.84147">
        <ele>268</ele>
        <time>2009-08-16T08:44:23Z</time>
      </trkpt>
      <trkpt lat="45.57349" lon="4.84151">
        <ele>269</ele>
        <time>2009-08-16T08:44:27Z</time>
      </trkpt>
      <trkpt lat="45.57362" lon="4.84154">
        <ele>269</ele>
        <time>2009-08-16T08:44:31Z</time>
      </trkpt>
      <trkpt lat="45.57373" lon="4.84157">
        <ele>270</ele>
        <time>2009-08-16T08:44:35Z</time>
      </trkpt>
      <trkpt lat="45.57383" lon="4.84158">
        <ele>270</ele>
        <time>2009-08-16T08:44:39Z</time>
      </trkpt>
      <trkpt lat="45.57392" lon="4.8416">
        <ele>271</ele>
        <time>2009-08-16T08:44:43Z</time>
      </trkpt>
      <trkpt lat="45.57401" lon="4.84164">
        <ele>271</ele>
        <time>2009-08-16T08:44:47Z</time>
      </trkpt>
      <trkpt lat="45.57407" lon="4.84168">
        <ele>271</ele>
        <time>2009-08-16T08:44:51Z</time>
      </trkpt>
      <trkpt lat="45.57414" lon="4.84171">
        <ele>272</ele>
        <time>2009-08-16T08:44:55Z</time>
      </trkpt>
      <trkpt lat="45.57424" lon="4.84173">
        <ele>273</ele>
        <time>2009-08-16T08:44:59Z</time>
      </trkpt>
      <trkpt lat="45.57432" lon="4.84174">
        <ele>274</ele>
        <time>2009-08-16T08:45:03Z</time>
      </trkpt>
      <trkpt lat="45.57439" lon="4.84176">
        <ele>274</ele>
        <time>2009-08-16T08:45:07Z</time>
      </trkpt>
      <trkpt lat="45.57446" lon="4.84178">
        <ele>274</ele>
        <time>2009-08-16T08:45:11Z</time>
      </trkpt>
      <trkpt lat="45.57453" lon="4.84182">
        <ele>275</ele>
        <time>2009-08-16T08:45:15Z</time>
      </trkpt>
      <trkpt lat="45.57462" lon="4.84185">
        <ele>275</ele>
        <time>2009-08-16T08:45:19Z</time>
      </trkpt>
      <trkpt lat="45.57469" lon="4.84188">
        <ele>275</ele>
        <time>2009-08-16T08:45:23Z</time>
      </trkpt>
      <trkpt lat="45.57477" lon="4.84192">
        <ele>276</ele>
        <time>2009-08-16T08:45:27Z</time>
      </trkpt>
      <trkpt lat="45.57485" lon="4.84196">
        <ele>276</ele>
        <time>2009-08-16T08:45:31Z</time>
      </trkpt>
      <trkpt lat="45.57493" lon="4.84199">
        <ele>276</ele>
        <time>2009-08-16T08:45:35Z</time>
      </trkpt>
      <trkpt lat="45.575" lon="4.84204">
        <ele>279</ele>
        <time>2009-08-16T08:45:39Z</time>
      </trkpt>
      <trkpt lat="45.57509" lon="4.84208">
        <ele>279</ele>
        <time>2009-08-16T08:45:43Z</time>
      </trkpt>
      <trkpt lat="45.57516" lon="4.84212">
        <ele>279</ele>
        <time>2009-08-16T08:45:47Z</time>
      </trkpt>
      <trkpt lat="45.57523" lon="4.84216">
        <ele>279</ele>
        <time>2009-08-16T08:45:51Z</time>
      </trkpt>
      <trkpt lat="45.57531" lon="4.8422">
        <ele>279</ele>
        <time>2009-08-16T08:45:55Z</time>
      </trkpt>
      <trkpt lat="45.5754" lon="4.84223">
        <ele>280</ele>
        <time>2009-08-16T08:45:59Z</time>
      </trkpt>
      <trkpt lat="45.57548" lon="4.84226">
        <ele>280</ele>
        <time>2009-08-16T08:46:03Z</time>
      </trkpt>
      <trkpt lat="45.57556" lon="4.8423">
        <ele>280</ele>
        <time>2009-08-16T08:46:07Z</time>
      </trkpt>
      <trkpt lat="45.57565" lon="4.84233">
        <ele>281</ele>
        <time>2009-08-16T08:46:11Z</time>
      </trkpt>
      <trkpt lat="45.57573" lon="4.84235">
        <ele>281</ele>
        <time>2009-08-16T08:46:15Z</time>
      </trkpt>
      <trkpt lat="45.57582" lon="4.84237">
        <ele>282</ele>
        <time>2009-08-16T08:46:19Z</time>
      </trkpt>
      <trkpt lat="45.57592" lon="4.84239">
        <ele>283</ele>
        <time>2009-08-16T08:46:23Z</time>
      </trkpt>
      <trkpt lat="45.576" lon="4.8424">
        <ele>283</ele>
        <time>2009-08-16T08:46:27Z</time>
      </trkpt>
      <trkpt lat="45.5761" lon="4.84239">
        <ele>283</ele>
        <time>2009-08-16T08:46:31Z</time>
      </trkpt>
      <trkpt lat="45.57618" lon="4.84237">
        <ele>283</ele>
        <time>2009-08-16T08:46:35Z</time>
      </trkpt>
      <trkpt lat="45.57628" lon="4.84234">
        <ele>283</ele>
        <time>2009-08-16T08:46:39Z</time>
      </trkpt>
      <trkpt lat="45.57638" lon="4.84231">
        <ele>283</ele>
        <time>2009-08-16T08:46:43Z</time>
      </trkpt>
      <trkpt lat="45.57649" lon="4.8423">
        <ele>283</ele>
        <time>2009-08-16T08:46:47Z</time>
      </trkpt>
      <trkpt lat="45.57659" lon="4.84227">
        <ele>283</ele>
        <time>2009-08-16T08:46:51Z</time>
      </trkpt>
      <trkpt lat="45.57668" lon="4.84225">
        <ele>283</ele>
        <time>2009-08-16T08:46:55Z</time>
      </trkpt>
      <trkpt lat="45.57676" lon="4.84222">
        <ele>283</ele>
        <time>2009-08-16T08:46:59Z</time>
      </trkpt>
      <trkpt lat="45.57677" lon="4.84218">
        <ele>283</ele>
        <time>2009-08-16T08:47:03Z</time>
      </trkpt>
      <trkpt lat="45.57676" lon="4.84218">
        <ele>283</ele>
        <time>2009-08-16T08:47:08Z</time>
      </trkpt>
      <trkpt lat="45.57674" lon="4.84218">
        <ele>283</ele>
        <time>2009-08-16T08:47:13Z</time>
      </trkpt>
      <trkpt lat="45.57673" lon="4.84218">
        <ele>283</ele>
        <time>2009-08-16T08:47:18Z</time>
      </trkpt>
      <trkpt lat="45.57673" lon="4.84219">
        <ele>283</ele>
        <time>2009-08-16T08:47:24Z</time>
      </trkpt>
      <trkpt lat="45.57673" lon="4.84221">
        <ele>283</ele>
        <time>2009-08-16T08:47:29Z</time>
      </trkpt>
      <trkpt lat="45.57672" lon="4.84223">
        <ele>283</ele>
        <time>2009-08-16T08:47:34Z</time>
      </trkpt>
      <trkpt lat="45.57673" lon="4.84223">
        <ele>283</ele>
        <time>2009-08-16T08:49:03Z</time>
      </trkpt>
      <trkpt lat="45.57674" lon="4.84221">
        <ele>283</ele>
        <time>2009-08-16T08:49:11Z</time>
      </trkpt>
      <trkpt lat="45.57674" lon="4.84215">
        <ele>283</ele>
        <time>2009-08-16T08:49:15Z</time>
      </trkpt>
      <trkpt lat="45.57674" lon="4.84206">
        <ele>283</ele>
        <time>2009-08-16T08:49:19Z</time>
      </trkpt>
      <trkpt lat="45.57672" lon="4.84193">
        <ele>282</ele>
        <time>2009-08-16T08:49:23Z</time>
      </trkpt>
      <trkpt lat="45.57671" lon="4.84178">
        <ele>283</ele>
        <time>2009-08-16T08:49:27Z</time>
      </trkpt>
      <trkpt lat="45.5767" lon="4.84162">
        <ele>282</ele>
        <time>2009-08-16T08:49:31Z</time>
      </trkpt>
      <trkpt lat="45.57669" lon="4.84139">
        <ele>281</ele>
        <time>2009-08-16T08:49:35Z</time>
      </trkpt>
      <trkpt lat="45.57668" lon="4.84112">
        <ele>280</ele>
        <time>2009-08-16T08:49:40Z</time>
      </trkpt>
      <trkpt lat="45.57669" lon="4.84093">
        <ele>279</ele>
        <time>2009-08-16T08:49:44Z</time>
      </trkpt>
      <trkpt lat="45.57683" lon="4.84086">
        <ele>279</ele>
        <time>2009-08-16T08:49:48Z</time>
      </trkpt>
      <trkpt lat="45.57696" lon="4.84086">
        <ele>279</ele>
        <time>2009-08-16T08:49:52Z</time>
      </trkpt>
      <trkpt lat="45.57713" lon="4.84087">
        <ele>279</ele>
        <time>2009-08-16T08:49:57Z</time>
      </trkpt>
      <trkpt lat="45.57722" lon="4.84088">
        <ele>279</ele>
        <time>2009-08-16T08:50:03Z</time>
      </trkpt>
      <trkpt lat="45.57721" lon="4.84087">
        <ele>279</ele>
        <time>2009-08-16T08:50:11Z</time>
      </trkpt>
      <trkpt lat="45.57721" lon="4.84086">
        <ele>279</ele>
        <time>2009-08-16T08:50:20Z</time>
      </trkpt>
      <trkpt lat="45.57722" lon="4.84083">
        <ele>277</ele>
        <time>2009-08-16T08:50:25Z</time>
      </trkpt>
      <trkpt lat="45.57724" lon="4.84082">
        <ele>278</ele>
        <time>2009-08-16T08:50:32Z</time>
      </trkpt>
      <trkpt lat="45.57727" lon="4.84082">
        <ele>278</ele>
        <time>2009-08-16T08:50:36Z</time>
      </trkpt>
      <trkpt lat="45.57728" lon="4.84081">
        <ele>278</ele>
        <time>2009-08-16T08:50:45Z</time>
      </trkpt>
      <trkpt lat="45.57734" lon="4.84083">
        <ele>278</ele>
        <time>2009-08-16T08:50:49Z</time>
      </trkpt>
      <trkpt lat="45.57748" lon="4.84084">
        <ele>279</ele>
        <time>2009-08-16T08:50:53Z</time>
      </trkpt>
      <trkpt lat="45.57755" lon="4.8408">
        <ele>279</ele>
        <time>2009-08-16T08:50:57Z</time>
      </trkpt>
      <trkpt lat="45.57753" lon="4.84069">
        <ele>279</ele>
        <time>2009-08-16T08:51:01Z</time>
      </trkpt>
      <trkpt lat="45.57744" lon="4.84057">
        <ele>277</ele>
        <time>2009-08-16T08:51:05Z</time>
      </trkpt>
      <trkpt lat="45.57739" lon="4.84049">
        <ele>277</ele>
        <time>2009-08-16T08:51:09Z</time>
      </trkpt>
      <trkpt lat="45.57735" lon="4.84045">
        <ele>277</ele>
        <time>2009-08-16T08:51:13Z</time>
      </trkpt>
      <trkpt lat="45.57728" lon="4.8405">
        <ele>277</ele>
        <time>2009-08-16T08:51:18Z</time>
      </trkpt>
      <trkpt lat="45.57724" lon="4.84049">
        <ele>277</ele>
        <time>2009-08-16T08:51:22Z</time>
      </trkpt>
      <trkpt lat="45.57725" lon="4.84042">
        <ele>277</ele>
        <time>2009-08-16T08:51:27Z</time>
      </trkpt>
      <trkpt lat="45.57732" lon="4.84042">
        <ele>277</ele>
        <time>2009-08-16T08:51:31Z</time>
      </trkpt>
      <trkpt lat="45.57739" lon="4.84042">
        <ele>277</ele>
        <time>2009-08-16T08:51:35Z</time>
      </trkpt>
      <trkpt lat="45.57746" lon="4.84041">
        <ele>276</ele>
        <time>2009-08-16T08:51:40Z</time>
      </trkpt>
      <trkpt lat="45.5775" lon="4.84036">
        <ele>277</ele>
        <time>2009-08-16T08:51:44Z</time>
      </trkpt>
      <trkpt lat="45.57756" lon="4.84036">
        <ele>278</ele>
        <time>2009-08-16T08:51:49Z</time>
      </trkpt>
      <trkpt lat="45.5776" lon="4.84039">
        <ele>278</ele>
        <time>2009-08-16T08:51:53Z</time>
      </trkpt>
      <trkpt lat="45.57765" lon="4.84039">
        <ele>278</ele>
        <time>2009-08-16T08:51:57Z</time>
      </trkpt>
      <trkpt lat="45.57768" lon="4.84035">
        <ele>278</ele>
        <time>2009-08-16T08:52:02Z</time>
      </trkpt>
      <trkpt lat="45.5777" lon="4.84035">
        <ele>278</ele>
        <time>2009-08-16T08:52:06Z</time>
      </trkpt>
      <trkpt lat="45.57771" lon="4.84036">
        <ele>278</ele>
        <time>2009-08-16T08:52:18Z</time>
      </trkpt>
      <trkpt lat="45.5777" lon="4.84038">
        <ele>278</ele>
        <time>2009-08-16T08:52:23Z</time>
      </trkpt>
      <trkpt lat="45.57771" lon="4.84037">
        <ele>278</ele>
        <time>2009-08-16T08:52:29Z</time>
      </trkpt>
      <trkpt lat="45.57772" lon="4.84034">
        <ele>278</ele>
        <time>2009-08-16T08:52:36Z</time>
      </trkpt>
      <trkpt lat="45.57773" lon="4.84032">
        <ele>278</ele>
        <time>2009-08-16T08:52:44Z</time>
      </trkpt>
      <trkpt lat="45.57773" lon="4.84028">
        <ele>278</ele>
        <time>2009-08-16T08:52:52Z</time>
      </trkpt>
      <trkpt lat="45.57773" lon="4.84027">
        <ele>278</ele>
        <time>2009-08-16T08:52:56Z</time>
      </trkpt>
      <trkpt lat="45.57774" lon="4.84029">
        <ele>278</ele>
        <time>2009-08-16T08:53:01Z</time>
      </trkpt>
      <trkpt lat="45.57778" lon="4.8403">
        <ele>278</ele>
        <time>2009-08-16T08:53:06Z</time>
      </trkpt>
      <trkpt lat="45.5778" lon="4.8403">
        <ele>278</ele>
        <time>2009-08-16T08:53:15Z</time>
      </trkpt>
      <trkpt lat="45.57786" lon="4.84031">
        <ele>278</ele>
        <time>2009-08-16T08:53:20Z</time>
      </trkpt>
      <trkpt lat="45.57789" lon="4.84031">
        <ele>278</ele>
        <time>2009-08-16T08:53:24Z</time>
      </trkpt>
      <trkpt lat="45.57792" lon="4.8403">
        <ele>278</ele>
        <time>2009-08-16T08:53:29Z</time>
      </trkpt>
      <trkpt lat="45.57795" lon="4.84031">
        <ele>278</ele>
        <time>2009-08-16T08:53:39Z</time>
      </trkpt>
      <trkpt lat="45.57798" lon="4.84027">
        <ele>278</ele>
        <time>2009-08-16T08:53:44Z</time>
      </trkpt>
      <trkpt lat="45.57797" lon="4.84026">
        <ele>278</ele>
        <time>2009-08-16T08:53:48Z</time>
      </trkpt>
      <trkpt lat="45.578" lon="4.84026">
        <ele>278</ele>
        <time>2009-08-16T08:53:53Z</time>
      </trkpt>
      <trkpt lat="45.57802" lon="4.84024">
        <ele>278</ele>
        <time>2009-08-16T08:53:59Z</time>
      </trkpt>
      <trkpt lat="45.578" lon="4.84022">
        <ele>278</ele>
        <time>2009-08-16T08:54:03Z</time>
      </trkpt>
      <trkpt lat="45.57802" lon="4.84026">
        <ele>278</ele>
        <time>2009-08-16T08:54:08Z</time>
      </trkpt>
      <trkpt lat="45.57801" lon="4.84027">
        <ele>278</ele>
        <time>2009-08-16T08:54:15Z</time>
      </trkpt>
      <trkpt lat="45.57798" lon="4.84026">
        <ele>278</ele>
        <time>2009-08-16T08:54:20Z</time>
      </trkpt>
      <trkpt lat="45.578" lon="4.84023">
        <ele>278</ele>
        <time>2009-08-16T08:54:28Z</time>
      </trkpt>
      <trkpt lat="45.57801" lon="4.84021">
        <ele>278</ele>
        <time>2009-08-16T08:54:32Z</time>
      </trkpt>
      <trkpt lat="45.57801" lon="4.84019">
        <ele>278</ele>
        <time>2009-08-16T08:54:39Z</time>
      </trkpt>
      <trkpt lat="45.57803" lon="4.8402">
        <ele>278</ele>
        <time>2009-08-16T08:54:45Z</time>
      </trkpt>
      <trkpt lat="45.57805" lon="4.84021">
        <ele>278</ele>
        <time>2009-08-16T08:54:49Z</time>
      </trkpt>
      <trkpt lat="45.57807" lon="4.84021">
        <ele>278</ele>
        <time>2009-08-16T08:54:55Z</time>
      </trkpt>
      <trkpt lat="45.57809" lon="4.84021">
        <ele>279</ele>
        <time>2009-08-16T08:54:59Z</time>
      </trkpt>
      <trkpt lat="45.57809" lon="4.8402">
        <ele>278</ele>
        <time>2009-08-16T08:55:03Z</time>
      </trkpt>
      <trkpt lat="45.57808" lon="4.84017">
        <ele>278</ele>
        <time>2009-08-16T08:55:09Z</time>
      </trkpt>
      <trkpt lat="45.57812" lon="4.84018">
        <ele>279</ele>
        <time>2009-08-16T08:55:14Z</time>
      </trkpt>
      <trkpt lat="45.57815" lon="4.84017">
        <ele>279</ele>
        <time>2009-08-16T08:55:22Z</time>
      </trkpt>
      <trkpt lat="45.57815" lon="4.84021">
        <ele>279</ele>
        <time>2009-08-16T08:55:28Z</time>
      </trkpt>
      <trkpt lat="45.57817" lon="4.8402">
        <ele>279</ele>
        <time>2009-08-16T08:55:36Z</time>
      </trkpt>
      <trkpt lat="45.57819" lon="4.8402">
        <ele>279</ele>
        <time>2009-08-16T08:55:44Z</time>
      </trkpt>
      <trkpt lat="45.57822" lon="4.84019">
        <ele>279</ele>
        <time>2009-08-16T08:55:49Z</time>
      </trkpt>
      <trkpt lat="45.57822" lon="4.84016">
        <ele>279</ele>
        <time>2009-08-16T08:56:03Z</time>
      </trkpt>
      <trkpt lat="45.57823" lon="4.84016">
        <ele>279</ele>
        <time>2009-08-16T08:56:07Z</time>
      </trkpt>
      <trkpt lat="45.57822" lon="4.84016">
        <ele>279</ele>
        <time>2009-08-16T08:56:13Z</time>
      </trkpt>
      <trkpt lat="45.57821" lon="4.84016">
        <ele>279</ele>
        <time>2009-08-16T08:56:17Z</time>
      </trkpt>
      <trkpt lat="45.57819" lon="4.84016">
        <ele>279</ele>
        <time>2009-08-16T08:56:27Z</time>
      </trkpt>
      <trkpt lat="45.57818" lon="4.84016">
        <ele>279</ele>
        <time>2009-08-16T08:56:31Z</time>
      </trkpt>
      <trkpt lat="45.57817" lon="4.84015">
        <ele>279</ele>
        <time>2009-08-16T08:56:35Z</time>
      </trkpt>
      <trkpt lat="45.57818" lon="4.84015">
        <ele>279</ele>
        <time>2009-08-16T08:56:41Z</time>
      </trkpt>
      <trkpt lat="45.57821" lon="4.84015">
        <ele>279</ele>
        <time>2009-08-16T08:56:51Z</time>
      </trkpt>
      <trkpt lat="45.57821" lon="4.84014">
        <ele>279</ele>
        <time>2009-08-16T08:56:56Z</time>
      </trkpt>
      <trkpt lat="45.57822" lon="4.84012">
        <ele>279</ele>
        <time>2009-08-16T08:57:03Z</time>
      </trkpt>
      <trkpt lat="45.57823" lon="4.84012">
        <ele>279</ele>
        <time>2009-08-16T08:57:14Z</time>
      </trkpt>
      <trkpt lat="45.57823" lon="4.84013">
        <ele>279</ele>
        <time>2009-08-16T08:57:18Z</time>
      </trkpt>
      <trkpt lat="45.57824" lon="4.84013">
        <ele>279</ele>
        <time>2009-08-16T08:57:25Z</time>
      </trkpt>
      <trkpt lat="45.57824" lon="4.84013">
        <ele>279</ele>
        <time>2009-08-16T08:57:30Z</time>
      </trkpt>
      <trkpt lat="45.57823" lon="4.84013">
        <ele>279</ele>
        <time>2009-08-16T08:57:35Z</time>
      </trkpt>
      <trkpt lat="45.57825" lon="4.84011">
        <ele>279</ele>
        <time>2009-08-16T08:57:43Z</time>
      </trkpt>
      <trkpt lat="45.57823" lon="4.84011">
        <ele>279</ele>
        <time>2009-08-16T08:57:58Z</time>
      </trkpt>
      <trkpt lat="45.57822" lon="4.84011">
        <ele>279</ele>
        <time>2009-08-16T08:58:05Z</time>
      </trkpt>
      <trkpt lat="45.57822" lon="4.8401">
        <ele>279</ele>
        <time>2009-08-16T08:58:24Z</time>
      </trkpt>
      <trkpt lat="45.57822" lon="4.84011">
        <ele>279</ele>
        <time>2009-08-16T08:58:32Z</time>
      </trkpt>
      <trkpt lat="45.57821" lon="4.8401">
        <ele>279</ele>
        <time>2009-08-16T08:58:50Z</time>
      </trkpt>
      <trkpt lat="45.57821" lon="4.84007">
        <ele>279</ele>
        <time>2009-08-16T08:59:02Z</time>
      </trkpt>
      <trkpt lat="45.57821" lon="4.84002">
        <ele>279</ele>
        <time>2009-08-16T08:59:06Z</time>
      </trkpt>
      <trkpt lat="45.5782" lon="4.83995">
        <ele>278</ele>
        <time>2009-08-16T08:59:10Z</time>
      </trkpt>
      <trkpt lat="45.57818" lon="4.83981">
        <ele>277</ele>
        <time>2009-08-16T08:59:14Z</time>
      </trkpt>
      <trkpt lat="45.57814" lon="4.83964">
        <ele>277</ele>
        <time>2009-08-16T08:59:18Z</time>
      </trkpt>
      <trkpt lat="45.57811" lon="4.83945">
        <ele>277</ele>
        <time>2009-08-16T08:59:22Z</time>
      </trkpt>
      <trkpt lat="45.5781" lon="4.83931">
        <ele>277</ele>
        <time>2009-08-16T08:59:26Z</time>
      </trkpt>
      <trkpt lat="45.57811" lon="4.83915">
        <ele>277</ele>
        <time>2009-08-16T08:59:30Z</time>
      </trkpt>
      <trkpt lat="45.57811" lon="4.83899">
        <ele>277</ele>
        <time>2009-08-16T08:59:34Z</time>
      </trkpt>
      <trkpt lat="45.57811" lon="4.83883">
        <ele>277</ele>
        <time>2009-08-16T08:59:38Z</time>
      </trkpt>
      <trkpt lat="45.57812" lon="4.83868">
        <ele>277</ele>
        <time>2009-08-16T08:59:42Z</time>
      </trkpt>
      <trkpt lat="45.57813" lon="4.83854">
        <ele>277</ele>
        <time>2009-08-16T08:59:46Z</time>
      </trkpt>
      <trkpt lat="45.57813" lon="4.83839">
        <ele>277</ele>
        <time>2009-08-16T08:59:50Z</time>
      </trkpt>
      <trkpt lat="45.57814" lon="4.83823">
        <ele>278</ele>
        <time>2009-08-16T08:59:54Z</time>
      </trkpt>
      <trkpt lat="45.57815" lon="4.83808">
        <ele>278</ele>
        <time>2009-08-16T08:59:58Z</time>
      </trkpt>
      <trkpt lat="45.57815" lon="4.83793">
        <ele>278</ele>
        <time>2009-08-16T09:00:02Z</time>
      </trkpt>
      <trkpt lat="45.57814" lon="4.83779">
        <ele>278</ele>
        <time>2009-08-16T09:00:06Z</time>
      </trkpt>
      <trkpt lat="45.57814" lon="4.83763">
        <ele>278</ele>
        <time>2009-08-16T09:00:10Z</time>
      </trkpt>
      <trkpt lat="45.57812" lon="4.83748">
        <ele>278</ele>
        <time>2009-08-16T09:00:14Z</time>
      </trkpt>
      <trkpt lat="45.5781" lon="4.83732">
        <ele>278</ele>
        <time>2009-08-16T09:00:18Z</time>
      </trkpt>
      <trkpt lat="45.57807" lon="4.83716">
        <ele>278</ele>
        <time>2009-08-16T09:00:22Z</time>
      </trkpt>
      <trkpt lat="45.57804" lon="4.837">
        <ele>279</ele>
        <time>2009-08-16T09:00:26Z</time>
      </trkpt>
      <trkpt lat="45.57801" lon="4.83684">
        <ele>279</ele>
        <time>2009-08-16T09:00:30Z</time>
      </trkpt>
      <trkpt lat="45.57797" lon="4.83668">
        <ele>279</ele>
        <time>2009-08-16T09:00:34Z</time>
      </trkpt>
      <trkpt lat="45.57794" lon="4.83653">
        <ele>280</ele>
        <time>2009-08-16T09:00:38Z</time>
      </trkpt>
      <trkpt lat="45.5779" lon="4.83638">
        <ele>280</ele>
        <time>2009-08-16T09:00:42Z</time>
      </trkpt>
      <trkpt lat="45.57785" lon="4.83624">
        <ele>280</ele>
        <time>2009-08-16T09:00:46Z</time>
      </trkpt>
      <trkpt lat="45.57781" lon="4.83612">
        <ele>280</ele>
        <time>2009-08-16T09:00:50Z</time>
      </trkpt>
      <trkpt lat="45.57777" lon="4.83599">
        <ele>280</ele>
        <time>2009-08-16T09:00:54Z</time>
      </trkpt>
      <trkpt lat="45.57774" lon="4.83585">
        <ele>280</ele>
        <time>2009-08-16T09:00:58Z</time>
      </trkpt>
      <trkpt lat="45.57769" lon="4.83568">
        <ele>280</ele>
        <time>2009-08-16T09:01:03Z</time>
      </trkpt>
      <trkpt lat="45.57766" lon="4.83556">
        <ele>280</ele>
        <time>2009-08-16T09:01:07Z</time>
      </trkpt>
      <trkpt lat="45.57762" lon="4.83544">
        <ele>280</ele>
        <time>2009-08-16T09:01:11Z</time>
      </trkpt>
      <trkpt lat="45.57759" lon="4.83534">
        <ele>279</ele>
        <time>2009-08-16T09:01:15Z</time>
      </trkpt>
      <trkpt lat="45.57755" lon="4.83519">
        <ele>279</ele>
        <time>2009-08-16T09:01:19Z</time>
      </trkpt>
      <trkpt lat="45.5775" lon="4.83501">
        <ele>278</ele>
        <time>2009-08-16T09:01:23Z</time>
      </trkpt>
      <trkpt lat="45.57746" lon="4.83479">
        <ele>277</ele>
        <time>2009-08-16T09:01:27Z</time>
      </trkpt>
      <trkpt lat="45.57743" lon="4.83456">
        <ele>276</ele>
        <time>2009-08-16T09:01:31Z</time>
      </trkpt>
      <trkpt lat="45.57742" lon="4.83434">
        <ele>277</ele>
        <time>2009-08-16T09:01:35Z</time>
      </trkpt>
      <trkpt lat="45.57744" lon="4.8341">
        <ele>278</ele>
        <time>2009-08-16T09:01:39Z</time>
      </trkpt>
      <trkpt lat="45.57747" lon="4.83385">
        <ele>276</ele>
        <time>2009-08-16T09:01:43Z</time>
      </trkpt>
      <trkpt lat="45.57747" lon="4.83355">
        <ele>276</ele>
        <time>2009-08-16T09:01:47Z</time>
      </trkpt>
      <trkpt lat="45.57746" lon="4.83333">
        <ele>276</ele>
        <time>2009-08-16T09:01:51Z</time>
      </trkpt>
      <trkpt lat="45.57741" lon="4.83312">
        <ele>275</ele>
        <time>2009-08-16T09:01:55Z</time>
      </trkpt>
      <trkpt lat="45.5773" lon="4.83288">
        <ele>274</ele>
        <time>2009-08-16T09:01:59Z</time>
      </trkpt>
      <trkpt lat="45.57716" lon="4.83265">
        <ele>274</ele>
        <time>2009-08-16T09:02:03Z</time>
      </trkpt>
      <trkpt lat="45.57702" lon="4.83236">
        <ele>272</ele>
        <time>2009-08-16T09:02:07Z</time>
      </trkpt>
      <trkpt lat="45.57692" lon="4.83203">
        <ele>272</ele>
        <time>2009-08-16T09:02:11Z</time>
      </trkpt>
      <trkpt lat="45.57683" lon="4.83169">
        <ele>271</ele>
        <time>2009-08-16T09:02:15Z</time>
      </trkpt>
      <trkpt lat="45.57674" lon="4.83138">
        <ele>271</ele>
        <time>2009-08-16T09:02:19Z</time>
      </trkpt>
      <trkpt lat="45.57666" lon="4.83105">
        <ele>269</ele>
        <time>2009-08-16T09:02:23Z</time>
      </trkpt>
      <trkpt lat="45.57658" lon="4.83077">
        <ele>270</ele>
        <time>2009-08-16T09:02:27Z</time>
      </trkpt>
      <trkpt lat="45.57649" lon="4.83062">
        <ele>269</ele>
        <time>2009-08-16T09:02:31Z</time>
      </trkpt>
      <trkpt lat="45.57633" lon="4.83058">
        <ele>269</ele>
        <time>2009-08-16T09:02:35Z</time>
      </trkpt>
      <trkpt lat="45.57618" lon="4.83058">
        <ele>269</ele>
        <time>2009-08-16T09:02:39Z</time>
      </trkpt>
      <trkpt lat="45.57603" lon="4.83054">
        <ele>268</ele>
        <time>2009-08-16T09:02:43Z</time>
      </trkpt>
      <trkpt lat="45.57587" lon="4.83045">
        <ele>268</ele>
        <time>2009-08-16T09:02:47Z</time>
      </trkpt>
      <trkpt lat="45.57574" lon="4.83032">
        <ele>267</ele>
        <time>2009-08-16T09:02:51Z</time>
      </trkpt>
      <trkpt lat="45.57563" lon="4.83019">
        <ele>267</ele>
        <time>2009-08-16T09:02:55Z</time>
      </trkpt>
      <trkpt lat="45.57552" lon="4.83008">
        <ele>267</ele>
        <time>2009-08-16T09:02:59Z</time>
      </trkpt>
      <trkpt lat="45.57539" lon="4.82997">
        <ele>266</ele>
        <time>2009-08-16T09:03:03Z</time>
      </trkpt>
      <trkpt lat="45.57527" lon="4.82985">
        <ele>266</ele>
        <time>2009-08-16T09:03:07Z</time>
      </trkpt>
      <trkpt lat="45.57516" lon="4.8297">
        <ele>266</ele>
        <time>2009-08-16T09:03:11Z</time>
      </trkpt>
      <trkpt lat="45.57505" lon="4.82958">
        <ele>266</ele>
        <time>2009-08-16T09:03:15Z</time>
      </trkpt>
      <trkpt lat="45.57497" lon="4.82944">
        <ele>264</ele>
        <time>2009-08-16T09:03:19Z</time>
      </trkpt>
      <trkpt lat="45.57489" lon="4.8293">
        <ele>264</ele>
        <time>2009-08-16T09:03:23Z</time>
      </trkpt>
      <trkpt lat="45.5748" lon="4.82919">
        <ele>264</ele>
        <time>2009-08-16T09:03:27Z</time>
      </trkpt>
      <trkpt lat="45.5747" lon="4.8291">
        <ele>265</ele>
        <time>2009-08-16T09:03:31Z</time>
      </trkpt>
      <trkpt lat="45.57462" lon="4.82904">
        <ele>265</ele>
        <time>2009-08-16T09:03:35Z</time>
      </trkpt>
      <trkpt lat="45.57457" lon="4.82906">
        <ele>265</ele>
        <time>2009-08-16T09:04:06Z</time>
      </trkpt>
      <trkpt lat="45.57456" lon="4.82907">
        <ele>265</ele>
        <time>2009-08-16T09:04:44Z</time>
      </trkpt>
      <trkpt lat="45.57454" lon="4.82908">
        <ele>265</ele>
        <time>2009-08-16T09:05:24Z</time>
      </trkpt>
      <trkpt lat="45.57453" lon="4.82906">
        <ele>265</ele>
        <time>2009-08-16T09:05:45Z</time>
      </trkpt>
      <trkpt lat="45.57451" lon="4.82908">
        <ele>265</ele>
        <time>2009-08-16T09:05:58Z</time>
      </trkpt>
      <trkpt lat="45.57452" lon="4.82907">
        <ele>265</ele>
        <time>2009-08-16T09:06:08Z</time>
      </trkpt>
      <trkpt lat="45.57449" lon="4.82911">
        <ele>264</ele>
        <time>2009-08-16T09:06:12Z</time>
      </trkpt>
      <trkpt lat="45.57437" lon="4.82914">
        <ele>264</ele>
        <time>2009-08-16T09:06:16Z</time>
      </trkpt>
      <trkpt lat="45.57419" lon="4.82918">
        <ele>263</ele>
        <time>2009-08-16T09:06:20Z</time>
      </trkpt>
      <trkpt lat="45.57399" lon="4.82922">
        <ele>262</ele>
        <time>2009-08-16T09:06:24Z</time>
      </trkpt>
      <trkpt lat="45.57381" lon="4.82928">
        <ele>261</ele>
        <time>2009-08-16T09:06:28Z</time>
      </trkpt>
      <trkpt lat="45.57361" lon="4.82939">
        <ele>261</ele>
        <time>2009-08-16T09:06:32Z</time>
      </trkpt>
      <trkpt lat="45.57333" lon="4.82971">
        <ele>259</ele>
        <time>2009-08-16T09:06:37Z</time>
      </trkpt>
      <trkpt lat="45.57306" lon="4.83005">
        <ele>257</ele>
        <time>2009-08-16T09:06:41Z</time>
      </trkpt>
      <trkpt lat="45.5728" lon="4.83035">
        <ele>257</ele>
        <time>2009-08-16T09:06:45Z</time>
      </trkpt>
      <trkpt lat="45.57258" lon="4.83052">
        <ele>256</ele>
        <time>2009-08-16T09:06:49Z</time>
      </trkpt>
      <trkpt lat="45.57237" lon="4.8307">
        <ele>255</ele>
        <time>2009-08-16T09:06:53Z</time>
      </trkpt>
      <trkpt lat="45.57215" lon="4.831">
        <ele>254</ele>
        <time>2009-08-16T09:06:57Z</time>
      </trkpt>
      <trkpt lat="45.57187" lon="4.83121">
        <ele>254</ele>
        <time>2009-08-16T09:07:01Z</time>
      </trkpt>
      <trkpt lat="45.57166" lon="4.83146">
        <ele>248</ele>
        <time>2009-08-16T09:07:05Z</time>
      </trkpt>
      <trkpt lat="45.57158" lon="4.83169">
        <ele>246</ele>
        <time>2009-08-16T09:07:09Z</time>
      </trkpt>
      <trkpt lat="45.57146" lon="4.83195">
        <ele>242</ele>
        <time>2009-08-16T09:07:13Z</time>
      </trkpt>
      <trkpt lat="45.57136" lon="4.83217">
        <ele>240</ele>
        <time>2009-08-16T09:07:17Z</time>
      </trkpt>
      <trkpt lat="45.57125" lon="4.83245">
        <ele>238</ele>
        <time>2009-08-16T09:07:21Z</time>
      </trkpt>
      <trkpt lat="45.57111" lon="4.83255">
        <ele>235</ele>
        <time>2009-08-16T09:07:25Z</time>
      </trkpt>
      <trkpt lat="45.57098" lon="4.83241">
        <ele>235</ele>
        <time>2009-08-16T09:07:29Z</time>
      </trkpt>
      <trkpt lat="45.57082" lon="4.83215">
        <ele>233</ele>
        <time>2009-08-16T09:07:33Z</time>
      </trkpt>
      <trkpt lat="45.57059" lon="4.83205">
        <ele>234</ele>
        <time>2009-08-16T09:07:37Z</time>
      </trkpt>
      <trkpt lat="45.57056" lon="4.83199">
        <ele>234</ele>
        <time>2009-08-16T09:07:41Z</time>
      </trkpt>
      <trkpt lat="45.57046" lon="4.832">
        <ele>233</ele>
        <time>2009-08-16T09:07:45Z</time>
      </trkpt>
      <trkpt lat="45.57038" lon="4.83193">
        <ele>233</ele>
        <time>2009-08-16T09:07:49Z</time>
      </trkpt>
      <trkpt lat="45.57036" lon="4.83189">
        <ele>233</ele>
        <time>2009-08-16T09:07:55Z</time>
      </trkpt>
      <trkpt lat="45.57035" lon="4.83188">
        <ele>233</ele>
        <time>2009-08-16T09:08:10Z</time>
      </trkpt>
      <trkpt lat="45.57031" lon="4.83188">
        <ele>233</ele>
        <time>2009-08-16T09:08:17Z</time>
      </trkpt>
      <trkpt lat="45.5703" lon="4.83187">
        <ele>233</ele>
        <time>2009-08-16T09:08:21Z</time>
      </trkpt>
      <trkpt lat="45.57027" lon="4.83186">
        <ele>233</ele>
        <time>2009-08-16T09:08:27Z</time>
      </trkpt>
      <trkpt lat="45.57026" lon="4.83185">
        <ele>233</ele>
        <time>2009-08-16T09:08:31Z</time>
      </trkpt>
      <trkpt lat="45.57023" lon="4.83185">
        <ele>232</ele>
        <time>2009-08-16T09:08:38Z</time>
      </trkpt>
      <trkpt lat="45.57022" lon="4.83185">
        <ele>232</ele>
        <time>2009-08-16T09:08:43Z</time>
      </trkpt>
      <trkpt lat="45.57022" lon="4.83189">
        <ele>232</ele>
        <time>2009-08-16T09:08:48Z</time>
      </trkpt>
      <trkpt lat="45.57025" lon="4.83189">
        <ele>233</ele>
        <time>2009-08-16T09:08:52Z</time>
      </trkpt>
      <trkpt lat="45.57027" lon="4.83191">
        <ele>233</ele>
        <time>2009-08-16T09:09:06Z</time>
      </trkpt>
      <trkpt lat="45.57026" lon="4.83189">
        <ele>233</ele>
        <time>2009-08-16T09:09:11Z</time>
      </trkpt>
      <trkpt lat="45.57026" lon="4.8319">
        <ele>233</ele>
        <time>2009-08-16T09:09:15Z</time>
      </trkpt>
      <trkpt lat="45.57024" lon="4.8319">
        <ele>233</ele>
        <time>2009-08-16T09:09:20Z</time>
      </trkpt>
      <trkpt lat="45.57025" lon="4.83189">
        <ele>233</ele>
        <time>2009-08-16T09:09:28Z</time>
      </trkpt>
      <trkpt lat="45.57028" lon="4.83189">
        <ele>233</ele>
        <time>2009-08-16T09:09:33Z</time>
      </trkpt>
      <trkpt lat="45.57027" lon="4.83188">
        <ele>233</ele>
        <time>2009-08-16T09:09:37Z</time>
      </trkpt>
      <trkpt lat="45.57024" lon="4.83181">
        <ele>232</ele>
        <time>2009-08-16T09:09:41Z</time>
      </trkpt>
      <trkpt lat="45.57018" lon="4.83179">
        <ele>232</ele>
        <time>2009-08-16T09:09:45Z</time>
      </trkpt>
      <trkpt lat="45.57017" lon="4.83181">
        <ele>232</ele>
        <time>2009-08-16T09:09:49Z</time>
      </trkpt>
      <trkpt lat="45.57022" lon="4.8318">
        <ele>232</ele>
        <time>2009-08-16T09:09:54Z</time>
      </trkpt>
      <trkpt lat="45.57026" lon="4.8318">
        <ele>232</ele>
        <time>2009-08-16T09:09:58Z</time>
      </trkpt>
      <trkpt lat="45.57029" lon="4.83181">
        <ele>233</ele>
        <time>2009-08-16T09:10:03Z</time>
      </trkpt>
      <trkpt lat="45.57031" lon="4.83186">
        <ele>233</ele>
        <time>2009-08-16T09:10:07Z</time>
      </trkpt>
      <trkpt lat="45.5703" lon="4.8319">
        <ele>233</ele>
        <time>2009-08-16T09:10:11Z</time>
      </trkpt>
      <trkpt lat="45.57026" lon="4.83195">
        <ele>233</ele>
        <time>2009-08-16T09:10:16Z</time>
      </trkpt>
      <trkpt lat="45.57027" lon="4.83196">
        <ele>233</ele>
        <time>2009-08-16T09:10:23Z</time>
      </trkpt>
      <trkpt lat="45.57025" lon="4.83199">
        <ele>233</ele>
        <time>2009-08-16T09:10:28Z</time>
      </trkpt>
      <trkpt lat="45.57021" lon="4.832">
        <ele>233</ele>
        <time>2009-08-16T09:10:36Z</time>
      </trkpt>
      <trkpt lat="45.57018" lon="4.83199">
        <ele>233</ele>
        <time>2009-08-16T09:10:42Z</time>
      </trkpt>
      <trkpt lat="45.57015" lon="4.83198">
        <ele>233</ele>
        <time>2009-08-16T09:10:46Z</time>
      </trkpt>
      <trkpt lat="45.57008" lon="4.83199">
        <ele>232</ele>
        <time>2009-08-16T09:10:52Z</time>
      </trkpt>
      <trkpt lat="45.57006" lon="4.83199">
        <ele>232</ele>
        <time>2009-08-16T09:10:58Z</time>
      </trkpt>
      <trkpt lat="45.57007" lon="4.83199">
        <ele>232</ele>
        <time>2009-08-16T09:11:07Z</time>
      </trkpt>
      <trkpt lat="45.57004" lon="4.83198">
        <ele>232</ele>
        <time>2009-08-16T09:11:12Z</time>
      </trkpt>
      <trkpt lat="45.57001" lon="4.83196">
        <ele>232</ele>
        <time>2009-08-16T09:11:16Z</time>
      </trkpt>
      <trkpt lat="45.57001" lon="4.83195">
        <ele>232</ele>
        <time>2009-08-16T09:11:24Z</time>
      </trkpt>
      <trkpt lat="45.56999" lon="4.83193">
        <ele>234</ele>
        <time>2009-08-16T09:11:29Z</time>
      </trkpt>
      <trkpt lat="45.56998" lon="4.83192">
        <ele>234</ele>
        <time>2009-08-16T09:11:33Z</time>
      </trkpt>
      <trkpt lat="45.56995" lon="4.83192">
        <ele>234</ele>
        <time>2009-08-16T09:11:37Z</time>
      </trkpt>
      <trkpt lat="45.56991" lon="4.8319">
        <ele>234</ele>
        <time>2009-08-16T09:11:42Z</time>
      </trkpt>
      <trkpt lat="45.56988" lon="4.83188">
        <ele>235</ele>
        <time>2009-08-16T09:11:47Z</time>
      </trkpt>
      <trkpt lat="45.56984" lon="4.83188">
        <ele>235</ele>
        <time>2009-08-16T09:11:52Z</time>
      </trkpt>
      <trkpt lat="45.56981" lon="4.83187">
        <ele>235</ele>
        <time>2009-08-16T09:11:57Z</time>
      </trkpt>
      <trkpt lat="45.56977" lon="4.83186">
        <ele>235</ele>
        <time>2009-08-16T09:12:02Z</time>
      </trkpt>
      <trkpt lat="45.56974" lon="4.83186">
        <ele>236</ele>
        <time>2009-08-16T09:12:06Z</time>
      </trkpt>
      <trkpt lat="45.56972" lon="4.83184">
        <ele>236</ele>
        <time>2009-08-16T09:12:11Z</time>
      </trkpt>
      <trkpt lat="45.56969" lon="4.83183">
        <ele>236</ele>
        <time>2009-08-16T09:12:21Z</time>
      </trkpt>
      <trkpt lat="45.56965" lon="4.83183">
        <ele>236</ele>
        <time>2009-08-16T09:12:25Z</time>
      </trkpt>
      <trkpt lat="45.56963" lon="4.83185">
        <ele>237</ele>
        <time>2009-08-16T09:12:29Z</time>
      </trkpt>
      <trkpt lat="45.5696" lon="4.83187">
        <ele>237</ele>
        <time>2009-08-16T09:12:33Z</time>
      </trkpt>
      <trkpt lat="45.56958" lon="4.8319">
        <ele>237</ele>
        <time>2009-08-16T09:12:41Z</time>
      </trkpt>
      <trkpt lat="45.56955" lon="4.83191">
        <ele>238</ele>
        <time>2009-08-16T09:12:46Z</time>
      </trkpt>
      <trkpt lat="45.56954" lon="4.83192">
        <ele>238</ele>
        <time>2009-08-16T09:12:52Z</time>
      </trkpt>
      <trkpt lat="45.56951" lon="4.83192">
        <ele>238</ele>
        <time>2009-08-16T09:12:58Z</time>
      </trkpt>
      <trkpt lat="45.56953" lon="4.83191">
        <ele>238</ele>
        <time>2009-08-16T09:13:10Z</time>
      </trkpt>
      <trkpt lat="45.56954" lon="4.83191">
        <ele>238</ele>
        <time>2009-08-16T09:13:14Z</time>
      </trkpt>
      <trkpt lat="45.56955" lon="4.8319">
        <ele>238</ele>
        <time>2009-08-16T09:13:18Z</time>
      </trkpt>
      <trkpt lat="45.56953" lon="4.83191">
        <ele>238</ele>
        <time>2009-08-16T09:13:23Z</time>
      </trkpt>
      <trkpt lat="45.56951" lon="4.83191">
        <ele>238</ele>
        <time>2009-08-16T09:13:27Z</time>
      </trkpt>
      <trkpt lat="45.56946" lon="4.83193">
        <ele>238</ele>
        <time>2009-08-16T09:13:31Z</time>
      </trkpt>
      <trkpt lat="45.56941" lon="4.83194">
        <ele>239</ele>
        <time>2009-08-16T09:13:35Z</time>
      </trkpt>
      <trkpt lat="45.56932" lon="4.83197">
        <ele>239</ele>
        <time>2009-08-16T09:13:39Z</time>
      </trkpt>
      <trkpt lat="45.56923" lon="4.83201">
        <ele>240</ele>
        <time>2009-08-16T09:13:43Z</time>
      </trkpt>
      <trkpt lat="45.56917" lon="4.83203">
        <ele>240</ele>
        <time>2009-08-16T09:13:48Z</time>
      </trkpt>
      <trkpt lat="45.56911" lon="4.83205">
        <ele>246</ele>
        <time>2009-08-16T09:13:52Z</time>
      </trkpt>
      <trkpt lat="45.56906" lon="4.83206">
        <ele>246</ele>
        <time>2009-08-16T09:13:59Z</time>
      </trkpt>
      <trkpt lat="45.56903" lon="4.83204">
        <ele>246</ele>
        <time>2009-08-16T09:14:03Z</time>
      </trkpt>
      <trkpt lat="45.569" lon="4.83206">
        <ele>246</ele>
        <time>2009-08-16T09:14:08Z</time>
      </trkpt>
      <trkpt lat="45.56897" lon="4.83208">
        <ele>247</ele>
        <time>2009-08-16T09:14:12Z</time>
      </trkpt>
      <trkpt lat="45.56894" lon="4.83209">
        <ele>247</ele>
        <time>2009-08-16T09:14:18Z</time>
      </trkpt>
      <trkpt lat="45.56894" lon="4.83213">
        <ele>247</ele>
        <time>2009-08-16T09:14:24Z</time>
      </trkpt>
      <trkpt lat="45.56893" lon="4.83214">
        <ele>247</ele>
        <time>2009-08-16T09:14:30Z</time>
      </trkpt>
      <trkpt lat="45.56889" lon="4.83216">
        <ele>247</ele>
        <time>2009-08-16T09:14:34Z</time>
      </trkpt>
      <trkpt lat="45.56886" lon="4.83215">
        <ele>247</ele>
        <time>2009-08-16T09:14:38Z</time>
      </trkpt>
      <trkpt lat="45.56884" lon="4.83217">
        <ele>247</ele>
        <time>2009-08-16T09:14:45Z</time>
      </trkpt>
      <trkpt lat="45.56882" lon="4.83218">
        <ele>247</ele>
        <time>2009-08-16T09:14:50Z</time>
      </trkpt>
      <trkpt lat="45.56879" lon="4.83221">
        <ele>247</ele>
        <time>2009-08-16T09:15:01Z</time>
      </trkpt>
      <trkpt lat="45.56877" lon="4.83223">
        <ele>248</ele>
        <time>2009-08-16T09:15:05Z</time>
      </trkpt>
      <trkpt lat="45.56873" lon="4.83224">
        <ele>248</ele>
        <time>2009-08-16T09:15:09Z</time>
      </trkpt>
      <trkpt lat="45.56869" lon="4.83225">
        <ele>248</ele>
        <time>2009-08-16T09:15:13Z</time>
      </trkpt>
      <trkpt lat="45.56863" lon="4.83227">
        <ele>248</ele>
        <time>2009-08-16T09:15:17Z</time>
      </trkpt>
      <trkpt lat="45.56858" lon="4.83228">
        <ele>248</ele>
        <time>2009-08-16T09:15:21Z</time>
      </trkpt>
      <trkpt lat="45.56853" lon="4.8323">
        <ele>248</ele>
        <time>2009-08-16T09:15:25Z</time>
      </trkpt>
      <trkpt lat="45.5685" lon="4.8323">
        <ele>248</ele>
        <time>2009-08-16T09:15:29Z</time>
      </trkpt>
      <trkpt lat="45.56845" lon="4.83231">
        <ele>248</ele>
        <time>2009-08-16T09:15:33Z</time>
      </trkpt>
      <trkpt lat="45.56841" lon="4.8323">
        <ele>248</ele>
        <time>2009-08-16T09:15:37Z</time>
      </trkpt>
      <trkpt lat="45.5684" lon="4.83231">
        <ele>248</ele>
        <time>2009-08-16T09:15:41Z</time>
      </trkpt>
      <trkpt lat="45.56838" lon="4.83231">
        <ele>248</ele>
        <time>2009-08-16T09:15:48Z</time>
      </trkpt>
      <trkpt lat="45.56836" lon="4.83233">
        <ele>248</ele>
        <time>2009-08-16T09:16:00Z</time>
      </trkpt>
      <trkpt lat="45.56835" lon="4.83231">
        <ele>248</ele>
        <time>2009-08-16T09:16:19Z</time>
      </trkpt>
      <trkpt lat="45.56836" lon="4.8323">
        <ele>248</ele>
        <time>2009-08-16T09:16:24Z</time>
      </trkpt>
      <trkpt lat="45.56837" lon="4.83229">
        <ele>248</ele>
        <time>2009-08-16T09:16:31Z</time>
      </trkpt>
      <trkpt lat="45.56837" lon="4.83231">
        <ele>248</ele>
        <time>2009-08-16T09:16:48Z</time>
      </trkpt>
      <trkpt lat="45.56839" lon="4.83231">
        <ele>248</ele>
        <time>2009-08-16T09:16:53Z</time>
      </trkpt>
      <trkpt lat="45.56839" lon="4.8323">
        <ele>248</ele>
        <time>2009-08-16T09:17:03Z</time>
      </trkpt>
      <trkpt lat="45.56836" lon="4.8323">
        <ele>248</ele>
        <time>2009-08-16T09:17:09Z</time>
      </trkpt>
      <trkpt lat="45.56835" lon="4.8323">
        <ele>248</ele>
        <time>2009-08-16T09:17:17Z</time>
      </trkpt>
      <trkpt lat="45.56836" lon="4.83231">
        <ele>248</ele>
        <time>2009-08-16T09:18:01Z</time>
      </trkpt>
      <trkpt lat="45.56837" lon="4.83231">
        <ele>248</ele>
        <time>2009-08-16T09:18:13Z</time>
      </trkpt>
      <trkpt lat="45.56838" lon="4.8323">
        <ele>248</ele>
        <time>2009-08-16T09:18:22Z</time>
      </trkpt>
      <trkpt lat="45.5684" lon="4.8323">
        <ele>248</ele>
        <time>2009-08-16T09:18:29Z</time>
      </trkpt>
      <trkpt lat="45.5684" lon="4.83229">
        <ele>248</ele>
        <time>2009-08-16T09:18:34Z</time>
      </trkpt>
      <trkpt lat="45.56841" lon="4.8323">
        <ele>248</ele>
        <time>2009-08-16T09:18:50Z</time>
      </trkpt>
      <trkpt lat="45.5684" lon="4.83231">
        <ele>248</ele>
        <time>2009-08-16T09:18:57Z</time>
      </trkpt>
      <trkpt lat="45.56839" lon="4.83228">
        <ele>248</ele>
        <time>2009-08-16T09:19:02Z</time>
      </trkpt>
      <trkpt lat="45.56839" lon="4.83226">
        <ele>248</ele>
        <time>2009-08-16T09:19:06Z</time>
      </trkpt>
      <trkpt lat="45.56837" lon="4.83226">
        <ele>248</ele>
        <time>2009-08-16T09:19:14Z</time>
      </trkpt>
      <trkpt lat="45.56837" lon="4.83228">
        <ele>248</ele>
        <time>2009-08-16T09:19:24Z</time>
      </trkpt>
      <trkpt lat="45.56834" lon="4.8323">
        <ele>248</ele>
        <time>2009-08-16T09:19:29Z</time>
      </trkpt>
      <trkpt lat="45.56832" lon="4.83229">
        <ele>251</ele>
        <time>2009-08-16T09:19:37Z</time>
      </trkpt>
      <trkpt lat="45.56826" lon="4.8323">
        <ele>251</ele>
        <time>2009-08-16T09:19:41Z</time>
      </trkpt>
      <trkpt lat="45.56815" lon="4.83229">
        <ele>252</ele>
        <time>2009-08-16T09:19:45Z</time>
      </trkpt>
      <trkpt lat="45.56802" lon="4.83226">
        <ele>253</ele>
        <time>2009-08-16T09:19:49Z</time>
      </trkpt>
      <trkpt lat="45.56788" lon="4.83221">
        <ele>253</ele>
        <time>2009-08-16T09:19:53Z</time>
      </trkpt>
      <trkpt lat="45.56774" lon="4.83213">
        <ele>254</ele>
        <time>2009-08-16T09:19:57Z</time>
      </trkpt>
      <trkpt lat="45.56763" lon="4.83201">
        <ele>254</ele>
        <time>2009-08-16T09:20:01Z</time>
      </trkpt>
      <trkpt lat="45.56755" lon="4.83186">
        <ele>255</ele>
        <time>2009-08-16T09:20:05Z</time>
      </trkpt>
      <trkpt lat="45.56748" lon="4.83173">
        <ele>257</ele>
        <time>2009-08-16T09:20:09Z</time>
      </trkpt>
      <trkpt lat="45.56744" lon="4.83164">
        <ele>257</ele>
        <time>2009-08-16T09:20:13Z</time>
      </trkpt>
      <trkpt lat="45.56741" lon="4.83155">
        <ele>258</ele>
        <time>2009-08-16T09:20:17Z</time>
      </trkpt>
      <trkpt lat="45.56739" lon="4.83144">
        <ele>258</ele>
        <time>2009-08-16T09:20:21Z</time>
      </trkpt>
      <trkpt lat="45.56737" lon="4.83137">
        <ele>258</ele>
        <time>2009-08-16T09:20:25Z</time>
      </trkpt>
      <trkpt lat="45.56734" lon="4.83128">
        <ele>258</ele>
        <time>2009-08-16T09:20:29Z</time>
      </trkpt>
      <trkpt lat="45.56729" lon="4.83119">
        <ele>258</ele>
        <time>2009-08-16T09:20:33Z</time>
      </trkpt>
      <trkpt lat="45.56721" lon="4.8311">
        <ele>259</ele>
        <time>2009-08-16T09:20:37Z</time>
      </trkpt>
      <trkpt lat="45.56712" lon="4.83102">
        <ele>259</ele>
        <time>2009-08-16T09:20:41Z</time>
      </trkpt>
      <trkpt lat="45.56702" lon="4.83094">
        <ele>259</ele>
        <time>2009-08-16T09:20:45Z</time>
      </trkpt>
      <trkpt lat="45.56691" lon="4.83086">
        <ele>259</ele>
        <time>2009-08-16T09:20:49Z</time>
      </trkpt>
      <trkpt lat="45.5668" lon="4.83077">
        <ele>259</ele>
        <time>2009-08-16T09:20:53Z</time>
      </trkpt>
      <trkpt lat="45.56671" lon="4.83065">
        <ele>259</ele>
        <time>2009-08-16T09:20:57Z</time>
      </trkpt>
      <trkpt lat="45.56662" lon="4.83053">
        <ele>261</ele>
        <time>2009-08-16T09:21:01Z</time>
      </trkpt>
      <trkpt lat="45.56653" lon="4.83041">
        <ele>261</ele>
        <time>2009-08-16T09:21:05Z</time>
      </trkpt>
      <trkpt lat="45.56644" lon="4.83028">
        <ele>261</ele>
        <time>2009-08-16T09:21:09Z</time>
      </trkpt>
      <trkpt lat="45.56635" lon="4.83016">
        <ele>261</ele>
        <time>2009-08-16T09:21:13Z</time>
      </trkpt>
      <trkpt lat="45.56626" lon="4.83004">
        <ele>261</ele>
        <time>2009-08-16T09:21:17Z</time>
      </trkpt>
      <trkpt lat="45.56617" lon="4.82993">
        <ele>260</ele>
        <time>2009-08-16T09:21:21Z</time>
      </trkpt>
      <trkpt lat="45.56607" lon="4.82983">
        <ele>260</ele>
        <time>2009-08-16T09:21:25Z</time>
      </trkpt>
      <trkpt lat="45.56597" lon="4.82973">
        <ele>260</ele>
        <time>2009-08-16T09:21:29Z</time>
      </trkpt>
      <trkpt lat="45.56588" lon="4.82964">
        <ele>260</ele>
        <time>2009-08-16T09:21:33Z</time>
      </trkpt>
      <trkpt lat="45.56578" lon="4.82955">
        <ele>263</ele>
        <time>2009-08-16T09:21:37Z</time>
      </trkpt>
      <trkpt lat="45.56567" lon="4.82946">
        <ele>263</ele>
        <time>2009-08-16T09:21:41Z</time>
      </trkpt>
      <trkpt lat="45.56553" lon="4.82935">
        <ele>263</ele>
        <time>2009-08-16T09:21:46Z</time>
      </trkpt>
      <trkpt lat="45.56542" lon="4.82926">
        <ele>263</ele>
        <time>2009-08-16T09:21:50Z</time>
      </trkpt>
      <trkpt lat="45.56531" lon="4.8292">
        <ele>263</ele>
        <time>2009-08-16T09:21:54Z</time>
      </trkpt>
      <trkpt lat="45.56524" lon="4.82919">
        <ele>263</ele>
        <time>2009-08-16T09:21:58Z</time>
      </trkpt>
      <trkpt lat="45.56519" lon="4.82916">
        <ele>261</ele>
        <time>2009-08-16T09:22:02Z</time>
      </trkpt>
      <trkpt lat="45.56523" lon="4.82901">
        <ele>260</ele>
        <time>2009-08-16T09:22:06Z</time>
      </trkpt>
      <trkpt lat="45.5653" lon="4.82883">
        <ele>260</ele>
        <time>2009-08-16T09:22:10Z</time>
      </trkpt>
      <trkpt lat="45.56539" lon="4.82863">
        <ele>259</ele>
        <time>2009-08-16T09:22:14Z</time>
      </trkpt>
      <trkpt lat="45.56549" lon="4.82839">
        <ele>259</ele>
        <time>2009-08-16T09:22:18Z</time>
      </trkpt>
      <trkpt lat="45.5656" lon="4.82813">
        <ele>257</ele>
        <time>2009-08-16T09:22:22Z</time>
      </trkpt>
      <trkpt lat="45.56574" lon="4.8278">
        <ele>257</ele>
        <time>2009-08-16T09:22:27Z</time>
      </trkpt>
      <trkpt lat="45.56586" lon="4.8275">
        <ele>256</ele>
        <time>2009-08-16T09:22:31Z</time>
      </trkpt>
      <trkpt lat="45.56602" lon="4.82713">
        <ele>255</ele>
        <time>2009-08-16T09:22:36Z</time>
      </trkpt>
      <trkpt lat="45.56613" lon="4.82681">
        <ele>255</ele>
        <time>2009-08-16T09:22:40Z</time>
      </trkpt>
      <trkpt lat="45.56622" lon="4.82636">
        <ele>253</ele>
        <time>2009-08-16T09:22:45Z</time>
      </trkpt>
      <trkpt lat="45.5663" lon="4.82593">
        <ele>252</ele>
        <time>2009-08-16T09:22:49Z</time>
      </trkpt>
      <trkpt lat="45.5664" lon="4.82548">
        <ele>250</ele>
        <time>2009-08-16T09:22:54Z</time>
      </trkpt>
      <trkpt lat="45.56638" lon="4.82518">
        <ele>249</ele>
        <time>2009-08-16T09:22:58Z</time>
      </trkpt>
      <trkpt lat="45.56621" lon="4.82505">
        <ele>248</ele>
        <time>2009-08-16T09:23:02Z</time>
      </trkpt>
      <trkpt lat="45.56602" lon="4.82506">
        <ele>248</ele>
        <time>2009-08-16T09:23:07Z</time>
      </trkpt>
      <trkpt lat="45.56589" lon="4.82508">
        <ele>248</ele>
        <time>2009-08-16T09:23:11Z</time>
      </trkpt>
      <trkpt lat="45.56578" lon="4.82508">
        <ele>248</ele>
        <time>2009-08-16T09:23:15Z</time>
      </trkpt>
      <trkpt lat="45.56562" lon="4.82511">
        <ele>248</ele>
        <time>2009-08-16T09:23:19Z</time>
      </trkpt>
      <trkpt lat="45.56548" lon="4.82514">
        <ele>248</ele>
        <time>2009-08-16T09:23:23Z</time>
      </trkpt>
      <trkpt lat="45.56534" lon="4.82515">
        <ele>248</ele>
        <time>2009-08-16T09:23:27Z</time>
      </trkpt>
      <trkpt lat="45.5652" lon="4.82516">
        <ele>248</ele>
        <time>2009-08-16T09:23:31Z</time>
      </trkpt>
      <trkpt lat="45.5651" lon="4.82517">
        <ele>248</ele>
        <time>2009-08-16T09:23:35Z</time>
      </trkpt>
      <trkpt lat="45.565" lon="4.82511">
        <ele>248</ele>
        <time>2009-08-16T09:23:39Z</time>
      </trkpt>
      <trkpt lat="45.56485" lon="4.82496">
        <ele>246</ele>
        <time>2009-08-16T09:23:43Z</time>
      </trkpt>
      <trkpt lat="45.56467" lon="4.82474">
        <ele>244</ele>
        <time>2009-08-16T09:23:47Z</time>
      </trkpt>
      <trkpt lat="45.56457" lon="4.82447">
        <ele>243</ele>
        <time>2009-08-16T09:23:51Z</time>
      </trkpt>
      <trkpt lat="45.56455" lon="4.82409">
        <ele>240</ele>
        <time>2009-08-16T09:23:55Z</time>
      </trkpt>
      <trkpt lat="45.56452" lon="4.82364">
        <ele>238</ele>
        <time>2009-08-16T09:24:00Z</time>
      </trkpt>
      <trkpt lat="45.56431" lon="4.82376">
        <ele>239</ele>
        <time>2009-08-16T09:24:04Z</time>
      </trkpt>
      <trkpt lat="45.5641" lon="4.82393">
        <ele>236</ele>
        <time>2009-08-16T09:24:08Z</time>
      </trkpt>
      <trkpt lat="45.56398" lon="4.82412">
        <ele>237</ele>
        <time>2009-08-16T09:24:12Z</time>
      </trkpt>
      <trkpt lat="45.56393" lon="4.82421">
        <ele>238</ele>
        <time>2009-08-16T09:24:22Z</time>
      </trkpt>
      <trkpt lat="45.56393" lon="4.82422">
        <ele>238</ele>
        <time>2009-08-16T09:24:30Z</time>
      </trkpt>
      <trkpt lat="45.5639" lon="4.82423">
        <ele>238</ele>
        <time>2009-08-16T09:24:39Z</time>
      </trkpt>
      <trkpt lat="45.5639" lon="4.82425">
        <ele>238</ele>
        <time>2009-08-16T09:24:44Z</time>
      </trkpt>
      <trkpt lat="45.56391" lon="4.82427">
        <ele>238</ele>
        <time>2009-08-16T09:24:49Z</time>
      </trkpt>
      <trkpt lat="45.56393" lon="4.82428">
        <ele>238</ele>
        <time>2009-08-16T09:24:57Z</time>
      </trkpt>
      <trkpt lat="45.56392" lon="4.82426">
        <ele>238</ele>
        <time>2009-08-16T09:25:14Z</time>
      </trkpt>
      <trkpt lat="45.5639" lon="4.82424">
        <ele>238</ele>
        <time>2009-08-16T09:25:21Z</time>
      </trkpt>
      <trkpt lat="45.56391" lon="4.82422">
        <ele>238</ele>
        <time>2009-08-16T09:25:25Z</time>
      </trkpt>
      <trkpt lat="45.5639" lon="4.82422">
        <ele>238</ele>
        <time>2009-08-16T09:25:34Z</time>
      </trkpt>
      <trkpt lat="45.56388" lon="4.82423">
        <ele>238</ele>
        <time>2009-08-16T09:25:46Z</time>
      </trkpt>
      <trkpt lat="45.5639" lon="4.82424">
        <ele>238</ele>
        <time>2009-08-16T09:25:56Z</time>
      </trkpt>
      <trkpt lat="45.5639" lon="4.82428">
        <ele>238</ele>
        <time>2009-08-16T09:26:01Z</time>
      </trkpt>
      <trkpt lat="45.56384" lon="4.82443">
        <ele>238</ele>
        <time>2009-08-16T09:26:06Z</time>
      </trkpt>
      <trkpt lat="45.56369" lon="4.82454">
        <ele>237</ele>
        <time>2009-08-16T09:26:10Z</time>
      </trkpt>
      <trkpt lat="45.56359" lon="4.82457">
        <ele>237</ele>
        <time>2009-08-16T09:26:14Z</time>
      </trkpt>
      <trkpt lat="45.56354" lon="4.8246">
        <ele>237</ele>
        <time>2009-08-16T09:26:18Z</time>
      </trkpt>
      <trkpt lat="45.56352" lon="4.8246">
        <ele>236</ele>
        <time>2009-08-16T09:27:21Z</time>
      </trkpt>
      <trkpt lat="45.56347" lon="4.82467">
        <ele>237</ele>
        <time>2009-08-16T09:27:25Z</time>
      </trkpt>
      <trkpt lat="45.5634" lon="4.82475">
        <ele>237</ele>
        <time>2009-08-16T09:27:30Z</time>
      </trkpt>
      <trkpt lat="45.56332" lon="4.82479">
        <ele>232</ele>
        <time>2009-08-16T09:27:34Z</time>
      </trkpt>
      <trkpt lat="45.56318" lon="4.8248">
        <ele>231</ele>
        <time>2009-08-16T09:27:38Z</time>
      </trkpt>
      <trkpt lat="45.56297" lon="4.82479">
        <ele>228</ele>
        <time>2009-08-16T09:27:42Z</time>
      </trkpt>
      <trkpt lat="45.56286" lon="4.82481">
        <ele>227</ele>
        <time>2009-08-16T09:27:46Z</time>
      </trkpt>
      <trkpt lat="45.56275" lon="4.82485">
        <ele>226</ele>
        <time>2009-08-16T09:27:50Z</time>
      </trkpt>
      <trkpt lat="45.56265" lon="4.82491">
        <ele>225</ele>
        <time>2009-08-16T09:27:54Z</time>
      </trkpt>
      <trkpt lat="45.56254" lon="4.82507">
        <ele>225</ele>
        <time>2009-08-16T09:27:58Z</time>
      </trkpt>
      <trkpt lat="45.56245" lon="4.82517">
        <ele>222</ele>
        <time>2009-08-16T09:28:02Z</time>
      </trkpt>
      <trkpt lat="45.56232" lon="4.82525">
        <ele>223</ele>
        <time>2009-08-16T09:28:06Z</time>
      </trkpt>
      <trkpt lat="45.5621" lon="4.82539">
        <ele>222</ele>
        <time>2009-08-16T09:28:10Z</time>
      </trkpt>
      <trkpt lat="45.56176" lon="4.82545">
        <ele>221</ele>
        <time>2009-08-16T09:28:15Z</time>
      </trkpt>
      <trkpt lat="45.56153" lon="4.82529">
        <ele>214</ele>
        <time>2009-08-16T09:28:19Z</time>
      </trkpt>
      <trkpt lat="45.56133" lon="4.82517">
        <ele>214</ele>
        <time>2009-08-16T09:28:23Z</time>
      </trkpt>
      <trkpt lat="45.56117" lon="4.82522">
        <ele>214</ele>
        <time>2009-08-16T09:28:27Z</time>
      </trkpt>
      <trkpt lat="45.56098" lon="4.8253">
        <ele>213</ele>
        <time>2009-08-16T09:28:31Z</time>
      </trkpt>
      <trkpt lat="45.56083" lon="4.82544">
        <ele>208</ele>
        <time>2009-08-16T09:28:35Z</time>
      </trkpt>
      <trkpt lat="45.56067" lon="4.82556">
        <ele>208</ele>
        <time>2009-08-16T09:28:39Z</time>
      </trkpt>
      <trkpt lat="45.56054" lon="4.82566">
        <ele>207</ele>
        <time>2009-08-16T09:28:43Z</time>
      </trkpt>
      <trkpt lat="45.5605" lon="4.82578">
        <ele>207</ele>
        <time>2009-08-16T09:28:47Z</time>
      </trkpt>
      <trkpt lat="45.5605" lon="4.82584">
        <ele>215</ele>
        <time>2009-08-16T09:28:52Z</time>
      </trkpt>
      <trkpt lat="45.56047" lon="4.82589">
        <ele>214</ele>
        <time>2009-08-16T09:28:56Z</time>
      </trkpt>
      <trkpt lat="45.56032" lon="4.82594">
        <ele>213</ele>
        <time>2009-08-16T09:29:00Z</time>
      </trkpt>
      <trkpt lat="45.56007" lon="4.82604">
        <ele>211</ele>
        <time>2009-08-16T09:29:04Z</time>
      </trkpt>
      <trkpt lat="45.55982" lon="4.82598">
        <ele>200</ele>
        <time>2009-08-16T09:29:08Z</time>
      </trkpt>
      <trkpt lat="45.55962" lon="4.82603">
        <ele>197</ele>
        <time>2009-08-16T09:29:12Z</time>
      </trkpt>
      <trkpt lat="45.55944" lon="4.82631">
        <ele>196</ele>
        <time>2009-08-16T09:29:16Z</time>
      </trkpt>
      <trkpt lat="45.55933" lon="4.82665">
        <ele>195</ele>
        <time>2009-08-16T09:29:20Z</time>
      </trkpt>
      <trkpt lat="45.55919" lon="4.82697">
        <ele>203</ele>
        <time>2009-08-16T09:29:24Z</time>
      </trkpt>
      <trkpt lat="45.55899" lon="4.82719">
        <ele>187</ele>
        <time>2009-08-16T09:29:28Z</time>
      </trkpt>
      <trkpt lat="45.5588" lon="4.82738">
        <ele>185</ele>
        <time>2009-08-16T09:29:32Z</time>
      </trkpt>
      <trkpt lat="45.55867" lon="4.82768">
        <ele>190</ele>
        <time>2009-08-16T09:29:36Z</time>
      </trkpt>
      <trkpt lat="45.55854" lon="4.82798">
        <ele>191</ele>
        <time>2009-08-16T09:29:40Z</time>
      </trkpt>
      <trkpt lat="45.55838" lon="4.82812">
        <ele>190</ele>
        <time>2009-08-16T09:29:44Z</time>
      </trkpt>
      <trkpt lat="45.55816" lon="4.82825">
        <ele>179</ele>
        <time>2009-08-16T09:29:48Z</time>
      </trkpt>
      <trkpt lat="45.55793" lon="4.82842">
        <ele>182</ele>
        <time>2009-08-16T09:29:52Z</time>
      </trkpt>
      <trkpt lat="45.55768" lon="4.82858">
        <ele>179</ele>
        <time>2009-08-16T09:29:56Z</time>
      </trkpt>
      <trkpt lat="45.55743" lon="4.82871">
        <ele>167</ele>
        <time>2009-08-16T09:30:00Z</time>
      </trkpt>
      <trkpt lat="45.55722" lon="4.82893">
        <ele>167</ele>
        <time>2009-08-16T09:30:04Z</time>
      </trkpt>
      <trkpt lat="45.55703" lon="4.82926">
        <ele>171</ele>
        <time>2009-08-16T09:30:08Z</time>
      </trkpt>
      <trkpt lat="45.5568" lon="4.82958">
        <ele>171</ele>
        <time>2009-08-16T09:30:12Z</time>
      </trkpt>
      <trkpt lat="45.55658" lon="4.82975">
        <ele>163</ele>
        <time>2009-08-16T09:30:16Z</time>
      </trkpt>
      <trkpt lat="45.55641" lon="4.82971">
        <ele>161</ele>
        <time>2009-08-16T09:30:20Z</time>
      </trkpt>
      <trkpt lat="45.55634" lon="4.82962">
        <ele>160</ele>
        <time>2009-08-16T09:30:24Z</time>
      </trkpt>
      <trkpt lat="45.55633" lon="4.8296">
        <ele>160</ele>
        <time>2009-08-16T09:30:30Z</time>
      </trkpt>
      <trkpt lat="45.55633" lon="4.82959">
        <ele>160</ele>
        <time>2009-08-16T09:30:35Z</time>
      </trkpt>
      <trkpt lat="45.55634" lon="4.82957">
        <ele>160</ele>
        <time>2009-08-16T09:30:40Z</time>
      </trkpt>
      <trkpt lat="45.55635" lon="4.82955">
        <ele>160</ele>
        <time>2009-08-16T09:30:47Z</time>
      </trkpt>
      <trkpt lat="45.55635" lon="4.82957">
        <ele>160</ele>
        <time>2009-08-16T09:30:53Z</time>
      </trkpt>
      <trkpt lat="45.55635" lon="4.82959">
        <ele>160</ele>
        <time>2009-08-16T09:30:57Z</time>
      </trkpt>
      <trkpt lat="45.55636" lon="4.82961">
        <ele>160</ele>
        <time>2009-08-16T09:31:02Z</time>
      </trkpt>
      <trkpt lat="45.55637" lon="4.82961">
        <ele>160</ele>
        <time>2009-08-16T09:31:11Z</time>
      </trkpt>
      <trkpt lat="45.55638" lon="4.82959">
        <ele>160</ele>
        <time>2009-08-16T09:31:16Z</time>
      </trkpt>
      <trkpt lat="45.55638" lon="4.82958">
        <ele>160</ele>
        <time>2009-08-16T09:31:41Z</time>
      </trkpt>
      <trkpt lat="45.55637" lon="4.82956">
        <ele>160</ele>
        <time>2009-08-16T09:31:46Z</time>
      </trkpt>
      <trkpt lat="45.55637" lon="4.82958">
        <ele>160</ele>
        <time>2009-08-16T09:32:06Z</time>
      </trkpt>
      <trkpt lat="45.55636" lon="4.82962">
        <ele>160</ele>
        <time>2009-08-16T09:32:11Z</time>
      </trkpt>
      <trkpt lat="45.55635" lon="4.82963">
        <ele>160</ele>
        <time>2009-08-16T09:32:15Z</time>
      </trkpt>
      <trkpt lat="45.55635" lon="4.82965">
        <ele>160</ele>
        <time>2009-08-16T09:32:25Z</time>
      </trkpt>
      <trkpt lat="45.55634" lon="4.82966">
        <ele>160</ele>
        <time>2009-08-16T09:32:48Z</time>
      </trkpt>
      <trkpt lat="45.55636" lon="4.82966">
        <ele>160</ele>
        <time>2009-08-16T09:32:59Z</time>
      </trkpt>
      <trkpt lat="45.55638" lon="4.82966">
        <ele>160</ele>
        <time>2009-08-16T09:33:04Z</time>
      </trkpt>
      <trkpt lat="45.55638" lon="4.82968">
        <ele>161</ele>
        <time>2009-08-16T09:33:12Z</time>
      </trkpt>
      <trkpt lat="45.55637" lon="4.82971">
        <ele>161</ele>
        <time>2009-08-16T09:33:23Z</time>
      </trkpt>
      <trkpt lat="45.55638" lon="4.8297">
        <ele>161</ele>
        <time>2009-08-16T09:33:27Z</time>
      </trkpt>
      <trkpt lat="45.55639" lon="4.82967">
        <ele>161</ele>
        <time>2009-08-16T09:33:32Z</time>
      </trkpt>
      <trkpt lat="45.55637" lon="4.82964">
        <ele>160</ele>
        <time>2009-08-16T09:33:36Z</time>
      </trkpt>
      <trkpt lat="45.55634" lon="4.82963">
        <ele>160</ele>
        <time>2009-08-16T09:33:41Z</time>
      </trkpt>
      <trkpt lat="45.55635" lon="4.82961">
        <ele>160</ele>
        <time>2009-08-16T09:33:46Z</time>
      </trkpt>
      <trkpt lat="45.55638" lon="4.82959">
        <ele>160</ele>
        <time>2009-08-16T09:33:54Z</time>
      </trkpt>
      <trkpt lat="45.55638" lon="4.82961">
        <ele>160</ele>
        <time>2009-08-16T09:34:02Z</time>
      </trkpt>
      <trkpt lat="45.55637" lon="4.82963">
        <ele>160</ele>
        <time>2009-08-16T09:34:06Z</time>
      </trkpt>
      <trkpt lat="45.55636" lon="4.82965">
        <ele>160</ele>
        <time>2009-08-16T09:34:10Z</time>
      </trkpt>
      <trkpt lat="45.55634" lon="4.82966">
        <ele>160</ele>
        <time>2009-08-16T09:34:14Z</time>
      </trkpt>
      <trkpt lat="45.55633" lon="4.82967">
        <ele>160</ele>
        <time>2009-08-16T09:34:20Z</time>
      </trkpt>
      <trkpt lat="45.55635" lon="4.82967">
        <ele>160</ele>
        <time>2009-08-16T09:34:25Z</time>
      </trkpt>
      <trkpt lat="45.55638" lon="4.82966">
        <ele>160</ele>
        <time>2009-08-16T09:34:37Z</time>
      </trkpt>
      <trkpt lat="45.55639" lon="4.82968">
        <ele>161</ele>
        <time>2009-08-16T09:34:57Z</time>
      </trkpt>
      <trkpt lat="45.55638" lon="4.82969">
        <ele>161</ele>
        <time>2009-08-16T09:35:05Z</time>
      </trkpt>
      <trkpt lat="45.55636" lon="4.8297">
        <ele>161</ele>
        <time>2009-08-16T09:35:11Z</time>
      </trkpt>
      <trkpt lat="45.55636" lon="4.82971">
        <ele>161</ele>
        <time>2009-08-16T09:35:15Z</time>
      </trkpt>
      <trkpt lat="45.55635" lon="4.82973">
        <ele>161</ele>
        <time>2009-08-16T09:35:20Z</time>
      </trkpt>
      <trkpt lat="45.55634" lon="4.82972">
        <ele>160</ele>
        <time>2009-08-16T09:35:29Z</time>
      </trkpt>
      <trkpt lat="45.55632" lon="4.8297">
        <ele>160</ele>
        <time>2009-08-16T09:35:33Z</time>
      </trkpt>
      <trkpt lat="45.5563" lon="4.82968">
        <ele>160</ele>
        <time>2009-08-16T09:35:40Z</time>
      </trkpt>
      <trkpt lat="45.55631" lon="4.82966">
        <ele>160</ele>
        <time>2009-08-16T09:35:46Z</time>
      </trkpt>
      <trkpt lat="45.55633" lon="4.82962">
        <ele>160</ele>
        <time>2009-08-16T09:35:52Z</time>
      </trkpt>
      <trkpt lat="45.55634" lon="4.82962">
        <ele>160</ele>
        <time>2009-08-16T09:35:59Z</time>
      </trkpt>
      <trkpt lat="45.55634" lon="4.82963">
        <ele>160</ele>
        <time>2009-08-16T09:36:04Z</time>
      </trkpt>
      <trkpt lat="45.55634" lon="4.82962">
        <ele>160</ele>
        <time>2009-08-16T09:36:12Z</time>
      </trkpt>
      <trkpt lat="45.55635" lon="4.82963">
        <ele>160</ele>
        <time>2009-08-16T09:36:21Z</time>
      </trkpt>
      <trkpt lat="45.55636" lon="4.82965">
        <ele>160</ele>
        <time>2009-08-16T09:36:34Z</time>
      </trkpt>
      <trkpt lat="45.55636" lon="4.82965">
        <ele>160</ele>
        <time>2009-08-16T09:36:49Z</time>
      </trkpt>
      <trkpt lat="45.55637" lon="4.82964">
        <ele>160</ele>
        <time>2009-08-16T09:36:55Z</time>
      </trkpt>
      <trkpt lat="45.55638" lon="4.82963">
        <ele>160</ele>
        <time>2009-08-16T09:37:01Z</time>
      </trkpt>
      <trkpt lat="45.55639" lon="4.82964">
        <ele>160</ele>
        <time>2009-08-16T09:37:10Z</time>
      </trkpt>
      <trkpt lat="45.55639" lon="4.82962">
        <ele>160</ele>
        <time>2009-08-16T09:37:14Z</time>
      </trkpt>
      <trkpt lat="45.55638" lon="4.82963">
        <ele>160</ele>
        <time>2009-08-16T09:37:21Z</time>
      </trkpt>
      <trkpt lat="45.55636" lon="4.82964">
        <ele>160</ele>
        <time>2009-08-16T09:37:26Z</time>
      </trkpt>
      <trkpt lat="45.55635" lon="4.82965">
        <ele>160</ele>
        <time>2009-08-16T09:37:36Z</time>
      </trkpt>
      <trkpt lat="45.55634" lon="4.82966">
        <ele>160</ele>
        <time>2009-08-16T09:37:44Z</time>
      </trkpt>
      <trkpt lat="45.55635" lon="4.82965">
        <ele>160</ele>
        <time>2009-08-16T09:37:48Z</time>
      </trkpt>
      <trkpt lat="45.55636" lon="4.82964">
        <ele>160</ele>
        <time>2009-08-16T09:37:57Z</time>
      </trkpt>
      <trkpt lat="45.55635" lon="4.82962">
        <ele>160</ele>
        <time>2009-08-16T09:38:01Z</time>
      </trkpt>
      <trkpt lat="45.55635" lon="4.82961">
        <ele>160</ele>
        <time>2009-08-16T09:38:06Z</time>
      </trkpt>
      <trkpt lat="45.55634" lon="4.82958">
        <ele>160</ele>
        <time>2009-08-16T09:38:17Z</time>
      </trkpt>
      <trkpt lat="45.55633" lon="4.82957">
        <ele>160</ele>
        <time>2009-08-16T09:38:22Z</time>
      </trkpt>
      <trkpt lat="45.55632" lon="4.82955">
        <ele>160</ele>
        <time>2009-08-16T09:38:29Z</time>
      </trkpt>
      <trkpt lat="45.55634" lon="4.82956">
        <ele>160</ele>
        <time>2009-08-16T09:38:33Z</time>
      </trkpt>
      <trkpt lat="45.55636" lon="4.82958">
        <ele>160</ele>
        <time>2009-08-16T09:38:40Z</time>
      </trkpt>
      <trkpt lat="45.55637" lon="4.82958">
        <ele>160</ele>
        <time>2009-08-16T09:38:46Z</time>
      </trkpt>
      <trkpt lat="45.55636" lon="4.82957">
        <ele>160</ele>
        <time>2009-08-16T09:38:50Z</time>
      </trkpt>
      <trkpt lat="45.55634" lon="4.82954">
        <ele>160</ele>
        <time>2009-08-16T09:38:54Z</time>
      </trkpt>
      <trkpt lat="45.55638" lon="4.82946">
        <ele>160</ele>
        <time>2009-08-16T09:38:58Z</time>
      </trkpt>
      <trkpt lat="45.55643" lon="4.82936">
        <ele>159</ele>
        <time>2009-08-16T09:39:02Z</time>
      </trkpt>
      <trkpt lat="45.5565" lon="4.82926">
        <ele>159</ele>
        <time>2009-08-16T09:39:06Z</time>
      </trkpt>
      <trkpt lat="45.55654" lon="4.82916">
        <ele>158</ele>
        <time>2009-08-16T09:39:10Z</time>
      </trkpt>
      <trkpt lat="45.55659" lon="4.82908">
        <ele>158</ele>
        <time>2009-08-16T09:39:14Z</time>
      </trkpt>
      <trkpt lat="45.55666" lon="4.82898">
        <ele>157</ele>
        <time>2009-08-16T09:39:19Z</time>
      </trkpt>
      <trkpt lat="45.55672" lon="4.82888">
        <ele>162</ele>
        <time>2009-08-16T09:39:23Z</time>
      </trkpt>
      <trkpt lat="45.55678" lon="4.82878">
        <ele>163</ele>
        <time>2009-08-16T09:39:27Z</time>
      </trkpt>
      <trkpt lat="45.55683" lon="4.82871">
        <ele>163</ele>
        <time>2009-08-16T09:39:31Z</time>
      </trkpt>
      <trkpt lat="45.55683" lon="4.82867">
        <ele>162</ele>
        <time>2009-08-16T09:39:38Z</time>
      </trkpt>
      <trkpt lat="45.55684" lon="4.82864">
        <ele>162</ele>
        <time>2009-08-16T09:39:42Z</time>
      </trkpt>
      <trkpt lat="45.55688" lon="4.82858">
        <ele>162</ele>
        <time>2009-08-16T09:39:46Z</time>
      </trkpt>
      <trkpt lat="45.55695" lon="4.82849">
        <ele>162</ele>
        <time>2009-08-16T09:39:50Z</time>
      </trkpt>
      <trkpt lat="45.55703" lon="4.82838">
        <ele>163</ele>
        <time>2009-08-16T09:39:54Z</time>
      </trkpt>
      <trkpt lat="45.5571" lon="4.82828">
        <ele>160</ele>
        <time>2009-08-16T09:39:58Z</time>
      </trkpt>
      <trkpt lat="45.55715" lon="4.82821">
        <ele>160</ele>
        <time>2009-08-16T09:40:02Z</time>
      </trkpt>
      <trkpt lat="45.55721" lon="4.82813">
        <ele>160</ele>
        <time>2009-08-16T09:40:06Z</time>
      </trkpt>
      <trkpt lat="45.55729" lon="4.82803">
        <ele>160</ele>
        <time>2009-08-16T09:40:10Z</time>
      </trkpt>
      <trkpt lat="45.55737" lon="4.82792">
        <ele>160</ele>
        <time>2009-08-16T09:40:14Z</time>
      </trkpt>
      <trkpt lat="45.55746" lon="4.8278">
        <ele>159</ele>
        <time>2009-08-16T09:40:18Z</time>
      </trkpt>
      <trkpt lat="45.55753" lon="4.82772">
        <ele>165</ele>
        <time>2009-08-16T09:40:22Z</time>
      </trkpt>
      <trkpt lat="45.55757" lon="4.82762">
        <ele>163</ele>
        <time>2009-08-16T09:40:26Z</time>
      </trkpt>
      <trkpt lat="45.55763" lon="4.82749">
        <ele>160</ele>
        <time>2009-08-16T09:40:30Z</time>
      </trkpt>
      <trkpt lat="45.55768" lon="4.82737">
        <ele>161</ele>
        <time>2009-08-16T09:40:34Z</time>
      </trkpt>
      <trkpt lat="45.55773" lon="4.82724">
        <ele>162</ele>
        <time>2009-08-16T09:40:38Z</time>
      </trkpt>
      <trkpt lat="45.55778" lon="4.82712">
        <ele>162</ele>
        <time>2009-08-16T09:40:42Z</time>
      </trkpt>
      <trkpt lat="45.55786" lon="4.827">
        <ele>162</ele>
        <time>2009-08-16T09:40:46Z</time>
      </trkpt>
      <trkpt lat="45.55792" lon="4.82688">
        <ele>162</ele>
        <time>2009-08-16T09:40:50Z</time>
      </trkpt>
      <trkpt lat="45.55799" lon="4.82677">
        <ele>162</ele>
        <time>2009-08-16T09:40:54Z</time>
      </trkpt>
      <trkpt lat="45.55808" lon="4.8266">
        <ele>160</ele>
        <time>2009-08-16T09:40:58Z</time>
      </trkpt>
      <trkpt lat="45.55816" lon="4.82644">
        <ele>160</ele>
        <time>2009-08-16T09:41:02Z</time>
      </trkpt>
      <trkpt lat="45.55826" lon="4.82627">
        <ele>160</ele>
        <time>2009-08-16T09:41:06Z</time>
      </trkpt>
      <trkpt lat="45.55836" lon="4.82609">
        <ele>167</ele>
        <time>2009-08-16T09:41:10Z</time>
      </trkpt>
      <trkpt lat="45.55847" lon="4.82589">
        <ele>165</ele>
        <time>2009-08-16T09:41:14Z</time>
      </trkpt>
      <trkpt lat="45.55858" lon="4.82569">
        <ele>163</ele>
        <time>2009-08-16T09:41:18Z</time>
      </trkpt>
      <trkpt lat="45.55869" lon="4.82553">
        <ele>164</ele>
        <time>2009-08-16T09:41:22Z</time>
      </trkpt>
      <trkpt lat="45.55881" lon="4.82537">
        <ele>164</ele>
        <time>2009-08-16T09:41:26Z</time>
      </trkpt>
      <trkpt lat="45.5589" lon="4.82521">
        <ele>164</ele>
        <time>2009-08-16T09:41:30Z</time>
      </trkpt>
      <trkpt lat="45.55904" lon="4.82502">
        <ele>164</ele>
        <time>2009-08-16T09:41:34Z</time>
      </trkpt>
      <trkpt lat="45.55915" lon="4.82482">
        <ele>161</ele>
        <time>2009-08-16T09:41:38Z</time>
      </trkpt>
      <trkpt lat="45.55919" lon="4.82466">
        <ele>168</ele>
        <time>2009-08-16T09:41:42Z</time>
      </trkpt>
      <trkpt lat="45.5592" lon="4.82463">
        <ele>168</ele>
        <time>2009-08-16T09:41:49Z</time>
      </trkpt>
      <trkpt lat="45.55919" lon="4.82462">
        <ele>167</ele>
        <time>2009-08-16T09:42:00Z</time>
      </trkpt>
      <trkpt lat="45.55918" lon="4.82461">
        <ele>167</ele>
        <time>2009-08-16T09:42:15Z</time>
      </trkpt>
      <trkpt lat="45.55919" lon="4.82459">
        <ele>167</ele>
        <time>2009-08-16T09:42:20Z</time>
      </trkpt>
      <trkpt lat="45.55921" lon="4.82454">
        <ele>167</ele>
        <time>2009-08-16T09:42:28Z</time>
      </trkpt>
      <trkpt lat="45.55923" lon="4.82452">
        <ele>167</ele>
        <time>2009-08-16T09:42:33Z</time>
      </trkpt>
      <trkpt lat="45.55926" lon="4.82449">
        <ele>167</ele>
        <time>2009-08-16T09:42:37Z</time>
      </trkpt>
      <trkpt lat="45.55927" lon="4.82448">
        <ele>167</ele>
        <time>2009-08-16T09:42:42Z</time>
      </trkpt>
      <trkpt lat="45.55928" lon="4.82447">
        <ele>167</ele>
        <time>2009-08-16T09:42:48Z</time>
      </trkpt>
      <trkpt lat="45.55927" lon="4.82447">
        <ele>167</ele>
        <time>2009-08-16T09:42:54Z</time>
      </trkpt>
      <trkpt lat="45.55926" lon="4.82447">
        <ele>167</ele>
        <time>2009-08-16T09:43:06Z</time>
      </trkpt>
      <trkpt lat="45.55925" lon="4.82447">
        <ele>166</ele>
        <time>2009-08-16T09:43:20Z</time>
      </trkpt>
      <trkpt lat="45.55925" lon="4.82445">
        <ele>166</ele>
        <time>2009-08-16T09:43:35Z</time>
      </trkpt>
      <trkpt lat="45.55928" lon="4.82445">
        <ele>167</ele>
        <time>2009-08-16T09:43:42Z</time>
      </trkpt>
      <trkpt lat="45.5593" lon="4.82445">
        <ele>167</ele>
        <time>2009-08-16T09:43:49Z</time>
      </trkpt>
      <trkpt lat="45.55932" lon="4.82444">
        <ele>167</ele>
        <time>2009-08-16T09:43:54Z</time>
      </trkpt>
      <trkpt lat="45.55931" lon="4.82446">
        <ele>167</ele>
        <time>2009-08-16T09:44:01Z</time>
      </trkpt>
      <trkpt lat="45.55928" lon="4.82447">
        <ele>167</ele>
        <time>2009-08-16T09:44:08Z</time>
      </trkpt>
      <trkpt lat="45.55927" lon="4.82447">
        <ele>167</ele>
        <time>2009-08-16T09:44:14Z</time>
      </trkpt>
      <trkpt lat="45.55928" lon="4.82449">
        <ele>167</ele>
        <time>2009-08-16T09:44:53Z</time>
      </trkpt>
      <trkpt lat="45.55927" lon="4.8245">
        <ele>167</ele>
        <time>2009-08-16T09:45:03Z</time>
      </trkpt>
      <trkpt lat="45.55927" lon="4.82448">
        <ele>167</ele>
        <time>2009-08-16T09:45:08Z</time>
      </trkpt>
      <trkpt lat="45.55924" lon="4.82448">
        <ele>167</ele>
        <time>2009-08-16T09:45:14Z</time>
      </trkpt>
      <trkpt lat="45.55923" lon="4.8245">
        <ele>167</ele>
        <time>2009-08-16T09:45:31Z</time>
      </trkpt>
      <trkpt lat="45.55924" lon="4.82451">
        <ele>167</ele>
        <time>2009-08-16T09:45:35Z</time>
      </trkpt>
      <trkpt lat="45.55924" lon="4.82453">
        <ele>167</ele>
        <time>2009-08-16T09:45:40Z</time>
      </trkpt>
      <trkpt lat="45.55923" lon="4.82453">
        <ele>167</ele>
        <time>2009-08-16T09:45:46Z</time>
      </trkpt>
      <trkpt lat="45.55924" lon="4.82454">
        <ele>167</ele>
        <time>2009-08-16T09:46:04Z</time>
      </trkpt>
      <trkpt lat="45.55925" lon="4.82452">
        <ele>167</ele>
        <time>2009-08-16T09:46:12Z</time>
      </trkpt>
      <trkpt lat="45.55926" lon="4.82452">
        <ele>167</ele>
        <time>2009-08-16T09:46:22Z</time>
      </trkpt>
      <trkpt lat="45.5593" lon="4.82447">
        <ele>167</ele>
        <time>2009-08-16T09:46:26Z</time>
      </trkpt>
      <trkpt lat="45.55935" lon="4.82441">
        <ele>167</ele>
        <time>2009-08-16T09:46:30Z</time>
      </trkpt>
      <trkpt lat="45.55939" lon="4.82432">
        <ele>166</ele>
        <time>2009-08-16T09:46:34Z</time>
      </trkpt>
      <trkpt lat="45.55944" lon="4.82423">
        <ele>167</ele>
        <time>2009-08-16T09:46:38Z</time>
      </trkpt>
      <trkpt lat="45.55951" lon="4.82415">
        <ele>162</ele>
        <time>2009-08-16T09:46:42Z</time>
      </trkpt>
      <trkpt lat="45.55955" lon="4.82404">
        <ele>162</ele>
        <time>2009-08-16T09:46:46Z</time>
      </trkpt>
      <trkpt lat="45.55961" lon="4.82391">
        <ele>162</ele>
        <time>2009-08-16T09:46:50Z</time>
      </trkpt>
      <trkpt lat="45.5597" lon="4.82378">
        <ele>163</ele>
        <time>2009-08-16T09:46:54Z</time>
      </trkpt>
      <trkpt lat="45.55977" lon="4.82366">
        <ele>162</ele>
        <time>2009-08-16T09:46:58Z</time>
      </trkpt>
      <trkpt lat="45.55985" lon="4.82355">
        <ele>162</ele>
        <time>2009-08-16T09:47:02Z</time>
      </trkpt>
      <trkpt lat="45.55993" lon="4.82347">
        <ele>161</ele>
        <time>2009-08-16T09:47:06Z</time>
      </trkpt>
      <trkpt lat="45.56" lon="4.82339">
        <ele>160</ele>
        <time>2009-08-16T09:47:10Z</time>
      </trkpt>
      <trkpt lat="45.56009" lon="4.82329">
        <ele>162</ele>
        <time>2009-08-16T09:47:14Z</time>
      </trkpt>
      <trkpt lat="45.56018" lon="4.82318">
        <ele>164</ele>
        <time>2009-08-16T09:47:18Z</time>
      </trkpt>
      <trkpt lat="45.56019" lon="4.82319">
        <ele>164</ele>
        <time>2009-08-16T09:47:29Z</time>
      </trkpt>
      <trkpt lat="45.5602" lon="4.82317">
        <ele>164</ele>
        <time>2009-08-16T09:47:35Z</time>
      </trkpt>
      <trkpt lat="45.56024" lon="4.82309">
        <ele>165</ele>
        <time>2009-08-16T09:47:39Z</time>
      </trkpt>
      <trkpt lat="45.56032" lon="4.82297">
        <ele>166</ele>
        <time>2009-08-16T09:47:43Z</time>
      </trkpt>
      <trkpt lat="45.5604" lon="4.82284">
        <ele>166</ele>
        <time>2009-08-16T09:47:47Z</time>
      </trkpt>
      <trkpt lat="45.56047" lon="4.82272">
        <ele>166</ele>
        <time>2009-08-16T09:47:51Z</time>
      </trkpt>
      <trkpt lat="45.56056" lon="4.82262">
        <ele>167</ele>
        <time>2009-08-16T09:47:55Z</time>
      </trkpt>
      <trkpt lat="45.56063" lon="4.82253">
        <ele>168</ele>
        <time>2009-08-16T09:47:59Z</time>
      </trkpt>
      <trkpt lat="45.5607" lon="4.82246">
        <ele>165</ele>
        <time>2009-08-16T09:48:03Z</time>
      </trkpt>
      <trkpt lat="45.56079" lon="4.82239">
        <ele>166</ele>
        <time>2009-08-16T09:48:07Z</time>
      </trkpt>
      <trkpt lat="45.56083" lon="4.8223">
        <ele>164</ele>
        <time>2009-08-16T09:48:11Z</time>
      </trkpt>
      <trkpt lat="45.5609" lon="4.82222">
        <ele>170</ele>
        <time>2009-08-16T09:48:15Z</time>
      </trkpt>
      <trkpt lat="45.56099" lon="4.8221">
        <ele>169</ele>
        <time>2009-08-16T09:48:19Z</time>
      </trkpt>
      <trkpt lat="45.56107" lon="4.82197">
        <ele>169</ele>
        <time>2009-08-16T09:48:23Z</time>
      </trkpt>
      <trkpt lat="45.56115" lon="4.82189">
        <ele>169</ele>
        <time>2009-08-16T09:48:27Z</time>
      </trkpt>
      <trkpt lat="45.56125" lon="4.82179">
        <ele>169</ele>
        <time>2009-08-16T09:48:31Z</time>
      </trkpt>
      <trkpt lat="45.56134" lon="4.82173">
        <ele>170</ele>
        <time>2009-08-16T09:48:35Z</time>
      </trkpt>
      <trkpt lat="45.56141" lon="4.82167">
        <ele>170</ele>
        <time>2009-08-16T09:48:39Z</time>
      </trkpt>
      <trkpt lat="45.56149" lon="4.82159">
        <ele>164</ele>
        <time>2009-08-16T09:48:43Z</time>
      </trkpt>
      <trkpt lat="45.56155" lon="4.82153">
        <ele>164</ele>
        <time>2009-08-16T09:48:47Z</time>
      </trkpt>
      <trkpt lat="45.56163" lon="4.82143">
        <ele>163</ele>
        <time>2009-08-16T09:48:51Z</time>
      </trkpt>
      <trkpt lat="45.56179" lon="4.82125">
        <ele>170</ele>
        <time>2009-08-16T09:48:55Z</time>
      </trkpt>
      <trkpt lat="45.56197" lon="4.82105">
        <ele>169</ele>
        <time>2009-08-16T09:48:59Z</time>
      </trkpt>
      <trkpt lat="45.56211" lon="4.82091">
        <ele>170</ele>
        <time>2009-08-16T09:49:03Z</time>
      </trkpt>
      <trkpt lat="45.56223" lon="4.82081">
        <ele>164</ele>
        <time>2009-08-16T09:49:07Z</time>
      </trkpt>
      <trkpt lat="45.56231" lon="4.82073">
        <ele>165</ele>
        <time>2009-08-16T09:49:11Z</time>
      </trkpt>
      <trkpt lat="45.56239" lon="4.82065">
        <ele>165</ele>
        <time>2009-08-16T09:49:15Z</time>
      </trkpt>
      <trkpt lat="45.56248" lon="4.82057">
        <ele>164</ele>
        <time>2009-08-16T09:49:19Z</time>
      </trkpt>
      <trkpt lat="45.56255" lon="4.82048">
        <ele>173</ele>
        <time>2009-08-16T09:49:23Z</time>
      </trkpt>
      <trkpt lat="45.56265" lon="4.82037">
        <ele>173</ele>
        <time>2009-08-16T09:49:27Z</time>
      </trkpt>
      <trkpt lat="45.56275" lon="4.82025">
        <ele>173</ele>
        <time>2009-08-16T09:49:31Z</time>
      </trkpt>
      <trkpt lat="45.56283" lon="4.82012">
        <ele>173</ele>
        <time>2009-08-16T09:49:35Z</time>
      </trkpt>
      <trkpt lat="45.56297" lon="4.82002">
        <ele>175</ele>
        <time>2009-08-16T09:49:39Z</time>
      </trkpt>
      <trkpt lat="45.56308" lon="4.81994">
        <ele>168</ele>
        <time>2009-08-16T09:49:43Z</time>
      </trkpt>
      <trkpt lat="45.56319" lon="4.81983">
        <ele>169</ele>
        <time>2009-08-16T09:49:47Z</time>
      </trkpt>
      <trkpt lat="45.56329" lon="4.8197">
        <ele>167</ele>
        <time>2009-08-16T09:49:51Z</time>
      </trkpt>
      <trkpt lat="45.56346" lon="4.81955">
        <ele>174</ele>
        <time>2009-08-16T09:49:56Z</time>
      </trkpt>
      <trkpt lat="45.56366" lon="4.81935">
        <ele>173</ele>
        <time>2009-08-16T09:50:00Z</time>
      </trkpt>
      <trkpt lat="45.56388" lon="4.81918">
        <ele>174</ele>
        <time>2009-08-16T09:50:04Z</time>
      </trkpt>
      <trkpt lat="45.56408" lon="4.81901">
        <ele>167</ele>
        <time>2009-08-16T09:50:08Z</time>
      </trkpt>
      <trkpt lat="45.56429" lon="4.81889">
        <ele>172</ele>
        <time>2009-08-16T09:50:12Z</time>
      </trkpt>
      <trkpt lat="45.56447" lon="4.81874">
        <ele>172</ele>
        <time>2009-08-16T09:50:16Z</time>
      </trkpt>
      <trkpt lat="45.56464" lon="4.81861">
        <ele>171</ele>
        <time>2009-08-16T09:50:20Z</time>
      </trkpt>
      <trkpt lat="45.56481" lon="4.8185">
        <ele>170</ele>
        <time>2009-08-16T09:50:24Z</time>
      </trkpt>
      <trkpt lat="45.56501" lon="4.81837">
        <ele>167</ele>
        <time>2009-08-16T09:50:28Z</time>
      </trkpt>
      <trkpt lat="45.56523" lon="4.81823">
        <ele>163</ele>
        <time>2009-08-16T09:50:32Z</time>
      </trkpt>
      <trkpt lat="45.56539" lon="4.81816">
        <ele>162</ele>
        <time>2009-08-16T09:50:36Z</time>
      </trkpt>
      <trkpt lat="45.56555" lon="4.81811">
        <ele>163</ele>
        <time>2009-08-16T09:50:40Z</time>
      </trkpt>
      <trkpt lat="45.56575" lon="4.81804">
        <ele>163</ele>
        <time>2009-08-16T09:50:44Z</time>
      </trkpt>
      <trkpt lat="45.566" lon="4.81796">
        <ele>165</ele>
        <time>2009-08-16T09:50:48Z</time>
      </trkpt>
      <trkpt lat="45.56627" lon="4.81788">
        <ele>165</ele>
        <time>2009-08-16T09:50:52Z</time>
      </trkpt>
      <trkpt lat="45.56656" lon="4.81781">
        <ele>164</ele>
        <time>2009-08-16T09:50:56Z</time>
      </trkpt>
      <trkpt lat="45.5668" lon="4.81777">
        <ele>161</ele>
        <time>2009-08-16T09:51:00Z</time>
      </trkpt>
      <trkpt lat="45.56695" lon="4.81778">
        <ele>161</ele>
        <time>2009-08-16T09:51:04Z</time>
      </trkpt>
      <trkpt lat="45.5671" lon="4.81777">
        <ele>160</ele>
        <time>2009-08-16T09:51:08Z</time>
      </trkpt>
      <trkpt lat="45.56716" lon="4.81774">
        <ele>160</ele>
        <time>2009-08-16T09:51:12Z</time>
      </trkpt>
      <trkpt lat="45.56725" lon="4.81785">
        <ele>160</ele>
        <time>2009-08-16T09:51:17Z</time>
      </trkpt>
      <trkpt lat="45.56732" lon="4.81795">
        <ele>160</ele>
        <time>2009-08-16T09:51:21Z</time>
      </trkpt>
      <trkpt lat="45.5674" lon="4.81805">
        <ele>159</ele>
        <time>2009-08-16T09:51:25Z</time>
      </trkpt>
      <trkpt lat="45.5675" lon="4.81817">
        <ele>159</ele>
        <time>2009-08-16T09:51:29Z</time>
      </trkpt>
      <trkpt lat="45.5676" lon="4.81828">
        <ele>156</ele>
        <time>2009-08-16T09:51:33Z</time>
      </trkpt>
      <trkpt lat="45.56769" lon="4.81839">
        <ele>160</ele>
        <time>2009-08-16T09:51:37Z</time>
      </trkpt>
      <trkpt lat="45.56781" lon="4.81853">
        <ele>162</ele>
        <time>2009-08-16T09:51:41Z</time>
      </trkpt>
      <trkpt lat="45.56791" lon="4.81869">
        <ele>163</ele>
        <time>2009-08-16T09:51:45Z</time>
      </trkpt>
      <trkpt lat="45.56805" lon="4.81883">
        <ele>163</ele>
        <time>2009-08-16T09:51:49Z</time>
      </trkpt>
      <trkpt lat="45.56821" lon="4.81892">
        <ele>162</ele>
        <time>2009-08-16T09:51:53Z</time>
      </trkpt>
      <trkpt lat="45.56838" lon="4.81898">
        <ele>160</ele>
        <time>2009-08-16T09:51:57Z</time>
      </trkpt>
      <trkpt lat="45.56854" lon="4.81904">
        <ele>159</ele>
        <time>2009-08-16T09:52:01Z</time>
      </trkpt>
      <trkpt lat="45.5687" lon="4.81908">
        <ele>159</ele>
        <time>2009-08-16T09:52:05Z</time>
      </trkpt>
      <trkpt lat="45.56885" lon="4.81912">
        <ele>159</ele>
        <time>2009-08-16T09:52:09Z</time>
      </trkpt>
      <trkpt lat="45.56901" lon="4.81918">
        <ele>162</ele>
        <time>2009-08-16T09:52:13Z</time>
      </trkpt>
      <trkpt lat="45.56915" lon="4.8192">
        <ele>161</ele>
        <time>2009-08-16T09:52:17Z</time>
      </trkpt>
      <trkpt lat="45.56932" lon="4.81916">
        <ele>161</ele>
        <time>2009-08-16T09:52:21Z</time>
      </trkpt>
      <trkpt lat="45.5695" lon="4.81908">
        <ele>161</ele>
        <time>2009-08-16T09:52:25Z</time>
      </trkpt>
      <trkpt lat="45.56967" lon="4.819">
        <ele>162</ele>
        <time>2009-08-16T09:52:29Z</time>
      </trkpt>
      <trkpt lat="45.56985" lon="4.81892">
        <ele>162</ele>
        <time>2009-08-16T09:52:33Z</time>
      </trkpt>
      <trkpt lat="45.57002" lon="4.81883">
        <ele>164</ele>
        <time>2009-08-16T09:52:37Z</time>
      </trkpt>
      <trkpt lat="45.57021" lon="4.81875">
        <ele>164</ele>
        <time>2009-08-16T09:52:41Z</time>
      </trkpt>
      <trkpt lat="45.57048" lon="4.81862">
        <ele>163</ele>
        <time>2009-08-16T09:52:46Z</time>
      </trkpt>
      <trkpt lat="45.57071" lon="4.8185">
        <ele>162</ele>
        <time>2009-08-16T09:52:50Z</time>
      </trkpt>
      <trkpt lat="45.57092" lon="4.8184">
        <ele>163</ele>
        <time>2009-08-16T09:52:54Z</time>
      </trkpt>
      <trkpt lat="45.57112" lon="4.81828">
        <ele>159</ele>
        <time>2009-08-16T09:52:58Z</time>
      </trkpt>
      <trkpt lat="45.5713" lon="4.81816">
        <ele>160</ele>
        <time>2009-08-16T09:53:02Z</time>
      </trkpt>
      <trkpt lat="45.57147" lon="4.818">
        <ele>160</ele>
        <time>2009-08-16T09:53:06Z</time>
      </trkpt>
      <trkpt lat="45.57163" lon="4.81781">
        <ele>159</ele>
        <time>2009-08-16T09:53:10Z</time>
      </trkpt>
      <trkpt lat="45.57176" lon="4.81759">
        <ele>159</ele>
        <time>2009-08-16T09:53:14Z</time>
      </trkpt>
      <trkpt lat="45.5719" lon="4.81737">
        <ele>157</ele>
        <time>2009-08-16T09:53:18Z</time>
      </trkpt>
      <trkpt lat="45.572" lon="4.81719">
        <ele>157</ele>
        <time>2009-08-16T09:53:22Z</time>
      </trkpt>
      <trkpt lat="45.57205" lon="4.81722">
        <ele>157</ele>
        <time>2009-08-16T09:53:26Z</time>
      </trkpt>
      <trkpt lat="45.57209" lon="4.81728">
        <ele>157</ele>
        <time>2009-08-16T09:53:30Z</time>
      </trkpt>
      <trkpt lat="45.57215" lon="4.81733">
        <ele>157</ele>
        <time>2009-08-16T09:53:34Z</time>
      </trkpt>
      <trkpt lat="45.5722" lon="4.81738">
        <ele>158</ele>
        <time>2009-08-16T09:53:39Z</time>
      </trkpt>
      <trkpt lat="45.57226" lon="4.81744">
        <ele>158</ele>
        <time>2009-08-16T09:53:44Z</time>
      </trkpt>
      <trkpt lat="45.5723" lon="4.81748">
        <ele>158</ele>
        <time>2009-08-16T09:53:48Z</time>
      </trkpt>
      <trkpt lat="45.57235" lon="4.81751">
        <ele>162</ele>
        <time>2009-08-16T09:53:52Z</time>
      </trkpt>
      <trkpt lat="45.5724" lon="4.81757">
        <ele>162</ele>
        <time>2009-08-16T09:53:57Z</time>
      </trkpt>
      <trkpt lat="45.57245" lon="4.81763">
        <ele>162</ele>
        <time>2009-08-16T09:54:03Z</time>
      </trkpt>
      <trkpt lat="45.57251" lon="4.81767">
        <ele>167</ele>
        <time>2009-08-16T09:54:07Z</time>
      </trkpt>
      <trkpt lat="45.57259" lon="4.81772">
        <ele>169</ele>
        <time>2009-08-16T09:54:11Z</time>
      </trkpt>
      <trkpt lat="45.57265" lon="4.81776">
        <ele>170</ele>
        <time>2009-08-16T09:54:15Z</time>
      </trkpt>
      <trkpt lat="45.57271" lon="4.81779">
        <ele>171</ele>
        <time>2009-08-16T09:54:20Z</time>
      </trkpt>
      <trkpt lat="45.57274" lon="4.81778">
        <ele>172</ele>
        <time>2009-08-16T09:54:24Z</time>
      </trkpt>
      <trkpt lat="45.57278" lon="4.81775">
        <ele>172</ele>
        <time>2009-08-16T09:54:28Z</time>
      </trkpt>
      <trkpt lat="45.57284" lon="4.81774">
        <ele>172</ele>
        <time>2009-08-16T09:54:33Z</time>
      </trkpt>
      <trkpt lat="45.57289" lon="4.8177">
        <ele>172</ele>
        <time>2009-08-16T09:54:37Z</time>
      </trkpt>
      <trkpt lat="45.57294" lon="4.81767">
        <ele>173</ele>
        <time>2009-08-16T09:54:41Z</time>
      </trkpt>
      <trkpt lat="45.573" lon="4.81769">
        <ele>174</ele>
        <time>2009-08-16T09:54:45Z</time>
      </trkpt>
      <trkpt lat="45.57303" lon="4.81768">
        <ele>174</ele>
        <time>2009-08-16T09:54:49Z</time>
      </trkpt>
      <trkpt lat="45.57304" lon="4.81765">
        <ele>174</ele>
        <time>2009-08-16T09:54:55Z</time>
      </trkpt>
      <trkpt lat="45.57307" lon="4.81764">
        <ele>174</ele>
        <time>2009-08-16T09:55:05Z</time>
      </trkpt>
      <trkpt lat="45.57309" lon="4.81764">
        <ele>174</ele>
        <time>2009-08-16T09:55:12Z</time>
      </trkpt>
      <trkpt lat="45.57309" lon="4.81765">
        <ele>174</ele>
        <time>2009-08-16T09:55:33Z</time>
      </trkpt>
      <trkpt lat="45.57306" lon="4.81764">
        <ele>174</ele>
        <time>2009-08-16T09:55:38Z</time>
      </trkpt>
      <trkpt lat="45.57309" lon="4.81764">
        <ele>174</ele>
        <time>2009-08-16T09:55:45Z</time>
      </trkpt>
      <trkpt lat="45.57312" lon="4.81763">
        <ele>174</ele>
        <time>2009-08-16T09:55:49Z</time>
      </trkpt>
      <trkpt lat="45.57315" lon="4.81763">
        <ele>174</ele>
        <time>2009-08-16T09:55:54Z</time>
      </trkpt>
      <trkpt lat="45.5732" lon="4.8176">
        <ele>175</ele>
        <time>2009-08-16T09:55:58Z</time>
      </trkpt>
      <trkpt lat="45.57328" lon="4.81764">
        <ele>175</ele>
        <time>2009-08-16T09:56:02Z</time>
      </trkpt>
      <trkpt lat="45.57335" lon="4.81766">
        <ele>183</ele>
        <time>2009-08-16T09:56:06Z</time>
      </trkpt>
      <trkpt lat="45.57341" lon="4.81768">
        <ele>184</ele>
        <time>2009-08-16T09:56:10Z</time>
      </trkpt>
      <trkpt lat="45.57347" lon="4.81772">
        <ele>186</ele>
        <time>2009-08-16T09:56:15Z</time>
      </trkpt>
      <trkpt lat="45.57351" lon="4.81775">
        <ele>187</ele>
        <time>2009-08-16T09:56:19Z</time>
      </trkpt>
      <trkpt lat="45.57354" lon="4.81779">
        <ele>188</ele>
        <time>2009-08-16T09:56:23Z</time>
      </trkpt>
      <trkpt lat="45.57359" lon="4.81783">
        <ele>189</ele>
        <time>2009-08-16T09:56:27Z</time>
      </trkpt>
      <trkpt lat="45.57362" lon="4.81788">
        <ele>190</ele>
        <time>2009-08-16T09:56:33Z</time>
      </trkpt>
      <trkpt lat="45.57364" lon="4.81797">
        <ele>191</ele>
        <time>2009-08-16T09:56:38Z</time>
      </trkpt>
      <trkpt lat="45.57364" lon="4.81804">
        <ele>191</ele>
        <time>2009-08-16T09:56:42Z</time>
      </trkpt>
      <trkpt lat="45.57366" lon="4.81811">
        <ele>192</ele>
        <time>2009-08-16T09:56:46Z</time>
      </trkpt>
      <trkpt lat="45.57369" lon="4.81817">
        <ele>192</ele>
        <time>2009-08-16T09:56:51Z</time>
      </trkpt>
      <trkpt lat="45.57371" lon="4.81822">
        <ele>193</ele>
        <time>2009-08-16T09:56:55Z</time>
      </trkpt>
      <trkpt lat="45.57373" lon="4.81829">
        <ele>193</ele>
        <time>2009-08-16T09:57:00Z</time>
      </trkpt>
      <trkpt lat="45.57373" lon="4.81834">
        <ele>200</ele>
        <time>2009-08-16T09:57:04Z</time>
      </trkpt>
      <trkpt lat="45.57374" lon="4.8184">
        <ele>200</ele>
        <time>2009-08-16T09:57:08Z</time>
      </trkpt>
      <trkpt lat="45.57377" lon="4.81843">
        <ele>201</ele>
        <time>2009-08-16T09:57:12Z</time>
      </trkpt>
      <trkpt lat="45.57378" lon="4.81844">
        <ele>201</ele>
        <time>2009-08-16T09:57:16Z</time>
      </trkpt>
      <trkpt lat="45.57377" lon="4.81845">
        <ele>201</ele>
        <time>2009-08-16T09:57:21Z</time>
      </trkpt>
      <trkpt lat="45.57379" lon="4.81842">
        <ele>201</ele>
        <time>2009-08-16T09:57:27Z</time>
      </trkpt>
      <trkpt lat="45.5738" lon="4.81836">
        <ele>201</ele>
        <time>2009-08-16T09:57:32Z</time>
      </trkpt>
      <trkpt lat="45.57379" lon="4.81834">
        <ele>201</ele>
        <time>2009-08-16T09:57:37Z</time>
      </trkpt>
      <trkpt lat="45.57381" lon="4.81837">
        <ele>201</ele>
        <time>2009-08-16T09:57:42Z</time>
      </trkpt>
      <trkpt lat="45.57379" lon="4.81834">
        <ele>201</ele>
        <time>2009-08-16T09:57:47Z</time>
      </trkpt>
      <trkpt lat="45.57378" lon="4.81828">
        <ele>194</ele>
        <time>2009-08-16T09:57:51Z</time>
      </trkpt>
      <trkpt lat="45.57381" lon="4.81824">
        <ele>195</ele>
        <time>2009-08-16T09:57:56Z</time>
      </trkpt>
      <trkpt lat="45.57383" lon="4.81821">
        <ele>195</ele>
        <time>2009-08-16T09:58:00Z</time>
      </trkpt>
      <trkpt lat="45.57382" lon="4.8182">
        <ele>195</ele>
        <time>2009-08-16T09:58:04Z</time>
      </trkpt>
      <trkpt lat="45.57382" lon="4.81817">
        <ele>194</ele>
        <time>2009-08-16T09:58:11Z</time>
      </trkpt>
      <trkpt lat="45.57382" lon="4.81813">
        <ele>194</ele>
        <time>2009-08-16T09:58:16Z</time>
      </trkpt>
      <trkpt lat="45.57385" lon="4.81811">
        <ele>194</ele>
        <time>2009-08-16T09:58:20Z</time>
      </trkpt>
      <trkpt lat="45.57388" lon="4.81808">
        <ele>195</ele>
        <time>2009-08-16T09:58:25Z</time>
      </trkpt>
      <trkpt lat="45.57389" lon="4.81804">
        <ele>194</ele>
        <time>2009-08-16T09:58:30Z</time>
      </trkpt>
      <trkpt lat="45.5739" lon="4.818">
        <ele>194</ele>
        <time>2009-08-16T09:58:36Z</time>
      </trkpt>
      <trkpt lat="45.57392" lon="4.81798">
        <ele>194</ele>
        <time>2009-08-16T09:58:40Z</time>
      </trkpt>
      <trkpt lat="45.57394" lon="4.81794">
        <ele>194</ele>
        <time>2009-08-16T09:58:44Z</time>
      </trkpt>
      <trkpt lat="45.57397" lon="4.81792">
        <ele>194</ele>
        <time>2009-08-16T09:58:49Z</time>
      </trkpt>
      <trkpt lat="45.57399" lon="4.81789">
        <ele>194</ele>
        <time>2009-08-16T09:58:54Z</time>
      </trkpt>
      <trkpt lat="45.57402" lon="4.81786">
        <ele>194</ele>
        <time>2009-08-16T09:58:58Z</time>
      </trkpt>
      <trkpt lat="45.57405" lon="4.81784">
        <ele>194</ele>
        <time>2009-08-16T09:59:02Z</time>
      </trkpt>
      <trkpt lat="45.57408" lon="4.81782">
        <ele>194</ele>
        <time>2009-08-16T09:59:06Z</time>
      </trkpt>
      <trkpt lat="45.57411" lon="4.81775">
        <ele>195</ele>
        <time>2009-08-16T09:59:11Z</time>
      </trkpt>
      <trkpt lat="45.57414" lon="4.81771">
        <ele>195</ele>
        <time>2009-08-16T09:59:15Z</time>
      </trkpt>
      <trkpt lat="45.57419" lon="4.8177">
        <ele>204</ele>
        <time>2009-08-16T09:59:19Z</time>
      </trkpt>
      <trkpt lat="45.57418" lon="4.81772">
        <ele>205</ele>
        <time>2009-08-16T09:59:26Z</time>
      </trkpt>
      <trkpt lat="45.57419" lon="4.81772">
        <ele>205</ele>
        <time>2009-08-16T09:59:54Z</time>
      </trkpt>
      <trkpt lat="45.57419" lon="4.81771">
        <ele>205</ele>
        <time>2009-08-16T10:00:06Z</time>
      </trkpt>
      <trkpt lat="45.57417" lon="4.81769">
        <ele>204</ele>
        <time>2009-08-16T10:00:16Z</time>
      </trkpt>
      <trkpt lat="45.57418" lon="4.81772">
        <ele>205</ele>
        <time>2009-08-16T10:00:23Z</time>
      </trkpt>
      <trkpt lat="45.57418" lon="4.81776">
        <ele>206</ele>
        <time>2009-08-16T10:00:33Z</time>
      </trkpt>
      <trkpt lat="45.57417" lon="4.81778">
        <ele>206</ele>
        <time>2009-08-16T10:00:37Z</time>
      </trkpt>
      <trkpt lat="45.57418" lon="4.81783">
        <ele>207</ele>
        <time>2009-08-16T10:00:41Z</time>
      </trkpt>
      <trkpt lat="45.57415" lon="4.8179">
        <ele>195</ele>
        <time>2009-08-16T10:00:46Z</time>
      </trkpt>
      <trkpt lat="45.57413" lon="4.81798">
        <ele>196</ele>
        <time>2009-08-16T10:00:51Z</time>
      </trkpt>
      <trkpt lat="45.57411" lon="4.81806">
        <ele>197</ele>
        <time>2009-08-16T10:00:55Z</time>
      </trkpt>
      <trkpt lat="45.5741" lon="4.81817">
        <ele>199</ele>
        <time>2009-08-16T10:00:59Z</time>
      </trkpt>
      <trkpt lat="45.57409" lon="4.81825">
        <ele>202</ele>
        <time>2009-08-16T10:01:03Z</time>
      </trkpt>
      <trkpt lat="45.5741" lon="4.81828">
        <ele>202</ele>
        <time>2009-08-16T10:01:08Z</time>
      </trkpt>
      <trkpt lat="45.57411" lon="4.81834">
        <ele>206</ele>
        <time>2009-08-16T10:01:12Z</time>
      </trkpt>
      <trkpt lat="45.57414" lon="4.8184">
        <ele>206</ele>
        <time>2009-08-16T10:01:16Z</time>
      </trkpt>
      <trkpt lat="45.57416" lon="4.81846">
        <ele>205</ele>
        <time>2009-08-16T10:01:20Z</time>
      </trkpt>
      <trkpt lat="45.57418" lon="4.81852">
        <ele>213</ele>
        <time>2009-08-16T10:01:24Z</time>
      </trkpt>
      <trkpt lat="45.57418" lon="4.8186">
        <ele>214</ele>
        <time>2009-08-16T10:01:28Z</time>
      </trkpt>
      <trkpt lat="45.57418" lon="4.81863">
        <ele>214</ele>
        <time>2009-08-16T10:01:36Z</time>
      </trkpt>
      <trkpt lat="45.57417" lon="4.81864">
        <ele>215</ele>
        <time>2009-08-16T10:01:40Z</time>
      </trkpt>
      <trkpt lat="45.57414" lon="4.81864">
        <ele>205</ele>
        <time>2009-08-16T10:01:44Z</time>
      </trkpt>
      <trkpt lat="45.57413" lon="4.81867">
        <ele>205</ele>
        <time>2009-08-16T10:01:51Z</time>
      </trkpt>
      <trkpt lat="45.57412" lon="4.81869">
        <ele>205</ele>
        <time>2009-08-16T10:01:56Z</time>
      </trkpt>
      <trkpt lat="45.57412" lon="4.81873">
        <ele>205</ele>
        <time>2009-08-16T10:02:00Z</time>
      </trkpt>
      <trkpt lat="45.57414" lon="4.81878">
        <ele>205</ele>
        <time>2009-08-16T10:02:04Z</time>
      </trkpt>
      <trkpt lat="45.57416" lon="4.8188">
        <ele>205</ele>
        <time>2009-08-16T10:02:08Z</time>
      </trkpt>
      <trkpt lat="45.57414" lon="4.81878">
        <ele>205</ele>
        <time>2009-08-16T10:02:14Z</time>
      </trkpt>
      <trkpt lat="45.57413" lon="4.81879">
        <ele>205</ele>
        <time>2009-08-16T10:02:19Z</time>
      </trkpt>
      <trkpt lat="45.57411" lon="4.81879">
        <ele>205</ele>
        <time>2009-08-16T10:02:25Z</time>
      </trkpt>
      <trkpt lat="45.57408" lon="4.81878">
        <ele>205</ele>
        <time>2009-08-16T10:02:29Z</time>
      </trkpt>
      <trkpt lat="45.57407" lon="4.81879">
        <ele>205</ele>
        <time>2009-08-16T10:02:33Z</time>
      </trkpt>
      <trkpt lat="45.57407" lon="4.81877">
        <ele>205</ele>
        <time>2009-08-16T10:02:43Z</time>
      </trkpt>
      <trkpt lat="45.57408" lon="4.81876">
        <ele>205</ele>
        <time>2009-08-16T10:02:54Z</time>
      </trkpt>
      <trkpt lat="45.57409" lon="4.81875">
        <ele>205</ele>
        <time>2009-08-16T10:03:10Z</time>
      </trkpt>
      <trkpt lat="45.5741" lon="4.81874">
        <ele>205</ele>
        <time>2009-08-16T10:03:19Z</time>
      </trkpt>
      <trkpt lat="45.57412" lon="4.81875">
        <ele>205</ele>
        <time>2009-08-16T10:03:27Z</time>
      </trkpt>
      <trkpt lat="45.57413" lon="4.81875">
        <ele>205</ele>
        <time>2009-08-16T10:03:32Z</time>
      </trkpt>
      <trkpt lat="45.57413" lon="4.81875">
        <ele>205</ele>
        <time>2009-08-16T10:03:45Z</time>
      </trkpt>
      <trkpt lat="45.57412" lon="4.81879">
        <ele>205</ele>
        <time>2009-08-16T10:03:49Z</time>
      </trkpt>
      <trkpt lat="45.57411" lon="4.81879">
        <ele>205</ele>
        <time>2009-08-16T10:04:00Z</time>
      </trkpt>
      <trkpt lat="45.57411" lon="4.81876">
        <ele>205</ele>
        <time>2009-08-16T10:04:08Z</time>
      </trkpt>
      <trkpt lat="45.5741" lon="4.81877">
        <ele>205</ele>
        <time>2009-08-16T10:04:13Z</time>
      </trkpt>
      <trkpt lat="45.57409" lon="4.8188">
        <ele>205</ele>
        <time>2009-08-16T10:04:17Z</time>
      </trkpt>
      <trkpt lat="45.57407" lon="4.81883">
        <ele>205</ele>
        <time>2009-08-16T10:04:30Z</time>
      </trkpt>
      <trkpt lat="45.57406" lon="4.81884">
        <ele>205</ele>
        <time>2009-08-16T10:04:35Z</time>
      </trkpt>
      <trkpt lat="45.57406" lon="4.81883">
        <ele>205</ele>
        <time>2009-08-16T10:04:42Z</time>
      </trkpt>
      <trkpt lat="45.57409" lon="4.81881">
        <ele>205</ele>
        <time>2009-08-16T10:04:48Z</time>
      </trkpt>
      <trkpt lat="45.5741" lon="4.8188">
        <ele>205</ele>
        <time>2009-08-16T10:04:54Z</time>
      </trkpt>
      <trkpt lat="45.57411" lon="4.81879">
        <ele>205</ele>
        <time>2009-08-16T10:05:16Z</time>
      </trkpt>
      <trkpt lat="45.5741" lon="4.8188">
        <ele>205</ele>
        <time>2009-08-16T10:06:08Z</time>
      </trkpt>
      <trkpt lat="45.57409" lon="4.81881">
        <ele>205</ele>
        <time>2009-08-16T10:06:13Z</time>
      </trkpt>
      <trkpt lat="45.5741" lon="4.8188">
        <ele>205</ele>
        <time>2009-08-16T10:06:36Z</time>
      </trkpt>
      <trkpt lat="45.5741" lon="4.81879">
        <ele>205</ele>
        <time>2009-08-16T10:06:54Z</time>
      </trkpt>
      <trkpt lat="45.57409" lon="4.81881">
        <ele>205</ele>
        <time>2009-08-16T10:07:00Z</time>
      </trkpt>
      <trkpt lat="45.5741" lon="4.8188">
        <ele>205</ele>
        <time>2009-08-16T10:07:16Z</time>
      </trkpt>
      <trkpt lat="45.57411" lon="4.81878">
        <ele>205</ele>
        <time>2009-08-16T10:07:29Z</time>
      </trkpt>
      <trkpt lat="45.57412" lon="4.81877">
        <ele>205</ele>
        <time>2009-08-16T10:07:45Z</time>
      </trkpt>
      <trkpt lat="45.57411" lon="4.81879">
        <ele>205</ele>
        <time>2009-08-16T10:08:29Z</time>
      </trkpt>
      <trkpt lat="45.5741" lon="4.81877">
        <ele>205</ele>
        <time>2009-08-16T10:08:42Z</time>
      </trkpt>
      <trkpt lat="45.57407" lon="4.81881">
        <ele>205</ele>
        <time>2009-08-16T10:08:49Z</time>
      </trkpt>
      <trkpt lat="45.57408" lon="4.81879">
        <ele>205</ele>
        <time>2009-08-16T10:08:56Z</time>
      </trkpt>
      <trkpt lat="45.57409" lon="4.81878">
        <ele>205</ele>
        <time>2009-08-16T10:09:02Z</time>
      </trkpt>
      <trkpt lat="45.57408" lon="4.81879">
        <ele>205</ele>
        <time>2009-08-16T10:09:11Z</time>
      </trkpt>
      <trkpt lat="45.57407" lon="4.81878">
        <ele>205</ele>
        <time>2009-08-16T10:09:37Z</time>
      </trkpt>
      <trkpt lat="45.57408" lon="4.81879">
        <ele>205</ele>
        <time>2009-08-16T10:10:09Z</time>
      </trkpt>
      <trkpt lat="45.57409" lon="4.81878">
        <ele>205</ele>
        <time>2009-08-16T10:10:16Z</time>
      </trkpt>
      <trkpt lat="45.5741" lon="4.81876">
        <ele>205</ele>
        <time>2009-08-16T10:10:27Z</time>
      </trkpt>
      <trkpt lat="45.57411" lon="4.81875">
        <ele>205</ele>
        <time>2009-08-16T10:10:32Z</time>
      </trkpt>
      <trkpt lat="45.57413" lon="4.81874">
        <ele>205</ele>
        <time>2009-08-16T10:10:37Z</time>
      </trkpt>
      <trkpt lat="45.57414" lon="4.81873">
        <ele>205</ele>
        <time>2009-08-16T10:10:43Z</time>
      </trkpt>
      <trkpt lat="45.57415" lon="4.81872">
        <ele>205</ele>
        <time>2009-08-16T10:11:07Z</time>
      </trkpt>
      <trkpt lat="45.57414" lon="4.81873">
        <ele>205</ele>
        <time>2009-08-16T10:11:20Z</time>
      </trkpt>
      <trkpt lat="45.57411" lon="4.81872">
        <ele>205</ele>
        <time>2009-08-16T10:11:25Z</time>
      </trkpt>
      <trkpt lat="45.5741" lon="4.81873">
        <ele>205</ele>
        <time>2009-08-16T10:11:29Z</time>
      </trkpt>
      <trkpt lat="45.57408" lon="4.81875">
        <ele>205</ele>
        <time>2009-08-16T10:11:34Z</time>
      </trkpt>
      <trkpt lat="45.57409" lon="4.81877">
        <ele>205</ele>
        <time>2009-08-16T10:11:42Z</time>
      </trkpt>
      <trkpt lat="45.57409" lon="4.81879">
        <ele>205</ele>
        <time>2009-08-16T10:11:54Z</time>
      </trkpt>
      <trkpt lat="45.57411" lon="4.81876">
        <ele>205</ele>
        <time>2009-08-16T10:11:58Z</time>
      </trkpt>
      <trkpt lat="45.57412" lon="4.81874">
        <ele>205</ele>
        <time>2009-08-16T10:12:02Z</time>
      </trkpt>
      <trkpt lat="45.57413" lon="4.81873">
        <ele>205</ele>
        <time>2009-08-16T10:12:30Z</time>
      </trkpt>
      <trkpt lat="45.57412" lon="4.81875">
        <ele>205</ele>
        <time>2009-08-16T10:12:39Z</time>
      </trkpt>
      <trkpt lat="45.57409" lon="4.81879">
        <ele>205</ele>
        <time>2009-08-16T10:12:44Z</time>
      </trkpt>
      <trkpt lat="45.57411" lon="4.81878">
        <ele>205</ele>
        <time>2009-08-16T10:12:51Z</time>
      </trkpt>
      <trkpt lat="45.57412" lon="4.81879">
        <ele>205</ele>
        <time>2009-08-16T10:13:12Z</time>
      </trkpt>
      <trkpt lat="45.57413" lon="4.81877">
        <ele>205</ele>
        <time>2009-08-16T10:13:25Z</time>
      </trkpt>
      <trkpt lat="45.57414" lon="4.81876">
        <ele>205</ele>
        <time>2009-08-16T10:13:43Z</time>
      </trkpt>
      <trkpt lat="45.57415" lon="4.81875">
        <ele>205</ele>
        <time>2009-08-16T10:13:55Z</time>
      </trkpt>
      <trkpt lat="45.57416" lon="4.81874">
        <ele>205</ele>
        <time>2009-08-16T10:14:10Z</time>
      </trkpt>
      <trkpt lat="45.57417" lon="4.81873">
        <ele>215</ele>
        <time>2009-08-16T10:14:26Z</time>
      </trkpt>
      <trkpt lat="45.57419" lon="4.81871">
        <ele>215</ele>
        <time>2009-08-16T10:14:37Z</time>
      </trkpt>
      <trkpt lat="45.5742" lon="4.81873">
        <ele>215</ele>
        <time>2009-08-16T10:14:42Z</time>
      </trkpt>
      <trkpt lat="45.57419" lon="4.81874">
        <ele>215</ele>
        <time>2009-08-16T10:14:56Z</time>
      </trkpt>
      <trkpt lat="45.5742" lon="4.81876">
        <ele>216</ele>
        <time>2009-08-16T10:15:02Z</time>
      </trkpt>
      <trkpt lat="45.57418" lon="4.81876">
        <ele>215</ele>
        <time>2009-08-16T10:15:24Z</time>
      </trkpt>
      <trkpt lat="45.57418" lon="4.81877">
        <ele>216</ele>
        <time>2009-08-16T10:15:32Z</time>
      </trkpt>
      <trkpt lat="45.57421" lon="4.81877">
        <ele>216</ele>
        <time>2009-08-16T10:15:46Z</time>
      </trkpt>
      <trkpt lat="45.5742" lon="4.81877">
        <ele>216</ele>
        <time>2009-08-16T10:15:55Z</time>
      </trkpt>
      <trkpt lat="45.57419" lon="4.81877">
        <ele>216</ele>
        <time>2009-08-16T10:16:04Z</time>
      </trkpt>
      <trkpt lat="45.5742" lon="4.81877">
        <ele>216</ele>
        <time>2009-08-16T10:16:15Z</time>
      </trkpt>
      <trkpt lat="45.57419" lon="4.81878">
        <ele>216</ele>
        <time>2009-08-16T10:16:21Z</time>
      </trkpt>
      <trkpt lat="45.5742" lon="4.81879">
        <ele>216</ele>
        <time>2009-08-16T10:16:27Z</time>
      </trkpt>
      <trkpt lat="45.5742" lon="4.81877">
        <ele>216</ele>
        <time>2009-08-16T10:16:33Z</time>
      </trkpt>
      <trkpt lat="45.5742" lon="4.81876">
        <ele>216</ele>
        <time>2009-08-16T10:16:37Z</time>
      </trkpt>
      <trkpt lat="45.57421" lon="4.81872">
        <ele>215</ele>
        <time>2009-08-16T10:16:43Z</time>
      </trkpt>
      <trkpt lat="45.57421" lon="4.81874">
        <ele>216</ele>
        <time>2009-08-16T10:16:51Z</time>
      </trkpt>
      <trkpt lat="45.57422" lon="4.81879">
        <ele>216</ele>
        <time>2009-08-16T10:16:55Z</time>
      </trkpt>
      <trkpt lat="45.57425" lon="4.81889">
        <ele>216</ele>
        <time>2009-08-16T10:16:59Z</time>
      </trkpt>
      <trkpt lat="45.57425" lon="4.81894">
        <ele>216</ele>
        <time>2009-08-16T10:17:03Z</time>
      </trkpt>
      <trkpt lat="45.57426" lon="4.81904">
        <ele>215</ele>
        <time>2009-08-16T10:17:07Z</time>
      </trkpt>
      <trkpt lat="45.57426" lon="4.81912">
        <ele>215</ele>
        <time>2009-08-16T10:17:11Z</time>
      </trkpt>
      <trkpt lat="45.57428" lon="4.81919">
        <ele>216</ele>
        <time>2009-08-16T10:17:15Z</time>
      </trkpt>
      <trkpt lat="45.5743" lon="4.81927">
        <ele>217</ele>
        <time>2009-08-16T10:17:19Z</time>
      </trkpt>
      <trkpt lat="45.57431" lon="4.81936">
        <ele>218</ele>
        <time>2009-08-16T10:17:23Z</time>
      </trkpt>
      <trkpt lat="45.57432" lon="4.81944">
        <ele>219</ele>
        <time>2009-08-16T10:17:27Z</time>
      </trkpt>
      <trkpt lat="45.57434" lon="4.81954">
        <ele>220</ele>
        <time>2009-08-16T10:17:31Z</time>
      </trkpt>
      <trkpt lat="45.57434" lon="4.81963">
        <ele>220</ele>
        <time>2009-08-16T10:17:35Z</time>
      </trkpt>
      <trkpt lat="45.57433" lon="4.81973">
        <ele>220</ele>
        <time>2009-08-16T10:17:39Z</time>
      </trkpt>
      <trkpt lat="45.57434" lon="4.81981">
        <ele>220</ele>
        <time>2009-08-16T10:17:43Z</time>
      </trkpt>
      <trkpt lat="45.57436" lon="4.81991">
        <ele>219</ele>
        <time>2009-08-16T10:17:47Z</time>
      </trkpt>
      <trkpt lat="45.57438" lon="4.82002">
        <ele>220</ele>
        <time>2009-08-16T10:17:51Z</time>
      </trkpt>
      <trkpt lat="45.57442" lon="4.82013">
        <ele>221</ele>
        <time>2009-08-16T10:17:55Z</time>
      </trkpt>
      <trkpt lat="45.5745" lon="4.82033">
        <ele>222</ele>
        <time>2009-08-16T10:18:00Z</time>
      </trkpt>
      <trkpt lat="45.5746" lon="4.8205">
        <ele>223</ele>
        <time>2009-08-16T10:18:04Z</time>
      </trkpt>
      <trkpt lat="45.5746" lon="4.82064">
        <ele>223</ele>
        <time>2009-08-16T10:18:08Z</time>
      </trkpt>
      <trkpt lat="45.57458" lon="4.82069">
        <ele>223</ele>
        <time>2009-08-16T10:18:13Z</time>
      </trkpt>
      <trkpt lat="45.57461" lon="4.82071">
        <ele>223</ele>
        <time>2009-08-16T10:18:17Z</time>
      </trkpt>
      <trkpt lat="45.57465" lon="4.82072">
        <ele>223</ele>
        <time>2009-08-16T10:18:22Z</time>
      </trkpt>
      <trkpt lat="45.57468" lon="4.8207">
        <ele>224</ele>
        <time>2009-08-16T10:18:27Z</time>
      </trkpt>
      <trkpt lat="45.57471" lon="4.82069">
        <ele>224</ele>
        <time>2009-08-16T10:18:39Z</time>
      </trkpt>
      <trkpt lat="45.57474" lon="4.82071">
        <ele>224</ele>
        <time>2009-08-16T10:18:44Z</time>
      </trkpt>
      <trkpt lat="45.57476" lon="4.82075">
        <ele>224</ele>
        <time>2009-08-16T10:18:49Z</time>
      </trkpt>
      <trkpt lat="45.57471" lon="4.82076">
        <ele>224</ele>
        <time>2009-08-16T10:18:53Z</time>
      </trkpt>
      <trkpt lat="45.57467" lon="4.82074">
        <ele>223</ele>
        <time>2009-08-16T10:18:57Z</time>
      </trkpt>
      <trkpt lat="45.57464" lon="4.82073">
        <ele>223</ele>
        <time>2009-08-16T10:19:01Z</time>
      </trkpt>
      <trkpt lat="45.57463" lon="4.82076">
        <ele>223</ele>
        <time>2009-08-16T10:19:05Z</time>
      </trkpt>
      <trkpt lat="45.57461" lon="4.8208">
        <ele>223</ele>
        <time>2009-08-16T10:19:09Z</time>
      </trkpt>
      <trkpt lat="45.57466" lon="4.82083">
        <ele>223</ele>
        <time>2009-08-16T10:19:13Z</time>
      </trkpt>
      <trkpt lat="45.57473" lon="4.82086">
        <ele>227</ele>
        <time>2009-08-16T10:19:17Z</time>
      </trkpt>
      <trkpt lat="45.57481" lon="4.8209">
        <ele>226</ele>
        <time>2009-08-16T10:19:21Z</time>
      </trkpt>
      <trkpt lat="45.57489" lon="4.82097">
        <ele>226</ele>
        <time>2009-08-16T10:19:25Z</time>
      </trkpt>
      <trkpt lat="45.57496" lon="4.82103">
        <ele>227</ele>
        <time>2009-08-16T10:19:29Z</time>
      </trkpt>
      <trkpt lat="45.57502" lon="4.82108">
        <ele>229</ele>
        <time>2009-08-16T10:19:35Z</time>
      </trkpt>
      <trkpt lat="45.57507" lon="4.8211">
        <ele>229</ele>
        <time>2009-08-16T10:19:39Z</time>
      </trkpt>
      <trkpt lat="45.57514" lon="4.82117">
        <ele>230</ele>
        <time>2009-08-16T10:19:43Z</time>
      </trkpt>
      <trkpt lat="45.57521" lon="4.82121">
        <ele>230</ele>
        <time>2009-08-16T10:19:47Z</time>
      </trkpt>
      <trkpt lat="45.5753" lon="4.8213">
        <ele>230</ele>
        <time>2009-08-16T10:19:51Z</time>
      </trkpt>
      <trkpt lat="45.57537" lon="4.82134">
        <ele>231</ele>
        <time>2009-08-16T10:19:55Z</time>
      </trkpt>
      <trkpt lat="45.57544" lon="4.82137">
        <ele>231</ele>
        <time>2009-08-16T10:19:59Z</time>
      </trkpt>
      <trkpt lat="45.57549" lon="4.82137">
        <ele>231</ele>
        <time>2009-08-16T10:20:03Z</time>
      </trkpt>
      <trkpt lat="45.57554" lon="4.82137">
        <ele>231</ele>
        <time>2009-08-16T10:20:09Z</time>
      </trkpt>
      <trkpt lat="45.57562" lon="4.82137">
        <ele>231</ele>
        <time>2009-08-16T10:20:13Z</time>
      </trkpt>
      <trkpt lat="45.57569" lon="4.82139">
        <ele>232</ele>
        <time>2009-08-16T10:20:18Z</time>
      </trkpt>
      <trkpt lat="45.57573" lon="4.82144">
        <ele>232</ele>
        <time>2009-08-16T10:20:22Z</time>
      </trkpt>
      <trkpt lat="45.57575" lon="4.82149">
        <ele>232</ele>
        <time>2009-08-16T10:20:26Z</time>
      </trkpt>
      <trkpt lat="45.57579" lon="4.82152">
        <ele>232</ele>
        <time>2009-08-16T10:20:30Z</time>
      </trkpt>
      <trkpt lat="45.57583" lon="4.82154">
        <ele>232</ele>
        <time>2009-08-16T10:20:34Z</time>
      </trkpt>
      <trkpt lat="45.57585" lon="4.82156">
        <ele>235</ele>
        <time>2009-08-16T10:20:38Z</time>
      </trkpt>
      <trkpt lat="45.5759" lon="4.82163">
        <ele>234</ele>
        <time>2009-08-16T10:20:44Z</time>
      </trkpt>
      <trkpt lat="45.57595" lon="4.82168">
        <ele>236</ele>
        <time>2009-08-16T10:20:48Z</time>
      </trkpt>
      <trkpt lat="45.576" lon="4.82176">
        <ele>237</ele>
        <time>2009-08-16T10:20:52Z</time>
      </trkpt>
      <trkpt lat="45.57605" lon="4.82182">
        <ele>238</ele>
        <time>2009-08-16T10:20:57Z</time>
      </trkpt>
      <trkpt lat="45.5761" lon="4.82184">
        <ele>239</ele>
        <time>2009-08-16T10:21:01Z</time>
      </trkpt>
      <trkpt lat="45.57613" lon="4.82185">
        <ele>239</ele>
        <time>2009-08-16T10:21:05Z</time>
      </trkpt>
      <trkpt lat="45.57616" lon="4.82186">
        <ele>239</ele>
        <time>2009-08-16T10:21:09Z</time>
      </trkpt>
      <trkpt lat="45.57621" lon="4.82187">
        <ele>239</ele>
        <time>2009-08-16T10:21:14Z</time>
      </trkpt>
      <trkpt lat="45.57626" lon="4.82188">
        <ele>240</ele>
        <time>2009-08-16T10:21:19Z</time>
      </trkpt>
      <trkpt lat="45.57628" lon="4.82184">
        <ele>240</ele>
        <time>2009-08-16T10:21:23Z</time>
      </trkpt>
      <trkpt lat="45.57633" lon="4.8218">
        <ele>240</ele>
        <time>2009-08-16T10:21:27Z</time>
      </trkpt>
      <trkpt lat="45.57636" lon="4.82183">
        <ele>240</ele>
        <time>2009-08-16T10:21:31Z</time>
      </trkpt>
      <trkpt lat="45.57643" lon="4.82182">
        <ele>240</ele>
        <time>2009-08-16T10:21:35Z</time>
      </trkpt>
      <trkpt lat="45.57649" lon="4.8218">
        <ele>241</ele>
        <time>2009-08-16T10:21:39Z</time>
      </trkpt>
      <trkpt lat="45.57656" lon="4.8218">
        <ele>241</ele>
        <time>2009-08-16T10:21:43Z</time>
      </trkpt>
      <trkpt lat="45.57663" lon="4.82177">
        <ele>241</ele>
        <time>2009-08-16T10:21:47Z</time>
      </trkpt>
      <trkpt lat="45.57667" lon="4.82175">
        <ele>243</ele>
        <time>2009-08-16T10:21:51Z</time>
      </trkpt>
      <trkpt lat="45.57672" lon="4.82174">
        <ele>243</ele>
        <time>2009-08-16T10:21:56Z</time>
      </trkpt>
      <trkpt lat="45.57675" lon="4.82174">
        <ele>243</ele>
        <time>2009-08-16T10:22:00Z</time>
      </trkpt>
      <trkpt lat="45.57677" lon="4.8217">
        <ele>243</ele>
        <time>2009-08-16T10:22:05Z</time>
      </trkpt>
      <trkpt lat="45.57677" lon="4.82171">
        <ele>243</ele>
        <time>2009-08-16T10:22:09Z</time>
      </trkpt>
      <trkpt lat="45.57679" lon="4.82173">
        <ele>243</ele>
        <time>2009-08-16T10:22:17Z</time>
      </trkpt>
      <trkpt lat="45.57685" lon="4.82182">
        <ele>245</ele>
        <time>2009-08-16T10:22:21Z</time>
      </trkpt>
      <trkpt lat="45.57691" lon="4.82187">
        <ele>245</ele>
        <time>2009-08-16T10:22:25Z</time>
      </trkpt>
      <trkpt lat="45.57691" lon="4.82187">
        <ele>245</ele>
        <time>2009-08-16T10:22:29Z</time>
      </trkpt>
      <trkpt lat="45.57686" lon="4.82184">
        <ele>245</ele>
        <time>2009-08-16T10:22:33Z</time>
      </trkpt>
      <trkpt lat="45.57682" lon="4.82181">
        <ele>244</ele>
        <time>2009-08-16T10:22:37Z</time>
      </trkpt>
      <trkpt lat="45.57686" lon="4.82181">
        <ele>245</ele>
        <time>2009-08-16T10:22:43Z</time>
      </trkpt>
      <trkpt lat="45.5769" lon="4.82179">
        <ele>245</ele>
        <time>2009-08-16T10:22:48Z</time>
      </trkpt>
      <trkpt lat="45.57696" lon="4.8218">
        <ele>245</ele>
        <time>2009-08-16T10:22:52Z</time>
      </trkpt>
      <trkpt lat="45.57703" lon="4.82183">
        <ele>246</ele>
        <time>2009-08-16T10:22:56Z</time>
      </trkpt>
      <trkpt lat="45.57707" lon="4.82185">
        <ele>246</ele>
        <time>2009-08-16T10:23:00Z</time>
      </trkpt>
      <trkpt lat="45.57714" lon="4.82186">
        <ele>246</ele>
        <time>2009-08-16T10:23:04Z</time>
      </trkpt>
      <trkpt lat="45.57718" lon="4.82187">
        <ele>247</ele>
        <time>2009-08-16T10:23:08Z</time>
      </trkpt>
      <trkpt lat="45.57725" lon="4.82186">
        <ele>247</ele>
        <time>2009-08-16T10:23:12Z</time>
      </trkpt>
      <trkpt lat="45.57732" lon="4.82186">
        <ele>247</ele>
        <time>2009-08-16T10:23:16Z</time>
      </trkpt>
      <trkpt lat="45.5774" lon="4.82188">
        <ele>248</ele>
        <time>2009-08-16T10:23:20Z</time>
      </trkpt>
      <trkpt lat="45.57746" lon="4.8219">
        <ele>248</ele>
        <time>2009-08-16T10:23:24Z</time>
      </trkpt>
      <trkpt lat="45.57752" lon="4.82194">
        <ele>250</ele>
        <time>2009-08-16T10:23:29Z</time>
      </trkpt>
      <trkpt lat="45.5775" lon="4.82198">
        <ele>250</ele>
        <time>2009-08-16T10:23:35Z</time>
      </trkpt>
      <trkpt lat="45.57749" lon="4.822">
        <ele>248</ele>
        <time>2009-08-16T10:23:43Z</time>
      </trkpt>
      <trkpt lat="45.57748" lon="4.82201">
        <ele>248</ele>
        <time>2009-08-16T10:23:54Z</time>
      </trkpt>
      <trkpt lat="45.57747" lon="4.82202">
        <ele>248</ele>
        <time>2009-08-16T10:24:01Z</time>
      </trkpt>
      <trkpt lat="45.57745" lon="4.82204">
        <ele>248</ele>
        <time>2009-08-16T10:24:05Z</time>
      </trkpt>
      <trkpt lat="45.57744" lon="4.82205">
        <ele>248</ele>
        <time>2009-08-16T10:24:10Z</time>
      </trkpt>
      <trkpt lat="45.57745" lon="4.82203">
        <ele>248</ele>
        <time>2009-08-16T10:24:24Z</time>
      </trkpt>
      <trkpt lat="45.57746" lon="4.82206">
        <ele>248</ele>
        <time>2009-08-16T10:24:33Z</time>
      </trkpt>
      <trkpt lat="45.57749" lon="4.82207">
        <ele>248</ele>
        <time>2009-08-16T10:24:37Z</time>
      </trkpt>
      <trkpt lat="45.57751" lon="4.82206">
        <ele>250</ele>
        <time>2009-08-16T10:24:42Z</time>
      </trkpt>
      <trkpt lat="45.57752" lon="4.82202">
        <ele>250</ele>
        <time>2009-08-16T10:24:48Z</time>
      </trkpt>
      <trkpt lat="45.57751" lon="4.82199">
        <ele>250</ele>
        <time>2009-08-16T10:24:53Z</time>
      </trkpt>
      <trkpt lat="45.5775" lon="4.82198">
        <ele>250</ele>
        <time>2009-08-16T10:24:57Z</time>
      </trkpt>
      <trkpt lat="45.5775" lon="4.82199">
        <ele>250</ele>
        <time>2009-08-16T10:25:05Z</time>
      </trkpt>
      <trkpt lat="45.57751" lon="4.82194">
        <ele>250</ele>
        <time>2009-08-16T10:25:10Z</time>
      </trkpt>
      <trkpt lat="45.57751" lon="4.82191">
        <ele>250</ele>
        <time>2009-08-16T10:25:21Z</time>
      </trkpt>
      <trkpt lat="45.57749" lon="4.82192">
        <ele>248</ele>
        <time>2009-08-16T10:25:26Z</time>
      </trkpt>
      <trkpt lat="45.57748" lon="4.82193">
        <ele>248</ele>
        <time>2009-08-16T10:25:30Z</time>
      </trkpt>
      <trkpt lat="45.57745" lon="4.82195">
        <ele>248</ele>
        <time>2009-08-16T10:25:35Z</time>
      </trkpt>
      <trkpt lat="45.57745" lon="4.82198">
        <ele>248</ele>
        <time>2009-08-16T10:25:41Z</time>
      </trkpt>
      <trkpt lat="45.57746" lon="4.822">
        <ele>248</ele>
        <time>2009-08-16T10:25:46Z</time>
      </trkpt>
      <trkpt lat="45.57748" lon="4.82199">
        <ele>248</ele>
        <time>2009-08-16T10:25:56Z</time>
      </trkpt>
      <trkpt lat="45.57748" lon="4.82195">
        <ele>248</ele>
        <time>2009-08-16T10:26:03Z</time>
      </trkpt>
      <trkpt lat="45.5775" lon="4.82191">
        <ele>250</ele>
        <time>2009-08-16T10:26:07Z</time>
      </trkpt>
      <trkpt lat="45.57751" lon="4.82188">
        <ele>250</ele>
        <time>2009-08-16T10:26:11Z</time>
      </trkpt>
      <trkpt lat="45.57748" lon="4.82185">
        <ele>248</ele>
        <time>2009-08-16T10:26:17Z</time>
      </trkpt>
      <trkpt lat="45.57745" lon="4.82184">
        <ele>248</ele>
        <time>2009-08-16T10:26:25Z</time>
      </trkpt>
      <trkpt lat="45.57746" lon="4.82186">
        <ele>248</ele>
        <time>2009-08-16T10:26:33Z</time>
      </trkpt>
      <trkpt lat="45.57749" lon="4.8219">
        <ele>248</ele>
        <time>2009-08-16T10:26:38Z</time>
      </trkpt>
      <trkpt lat="45.5775" lon="4.82192">
        <ele>248</ele>
        <time>2009-08-16T10:26:47Z</time>
      </trkpt>
      <trkpt lat="45.5775" lon="4.82196">
        <ele>248</ele>
        <time>2009-08-16T10:26:51Z</time>
      </trkpt>
      <trkpt lat="45.57748" lon="4.82198">
        <ele>248</ele>
        <time>2009-08-16T10:26:59Z</time>
      </trkpt>
      <trkpt lat="45.57746" lon="4.82201">
        <ele>248</ele>
        <time>2009-08-16T10:27:03Z</time>
      </trkpt>
      <trkpt lat="45.57743" lon="4.82205">
        <ele>248</ele>
        <time>2009-08-16T10:27:10Z</time>
      </trkpt>
      <trkpt lat="45.57746" lon="4.82203">
        <ele>248</ele>
        <time>2009-08-16T10:27:14Z</time>
      </trkpt>
      <trkpt lat="45.57747" lon="4.822">
        <ele>248</ele>
        <time>2009-08-16T10:27:19Z</time>
      </trkpt>
      <trkpt lat="45.57749" lon="4.82198">
        <ele>248</ele>
        <time>2009-08-16T10:27:24Z</time>
      </trkpt>
      <trkpt lat="45.57753" lon="4.82199">
        <ele>250</ele>
        <time>2009-08-16T10:27:28Z</time>
      </trkpt>
      <trkpt lat="45.57756" lon="4.82199">
        <ele>250</ele>
        <time>2009-08-16T10:27:32Z</time>
      </trkpt>
      <trkpt lat="45.57757" lon="4.822">
        <ele>250</ele>
        <time>2009-08-16T10:27:38Z</time>
      </trkpt>
      <trkpt lat="45.57761" lon="4.82204">
        <ele>250</ele>
        <time>2009-08-16T10:27:43Z</time>
      </trkpt>
      <trkpt lat="45.57765" lon="4.82208">
        <ele>250</ele>
        <time>2009-08-16T10:27:47Z</time>
      </trkpt>
      <trkpt lat="45.57772" lon="4.82212">
        <ele>250</ele>
        <time>2009-08-16T10:27:51Z</time>
      </trkpt>
      <trkpt lat="45.5778" lon="4.82216">
        <ele>250</ele>
        <time>2009-08-16T10:27:55Z</time>
      </trkpt>
      <trkpt lat="45.57787" lon="4.8222">
        <ele>250</ele>
        <time>2009-08-16T10:27:59Z</time>
      </trkpt>
      <trkpt lat="45.57794" lon="4.82222">
        <ele>250</ele>
        <time>2009-08-16T10:28:03Z</time>
      </trkpt>
      <trkpt lat="45.57801" lon="4.82224">
        <ele>250</ele>
        <time>2009-08-16T10:28:07Z</time>
      </trkpt>
      <trkpt lat="45.57808" lon="4.82226">
        <ele>250</ele>
        <time>2009-08-16T10:28:11Z</time>
      </trkpt>
      <trkpt lat="45.57815" lon="4.82227">
        <ele>250</ele>
        <time>2009-08-16T10:28:15Z</time>
      </trkpt>
      <trkpt lat="45.57821" lon="4.82229">
        <ele>250</ele>
        <time>2009-08-16T10:28:19Z</time>
      </trkpt>
      <trkpt lat="45.57828" lon="4.82231">
        <ele>250</ele>
        <time>2009-08-16T10:28:23Z</time>
      </trkpt>
      <trkpt lat="45.57834" lon="4.82232">
        <ele>252</ele>
        <time>2009-08-16T10:28:27Z</time>
      </trkpt>
      <trkpt lat="45.57841" lon="4.82233">
        <ele>252</ele>
        <time>2009-08-16T10:28:31Z</time>
      </trkpt>
      <trkpt lat="45.57848" lon="4.82235">
        <ele>252</ele>
        <time>2009-08-16T10:28:35Z</time>
      </trkpt>
      <trkpt lat="45.57855" lon="4.82237">
        <ele>253</ele>
        <time>2009-08-16T10:28:39Z</time>
      </trkpt>
      <trkpt lat="45.57862" lon="4.82239">
        <ele>253</ele>
        <time>2009-08-16T10:28:43Z</time>
      </trkpt>
      <trkpt lat="45.57868" lon="4.82242">
        <ele>253</ele>
        <time>2009-08-16T10:28:47Z</time>
      </trkpt>
      <trkpt lat="45.57873" lon="4.82243">
        <ele>253</ele>
        <time>2009-08-16T10:28:51Z</time>
      </trkpt>
      <trkpt lat="45.57878" lon="4.82244">
        <ele>254</ele>
        <time>2009-08-16T10:29:05Z</time>
      </trkpt>
      <trkpt lat="45.57883" lon="4.82245">
        <ele>254</ele>
        <time>2009-08-16T10:29:09Z</time>
      </trkpt>
      <trkpt lat="45.57889" lon="4.82246">
        <ele>254</ele>
        <time>2009-08-16T10:29:13Z</time>
      </trkpt>
      <trkpt lat="45.57896" lon="4.82248">
        <ele>254</ele>
        <time>2009-08-16T10:29:17Z</time>
      </trkpt>
      <trkpt lat="45.57903" lon="4.82249">
        <ele>254</ele>
        <time>2009-08-16T10:29:21Z</time>
      </trkpt>
      <trkpt lat="45.5791" lon="4.82249">
        <ele>255</ele>
        <time>2009-08-16T10:29:25Z</time>
      </trkpt>
      <trkpt lat="45.57917" lon="4.82249">
        <ele>255</ele>
        <time>2009-08-16T10:29:29Z</time>
      </trkpt>
      <trkpt lat="45.57924" lon="4.82245">
        <ele>256</ele>
        <time>2009-08-16T10:29:33Z</time>
      </trkpt>
      <trkpt lat="45.5793" lon="4.82242">
        <ele>256</ele>
        <time>2009-08-16T10:29:37Z</time>
      </trkpt>
      <trkpt lat="45.57936" lon="4.82239">
        <ele>256</ele>
        <time>2009-08-16T10:29:41Z</time>
      </trkpt>
      <trkpt lat="45.57942" lon="4.82239">
        <ele>256</ele>
        <time>2009-08-16T10:29:45Z</time>
      </trkpt>
      <trkpt lat="45.57947" lon="4.82239">
        <ele>256</ele>
        <time>2009-08-16T10:29:49Z</time>
      </trkpt>
      <trkpt lat="45.57953" lon="4.82239">
        <ele>257</ele>
        <time>2009-08-16T10:29:53Z</time>
      </trkpt>
      <trkpt lat="45.57958" lon="4.82241">
        <ele>257</ele>
        <time>2009-08-16T10:29:57Z</time>
      </trkpt>
      <trkpt lat="45.57963" lon="4.82242">
        <ele>257</ele>
        <time>2009-08-16T10:30:01Z</time>
      </trkpt>
      <trkpt lat="45.57967" lon="4.82245">
        <ele>257</ele>
        <time>2009-08-16T10:30:05Z</time>
      </trkpt>
      <trkpt lat="45.57972" lon="4.82249">
        <ele>257</ele>
        <time>2009-08-16T10:30:09Z</time>
      </trkpt>
      <trkpt lat="45.57976" lon="4.82259">
        <ele>257</ele>
        <time>2009-08-16T10:30:13Z</time>
      </trkpt>
      <trkpt lat="45.57977" lon="4.82272">
        <ele>257</ele>
        <time>2009-08-16T10:30:17Z</time>
      </trkpt>
      <trkpt lat="45.57976" lon="4.82287">
        <ele>258</ele>
        <time>2009-08-16T10:30:21Z</time>
      </trkpt>
      <trkpt lat="45.57976" lon="4.82303">
        <ele>258</ele>
        <time>2009-08-16T10:30:25Z</time>
      </trkpt>
      <trkpt lat="45.57976" lon="4.82319">
        <ele>258</ele>
        <time>2009-08-16T10:30:29Z</time>
      </trkpt>
      <trkpt lat="45.57975" lon="4.82329">
        <ele>258</ele>
        <time>2009-08-16T10:30:33Z</time>
      </trkpt>
      <trkpt lat="45.57974" lon="4.82341">
        <ele>260</ele>
        <time>2009-08-16T10:30:37Z</time>
      </trkpt>
      <trkpt lat="45.57975" lon="4.82353">
        <ele>260</ele>
        <time>2009-08-16T10:30:41Z</time>
      </trkpt>
      <trkpt lat="45.57974" lon="4.82366">
        <ele>260</ele>
        <time>2009-08-16T10:30:45Z</time>
      </trkpt>
      <trkpt lat="45.57974" lon="4.82377">
        <ele>260</ele>
        <time>2009-08-16T10:30:49Z</time>
      </trkpt>
      <trkpt lat="45.57974" lon="4.82388">
        <ele>261</ele>
        <time>2009-08-16T10:30:53Z</time>
      </trkpt>
      <trkpt lat="45.57974" lon="4.82398">
        <ele>261</ele>
        <time>2009-08-16T10:30:57Z</time>
      </trkpt>
      <trkpt lat="45.57975" lon="4.82408">
        <ele>261</ele>
        <time>2009-08-16T10:31:01Z</time>
      </trkpt>
      <trkpt lat="45.57975" lon="4.82418">
        <ele>263</ele>
        <time>2009-08-16T10:31:05Z</time>
      </trkpt>
      <trkpt lat="45.57976" lon="4.8243">
        <ele>263</ele>
        <time>2009-08-16T10:31:09Z</time>
      </trkpt>
      <trkpt lat="45.57978" lon="4.82444">
        <ele>263</ele>
        <time>2009-08-16T10:31:13Z</time>
      </trkpt>
      <trkpt lat="45.57979" lon="4.82459">
        <ele>263</ele>
        <time>2009-08-16T10:31:17Z</time>
      </trkpt>
      <trkpt lat="45.57982" lon="4.82477">
        <ele>263</ele>
        <time>2009-08-16T10:31:22Z</time>
      </trkpt>
      <trkpt lat="45.57984" lon="4.82489">
        <ele>264</ele>
        <time>2009-08-16T10:31:26Z</time>
      </trkpt>
      <trkpt lat="45.57987" lon="4.82497">
        <ele>264</ele>
        <time>2009-08-16T10:31:30Z</time>
      </trkpt>
      <trkpt lat="45.57992" lon="4.82512">
        <ele>264</ele>
        <time>2009-08-16T10:31:34Z</time>
      </trkpt>
      <trkpt lat="45.57996" lon="4.82529">
        <ele>264</ele>
        <time>2009-08-16T10:31:38Z</time>
      </trkpt>
      <trkpt lat="45.57999" lon="4.82544">
        <ele>264</ele>
        <time>2009-08-16T10:31:42Z</time>
      </trkpt>
      <trkpt lat="45.58004" lon="4.8256">
        <ele>263</ele>
        <time>2009-08-16T10:31:46Z</time>
      </trkpt>
      <trkpt lat="45.58008" lon="4.8258">
        <ele>264</ele>
        <time>2009-08-16T10:31:50Z</time>
      </trkpt>
      <trkpt lat="45.58014" lon="4.82603">
        <ele>262</ele>
        <time>2009-08-16T10:31:54Z</time>
      </trkpt>
      <trkpt lat="45.5802" lon="4.82629">
        <ele>262</ele>
        <time>2009-08-16T10:31:58Z</time>
      </trkpt>
      <trkpt lat="45.58027" lon="4.82654">
        <ele>262</ele>
        <time>2009-08-16T10:32:02Z</time>
      </trkpt>
      <trkpt lat="45.58032" lon="4.82678">
        <ele>260</ele>
        <time>2009-08-16T10:32:06Z</time>
      </trkpt>
      <trkpt lat="45.58038" lon="4.82706">
        <ele>260</ele>
        <time>2009-08-16T10:32:10Z</time>
      </trkpt>
      <trkpt lat="45.58044" lon="4.82732">
        <ele>260</ele>
        <time>2009-08-16T10:32:14Z</time>
      </trkpt>
      <trkpt lat="45.58048" lon="4.82755">
        <ele>259</ele>
        <time>2009-08-16T10:32:18Z</time>
      </trkpt>
      <trkpt lat="45.58051" lon="4.82772">
        <ele>259</ele>
        <time>2009-08-16T10:32:22Z</time>
      </trkpt>
      <trkpt lat="45.58054" lon="4.82786">
        <ele>259</ele>
        <time>2009-08-16T10:32:26Z</time>
      </trkpt>
      <trkpt lat="45.58056" lon="4.828">
        <ele>259</ele>
        <time>2009-08-16T10:32:30Z</time>
      </trkpt>
      <trkpt lat="45.58058" lon="4.82814">
        <ele>259</ele>
        <time>2009-08-16T10:32:34Z</time>
      </trkpt>
      <trkpt lat="45.5806" lon="4.82829">
        <ele>259</ele>
        <time>2009-08-16T10:32:38Z</time>
      </trkpt>
      <trkpt lat="45.58062" lon="4.82843">
        <ele>261</ele>
        <time>2009-08-16T10:32:42Z</time>
      </trkpt>
      <trkpt lat="45.58063" lon="4.82857">
        <ele>261</ele>
        <time>2009-08-16T10:32:46Z</time>
      </trkpt>
      <trkpt lat="45.58065" lon="4.82871">
        <ele>262</ele>
        <time>2009-08-16T10:32:50Z</time>
      </trkpt>
      <trkpt lat="45.58066" lon="4.82885">
        <ele>262</ele>
        <time>2009-08-16T10:32:54Z</time>
      </trkpt>
      <trkpt lat="45.58067" lon="4.82899">
        <ele>263</ele>
        <time>2009-08-16T10:32:58Z</time>
      </trkpt>
      <trkpt lat="45.58068" lon="4.82913">
        <ele>263</ele>
        <time>2009-08-16T10:33:02Z</time>
      </trkpt>
      <trkpt lat="45.58069" lon="4.82926">
        <ele>265</ele>
        <time>2009-08-16T10:33:06Z</time>
      </trkpt>
      <trkpt lat="45.58071" lon="4.82938">
        <ele>265</ele>
        <time>2009-08-16T10:33:10Z</time>
      </trkpt>
      <trkpt lat="45.58073" lon="4.82952">
        <ele>266</ele>
        <time>2009-08-16T10:33:14Z</time>
      </trkpt>
      <trkpt lat="45.58076" lon="4.82965">
        <ele>266</ele>
        <time>2009-08-16T10:33:18Z</time>
      </trkpt>
      <trkpt lat="45.58078" lon="4.82977">
        <ele>267</ele>
        <time>2009-08-16T10:33:22Z</time>
      </trkpt>
      <trkpt lat="45.5808" lon="4.8299">
        <ele>268</ele>
        <time>2009-08-16T10:33:26Z</time>
      </trkpt>
      <trkpt lat="45.58082" lon="4.83002">
        <ele>269</ele>
        <time>2009-08-16T10:33:30Z</time>
      </trkpt>
      <trkpt lat="45.58085" lon="4.83012">
        <ele>270</ele>
        <time>2009-08-16T10:33:34Z</time>
      </trkpt>
      <trkpt lat="45.58087" lon="4.83023">
        <ele>271</ele>
        <time>2009-08-16T10:33:38Z</time>
      </trkpt>
      <trkpt lat="45.58089" lon="4.83033">
        <ele>271</ele>
        <time>2009-08-16T10:33:42Z</time>
      </trkpt>
      <trkpt lat="45.58091" lon="4.83043">
        <ele>272</ele>
        <time>2009-08-16T10:33:46Z</time>
      </trkpt>
      <trkpt lat="45.58093" lon="4.83052">
        <ele>272</ele>
        <time>2009-08-16T10:33:50Z</time>
      </trkpt>
      <trkpt lat="45.58095" lon="4.83063">
        <ele>272</ele>
        <time>2009-08-16T10:33:54Z</time>
      </trkpt>
      <trkpt lat="45.58098" lon="4.83073">
        <ele>272</ele>
        <time>2009-08-16T10:33:58Z</time>
      </trkpt>
      <trkpt lat="45.58101" lon="4.83083">
        <ele>272</ele>
        <time>2009-08-16T10:34:02Z</time>
      </trkpt>
      <trkpt lat="45.58104" lon="4.83094">
        <ele>274</ele>
        <time>2009-08-16T10:34:06Z</time>
      </trkpt>
      <trkpt lat="45.58107" lon="4.83102">
        <ele>274</ele>
        <time>2009-08-16T10:34:10Z</time>
      </trkpt>
      <trkpt lat="45.58111" lon="4.8311">
        <ele>275</ele>
        <time>2009-08-16T10:34:14Z</time>
      </trkpt>
      <trkpt lat="45.58116" lon="4.83117">
        <ele>275</ele>
        <time>2009-08-16T10:34:18Z</time>
      </trkpt>
      <trkpt lat="45.5812" lon="4.83125">
        <ele>276</ele>
        <time>2009-08-16T10:34:22Z</time>
      </trkpt>
      <trkpt lat="45.58124" lon="4.83135">
        <ele>276</ele>
        <time>2009-08-16T10:34:26Z</time>
      </trkpt>
      <trkpt lat="45.58126" lon="4.83143">
        <ele>276</ele>
        <time>2009-08-16T10:34:30Z</time>
      </trkpt>
      <trkpt lat="45.58129" lon="4.83153">
        <ele>276</ele>
        <time>2009-08-16T10:34:34Z</time>
      </trkpt>
      <trkpt lat="45.58132" lon="4.83163">
        <ele>277</ele>
        <time>2009-08-16T10:34:38Z</time>
      </trkpt>
      <trkpt lat="45.58133" lon="4.83174">
        <ele>278</ele>
        <time>2009-08-16T10:34:42Z</time>
      </trkpt>
      <trkpt lat="45.58135" lon="4.83183">
        <ele>278</ele>
        <time>2009-08-16T10:34:46Z</time>
      </trkpt>
      <trkpt lat="45.58136" lon="4.83193">
        <ele>278</ele>
        <time>2009-08-16T10:34:50Z</time>
      </trkpt>
      <trkpt lat="45.5814" lon="4.83201">
        <ele>278</ele>
        <time>2009-08-16T10:34:54Z</time>
      </trkpt>
      <trkpt lat="45.58144" lon="4.8321">
        <ele>278</ele>
        <time>2009-08-16T10:34:58Z</time>
      </trkpt>
      <trkpt lat="45.58151" lon="4.83217">
        <ele>278</ele>
        <time>2009-08-16T10:35:02Z</time>
      </trkpt>
      <trkpt lat="45.58158" lon="4.83225">
        <ele>278</ele>
        <time>2009-08-16T10:35:06Z</time>
      </trkpt>
      <trkpt lat="45.58166" lon="4.83234">
        <ele>278</ele>
        <time>2009-08-16T10:35:10Z</time>
      </trkpt>
      <trkpt lat="45.58175" lon="4.83244">
        <ele>279</ele>
        <time>2009-08-16T10:35:14Z</time>
      </trkpt>
      <trkpt lat="45.58187" lon="4.83257">
        <ele>279</ele>
        <time>2009-08-16T10:35:18Z</time>
      </trkpt>
      <trkpt lat="45.58201" lon="4.83273">
        <ele>278</ele>
        <time>2009-08-16T10:35:22Z</time>
      </trkpt>
      <trkpt lat="45.58217" lon="4.83291">
        <ele>278</ele>
        <time>2009-08-16T10:35:26Z</time>
      </trkpt>
      <trkpt lat="45.58233" lon="4.83311">
        <ele>278</ele>
        <time>2009-08-16T10:35:30Z</time>
      </trkpt>
      <trkpt lat="45.5825" lon="4.83337">
        <ele>276</ele>
        <time>2009-08-16T10:35:34Z</time>
      </trkpt>
      <trkpt lat="45.58268" lon="4.83368">
        <ele>273</ele>
        <time>2009-08-16T10:35:38Z</time>
      </trkpt>
      <trkpt lat="45.58283" lon="4.83401">
        <ele>273</ele>
        <time>2009-08-16T10:35:42Z</time>
      </trkpt>
      <trkpt lat="45.58295" lon="4.83433">
        <ele>272</ele>
        <time>2009-08-16T10:35:46Z</time>
      </trkpt>
      <trkpt lat="45.58304" lon="4.83459">
        <ele>272</ele>
        <time>2009-08-16T10:35:50Z</time>
      </trkpt>
      <trkpt lat="45.58312" lon="4.83481">
        <ele>272</ele>
        <time>2009-08-16T10:35:54Z</time>
      </trkpt>
      <trkpt lat="45.58319" lon="4.83502">
        <ele>272</ele>
        <time>2009-08-16T10:35:58Z</time>
      </trkpt>
      <trkpt lat="45.58326" lon="4.83522">
        <ele>273</ele>
        <time>2009-08-16T10:36:02Z</time>
      </trkpt>
      <trkpt lat="45.58334" lon="4.83541">
        <ele>272</ele>
        <time>2009-08-16T10:36:06Z</time>
      </trkpt>
      <trkpt lat="45.58342" lon="4.83561">
        <ele>273</ele>
        <time>2009-08-16T10:36:10Z</time>
      </trkpt>
      <trkpt lat="45.58349" lon="4.83578">
        <ele>273</ele>
        <time>2009-08-16T10:36:14Z</time>
      </trkpt>
      <trkpt lat="45.58357" lon="4.83595">
        <ele>275</ele>
        <time>2009-08-16T10:36:18Z</time>
      </trkpt>
      <trkpt lat="45.58366" lon="4.83612">
        <ele>274</ele>
        <time>2009-08-16T10:36:22Z</time>
      </trkpt>
      <trkpt lat="45.58374" lon="4.83627">
        <ele>275</ele>
        <time>2009-08-16T10:36:26Z</time>
      </trkpt>
      <trkpt lat="45.58382" lon="4.83643">
        <ele>275</ele>
        <time>2009-08-16T10:36:30Z</time>
      </trkpt>
      <trkpt lat="45.5839" lon="4.83659">
        <ele>275</ele>
        <time>2009-08-16T10:36:34Z</time>
      </trkpt>
      <trkpt lat="45.58401" lon="4.83677">
        <ele>275</ele>
        <time>2009-08-16T10:36:38Z</time>
      </trkpt>
      <trkpt lat="45.58407" lon="4.83696">
        <ele>276</ele>
        <time>2009-08-16T10:36:42Z</time>
      </trkpt>
      <trkpt lat="45.5841" lon="4.83718">
        <ele>276</ele>
        <time>2009-08-16T10:36:46Z</time>
      </trkpt>
      <trkpt lat="45.58419" lon="4.83739">
        <ele>275</ele>
        <time>2009-08-16T10:36:50Z</time>
      </trkpt>
      <trkpt lat="45.58429" lon="4.83763">
        <ele>276</ele>
        <time>2009-08-16T10:36:54Z</time>
      </trkpt>
      <trkpt lat="45.5844" lon="4.83786">
        <ele>276</ele>
        <time>2009-08-16T10:36:58Z</time>
      </trkpt>
      <trkpt lat="45.58452" lon="4.83804">
        <ele>276</ele>
        <time>2009-08-16T10:37:02Z</time>
      </trkpt>
      <trkpt lat="45.58461" lon="4.83821">
        <ele>276</ele>
        <time>2009-08-16T10:37:06Z</time>
      </trkpt>
      <trkpt lat="45.58467" lon="4.83839">
        <ele>277</ele>
        <time>2009-08-16T10:37:10Z</time>
      </trkpt>
      <trkpt lat="45.58473" lon="4.83858">
        <ele>278</ele>
        <time>2009-08-16T10:37:14Z</time>
      </trkpt>
      <trkpt lat="45.58477" lon="4.83878">
        <ele>278</ele>
        <time>2009-08-16T10:37:18Z</time>
      </trkpt>
      <trkpt lat="45.58483" lon="4.839">
        <ele>278</ele>
        <time>2009-08-16T10:37:22Z</time>
      </trkpt>
      <trkpt lat="45.58486" lon="4.83925">
        <ele>279</ele>
        <time>2009-08-16T10:37:26Z</time>
      </trkpt>
      <trkpt lat="45.58489" lon="4.8395">
        <ele>280</ele>
        <time>2009-08-16T10:37:30Z</time>
      </trkpt>
      <trkpt lat="45.58494" lon="4.83973">
        <ele>280</ele>
        <time>2009-08-16T10:37:34Z</time>
      </trkpt>
      <trkpt lat="45.58503" lon="4.8399">
        <ele>280</ele>
        <time>2009-08-16T10:37:38Z</time>
      </trkpt>
      <trkpt lat="45.58513" lon="4.84005">
        <ele>281</ele>
        <time>2009-08-16T10:37:42Z</time>
      </trkpt>
      <trkpt lat="45.58524" lon="4.84023">
        <ele>281</ele>
        <time>2009-08-16T10:37:46Z</time>
      </trkpt>
      <trkpt lat="45.58535" lon="4.84043">
        <ele>281</ele>
        <time>2009-08-16T10:37:50Z</time>
      </trkpt>
      <trkpt lat="45.5854" lon="4.84057">
        <ele>282</ele>
        <time>2009-08-16T10:37:54Z</time>
      </trkpt>
      <trkpt lat="45.58547" lon="4.84072">
        <ele>281</ele>
        <time>2009-08-16T10:37:58Z</time>
      </trkpt>
      <trkpt lat="45.58554" lon="4.84093">
        <ele>283</ele>
        <time>2009-08-16T10:38:02Z</time>
      </trkpt>
      <trkpt lat="45.58557" lon="4.84112">
        <ele>283</ele>
        <time>2009-08-16T10:38:06Z</time>
      </trkpt>
      <trkpt lat="45.5856" lon="4.84135">
        <ele>283</ele>
        <time>2009-08-16T10:38:10Z</time>
      </trkpt>
      <trkpt lat="45.58563" lon="4.84159">
        <ele>284</ele>
        <time>2009-08-16T10:38:14Z</time>
      </trkpt>
      <trkpt lat="45.58566" lon="4.84185">
        <ele>285</ele>
        <time>2009-08-16T10:38:18Z</time>
      </trkpt>
      <trkpt lat="45.5857" lon="4.8421">
        <ele>285</ele>
        <time>2009-08-16T10:38:22Z</time>
      </trkpt>
      <trkpt lat="45.58576" lon="4.8424">
        <ele>285</ele>
        <time>2009-08-16T10:38:27Z</time>
      </trkpt>
      <trkpt lat="45.5858" lon="4.84261">
        <ele>285</ele>
        <time>2009-08-16T10:38:31Z</time>
      </trkpt>
      <trkpt lat="45.58583" lon="4.84281">
        <ele>285</ele>
        <time>2009-08-16T10:38:35Z</time>
      </trkpt>
      <trkpt lat="45.58587" lon="4.84299">
        <ele>280</ele>
        <time>2009-08-16T10:38:39Z</time>
      </trkpt>
      <trkpt lat="45.58589" lon="4.84311">
        <ele>280</ele>
        <time>2009-08-16T10:38:43Z</time>
      </trkpt>
      <trkpt lat="45.58593" lon="4.84319">
        <ele>280</ele>
        <time>2009-08-16T10:38:47Z</time>
      </trkpt>
      <trkpt lat="45.58604" lon="4.84314">
        <ele>279</ele>
        <time>2009-08-16T10:38:51Z</time>
      </trkpt>
      <trkpt lat="45.58618" lon="4.84324">
        <ele>279</ele>
        <time>2009-08-16T10:38:55Z</time>
      </trkpt>
      <trkpt lat="45.5863" lon="4.8434">
        <ele>277</ele>
        <time>2009-08-16T10:38:59Z</time>
      </trkpt>
      <trkpt lat="45.58642" lon="4.84354">
        <ele>277</ele>
        <time>2009-08-16T10:39:03Z</time>
      </trkpt>
      <trkpt lat="45.58655" lon="4.84372">
        <ele>277</ele>
        <time>2009-08-16T10:39:07Z</time>
      </trkpt>
      <trkpt lat="45.58668" lon="4.84401">
        <ele>274</ele>
        <time>2009-08-16T10:39:12Z</time>
      </trkpt>
      <trkpt lat="45.58677" lon="4.84426">
        <ele>275</ele>
        <time>2009-08-16T10:39:16Z</time>
      </trkpt>
      <trkpt lat="45.58683" lon="4.84448">
        <ele>276</ele>
        <time>2009-08-16T10:39:20Z</time>
      </trkpt>
      <trkpt lat="45.58687" lon="4.84465">
        <ele>276</ele>
        <time>2009-08-16T10:39:24Z</time>
      </trkpt>
      <trkpt lat="45.58688" lon="4.84477">
        <ele>277</ele>
        <time>2009-08-16T10:39:29Z</time>
      </trkpt>
      <trkpt lat="45.58689" lon="4.84485">
        <ele>277</ele>
        <time>2009-08-16T10:39:33Z</time>
      </trkpt>
      <trkpt lat="45.58689" lon="4.84492">
        <ele>277</ele>
        <time>2009-08-16T10:39:37Z</time>
      </trkpt>
      <trkpt lat="45.58689" lon="4.845">
        <ele>278</ele>
        <time>2009-08-16T10:39:41Z</time>
      </trkpt>
      <trkpt lat="45.5869" lon="4.84508">
        <ele>280</ele>
        <time>2009-08-16T10:39:45Z</time>
      </trkpt>
      <trkpt lat="45.58691" lon="4.84516">
        <ele>280</ele>
        <time>2009-08-16T10:39:49Z</time>
      </trkpt>
      <trkpt lat="45.5869" lon="4.84522">
        <ele>281</ele>
        <time>2009-08-16T10:39:53Z</time>
      </trkpt>
      <trkpt lat="45.5869" lon="4.84528">
        <ele>281</ele>
        <time>2009-08-16T10:39:57Z</time>
      </trkpt>
      <trkpt lat="45.58688" lon="4.84536">
        <ele>281</ele>
        <time>2009-08-16T10:40:01Z</time>
      </trkpt>
      <trkpt lat="45.58687" lon="4.84543">
        <ele>282</ele>
        <time>2009-08-16T10:40:05Z</time>
      </trkpt>
      <trkpt lat="45.58686" lon="4.84552">
        <ele>282</ele>
        <time>2009-08-16T10:40:09Z</time>
      </trkpt>
      <trkpt lat="45.58685" lon="4.84558">
        <ele>283</ele>
        <time>2009-08-16T10:40:13Z</time>
      </trkpt>
      <trkpt lat="45.58684" lon="4.84564">
        <ele>283</ele>
        <time>2009-08-16T10:40:17Z</time>
      </trkpt>
      <trkpt lat="45.58684" lon="4.84572">
        <ele>284</ele>
        <time>2009-08-16T10:40:22Z</time>
      </trkpt>
      <trkpt lat="45.58683" lon="4.8458">
        <ele>284</ele>
        <time>2009-08-16T10:40:26Z</time>
      </trkpt>
      <trkpt lat="45.58683" lon="4.84586">
        <ele>286</ele>
        <time>2009-08-16T10:40:30Z</time>
      </trkpt>
      <trkpt lat="45.58682" lon="4.84593">
        <ele>286</ele>
        <time>2009-08-16T10:40:34Z</time>
      </trkpt>
      <trkpt lat="45.58681" lon="4.846">
        <ele>286</ele>
        <time>2009-08-16T10:40:38Z</time>
      </trkpt>
      <trkpt lat="45.58681" lon="4.84608">
        <ele>286</ele>
        <time>2009-08-16T10:40:43Z</time>
      </trkpt>
      <trkpt lat="45.58682" lon="4.84615">
        <ele>286</ele>
        <time>2009-08-16T10:40:47Z</time>
      </trkpt>
      <trkpt lat="45.58682" lon="4.84624">
        <ele>286</ele>
        <time>2009-08-16T10:40:51Z</time>
      </trkpt>
      <trkpt lat="45.58682" lon="4.84633">
        <ele>287</ele>
        <time>2009-08-16T10:40:55Z</time>
      </trkpt>
      <trkpt lat="45.58682" lon="4.84643">
        <ele>287</ele>
        <time>2009-08-16T10:40:59Z</time>
      </trkpt>
      <trkpt lat="45.58681" lon="4.84653">
        <ele>288</ele>
        <time>2009-08-16T10:41:04Z</time>
      </trkpt>
      <trkpt lat="45.58682" lon="4.84664">
        <ele>289</ele>
        <time>2009-08-16T10:41:08Z</time>
      </trkpt>
      <trkpt lat="45.58683" lon="4.84676">
        <ele>291</ele>
        <time>2009-08-16T10:41:12Z</time>
      </trkpt>
      <trkpt lat="45.58684" lon="4.84686">
        <ele>291</ele>
        <time>2009-08-16T10:41:16Z</time>
      </trkpt>
      <trkpt lat="45.58686" lon="4.84697">
        <ele>291</ele>
        <time>2009-08-16T10:41:20Z</time>
      </trkpt>
      <trkpt lat="45.58688" lon="4.84707">
        <ele>292</ele>
        <time>2009-08-16T10:41:24Z</time>
      </trkpt>
      <trkpt lat="45.58689" lon="4.84716">
        <ele>292</ele>
        <time>2009-08-16T10:41:28Z</time>
      </trkpt>
      <trkpt lat="45.5869" lon="4.84726">
        <ele>293</ele>
        <time>2009-08-16T10:41:32Z</time>
      </trkpt>
      <trkpt lat="45.58689" lon="4.84732">
        <ele>294</ele>
        <time>2009-08-16T10:41:37Z</time>
      </trkpt>
      <trkpt lat="45.58689" lon="4.84734">
        <ele>294</ele>
        <time>2009-08-16T10:41:51Z</time>
      </trkpt>
      <trkpt lat="45.58688" lon="4.84741">
        <ele>294</ele>
        <time>2009-08-16T10:41:55Z</time>
      </trkpt>
      <trkpt lat="45.58689" lon="4.84749">
        <ele>295</ele>
        <time>2009-08-16T10:41:59Z</time>
      </trkpt>
      <trkpt lat="45.58689" lon="4.8476">
        <ele>298</ele>
        <time>2009-08-16T10:42:03Z</time>
      </trkpt>
      <trkpt lat="45.58689" lon="4.84769">
        <ele>298</ele>
        <time>2009-08-16T10:42:07Z</time>
      </trkpt>
      <trkpt lat="45.5869" lon="4.84779">
        <ele>298</ele>
        <time>2009-08-16T10:42:11Z</time>
      </trkpt>
      <trkpt lat="45.5869" lon="4.84789">
        <ele>298</ele>
        <time>2009-08-16T10:42:15Z</time>
      </trkpt>
      <trkpt lat="45.58693" lon="4.84799">
        <ele>299</ele>
        <time>2009-08-16T10:42:19Z</time>
      </trkpt>
      <trkpt lat="45.58696" lon="4.84809">
        <ele>299</ele>
        <time>2009-08-16T10:42:23Z</time>
      </trkpt>
      <trkpt lat="45.58699" lon="4.84817">
        <ele>299</ele>
        <time>2009-08-16T10:42:27Z</time>
      </trkpt>
      <trkpt lat="45.58701" lon="4.84827">
        <ele>299</ele>
        <time>2009-08-16T10:42:31Z</time>
      </trkpt>
      <trkpt lat="45.58703" lon="4.84835">
        <ele>302</ele>
        <time>2009-08-16T10:42:35Z</time>
      </trkpt>
      <trkpt lat="45.58705" lon="4.84843">
        <ele>302</ele>
        <time>2009-08-16T10:42:39Z</time>
      </trkpt>
      <trkpt lat="45.58707" lon="4.84851">
        <ele>302</ele>
        <time>2009-08-16T10:42:43Z</time>
      </trkpt>
      <trkpt lat="45.58709" lon="4.8486">
        <ele>302</ele>
        <time>2009-08-16T10:42:47Z</time>
      </trkpt>
      <trkpt lat="45.58711" lon="4.84868">
        <ele>303</ele>
        <time>2009-08-16T10:42:51Z</time>
      </trkpt>
      <trkpt lat="45.58712" lon="4.84877">
        <ele>303</ele>
        <time>2009-08-16T10:42:55Z</time>
      </trkpt>
      <trkpt lat="45.58714" lon="4.84884">
        <ele>303</ele>
        <time>2009-08-16T10:42:59Z</time>
      </trkpt>
      <trkpt lat="45.58715" lon="4.84892">
        <ele>303</ele>
        <time>2009-08-16T10:43:04Z</time>
      </trkpt>
      <trkpt lat="45.58716" lon="4.84898">
        <ele>304</ele>
        <time>2009-08-16T10:43:08Z</time>
      </trkpt>
      <trkpt lat="45.58718" lon="4.84905">
        <ele>304</ele>
        <time>2009-08-16T10:43:12Z</time>
      </trkpt>
      <trkpt lat="45.58719" lon="4.84912">
        <ele>304</ele>
        <time>2009-08-16T10:43:16Z</time>
      </trkpt>
      <trkpt lat="45.58721" lon="4.84918">
        <ele>308</ele>
        <time>2009-08-16T10:43:20Z</time>
      </trkpt>
      <trkpt lat="45.58722" lon="4.84925">
        <ele>308</ele>
        <time>2009-08-16T10:43:24Z</time>
      </trkpt>
      <trkpt lat="45.58722" lon="4.84932">
        <ele>308</ele>
        <time>2009-08-16T10:43:28Z</time>
      </trkpt>
      <trkpt lat="45.58722" lon="4.8494">
        <ele>309</ele>
        <time>2009-08-16T10:43:33Z</time>
      </trkpt>
      <trkpt lat="45.58722" lon="4.84947">
        <ele>309</ele>
        <time>2009-08-16T10:43:37Z</time>
      </trkpt>
      <trkpt lat="45.58722" lon="4.84955">
        <ele>310</ele>
        <time>2009-08-16T10:43:41Z</time>
      </trkpt>
      <trkpt lat="45.58722" lon="4.84962">
        <ele>310</ele>
        <time>2009-08-16T10:43:46Z</time>
      </trkpt>
      <trkpt lat="45.58721" lon="4.84971">
        <ele>310</ele>
        <time>2009-08-16T10:43:50Z</time>
      </trkpt>
      <trkpt lat="45.58719" lon="4.84978">
        <ele>311</ele>
        <time>2009-08-16T10:43:54Z</time>
      </trkpt>
      <trkpt lat="45.58719" lon="4.8499">
        <ele>311</ele>
        <time>2009-08-16T10:43:58Z</time>
      </trkpt>
      <trkpt lat="45.58716" lon="4.85">
        <ele>316</ele>
        <time>2009-08-16T10:44:02Z</time>
      </trkpt>
      <trkpt lat="45.58713" lon="4.8501">
        <ele>317</ele>
        <time>2009-08-16T10:44:08Z</time>
      </trkpt>
      <trkpt lat="45.5871" lon="4.85018">
        <ele>317</ele>
        <time>2009-08-16T10:44:13Z</time>
      </trkpt>
      <trkpt lat="45.58707" lon="4.85026">
        <ele>317</ele>
        <time>2009-08-16T10:44:17Z</time>
      </trkpt>
      <trkpt lat="45.58703" lon="4.85037">
        <ele>318</ele>
        <time>2009-08-16T10:44:22Z</time>
      </trkpt>
      <trkpt lat="45.58702" lon="4.85049">
        <ele>318</ele>
        <time>2009-08-16T10:44:26Z</time>
      </trkpt>
      <trkpt lat="45.58702" lon="4.85056">
        <ele>319</ele>
        <time>2009-08-16T10:44:31Z</time>
      </trkpt>
      <trkpt lat="45.587" lon="4.85058">
        <ele>319</ele>
        <time>2009-08-16T10:44:36Z</time>
      </trkpt>
      <trkpt lat="45.58699" lon="4.85061">
        <ele>319</ele>
        <time>2009-08-16T10:44:55Z</time>
      </trkpt>
      <trkpt lat="45.587" lon="4.85066">
        <ele>319</ele>
        <time>2009-08-16T10:44:59Z</time>
      </trkpt>
      <trkpt lat="45.58703" lon="4.85074">
        <ele>319</ele>
        <time>2009-08-16T10:45:04Z</time>
      </trkpt>
      <trkpt lat="45.58707" lon="4.8508">
        <ele>319</ele>
        <time>2009-08-16T10:45:08Z</time>
      </trkpt>
      <trkpt lat="45.5871" lon="4.85087">
        <ele>325</ele>
        <time>2009-08-16T10:45:13Z</time>
      </trkpt>
      <trkpt lat="45.58715" lon="4.851">
        <ele>325</ele>
        <time>2009-08-16T10:45:18Z</time>
      </trkpt>
      <trkpt lat="45.58718" lon="4.85109">
        <ele>326</ele>
        <time>2009-08-16T10:45:22Z</time>
      </trkpt>
      <trkpt lat="45.58722" lon="4.85117">
        <ele>326</ele>
        <time>2009-08-16T10:45:26Z</time>
      </trkpt>
      <trkpt lat="45.58726" lon="4.85128">
        <ele>326</ele>
        <time>2009-08-16T10:45:31Z</time>
      </trkpt>
      <trkpt lat="45.5873" lon="4.85137">
        <ele>327</ele>
        <time>2009-08-16T10:45:35Z</time>
      </trkpt>
      <trkpt lat="45.58735" lon="4.85145">
        <ele>328</ele>
        <time>2009-08-16T10:45:39Z</time>
      </trkpt>
      <trkpt lat="45.58739" lon="4.85151">
        <ele>328</ele>
        <time>2009-08-16T10:45:43Z</time>
      </trkpt>
      <trkpt lat="45.58744" lon="4.85161">
        <ele>329</ele>
        <time>2009-08-16T10:45:49Z</time>
      </trkpt>
      <trkpt lat="45.58746" lon="4.85165">
        <ele>329</ele>
        <time>2009-08-16T10:45:53Z</time>
      </trkpt>
      <trkpt lat="45.58747" lon="4.8517">
        <ele>331</ele>
        <time>2009-08-16T10:45:57Z</time>
      </trkpt>
      <trkpt lat="45.58747" lon="4.85171">
        <ele>331</ele>
        <time>2009-08-16T10:46:02Z</time>
      </trkpt>
      <trkpt lat="45.58748" lon="4.85172">
        <ele>331</ele>
        <time>2009-08-16T10:46:09Z</time>
      </trkpt>
      <trkpt lat="45.58752" lon="4.85177">
        <ele>331</ele>
        <time>2009-08-16T10:46:15Z</time>
      </trkpt>
      <trkpt lat="45.58753" lon="4.85181">
        <ele>331</ele>
        <time>2009-08-16T10:46:22Z</time>
      </trkpt>
      <trkpt lat="45.58757" lon="4.85186">
        <ele>331</ele>
        <time>2009-08-16T10:46:26Z</time>
      </trkpt>
      <trkpt lat="45.58758" lon="4.85188">
        <ele>331</ele>
        <time>2009-08-16T10:46:32Z</time>
      </trkpt>
      <trkpt lat="45.5876" lon="4.85194">
        <ele>332</ele>
        <time>2009-08-16T10:46:37Z</time>
      </trkpt>
      <trkpt lat="45.58763" lon="4.85198">
        <ele>332</ele>
        <time>2009-08-16T10:46:41Z</time>
      </trkpt>
      <trkpt lat="45.58764" lon="4.85202">
        <ele>332</ele>
        <time>2009-08-16T10:46:45Z</time>
      </trkpt>
      <trkpt lat="45.58766" lon="4.85205">
        <ele>332</ele>
        <time>2009-08-16T10:46:49Z</time>
      </trkpt>
      <trkpt lat="45.58768" lon="4.85208">
        <ele>332</ele>
        <time>2009-08-16T10:46:54Z</time>
      </trkpt>
      <trkpt lat="45.58769" lon="4.85211">
        <ele>332</ele>
        <time>2009-08-16T10:46:59Z</time>
      </trkpt>
      <trkpt lat="45.5877" lon="4.85213">
        <ele>332</ele>
        <time>2009-08-16T10:47:06Z</time>
      </trkpt>
      <trkpt lat="45.58768" lon="4.85214">
        <ele>332</ele>
        <time>2009-08-16T10:47:10Z</time>
      </trkpt>
      <trkpt lat="45.58767" lon="4.85214">
        <ele>333</ele>
        <time>2009-08-16T10:47:15Z</time>
      </trkpt>
      <trkpt lat="45.58768" lon="4.85215">
        <ele>333</ele>
        <time>2009-08-16T10:47:34Z</time>
      </trkpt>
      <trkpt lat="45.58768" lon="4.85217">
        <ele>333</ele>
        <time>2009-08-16T10:47:39Z</time>
      </trkpt>
      <trkpt lat="45.58769" lon="4.85219">
        <ele>333</ele>
        <time>2009-08-16T10:47:43Z</time>
      </trkpt>
      <trkpt lat="45.58769" lon="4.85218">
        <ele>333</ele>
        <time>2009-08-16T10:47:47Z</time>
      </trkpt>
      <trkpt lat="45.5877" lon="4.85213">
        <ele>332</ele>
        <time>2009-08-16T10:47:52Z</time>
      </trkpt>
      <trkpt lat="45.58771" lon="4.85213">
        <ele>332</ele>
        <time>2009-08-16T10:47:59Z</time>
      </trkpt>
      <trkpt lat="45.5877" lon="4.85214">
        <ele>332</ele>
        <time>2009-08-16T10:48:05Z</time>
      </trkpt>
      <trkpt lat="45.58769" lon="4.85214">
        <ele>332</ele>
        <time>2009-08-16T10:48:11Z</time>
      </trkpt>
      <trkpt lat="45.58768" lon="4.85215">
        <ele>333</ele>
        <time>2009-08-16T10:48:18Z</time>
      </trkpt>
      <trkpt lat="45.58766" lon="4.85214">
        <ele>333</ele>
        <time>2009-08-16T10:48:24Z</time>
      </trkpt>
      <trkpt lat="45.58765" lon="4.85213">
        <ele>332</ele>
        <time>2009-08-16T10:48:33Z</time>
      </trkpt>
      <trkpt lat="45.58765" lon="4.85211">
        <ele>332</ele>
        <time>2009-08-16T10:48:38Z</time>
      </trkpt>
      <trkpt lat="45.58765" lon="4.85213">
        <ele>332</ele>
        <time>2009-08-16T10:48:59Z</time>
      </trkpt>
      <trkpt lat="45.58766" lon="4.85211">
        <ele>332</ele>
        <time>2009-08-16T10:49:03Z</time>
      </trkpt>
      <trkpt lat="45.58766" lon="4.8521">
        <ele>332</ele>
        <time>2009-08-16T10:49:08Z</time>
      </trkpt>
      <trkpt lat="45.58766" lon="4.85208">
        <ele>332</ele>
        <time>2009-08-16T10:49:13Z</time>
      </trkpt>
      <trkpt lat="45.58767" lon="4.85209">
        <ele>332</ele>
        <time>2009-08-16T10:49:35Z</time>
      </trkpt>
      <trkpt lat="45.58768" lon="4.85213">
        <ele>332</ele>
        <time>2009-08-16T10:49:49Z</time>
      </trkpt>
      <trkpt lat="45.58769" lon="4.85214">
        <ele>333</ele>
        <time>2009-08-16T10:50:06Z</time>
      </trkpt>
      <trkpt lat="45.58769" lon="4.85216">
        <ele>333</ele>
        <time>2009-08-16T10:50:15Z</time>
      </trkpt>
      <trkpt lat="45.58769" lon="4.8522">
        <ele>333</ele>
        <time>2009-08-16T10:50:28Z</time>
      </trkpt>
      <trkpt lat="45.58769" lon="4.85223">
        <ele>333</ele>
        <time>2009-08-16T10:50:32Z</time>
      </trkpt>
      <trkpt lat="45.58769" lon="4.85225">
        <ele>333</ele>
        <time>2009-08-16T10:50:36Z</time>
      </trkpt>
      <trkpt lat="45.58769" lon="4.85226">
        <ele>333</ele>
        <time>2009-08-16T10:50:42Z</time>
      </trkpt>
      <trkpt lat="45.58768" lon="4.85227">
        <ele>333</ele>
        <time>2009-08-16T10:50:47Z</time>
      </trkpt>
      <trkpt lat="45.58766" lon="4.85229">
        <ele>334</ele>
        <time>2009-08-16T10:50:54Z</time>
      </trkpt>
      <trkpt lat="45.58767" lon="4.85231">
        <ele>334</ele>
        <time>2009-08-16T10:51:23Z</time>
      </trkpt>
      <trkpt lat="45.58767" lon="4.85233">
        <ele>334</ele>
        <time>2009-08-16T10:51:28Z</time>
      </trkpt>
      <trkpt lat="45.58768" lon="4.85234">
        <ele>334</ele>
        <time>2009-08-16T10:51:33Z</time>
      </trkpt>
      <trkpt lat="45.58771" lon="4.85234">
        <ele>334</ele>
        <time>2009-08-16T10:51:53Z</time>
      </trkpt>
      <trkpt lat="45.58772" lon="4.85235">
        <ele>334</ele>
        <time>2009-08-16T10:52:00Z</time>
      </trkpt>
      <trkpt lat="45.58772" lon="4.85233">
        <ele>333</ele>
        <time>2009-08-16T10:52:10Z</time>
      </trkpt>
      <trkpt lat="45.58772" lon="4.85232">
        <ele>333</ele>
        <time>2009-08-16T10:52:14Z</time>
      </trkpt>
      <trkpt lat="45.58773" lon="4.85233">
        <ele>333</ele>
        <time>2009-08-16T10:52:23Z</time>
      </trkpt>
      <trkpt lat="45.58775" lon="4.85237">
        <ele>333</ele>
        <time>2009-08-16T10:52:27Z</time>
      </trkpt>
      <trkpt lat="45.58777" lon="4.85241">
        <ele>333</ele>
        <time>2009-08-16T10:52:31Z</time>
      </trkpt>
      <trkpt lat="45.58781" lon="4.85245">
        <ele>333</ele>
        <time>2009-08-16T10:52:38Z</time>
      </trkpt>
      <trkpt lat="45.58784" lon="4.85246">
        <ele>333</ele>
        <time>2009-08-16T10:52:43Z</time>
      </trkpt>
      <trkpt lat="45.58786" lon="4.8525">
        <ele>337</ele>
        <time>2009-08-16T10:52:47Z</time>
      </trkpt>
      <trkpt lat="45.58788" lon="4.85256">
        <ele>337</ele>
        <time>2009-08-16T10:52:51Z</time>
      </trkpt>
      <trkpt lat="45.5879" lon="4.8526">
        <ele>337</ele>
        <time>2009-08-16T10:52:59Z</time>
      </trkpt>
      <trkpt lat="45.58791" lon="4.85263">
        <ele>337</ele>
        <time>2009-08-16T10:53:04Z</time>
      </trkpt>
      <trkpt lat="45.58791" lon="4.85269">
        <ele>337</ele>
        <time>2009-08-16T10:53:08Z</time>
      </trkpt>
      <trkpt lat="45.58793" lon="4.85278">
        <ele>337</ele>
        <time>2009-08-16T10:53:13Z</time>
      </trkpt>
      <trkpt lat="45.58793" lon="4.85286">
        <ele>337</ele>
        <time>2009-08-16T10:53:17Z</time>
      </trkpt>
      <trkpt lat="45.58793" lon="4.85292">
        <ele>337</ele>
        <time>2009-08-16T10:53:21Z</time>
      </trkpt>
      <trkpt lat="45.58793" lon="4.85297">
        <ele>337</ele>
        <time>2009-08-16T10:53:25Z</time>
      </trkpt>
      <trkpt lat="45.58793" lon="4.85306">
        <ele>338</ele>
        <time>2009-08-16T10:53:30Z</time>
      </trkpt>
      <trkpt lat="45.58794" lon="4.85313">
        <ele>338</ele>
        <time>2009-08-16T10:53:34Z</time>
      </trkpt>
      <trkpt lat="45.58796" lon="4.85322">
        <ele>338</ele>
        <time>2009-08-16T10:53:39Z</time>
      </trkpt>
      <trkpt lat="45.58797" lon="4.85328">
        <ele>338</ele>
        <time>2009-08-16T10:53:43Z</time>
      </trkpt>
      <trkpt lat="45.58797" lon="4.85334">
        <ele>342</ele>
        <time>2009-08-16T10:53:48Z</time>
      </trkpt>
      <trkpt lat="45.58799" lon="4.85338">
        <ele>342</ele>
        <time>2009-08-16T10:53:56Z</time>
      </trkpt>
      <trkpt lat="45.58798" lon="4.85341">
        <ele>342</ele>
        <time>2009-08-16T10:54:01Z</time>
      </trkpt>
      <trkpt lat="45.58799" lon="4.85345">
        <ele>342</ele>
        <time>2009-08-16T10:54:08Z</time>
      </trkpt>
      <trkpt lat="45.588" lon="4.85346">
        <ele>342</ele>
        <time>2009-08-16T10:54:17Z</time>
      </trkpt>
      <trkpt lat="45.58807" lon="4.85344">
        <ele>341</ele>
        <time>2009-08-16T10:54:30Z</time>
      </trkpt>
      <trkpt lat="45.58809" lon="4.85345">
        <ele>341</ele>
        <time>2009-08-16T10:54:34Z</time>
      </trkpt>
      <trkpt lat="45.58809" lon="4.85347">
        <ele>341</ele>
        <time>2009-08-16T10:54:41Z</time>
      </trkpt>
      <trkpt lat="45.58806" lon="4.85345">
        <ele>341</ele>
        <time>2009-08-16T10:54:46Z</time>
      </trkpt>
      <trkpt lat="45.58804" lon="4.85345">
        <ele>342</ele>
        <time>2009-08-16T10:54:52Z</time>
      </trkpt>
      <trkpt lat="45.58801" lon="4.85344">
        <ele>342</ele>
        <time>2009-08-16T10:54:56Z</time>
      </trkpt>
      <trkpt lat="45.58799" lon="4.85347">
        <ele>342</ele>
        <time>2009-08-16T10:55:01Z</time>
      </trkpt>
      <trkpt lat="45.58799" lon="4.8535">
        <ele>342</ele>
        <time>2009-08-16T10:55:05Z</time>
      </trkpt>
      <trkpt lat="45.588" lon="4.8535">
        <ele>342</ele>
        <time>2009-08-16T10:55:10Z</time>
      </trkpt>
      <trkpt lat="45.58803" lon="4.85349">
        <ele>342</ele>
        <time>2009-08-16T10:55:15Z</time>
      </trkpt>
      <trkpt lat="45.58802" lon="4.85346">
        <ele>342</ele>
        <time>2009-08-16T10:55:30Z</time>
      </trkpt>
      <trkpt lat="45.58801" lon="4.85343">
        <ele>342</ele>
        <time>2009-08-16T10:55:35Z</time>
      </trkpt>
      <trkpt lat="45.588" lon="4.85339">
        <ele>342</ele>
        <time>2009-08-16T10:55:39Z</time>
      </trkpt>
      <trkpt lat="45.58799" lon="4.85335">
        <ele>341</ele>
        <time>2009-08-16T10:55:43Z</time>
      </trkpt>
      <trkpt lat="45.58799" lon="4.85331">
        <ele>338</ele>
        <time>2009-08-16T10:55:49Z</time>
      </trkpt>
      <trkpt lat="45.58798" lon="4.8533">
        <ele>338</ele>
        <time>2009-08-16T10:55:56Z</time>
      </trkpt>
      <trkpt lat="45.58798" lon="4.85332">
        <ele>338</ele>
        <time>2009-08-16T10:56:01Z</time>
      </trkpt>
      <trkpt lat="45.58798" lon="4.85335">
        <ele>342</ele>
        <time>2009-08-16T10:56:08Z</time>
      </trkpt>
      <trkpt lat="45.58797" lon="4.85337">
        <ele>342</ele>
        <time>2009-08-16T10:56:24Z</time>
      </trkpt>
      <trkpt lat="45.58798" lon="4.85338">
        <ele>342</ele>
        <time>2009-08-16T10:56:52Z</time>
      </trkpt>
      <trkpt lat="45.58797" lon="4.8534">
        <ele>342</ele>
        <time>2009-08-16T10:57:23Z</time>
      </trkpt>
      <trkpt lat="45.58797" lon="4.85339">
        <ele>342</ele>
        <time>2009-08-16T10:57:35Z</time>
      </trkpt>
      <trkpt lat="45.58799" lon="4.85339">
        <ele>342</ele>
        <time>2009-08-16T10:57:41Z</time>
      </trkpt>
      <trkpt lat="45.58795" lon="4.85337">
        <ele>342</ele>
        <time>2009-08-16T10:57:45Z</time>
      </trkpt>
      <trkpt lat="45.58794" lon="4.85338">
        <ele>342</ele>
        <time>2009-08-16T10:57:52Z</time>
      </trkpt>
      <trkpt lat="45.58794" lon="4.8534">
        <ele>342</ele>
        <time>2009-08-16T10:58:01Z</time>
      </trkpt>
      <trkpt lat="45.58797" lon="4.8534">
        <ele>342</ele>
        <time>2009-08-16T10:58:09Z</time>
      </trkpt>
      <trkpt lat="45.58799" lon="4.85341">
        <ele>342</ele>
        <time>2009-08-16T10:58:17Z</time>
      </trkpt>
      <trkpt lat="45.588" lon="4.85341">
        <ele>342</ele>
        <time>2009-08-16T10:58:29Z</time>
      </trkpt>
      <trkpt lat="45.58801" lon="4.8534">
        <ele>341</ele>
        <time>2009-08-16T10:58:45Z</time>
      </trkpt>
      <trkpt lat="45.58801" lon="4.85341">
        <ele>342</ele>
        <time>2009-08-16T10:58:58Z</time>
      </trkpt>
      <trkpt lat="45.58803" lon="4.85342">
        <ele>341</ele>
        <time>2009-08-16T10:59:05Z</time>
      </trkpt>
      <trkpt lat="45.58801" lon="4.85341">
        <ele>341</ele>
        <time>2009-08-16T10:59:30Z</time>
      </trkpt>
      <trkpt lat="45.588" lon="4.85341">
        <ele>342</ele>
        <time>2009-08-16T10:59:39Z</time>
      </trkpt>
      <trkpt lat="45.588" lon="4.85342">
        <ele>342</ele>
        <time>2009-08-16T11:00:00Z</time>
      </trkpt>
      <trkpt lat="45.58801" lon="4.85344">
        <ele>342</ele>
        <time>2009-08-16T11:00:13Z</time>
      </trkpt>
      <trkpt lat="45.58801" lon="4.85345">
        <ele>342</ele>
        <time>2009-08-16T11:00:28Z</time>
      </trkpt>
      <trkpt lat="45.58802" lon="4.85345">
        <ele>342</ele>
        <time>2009-08-16T11:00:35Z</time>
      </trkpt>
      <trkpt lat="45.58803" lon="4.85346">
        <ele>342</ele>
        <time>2009-08-16T11:00:41Z</time>
      </trkpt>
      <trkpt lat="45.58802" lon="4.85346">
        <ele>342</ele>
        <time>2009-08-16T11:02:12Z</time>
      </trkpt>
      <trkpt lat="45.58802" lon="4.85344">
        <ele>342</ele>
        <time>2009-08-16T11:02:37Z</time>
      </trkpt>
      <trkpt lat="45.58801" lon="4.85343">
        <ele>342</ele>
        <time>2009-08-16T11:02:57Z</time>
      </trkpt>
      <trkpt lat="45.588" lon="4.85342">
        <ele>342</ele>
        <time>2009-08-16T11:03:06Z</time>
      </trkpt>
      <trkpt lat="45.58801" lon="4.85344">
        <ele>342</ele>
        <time>2009-08-16T11:03:11Z</time>
      </trkpt>
      <trkpt lat="45.58804" lon="4.85345">
        <ele>342</ele>
        <time>2009-08-16T11:03:19Z</time>
      </trkpt>
      <trkpt lat="45.58808" lon="4.85345">
        <ele>341</ele>
        <time>2009-08-16T11:03:31Z</time>
      </trkpt>
      <trkpt lat="45.58806" lon="4.85343">
        <ele>341</ele>
        <time>2009-08-16T11:03:37Z</time>
      </trkpt>
      <trkpt lat="45.58803" lon="4.85343">
        <ele>341</ele>
        <time>2009-08-16T11:03:42Z</time>
      </trkpt>
      <trkpt lat="45.58803" lon="4.85342">
        <ele>341</ele>
        <time>2009-08-16T11:03:50Z</time>
      </trkpt>
      <trkpt lat="45.58806" lon="4.85342">
        <ele>341</ele>
        <time>2009-08-16T11:03:58Z</time>
      </trkpt>
      <trkpt lat="45.58804" lon="4.85341">
        <ele>341</ele>
        <time>2009-08-16T11:04:25Z</time>
      </trkpt>
      <trkpt lat="45.58803" lon="4.85341">
        <ele>341</ele>
        <time>2009-08-16T11:04:31Z</time>
      </trkpt>
      <trkpt lat="45.58802" lon="4.8534">
        <ele>341</ele>
        <time>2009-08-16T11:04:41Z</time>
      </trkpt>
      <trkpt lat="45.58802" lon="4.85341">
        <ele>341</ele>
        <time>2009-08-16T11:05:19Z</time>
      </trkpt>
      <trkpt lat="45.58803" lon="4.85343">
        <ele>342</ele>
        <time>2009-08-16T11:05:32Z</time>
      </trkpt>
      <trkpt lat="45.58802" lon="4.85341">
        <ele>341</ele>
        <time>2009-08-16T11:05:45Z</time>
      </trkpt>
      <trkpt lat="45.58802" lon="4.8534">
        <ele>341</ele>
        <time>2009-08-16T11:06:02Z</time>
      </trkpt>
      <trkpt lat="45.58801" lon="4.85338">
        <ele>341</ele>
        <time>2009-08-16T11:06:32Z</time>
      </trkpt>
      <trkpt lat="45.58801" lon="4.8534">
        <ele>341</ele>
        <time>2009-08-16T11:06:39Z</time>
      </trkpt>
      <trkpt lat="45.588" lon="4.85341">
        <ele>342</ele>
        <time>2009-08-16T11:06:45Z</time>
      </trkpt>
      <trkpt lat="45.58799" lon="4.85341">
        <ele>342</ele>
        <time>2009-08-16T11:06:50Z</time>
      </trkpt>
      <trkpt lat="45.58797" lon="4.85341">
        <ele>342</ele>
        <time>2009-08-16T11:06:55Z</time>
      </trkpt>
      <trkpt lat="45.58796" lon="4.8534">
        <ele>342</ele>
        <time>2009-08-16T11:07:02Z</time>
      </trkpt>
      <trkpt lat="45.58797" lon="4.85341">
        <ele>342</ele>
        <time>2009-08-16T11:08:05Z</time>
      </trkpt>
      <trkpt lat="45.58798" lon="4.85339">
        <ele>342</ele>
        <time>2009-08-16T11:08:22Z</time>
      </trkpt>
      <trkpt lat="45.58799" lon="4.85338">
        <ele>342</ele>
        <time>2009-08-16T11:08:43Z</time>
      </trkpt>
      <trkpt lat="45.588" lon="4.85338">
        <ele>341</ele>
        <time>2009-08-16T11:08:47Z</time>
      </trkpt>
      <trkpt lat="45.58803" lon="4.85337">
        <ele>341</ele>
        <time>2009-08-16T11:08:54Z</time>
      </trkpt>
      <trkpt lat="45.58803" lon="4.85336">
        <ele>341</ele>
        <time>2009-08-16T11:09:21Z</time>
      </trkpt>
      <trkpt lat="45.58803" lon="4.85338">
        <ele>341</ele>
        <time>2009-08-16T11:10:28Z</time>
      </trkpt>
      <trkpt lat="45.58803" lon="4.85339">
        <ele>341</ele>
        <time>2009-08-16T11:11:03Z</time>
      </trkpt>
      <trkpt lat="45.58803" lon="4.85341">
        <ele>341</ele>
        <time>2009-08-16T11:11:08Z</time>
      </trkpt>
      <trkpt lat="45.58802" lon="4.85343">
        <ele>342</ele>
        <time>2009-08-16T11:11:14Z</time>
      </trkpt>
      <trkpt lat="45.58803" lon="4.85341">
        <ele>341</ele>
        <time>2009-08-16T11:11:35Z</time>
      </trkpt>
      <trkpt lat="45.58802" lon="4.85341">
        <ele>341</ele>
        <time>2009-08-16T11:12:23Z</time>
      </trkpt>
      <trkpt lat="45.58802" lon="4.85339">
        <ele>341</ele>
        <time>2009-08-16T11:13:09Z</time>
      </trkpt>
      <trkpt lat="45.58803" lon="4.85338">
        <ele>341</ele>
        <time>2009-08-16T11:13:19Z</time>
      </trkpt>
      <trkpt lat="45.58801" lon="4.85337">
        <ele>341</ele>
        <time>2009-08-16T11:13:30Z</time>
      </trkpt>
      <trkpt lat="45.58799" lon="4.85337">
        <ele>342</ele>
        <time>2009-08-16T11:13:36Z</time>
      </trkpt>
      <trkpt lat="45.58798" lon="4.85339">
        <ele>342</ele>
        <time>2009-08-16T11:13:50Z</time>
      </trkpt>
      <trkpt lat="45.58798" lon="4.8534">
        <ele>342</ele>
        <time>2009-08-16T11:13:57Z</time>
      </trkpt>
      <trkpt lat="45.58799" lon="4.85342">
        <ele>342</ele>
        <time>2009-08-16T11:14:03Z</time>
      </trkpt>
      <trkpt lat="45.588" lon="4.85343">
        <ele>342</ele>
        <time>2009-08-16T11:14:07Z</time>
      </trkpt>
      <trkpt lat="45.58799" lon="4.85342">
        <ele>342</ele>
        <time>2009-08-16T11:14:20Z</time>
      </trkpt>
      <trkpt lat="45.58799" lon="4.85343">
        <ele>342</ele>
        <time>2009-08-16T11:14:43Z</time>
      </trkpt>
      <trkpt lat="45.58798" lon="4.85342">
        <ele>342</ele>
        <time>2009-08-16T11:14:52Z</time>
      </trkpt>
      <trkpt lat="45.58797" lon="4.85341">
        <ele>342</ele>
        <time>2009-08-16T11:15:00Z</time>
      </trkpt>
      <trkpt lat="45.58796" lon="4.85339">
        <ele>342</ele>
        <time>2009-08-16T11:15:12Z</time>
      </trkpt>
      <trkpt lat="45.58797" lon="4.85338">
        <ele>342</ele>
        <time>2009-08-16T11:15:39Z</time>
      </trkpt>
      <trkpt lat="45.58799" lon="4.8534">
        <ele>342</ele>
        <time>2009-08-16T11:15:45Z</time>
      </trkpt>
      <trkpt lat="45.588" lon="4.8534">
        <ele>342</ele>
        <time>2009-08-16T11:15:58Z</time>
      </trkpt>
      <trkpt lat="45.58801" lon="4.85339">
        <ele>341</ele>
        <time>2009-08-16T11:16:02Z</time>
      </trkpt>
      <trkpt lat="45.58801" lon="4.85339">
        <ele>341</ele>
        <time>2009-08-16T11:16:15Z</time>
      </trkpt>
      <trkpt lat="45.588" lon="4.85339">
        <ele>341</ele>
        <time>2009-08-16T11:16:25Z</time>
      </trkpt>
      <trkpt lat="45.58799" lon="4.85339">
        <ele>342</ele>
        <time>2009-08-16T11:16:40Z</time>
      </trkpt>
      <trkpt lat="45.58801" lon="4.85341">
        <ele>342</ele>
        <time>2009-08-16T11:16:46Z</time>
      </trkpt>
      <trkpt lat="45.58802" lon="4.85344">
        <ele>342</ele>
        <time>2009-08-16T11:16:51Z</time>
      </trkpt>
      <trkpt lat="45.58803" lon="4.85344">
        <ele>342</ele>
        <time>2009-08-16T11:16:56Z</time>
      </trkpt>
      <trkpt lat="45.58803" lon="4.85343">
        <ele>341</ele>
        <time>2009-08-16T11:17:13Z</time>
      </trkpt>
      <trkpt lat="45.58806" lon="4.85341">
        <ele>341</ele>
        <time>2009-08-16T11:17:17Z</time>
      </trkpt>
      <trkpt lat="45.58808" lon="4.85342">
        <ele>341</ele>
        <time>2009-08-16T11:17:28Z</time>
      </trkpt>
      <trkpt lat="45.58807" lon="4.85342">
        <ele>341</ele>
        <time>2009-08-16T11:17:32Z</time>
      </trkpt>
      <trkpt lat="45.58805" lon="4.85345">
        <ele>341</ele>
        <time>2009-08-16T11:17:39Z</time>
      </trkpt>
      <trkpt lat="45.58802" lon="4.85348">
        <ele>342</ele>
        <time>2009-08-16T11:17:43Z</time>
      </trkpt>
      <trkpt lat="45.58799" lon="4.85353">
        <ele>342</ele>
        <time>2009-08-16T11:17:47Z</time>
      </trkpt>
      <trkpt lat="45.58795" lon="4.85354">
        <ele>342</ele>
        <time>2009-08-16T11:17:51Z</time>
      </trkpt>
      <trkpt lat="45.5879" lon="4.85355">
        <ele>342</ele>
        <time>2009-08-16T11:17:55Z</time>
      </trkpt>
      <trkpt lat="45.58784" lon="4.85358">
        <ele>342</ele>
        <time>2009-08-16T11:17:59Z</time>
      </trkpt>
      <trkpt lat="45.58777" lon="4.85364">
        <ele>343</ele>
        <time>2009-08-16T11:18:03Z</time>
      </trkpt>
      <trkpt lat="45.5877" lon="4.85368">
        <ele>343</ele>
        <time>2009-08-16T11:18:07Z</time>
      </trkpt>
      <trkpt lat="45.58762" lon="4.85374">
        <ele>343</ele>
        <time>2009-08-16T11:18:11Z</time>
      </trkpt>
      <trkpt lat="45.58756" lon="4.85379">
        <ele>343</ele>
        <time>2009-08-16T11:18:15Z</time>
      </trkpt>
      <trkpt lat="45.58748" lon="4.85387">
        <ele>344</ele>
        <time>2009-08-16T11:18:20Z</time>
      </trkpt>
      <trkpt lat="45.58741" lon="4.85392">
        <ele>344</ele>
        <time>2009-08-16T11:18:24Z</time>
      </trkpt>
      <trkpt lat="45.58736" lon="4.85396">
        <ele>345</ele>
        <time>2009-08-16T11:18:28Z</time>
      </trkpt>
      <trkpt lat="45.5873" lon="4.85398">
        <ele>345</ele>
        <time>2009-08-16T11:18:32Z</time>
      </trkpt>
      <trkpt lat="45.58727" lon="4.85404">
        <ele>345</ele>
        <time>2009-08-16T11:18:36Z</time>
      </trkpt>
      <trkpt lat="45.58729" lon="4.85411">
        <ele>345</ele>
        <time>2009-08-16T11:18:40Z</time>
      </trkpt>
      <trkpt lat="45.58732" lon="4.85419">
        <ele>347</ele>
        <time>2009-08-16T11:18:44Z</time>
      </trkpt>
      <trkpt lat="45.58737" lon="4.85423">
        <ele>347</ele>
        <time>2009-08-16T11:18:48Z</time>
      </trkpt>
      <trkpt lat="45.58741" lon="4.85429">
        <ele>347</ele>
        <time>2009-08-16T11:18:52Z</time>
      </trkpt>
      <trkpt lat="45.58742" lon="4.85435">
        <ele>348</ele>
        <time>2009-08-16T11:18:56Z</time>
      </trkpt>
      <trkpt lat="45.58744" lon="4.85442">
        <ele>348</ele>
        <time>2009-08-16T11:19:01Z</time>
      </trkpt>
      <trkpt lat="45.58743" lon="4.85448">
        <ele>349</ele>
        <time>2009-08-16T11:19:05Z</time>
      </trkpt>
      <trkpt lat="45.58742" lon="4.85453">
        <ele>349</ele>
        <time>2009-08-16T11:19:10Z</time>
      </trkpt>
      <trkpt lat="45.58743" lon="4.85459">
        <ele>349</ele>
        <time>2009-08-16T11:19:15Z</time>
      </trkpt>
      <trkpt lat="45.58743" lon="4.85465">
        <ele>350</ele>
        <time>2009-08-16T11:19:19Z</time>
      </trkpt>
      <trkpt lat="45.58743" lon="4.85469">
        <ele>350</ele>
        <time>2009-08-16T11:19:23Z</time>
      </trkpt>
      <trkpt lat="45.58741" lon="4.85475">
        <ele>351</ele>
        <time>2009-08-16T11:19:28Z</time>
      </trkpt>
      <trkpt lat="45.5874" lon="4.85482">
        <ele>351</ele>
        <time>2009-08-16T11:19:33Z</time>
      </trkpt>
      <trkpt lat="45.58739" lon="4.85488">
        <ele>352</ele>
        <time>2009-08-16T11:19:37Z</time>
      </trkpt>
      <trkpt lat="45.58738" lon="4.85492">
        <ele>352</ele>
        <time>2009-08-16T11:19:41Z</time>
      </trkpt>
      <trkpt lat="45.58738" lon="4.85499">
        <ele>352</ele>
        <time>2009-08-16T11:19:45Z</time>
      </trkpt>
      <trkpt lat="45.58738" lon="4.85507">
        <ele>353</ele>
        <time>2009-08-16T11:19:49Z</time>
      </trkpt>
      <trkpt lat="45.58738" lon="4.85515">
        <ele>353</ele>
        <time>2009-08-16T11:19:53Z</time>
      </trkpt>
      <trkpt lat="45.58738" lon="4.85524">
        <ele>353</ele>
        <time>2009-08-16T11:19:57Z</time>
      </trkpt>
      <trkpt lat="45.58737" lon="4.85534">
        <ele>353</ele>
        <time>2009-08-16T11:20:01Z</time>
      </trkpt>
      <trkpt lat="45.58736" lon="4.85549">
        <ele>353</ele>
        <time>2009-08-16T11:20:05Z</time>
      </trkpt>
      <trkpt lat="45.58736" lon="4.85561">
        <ele>353</ele>
        <time>2009-08-16T11:20:09Z</time>
      </trkpt>
      <trkpt lat="45.58737" lon="4.85573">
        <ele>353</ele>
        <time>2009-08-16T11:20:13Z</time>
      </trkpt>
      <trkpt lat="45.58736" lon="4.85583">
        <ele>353</ele>
        <time>2009-08-16T11:20:17Z</time>
      </trkpt>
      <trkpt lat="45.58735" lon="4.8559">
        <ele>351</ele>
        <time>2009-08-16T11:20:21Z</time>
      </trkpt>
      <trkpt lat="45.58733" lon="4.85594">
        <ele>351</ele>
        <time>2009-08-16T11:20:28Z</time>
      </trkpt>
      <trkpt lat="45.58734" lon="4.85598">
        <ele>351</ele>
        <time>2009-08-16T11:20:32Z</time>
      </trkpt>
      <trkpt lat="45.58732" lon="4.85603">
        <ele>350</ele>
        <time>2009-08-16T11:20:36Z</time>
      </trkpt>
      <trkpt lat="45.58728" lon="4.85608">
        <ele>350</ele>
        <time>2009-08-16T11:20:40Z</time>
      </trkpt>
      <trkpt lat="45.58712" lon="4.85617">
        <ele>349</ele>
        <time>2009-08-16T11:20:44Z</time>
      </trkpt>
      <trkpt lat="45.58693" lon="4.85636">
        <ele>348</ele>
        <time>2009-08-16T11:20:48Z</time>
      </trkpt>
      <trkpt lat="45.58675" lon="4.85661">
        <ele>346</ele>
        <time>2009-08-16T11:20:52Z</time>
      </trkpt>
      <trkpt lat="45.58643" lon="4.85682">
        <ele>342</ele>
        <time>2009-08-16T11:20:56Z</time>
      </trkpt>
      <trkpt lat="45.58618" lon="4.85684">
        <ele>341</ele>
        <time>2009-08-16T11:21:00Z</time>
      </trkpt>
      <trkpt lat="45.58597" lon="4.85681">
        <ele>340</ele>
        <time>2009-08-16T11:21:04Z</time>
      </trkpt>
      <trkpt lat="45.58577" lon="4.85667">
        <ele>337</ele>
        <time>2009-08-16T11:21:08Z</time>
      </trkpt>
      <trkpt lat="45.58557" lon="4.85649">
        <ele>338</ele>
        <time>2009-08-16T11:21:12Z</time>
      </trkpt>
      <trkpt lat="45.58538" lon="4.85634">
        <ele>338</ele>
        <time>2009-08-16T11:21:16Z</time>
      </trkpt>
      <trkpt lat="45.58516" lon="4.85618">
        <ele>338</ele>
        <time>2009-08-16T11:21:20Z</time>
      </trkpt>
      <trkpt lat="45.58496" lon="4.85611">
        <ele>332</ele>
        <time>2009-08-16T11:21:24Z</time>
      </trkpt>
      <trkpt lat="45.58483" lon="4.85608">
        <ele>331</ele>
        <time>2009-08-16T11:21:28Z</time>
      </trkpt>
      <trkpt lat="45.58477" lon="4.85616">
        <ele>331</ele>
        <time>2009-08-16T11:21:32Z</time>
      </trkpt>
      <trkpt lat="45.58474" lon="4.85632">
        <ele>330</ele>
        <time>2009-08-16T11:21:36Z</time>
      </trkpt>
      <trkpt lat="45.58472" lon="4.85655">
        <ele>330</ele>
        <time>2009-08-16T11:21:40Z</time>
      </trkpt>
      <trkpt lat="45.58468" lon="4.85679">
        <ele>328</ele>
        <time>2009-08-16T11:21:44Z</time>
      </trkpt>
      <trkpt lat="45.58462" lon="4.85708">
        <ele>327</ele>
        <time>2009-08-16T11:21:48Z</time>
      </trkpt>
      <trkpt lat="45.58465" lon="4.85722">
        <ele>327</ele>
        <time>2009-08-16T11:21:52Z</time>
      </trkpt>
      <trkpt lat="45.58473" lon="4.85733">
        <ele>327</ele>
        <time>2009-08-16T11:21:56Z</time>
      </trkpt>
      <trkpt lat="45.58482" lon="4.85752">
        <ele>325</ele>
        <time>2009-08-16T11:22:00Z</time>
      </trkpt>
      <trkpt lat="45.58489" lon="4.85774">
        <ele>324</ele>
        <time>2009-08-16T11:22:04Z</time>
      </trkpt>
      <trkpt lat="45.58499" lon="4.858">
        <ele>322</ele>
        <time>2009-08-16T11:22:08Z</time>
      </trkpt>
      <trkpt lat="45.58507" lon="4.85816">
        <ele>325</ele>
        <time>2009-08-16T11:22:12Z</time>
      </trkpt>
      <trkpt lat="45.58526" lon="4.8583">
        <ele>326</ele>
        <time>2009-08-16T11:22:16Z</time>
      </trkpt>
      <trkpt lat="45.58549" lon="4.85844">
        <ele>321</ele>
        <time>2009-08-16T11:22:20Z</time>
      </trkpt>
      <trkpt lat="45.5857" lon="4.85859">
        <ele>321</ele>
        <time>2009-08-16T11:22:24Z</time>
      </trkpt>
      <trkpt lat="45.58594" lon="4.85873">
        <ele>322</ele>
        <time>2009-08-16T11:22:28Z</time>
      </trkpt>
      <trkpt lat="45.58621" lon="4.85888">
        <ele>320</ele>
        <time>2009-08-16T11:22:32Z</time>
      </trkpt>
      <trkpt lat="45.58642" lon="4.85899">
        <ele>319</ele>
        <time>2009-08-16T11:22:36Z</time>
      </trkpt>
      <trkpt lat="45.5866" lon="4.85902">
        <ele>318</ele>
        <time>2009-08-16T11:22:40Z</time>
      </trkpt>
      <trkpt lat="45.58679" lon="4.85899">
        <ele>317</ele>
        <time>2009-08-16T11:22:44Z</time>
      </trkpt>
      <trkpt lat="45.587" lon="4.85892">
        <ele>317</ele>
        <time>2009-08-16T11:22:48Z</time>
      </trkpt>
      <trkpt lat="45.58723" lon="4.85879">
        <ele>317</ele>
        <time>2009-08-16T11:22:52Z</time>
      </trkpt>
      <trkpt lat="45.5874" lon="4.85866">
        <ele>318</ele>
        <time>2009-08-16T11:22:56Z</time>
      </trkpt>
      <trkpt lat="45.58758" lon="4.85847">
        <ele>318</ele>
        <time>2009-08-16T11:23:00Z</time>
      </trkpt>
      <trkpt lat="45.58774" lon="4.85833">
        <ele>325</ele>
        <time>2009-08-16T11:23:04Z</time>
      </trkpt>
      <trkpt lat="45.58791" lon="4.85833">
        <ele>326</ele>
        <time>2009-08-16T11:23:08Z</time>
      </trkpt>
      <trkpt lat="45.58812" lon="4.85831">
        <ele>324</ele>
        <time>2009-08-16T11:23:12Z</time>
      </trkpt>
      <trkpt lat="45.5884" lon="4.85833">
        <ele>321</ele>
        <time>2009-08-16T11:23:16Z</time>
      </trkpt>
      <trkpt lat="45.58864" lon="4.85827">
        <ele>322</ele>
        <time>2009-08-16T11:23:20Z</time>
      </trkpt>
      <trkpt lat="45.58888" lon="4.85822">
        <ele>321</ele>
        <time>2009-08-16T11:23:24Z</time>
      </trkpt>
      <trkpt lat="45.58912" lon="4.8581">
        <ele>320</ele>
        <time>2009-08-16T11:23:28Z</time>
      </trkpt>
      <trkpt lat="45.58933" lon="4.85791">
        <ele>314</ele>
        <time>2009-08-16T11:23:32Z</time>
      </trkpt>
      <trkpt lat="45.58953" lon="4.85769">
        <ele>313</ele>
        <time>2009-08-16T11:23:36Z</time>
      </trkpt>
      <trkpt lat="45.58966" lon="4.85746">
        <ele>316</ele>
        <time>2009-08-16T11:23:40Z</time>
      </trkpt>
      <trkpt lat="45.58973" lon="4.85723">
        <ele>316</ele>
        <time>2009-08-16T11:23:44Z</time>
      </trkpt>
      <trkpt lat="45.58968" lon="4.85706">
        <ele>318</ele>
        <time>2009-08-16T11:23:48Z</time>
      </trkpt>
      <trkpt lat="45.58962" lon="4.85685">
        <ele>319</ele>
        <time>2009-08-16T11:23:52Z</time>
      </trkpt>
      <trkpt lat="45.58964" lon="4.85658">
        <ele>323</ele>
        <time>2009-08-16T11:23:57Z</time>
      </trkpt>
      <trkpt lat="45.58968" lon="4.85633">
        <ele>324</ele>
        <time>2009-08-16T11:24:01Z</time>
      </trkpt>
      <trkpt lat="45.58969" lon="4.8563">
        <ele>324</ele>
        <time>2009-08-16T11:24:05Z</time>
      </trkpt>
      <trkpt lat="45.58969" lon="4.8563">
        <ele>324</ele>
        <time>2009-08-16T11:24:11Z</time>
      </trkpt>
      <trkpt lat="45.58971" lon="4.85629">
        <ele>324</ele>
        <time>2009-08-16T11:24:18Z</time>
      </trkpt>
      <trkpt lat="45.58972" lon="4.85629">
        <ele>324</ele>
        <time>2009-08-16T11:24:26Z</time>
      </trkpt>
      <trkpt lat="45.58973" lon="4.85631">
        <ele>323</ele>
        <time>2009-08-16T11:24:33Z</time>
      </trkpt>
      <trkpt lat="45.58976" lon="4.85631">
        <ele>323</ele>
        <time>2009-08-16T11:24:39Z</time>
      </trkpt>
      <trkpt lat="45.58974" lon="4.85631">
        <ele>323</ele>
        <time>2009-08-16T11:24:49Z</time>
      </trkpt>
      <trkpt lat="45.58974" lon="4.8563">
        <ele>323</ele>
        <time>2009-08-16T11:24:54Z</time>
      </trkpt>
      <trkpt lat="45.58976" lon="4.85629">
        <ele>323</ele>
        <time>2009-08-16T11:24:58Z</time>
      </trkpt>
      <trkpt lat="45.58974" lon="4.85629">
        <ele>323</ele>
        <time>2009-08-16T11:25:03Z</time>
      </trkpt>
      <trkpt lat="45.58976" lon="4.85628">
        <ele>323</ele>
        <time>2009-08-16T11:25:08Z</time>
      </trkpt>
      <trkpt lat="45.58973" lon="4.85627">
        <ele>324</ele>
        <time>2009-08-16T11:25:13Z</time>
      </trkpt>
      <trkpt lat="45.58971" lon="4.85627">
        <ele>324</ele>
        <time>2009-08-16T11:25:21Z</time>
      </trkpt>
      <trkpt lat="45.58973" lon="4.85624">
        <ele>324</ele>
        <time>2009-08-16T11:25:25Z</time>
      </trkpt>
      <trkpt lat="45.58976" lon="4.85621">
        <ele>324</ele>
        <time>2009-08-16T11:25:29Z</time>
      </trkpt>
      <trkpt lat="45.58977" lon="4.85615">
        <ele>324</ele>
        <time>2009-08-16T11:25:34Z</time>
      </trkpt>
      <trkpt lat="45.58979" lon="4.85613">
        <ele>323</ele>
        <time>2009-08-16T11:25:39Z</time>
      </trkpt>
      <trkpt lat="45.58978" lon="4.85611">
        <ele>323</ele>
        <time>2009-08-16T11:25:52Z</time>
      </trkpt>
      <trkpt lat="45.58982" lon="4.85601">
        <ele>323</ele>
        <time>2009-08-16T11:25:56Z</time>
      </trkpt>
      <trkpt lat="45.58987" lon="4.85586">
        <ele>321</ele>
        <time>2009-08-16T11:26:00Z</time>
      </trkpt>
      <trkpt lat="45.58995" lon="4.85564">
        <ele>325</ele>
        <time>2009-08-16T11:26:04Z</time>
      </trkpt>
      <trkpt lat="45.59007" lon="4.85531">
        <ele>315</ele>
        <time>2009-08-16T11:26:08Z</time>
      </trkpt>
      <trkpt lat="45.59022" lon="4.85496">
        <ele>316</ele>
        <time>2009-08-16T11:26:12Z</time>
      </trkpt>
      <trkpt lat="45.5904" lon="4.85461">
        <ele>313</ele>
        <time>2009-08-16T11:26:16Z</time>
      </trkpt>
      <trkpt lat="45.59051" lon="4.85423">
        <ele>311</ele>
        <time>2009-08-16T11:26:20Z</time>
      </trkpt>
      <trkpt lat="45.59054" lon="4.85387">
        <ele>308</ele>
        <time>2009-08-16T11:26:24Z</time>
      </trkpt>
      <trkpt lat="45.59056" lon="4.85357">
        <ele>307</ele>
        <time>2009-08-16T11:26:28Z</time>
      </trkpt>
      <trkpt lat="45.59056" lon="4.85314">
        <ele>302</ele>
        <time>2009-08-16T11:26:32Z</time>
      </trkpt>
      <trkpt lat="45.59054" lon="4.85268">
        <ele>301</ele>
        <time>2009-08-16T11:26:36Z</time>
      </trkpt>
      <trkpt lat="45.59058" lon="4.85235">
        <ele>296</ele>
        <time>2009-08-16T11:26:40Z</time>
      </trkpt>
      <trkpt lat="45.5906" lon="4.85226">
        <ele>296</ele>
        <time>2009-08-16T11:26:44Z</time>
      </trkpt>
      <trkpt lat="45.59062" lon="4.85205">
        <ele>296</ele>
        <time>2009-08-16T11:26:48Z</time>
      </trkpt>
      <trkpt lat="45.59063" lon="4.8517">
        <ele>294</ele>
        <time>2009-08-16T11:26:52Z</time>
      </trkpt>
      <trkpt lat="45.59063" lon="4.85142">
        <ele>290</ele>
        <time>2009-08-16T11:26:56Z</time>
      </trkpt>
      <trkpt lat="45.59076" lon="4.85119">
        <ele>287</ele>
        <time>2009-08-16T11:27:00Z</time>
      </trkpt>
      <trkpt lat="45.59095" lon="4.85121">
        <ele>277</ele>
        <time>2009-08-16T11:27:04Z</time>
      </trkpt>
      <trkpt lat="45.59119" lon="4.85142">
        <ele>277</ele>
        <time>2009-08-16T11:27:08Z</time>
      </trkpt>
      <trkpt lat="45.59137" lon="4.85165">
        <ele>275</ele>
        <time>2009-08-16T11:27:12Z</time>
      </trkpt>
      <trkpt lat="45.59153" lon="4.85198">
        <ele>280</ele>
        <time>2009-08-16T11:27:16Z</time>
      </trkpt>
      <trkpt lat="45.59165" lon="4.85228">
        <ele>281</ele>
        <time>2009-08-16T11:27:20Z</time>
      </trkpt>
      <trkpt lat="45.59178" lon="4.85258">
        <ele>276</ele>
        <time>2009-08-16T11:27:24Z</time>
      </trkpt>
      <trkpt lat="45.59186" lon="4.85279">
        <ele>275</ele>
        <time>2009-08-16T11:27:29Z</time>
      </trkpt>
      <trkpt lat="45.59192" lon="4.85299">
        <ele>274</ele>
        <time>2009-08-16T11:27:33Z</time>
      </trkpt>
      <trkpt lat="45.59206" lon="4.85322">
        <ele>274</ele>
        <time>2009-08-16T11:27:37Z</time>
      </trkpt>
      <trkpt lat="45.5922" lon="4.8535">
        <ele>274</ele>
        <time>2009-08-16T11:27:41Z</time>
      </trkpt>
      <trkpt lat="45.59233" lon="4.85384">
        <ele>274</ele>
        <time>2009-08-16T11:27:45Z</time>
      </trkpt>
      <trkpt lat="45.59246" lon="4.85419">
        <ele>269</ele>
        <time>2009-08-16T11:27:49Z</time>
      </trkpt>
      <trkpt lat="45.59258" lon="4.85451">
        <ele>262</ele>
        <time>2009-08-16T11:27:53Z</time>
      </trkpt>
      <trkpt lat="45.5927" lon="4.8548">
        <ele>262</ele>
        <time>2009-08-16T11:27:57Z</time>
      </trkpt>
      <trkpt lat="45.59279" lon="4.85506">
        <ele>262</ele>
        <time>2009-08-16T11:28:01Z</time>
      </trkpt>
      <trkpt lat="45.59291" lon="4.85514">
        <ele>261</ele>
        <time>2009-08-16T11:28:05Z</time>
      </trkpt>
      <trkpt lat="45.59301" lon="4.8552">
        <ele>260</ele>
        <time>2009-08-16T11:28:09Z</time>
      </trkpt>
      <trkpt lat="45.59313" lon="4.85503">
        <ele>258</ele>
        <time>2009-08-16T11:28:13Z</time>
      </trkpt>
      <trkpt lat="45.59328" lon="4.85487">
        <ele>256</ele>
        <time>2009-08-16T11:28:17Z</time>
      </trkpt>
      <trkpt lat="45.59339" lon="4.85477">
        <ele>252</ele>
        <time>2009-08-16T11:28:21Z</time>
      </trkpt>
      <trkpt lat="45.5934" lon="4.85475">
        <ele>252</ele>
        <time>2009-08-16T11:28:27Z</time>
      </trkpt>
      <trkpt lat="45.59342" lon="4.85474">
        <ele>252</ele>
        <time>2009-08-16T11:28:34Z</time>
      </trkpt>
      <trkpt lat="45.59341" lon="4.85473">
        <ele>252</ele>
        <time>2009-08-16T11:28:58Z</time>
      </trkpt>
      <trkpt lat="45.59343" lon="4.85471">
        <ele>252</ele>
        <time>2009-08-16T11:29:05Z</time>
      </trkpt>
      <trkpt lat="45.59356" lon="4.85467">
        <ele>251</ele>
        <time>2009-08-16T11:29:09Z</time>
      </trkpt>
      <trkpt lat="45.59371" lon="4.85448">
        <ele>250</ele>
        <time>2009-08-16T11:29:13Z</time>
      </trkpt>
      <trkpt lat="45.59388" lon="4.85429">
        <ele>250</ele>
        <time>2009-08-16T11:29:17Z</time>
      </trkpt>
      <trkpt lat="45.59407" lon="4.85409">
        <ele>247</ele>
        <time>2009-08-16T11:29:21Z</time>
      </trkpt>
      <trkpt lat="45.59433" lon="4.85385">
        <ele>248</ele>
        <time>2009-08-16T11:29:26Z</time>
      </trkpt>
      <trkpt lat="45.59454" lon="4.85368">
        <ele>248</ele>
        <time>2009-08-16T11:29:30Z</time>
      </trkpt>
      <trkpt lat="45.59476" lon="4.85356">
        <ele>248</ele>
        <time>2009-08-16T11:29:34Z</time>
      </trkpt>
      <trkpt lat="45.59501" lon="4.85341">
        <ele>247</ele>
        <time>2009-08-16T11:29:38Z</time>
      </trkpt>
      <trkpt lat="45.59529" lon="4.85324">
        <ele>244</ele>
        <time>2009-08-16T11:29:42Z</time>
      </trkpt>
      <trkpt lat="45.59563" lon="4.85306">
        <ele>243</ele>
        <time>2009-08-16T11:29:46Z</time>
      </trkpt>
      <trkpt lat="45.596" lon="4.85289">
        <ele>241</ele>
        <time>2009-08-16T11:29:50Z</time>
      </trkpt>
      <trkpt lat="45.59639" lon="4.85273">
        <ele>240</ele>
        <time>2009-08-16T11:29:54Z</time>
      </trkpt>
      <trkpt lat="45.59681" lon="4.85261">
        <ele>237</ele>
        <time>2009-08-16T11:29:58Z</time>
      </trkpt>
      <trkpt lat="45.59723" lon="4.85252">
        <ele>236</ele>
        <time>2009-08-16T11:30:02Z</time>
      </trkpt>
      <trkpt lat="45.59775" lon="4.85242">
        <ele>232</ele>
        <time>2009-08-16T11:30:07Z</time>
      </trkpt>
      <trkpt lat="45.59819" lon="4.85236">
        <ele>230</ele>
        <time>2009-08-16T11:30:11Z</time>
      </trkpt>
      <trkpt lat="45.59858" lon="4.8523">
        <ele>227</ele>
        <time>2009-08-16T11:30:15Z</time>
      </trkpt>
      <trkpt lat="45.59893" lon="4.85226">
        <ele>227</ele>
        <time>2009-08-16T11:30:19Z</time>
      </trkpt>
      <trkpt lat="45.59922" lon="4.85226">
        <ele>224</ele>
        <time>2009-08-16T11:30:23Z</time>
      </trkpt>
      <trkpt lat="45.59948" lon="4.85238">
        <ele>224</ele>
        <time>2009-08-16T11:30:27Z</time>
      </trkpt>
      <trkpt lat="45.59966" lon="4.85215">
        <ele>224</ele>
        <time>2009-08-16T11:30:31Z</time>
      </trkpt>
      <trkpt lat="45.59965" lon="4.85181">
        <ele>223</ele>
        <time>2009-08-16T11:30:35Z</time>
      </trkpt>
      <trkpt lat="45.59964" lon="4.85145">
        <ele>224</ele>
        <time>2009-08-16T11:30:39Z</time>
      </trkpt>
      <trkpt lat="45.59956" lon="4.8511">
        <ele>224</ele>
        <time>2009-08-16T11:30:43Z</time>
      </trkpt>
      <trkpt lat="45.59938" lon="4.85083">
        <ele>225</ele>
        <time>2009-08-16T11:30:47Z</time>
      </trkpt>
      <trkpt lat="45.59916" lon="4.85068">
        <ele>226</ele>
        <time>2009-08-16T11:30:51Z</time>
      </trkpt>
      <trkpt lat="45.59894" lon="4.85059">
        <ele>226</ele>
        <time>2009-08-16T11:30:55Z</time>
      </trkpt>
      <trkpt lat="45.59875" lon="4.85054">
        <ele>226</ele>
        <time>2009-08-16T11:30:59Z</time>
      </trkpt>
      <trkpt lat="45.59862" lon="4.8505">
        <ele>226</ele>
        <time>2009-08-16T11:31:03Z</time>
      </trkpt>
      <trkpt lat="45.59853" lon="4.85046">
        <ele>226</ele>
        <time>2009-08-16T11:31:07Z</time>
      </trkpt>
      <trkpt lat="45.59847" lon="4.85044">
        <ele>226</ele>
        <time>2009-08-16T11:31:11Z</time>
      </trkpt>
      <trkpt lat="45.59842" lon="4.8505">
        <ele>226</ele>
        <time>2009-08-16T11:31:15Z</time>
      </trkpt>
      <trkpt lat="45.59852" lon="4.85056">
        <ele>226</ele>
        <time>2009-08-16T11:31:19Z</time>
      </trkpt>
      <trkpt lat="45.59855" lon="4.85056">
        <ele>226</ele>
        <time>2009-08-16T11:31:30Z</time>
      </trkpt>
      <trkpt lat="45.59856" lon="4.85057">
        <ele>226</ele>
        <time>2009-08-16T11:31:48Z</time>
      </trkpt>
      <trkpt lat="45.59858" lon="4.8506">
        <ele>226</ele>
        <time>2009-08-16T11:31:55Z</time>
      </trkpt>
      <trkpt lat="45.5986" lon="4.8506">
        <ele>226</ele>
        <time>2009-08-16T11:32:00Z</time>
      </trkpt>
      <trkpt lat="45.59867" lon="4.8506">
        <ele>226</ele>
        <time>2009-08-16T11:32:04Z</time>
      </trkpt>
      <trkpt lat="45.59876" lon="4.85057">
        <ele>226</ele>
        <time>2009-08-16T11:32:08Z</time>
      </trkpt>
      <trkpt lat="45.5988" lon="4.85051">
        <ele>226</ele>
        <time>2009-08-16T11:32:12Z</time>
      </trkpt>
      <trkpt lat="45.59873" lon="4.85038">
        <ele>226</ele>
        <time>2009-08-16T11:32:16Z</time>
      </trkpt>
      <trkpt lat="45.59874" lon="4.85024">
        <ele>226</ele>
        <time>2009-08-16T11:32:20Z</time>
      </trkpt>
      <trkpt lat="45.59876" lon="4.85021">
        <ele>226</ele>
        <time>2009-08-16T11:32:29Z</time>
      </trkpt>
      <trkpt lat="45.59876" lon="4.85019">
        <ele>226</ele>
        <time>2009-08-16T11:32:41Z</time>
      </trkpt>
      <trkpt lat="45.59877" lon="4.85018">
        <ele>226</ele>
        <time>2009-08-16T11:32:58Z</time>
      </trkpt>
      <trkpt lat="45.59876" lon="4.85017">
        <ele>226</ele>
        <time>2009-08-16T11:33:03Z</time>
      </trkpt>
      <trkpt lat="45.59876" lon="4.85015">
        <ele>226</ele>
        <time>2009-08-16T11:33:09Z</time>
      </trkpt>
      <trkpt lat="45.59882" lon="4.85006">
        <ele>225</ele>
        <time>2009-08-16T11:33:14Z</time>
      </trkpt>
      <trkpt lat="45.59886" lon="4.84997">
        <ele>224</ele>
        <time>2009-08-16T11:33:18Z</time>
      </trkpt>
      <trkpt lat="45.5989" lon="4.84983">
        <ele>224</ele>
        <time>2009-08-16T11:33:22Z</time>
      </trkpt>
      <trkpt lat="45.59895" lon="4.84966">
        <ele>224</ele>
        <time>2009-08-16T11:33:26Z</time>
      </trkpt>
      <trkpt lat="45.59899" lon="4.84952">
        <ele>224</ele>
        <time>2009-08-16T11:33:30Z</time>
      </trkpt>
      <trkpt lat="45.59902" lon="4.84942">
        <ele>224</ele>
        <time>2009-08-16T11:33:34Z</time>
      </trkpt>
      <trkpt lat="45.59905" lon="4.84929">
        <ele>224</ele>
        <time>2009-08-16T11:33:38Z</time>
      </trkpt>
      <trkpt lat="45.59908" lon="4.84916">
        <ele>224</ele>
        <time>2009-08-16T11:33:42Z</time>
      </trkpt>
      <trkpt lat="45.59911" lon="4.84901">
        <ele>224</ele>
        <time>2009-08-16T11:33:46Z</time>
      </trkpt>
      <trkpt lat="45.59915" lon="4.84885">
        <ele>225</ele>
        <time>2009-08-16T11:33:50Z</time>
      </trkpt>
      <trkpt lat="45.5992" lon="4.84868">
        <ele>224</ele>
        <time>2009-08-16T11:33:54Z</time>
      </trkpt>
      <trkpt lat="45.59926" lon="4.84848">
        <ele>224</ele>
        <time>2009-08-16T11:33:58Z</time>
      </trkpt>
      <trkpt lat="45.59933" lon="4.8483">
        <ele>225</ele>
        <time>2009-08-16T11:34:02Z</time>
      </trkpt>
      <trkpt lat="45.59944" lon="4.84818">
        <ele>225</ele>
        <time>2009-08-16T11:34:06Z</time>
      </trkpt>
      <trkpt lat="45.59957" lon="4.84812">
        <ele>225</ele>
        <time>2009-08-16T11:34:10Z</time>
      </trkpt>
      <trkpt lat="45.59973" lon="4.84809">
        <ele>225</ele>
        <time>2009-08-16T11:34:14Z</time>
      </trkpt>
      <trkpt lat="45.5999" lon="4.84803">
        <ele>225</ele>
        <time>2009-08-16T11:34:18Z</time>
      </trkpt>
      <trkpt lat="45.60006" lon="4.84796">
        <ele>225</ele>
        <time>2009-08-16T11:34:22Z</time>
      </trkpt>
      <trkpt lat="45.60022" lon="4.84787">
        <ele>225</ele>
        <time>2009-08-16T11:34:26Z</time>
      </trkpt>
      <trkpt lat="45.60037" lon="4.84778">
        <ele>225</ele>
        <time>2009-08-16T11:34:30Z</time>
      </trkpt>
      <trkpt lat="45.60055" lon="4.84768">
        <ele>225</ele>
        <time>2009-08-16T11:34:35Z</time>
      </trkpt>
      <trkpt lat="45.60068" lon="4.84757">
        <ele>224</ele>
        <time>2009-08-16T11:34:39Z</time>
      </trkpt>
      <trkpt lat="45.6008" lon="4.84744">
        <ele>224</ele>
        <time>2009-08-16T11:34:43Z</time>
      </trkpt>
      <trkpt lat="45.60092" lon="4.84732">
        <ele>224</ele>
        <time>2009-08-16T11:34:47Z</time>
      </trkpt>
      <trkpt lat="45.60103" lon="4.84718">
        <ele>223</ele>
        <time>2009-08-16T11:34:51Z</time>
      </trkpt>
      <trkpt lat="45.60115" lon="4.84705">
        <ele>223</ele>
        <time>2009-08-16T11:34:55Z</time>
      </trkpt>
      <trkpt lat="45.60127" lon="4.84691">
        <ele>223</ele>
        <time>2009-08-16T11:34:59Z</time>
      </trkpt>
      <trkpt lat="45.60139" lon="4.84676">
        <ele>223</ele>
        <time>2009-08-16T11:35:03Z</time>
      </trkpt>
      <trkpt lat="45.60151" lon="4.84661">
        <ele>223</ele>
        <time>2009-08-16T11:35:07Z</time>
      </trkpt>
      <trkpt lat="45.60164" lon="4.84645">
        <ele>223</ele>
        <time>2009-08-16T11:35:11Z</time>
      </trkpt>
      <trkpt lat="45.60176" lon="4.84627">
        <ele>221</ele>
        <time>2009-08-16T11:35:15Z</time>
      </trkpt>
      <trkpt lat="45.60189" lon="4.84609">
        <ele>221</ele>
        <time>2009-08-16T11:35:19Z</time>
      </trkpt>
      <trkpt lat="45.60201" lon="4.84592">
        <ele>221</ele>
        <time>2009-08-16T11:35:23Z</time>
      </trkpt>
      <trkpt lat="45.60213" lon="4.84575">
        <ele>220</ele>
        <time>2009-08-16T11:35:27Z</time>
      </trkpt>
      <trkpt lat="45.60226" lon="4.8456">
        <ele>220</ele>
        <time>2009-08-16T11:35:31Z</time>
      </trkpt>
      <trkpt lat="45.6024" lon="4.84545">
        <ele>220</ele>
        <time>2009-08-16T11:35:35Z</time>
      </trkpt>
      <trkpt lat="45.60254" lon="4.84531">
        <ele>219</ele>
        <time>2009-08-16T11:35:39Z</time>
      </trkpt>
      <trkpt lat="45.60267" lon="4.84519">
        <ele>219</ele>
        <time>2009-08-16T11:35:43Z</time>
      </trkpt>
      <trkpt lat="45.60281" lon="4.84507">
        <ele>219</ele>
        <time>2009-08-16T11:35:47Z</time>
      </trkpt>
      <trkpt lat="45.60296" lon="4.84496">
        <ele>219</ele>
        <time>2009-08-16T11:35:51Z</time>
      </trkpt>
      <trkpt lat="45.60311" lon="4.84484">
        <ele>219</ele>
        <time>2009-08-16T11:35:55Z</time>
      </trkpt>
      <trkpt lat="45.60325" lon="4.84475">
        <ele>219</ele>
        <time>2009-08-16T11:35:59Z</time>
      </trkpt>
      <trkpt lat="45.60341" lon="4.84465">
        <ele>220</ele>
        <time>2009-08-16T11:36:03Z</time>
      </trkpt>
      <trkpt lat="45.60356" lon="4.84455">
        <ele>220</ele>
        <time>2009-08-16T11:36:07Z</time>
      </trkpt>
      <trkpt lat="45.60373" lon="4.84446">
        <ele>220</ele>
        <time>2009-08-16T11:36:11Z</time>
      </trkpt>
      <trkpt lat="45.60389" lon="4.84437">
        <ele>221</ele>
        <time>2009-08-16T11:36:15Z</time>
      </trkpt>
      <trkpt lat="45.60405" lon="4.8443">
        <ele>221</ele>
        <time>2009-08-16T11:36:19Z</time>
      </trkpt>
      <trkpt lat="45.60419" lon="4.84425">
        <ele>222</ele>
        <time>2009-08-16T11:36:23Z</time>
      </trkpt>
      <trkpt lat="45.60433" lon="4.84421">
        <ele>223</ele>
        <time>2009-08-16T11:36:27Z</time>
      </trkpt>
      <trkpt lat="45.60446" lon="4.84418">
        <ele>223</ele>
        <time>2009-08-16T11:36:31Z</time>
      </trkpt>
      <trkpt lat="45.60459" lon="4.84415">
        <ele>224</ele>
        <time>2009-08-16T11:36:35Z</time>
      </trkpt>
      <trkpt lat="45.60471" lon="4.84412">
        <ele>224</ele>
        <time>2009-08-16T11:36:39Z</time>
      </trkpt>
      <trkpt lat="45.60485" lon="4.84408">
        <ele>224</ele>
        <time>2009-08-16T11:36:43Z</time>
      </trkpt>
      <trkpt lat="45.60498" lon="4.84405">
        <ele>224</ele>
        <time>2009-08-16T11:36:47Z</time>
      </trkpt>
      <trkpt lat="45.60512" lon="4.84402">
        <ele>225</ele>
        <time>2009-08-16T11:36:51Z</time>
      </trkpt>
      <trkpt lat="45.60526" lon="4.84398">
        <ele>225</ele>
        <time>2009-08-16T11:36:55Z</time>
      </trkpt>
      <trkpt lat="45.60541" lon="4.84395">
        <ele>225</ele>
        <time>2009-08-16T11:36:59Z</time>
      </trkpt>
      <trkpt lat="45.60556" lon="4.84392">
        <ele>225</ele>
        <time>2009-08-16T11:37:03Z</time>
      </trkpt>
      <trkpt lat="45.60571" lon="4.84388">
        <ele>225</ele>
        <time>2009-08-16T11:37:07Z</time>
      </trkpt>
      <trkpt lat="45.60583" lon="4.84384">
        <ele>225</ele>
        <time>2009-08-16T11:37:11Z</time>
      </trkpt>
      <trkpt lat="45.6059" lon="4.84382">
        <ele>225</ele>
        <time>2009-08-16T11:37:15Z</time>
      </trkpt>
      <trkpt lat="45.60598" lon="4.84382">
        <ele>225</ele>
        <time>2009-08-16T11:37:19Z</time>
      </trkpt>
      <trkpt lat="45.60597" lon="4.84376">
        <ele>225</ele>
        <time>2009-08-16T11:37:23Z</time>
      </trkpt>
      <trkpt lat="45.60593" lon="4.84387">
        <ele>225</ele>
        <time>2009-08-16T11:37:27Z</time>
      </trkpt>
      <trkpt lat="45.60594" lon="4.84409">
        <ele>225</ele>
        <time>2009-08-16T11:37:31Z</time>
      </trkpt>
      <trkpt lat="45.60596" lon="4.84433">
        <ele>225</ele>
        <time>2009-08-16T11:37:35Z</time>
      </trkpt>
      <trkpt lat="45.60598" lon="4.84456">
        <ele>225</ele>
        <time>2009-08-16T11:37:39Z</time>
      </trkpt>
      <trkpt lat="45.60599" lon="4.84478">
        <ele>224</ele>
        <time>2009-08-16T11:37:43Z</time>
      </trkpt>
      <trkpt lat="45.60601" lon="4.84499">
        <ele>224</ele>
        <time>2009-08-16T11:37:47Z</time>
      </trkpt>
      <trkpt lat="45.60604" lon="4.84518">
        <ele>224</ele>
        <time>2009-08-16T11:37:51Z</time>
      </trkpt>
      <trkpt lat="45.60607" lon="4.84535">
        <ele>224</ele>
        <time>2009-08-16T11:37:55Z</time>
      </trkpt>
      <trkpt lat="45.60609" lon="4.84552">
        <ele>225</ele>
        <time>2009-08-16T11:37:59Z</time>
      </trkpt>
      <trkpt lat="45.6061" lon="4.84568">
        <ele>225</ele>
        <time>2009-08-16T11:38:03Z</time>
      </trkpt>
      <trkpt lat="45.60611" lon="4.84587">
        <ele>224</ele>
        <time>2009-08-16T11:38:07Z</time>
      </trkpt>
      <trkpt lat="45.60612" lon="4.84608">
        <ele>224</ele>
        <time>2009-08-16T11:38:11Z</time>
      </trkpt>
      <trkpt lat="45.60611" lon="4.84632">
        <ele>224</ele>
        <time>2009-08-16T11:38:15Z</time>
      </trkpt>
      <trkpt lat="45.6061" lon="4.84657">
        <ele>224</ele>
        <time>2009-08-16T11:38:19Z</time>
      </trkpt>
      <trkpt lat="45.60608" lon="4.84682">
        <ele>222</ele>
        <time>2009-08-16T11:38:23Z</time>
      </trkpt>
      <trkpt lat="45.60605" lon="4.84709">
        <ele>221</ele>
        <time>2009-08-16T11:38:27Z</time>
      </trkpt>
      <trkpt lat="45.60602" lon="4.84737">
        <ele>221</ele>
        <time>2009-08-16T11:38:31Z</time>
      </trkpt>
      <trkpt lat="45.606" lon="4.84768">
        <ele>220</ele>
        <time>2009-08-16T11:38:35Z</time>
      </trkpt>
      <trkpt lat="45.60596" lon="4.84798">
        <ele>219</ele>
        <time>2009-08-16T11:38:39Z</time>
      </trkpt>
      <trkpt lat="45.60592" lon="4.84829">
        <ele>219</ele>
        <time>2009-08-16T11:38:43Z</time>
      </trkpt>
      <trkpt lat="45.60589" lon="4.84861">
        <ele>219</ele>
        <time>2009-08-16T11:38:47Z</time>
      </trkpt>
      <trkpt lat="45.60586" lon="4.8489">
        <ele>219</ele>
        <time>2009-08-16T11:38:51Z</time>
      </trkpt>
      <trkpt lat="45.60584" lon="4.84918">
        <ele>219</ele>
        <time>2009-08-16T11:38:55Z</time>
      </trkpt>
      <trkpt lat="45.60582" lon="4.84948">
        <ele>219</ele>
        <time>2009-08-16T11:38:59Z</time>
      </trkpt>
      <trkpt lat="45.60582" lon="4.84978">
        <ele>219</ele>
        <time>2009-08-16T11:39:03Z</time>
      </trkpt>
      <trkpt lat="45.60582" lon="4.85008">
        <ele>218</ele>
        <time>2009-08-16T11:39:07Z</time>
      </trkpt>
      <trkpt lat="45.60583" lon="4.8504">
        <ele>218</ele>
        <time>2009-08-16T11:39:11Z</time>
      </trkpt>
      <trkpt lat="45.60585" lon="4.85073">
        <ele>218</ele>
        <time>2009-08-16T11:39:15Z</time>
      </trkpt>
      <trkpt lat="45.60586" lon="4.85107">
        <ele>218</ele>
        <time>2009-08-16T11:39:19Z</time>
      </trkpt>
      <trkpt lat="45.60589" lon="4.85141">
        <ele>218</ele>
        <time>2009-08-16T11:39:23Z</time>
      </trkpt>
      <trkpt lat="45.6059" lon="4.85175">
        <ele>217</ele>
        <time>2009-08-16T11:39:27Z</time>
      </trkpt>
      <trkpt lat="45.60592" lon="4.85207">
        <ele>216</ele>
        <time>2009-08-16T11:39:31Z</time>
      </trkpt>
      <trkpt lat="45.60593" lon="4.85234">
        <ele>216</ele>
        <time>2009-08-16T11:39:35Z</time>
      </trkpt>
      <trkpt lat="45.60594" lon="4.8526">
        <ele>216</ele>
        <time>2009-08-16T11:39:39Z</time>
      </trkpt>
      <trkpt lat="45.60595" lon="4.85287">
        <ele>216</ele>
        <time>2009-08-16T11:39:43Z</time>
      </trkpt>
      <trkpt lat="45.60596" lon="4.85312">
        <ele>216</ele>
        <time>2009-08-16T11:39:47Z</time>
      </trkpt>
      <trkpt lat="45.60595" lon="4.85328">
        <ele>217</ele>
        <time>2009-08-16T11:39:51Z</time>
      </trkpt>
      <trkpt lat="45.60593" lon="4.85342">
        <ele>217</ele>
        <time>2009-08-16T11:39:55Z</time>
      </trkpt>
      <trkpt lat="45.60592" lon="4.85359">
        <ele>216</ele>
        <time>2009-08-16T11:39:59Z</time>
      </trkpt>
      <trkpt lat="45.60598" lon="4.85375">
        <ele>216</ele>
        <time>2009-08-16T11:40:03Z</time>
      </trkpt>
      <trkpt lat="45.60604" lon="4.85397">
        <ele>216</ele>
        <time>2009-08-16T11:40:07Z</time>
      </trkpt>
      <trkpt lat="45.60609" lon="4.85425">
        <ele>216</ele>
        <time>2009-08-16T11:40:11Z</time>
      </trkpt>
      <trkpt lat="45.60613" lon="4.85457">
        <ele>216</ele>
        <time>2009-08-16T11:40:15Z</time>
      </trkpt>
      <trkpt lat="45.60618" lon="4.85487">
        <ele>216</ele>
        <time>2009-08-16T11:40:19Z</time>
      </trkpt>
      <trkpt lat="45.60622" lon="4.85516">
        <ele>217</ele>
        <time>2009-08-16T11:40:23Z</time>
      </trkpt>
      <trkpt lat="45.60627" lon="4.85544">
        <ele>217</ele>
        <time>2009-08-16T11:40:27Z</time>
      </trkpt>
      <trkpt lat="45.60631" lon="4.85572">
        <ele>217</ele>
        <time>2009-08-16T11:40:31Z</time>
      </trkpt>
      <trkpt lat="45.60636" lon="4.85598">
        <ele>217</ele>
        <time>2009-08-16T11:40:35Z</time>
      </trkpt>
      <trkpt lat="45.60639" lon="4.8562">
        <ele>217</ele>
        <time>2009-08-16T11:40:39Z</time>
      </trkpt>
      <trkpt lat="45.60642" lon="4.85641">
        <ele>217</ele>
        <time>2009-08-16T11:40:43Z</time>
      </trkpt>
      <trkpt lat="45.60646" lon="4.85664">
        <ele>216</ele>
        <time>2009-08-16T11:40:47Z</time>
      </trkpt>
      <trkpt lat="45.6065" lon="4.85689">
        <ele>216</ele>
        <time>2009-08-16T11:40:51Z</time>
      </trkpt>
      <trkpt lat="45.60654" lon="4.85714">
        <ele>217</ele>
        <time>2009-08-16T11:40:55Z</time>
      </trkpt>
      <trkpt lat="45.60659" lon="4.85742">
        <ele>216</ele>
        <time>2009-08-16T11:40:59Z</time>
      </trkpt>
      <trkpt lat="45.60663" lon="4.8577">
        <ele>217</ele>
        <time>2009-08-16T11:41:03Z</time>
      </trkpt>
      <trkpt lat="45.60666" lon="4.85797">
        <ele>218</ele>
        <time>2009-08-16T11:41:07Z</time>
      </trkpt>
      <trkpt lat="45.60671" lon="4.85824">
        <ele>218</ele>
        <time>2009-08-16T11:41:11Z</time>
      </trkpt>
      <trkpt lat="45.60675" lon="4.85849">
        <ele>219</ele>
        <time>2009-08-16T11:41:15Z</time>
      </trkpt>
      <trkpt lat="45.6068" lon="4.85873">
        <ele>219</ele>
        <time>2009-08-16T11:41:19Z</time>
      </trkpt>
      <trkpt lat="45.60687" lon="4.85896">
        <ele>219</ele>
        <time>2009-08-16T11:41:23Z</time>
      </trkpt>
      <trkpt lat="45.60695" lon="4.85918">
        <ele>220</ele>
        <time>2009-08-16T11:41:27Z</time>
      </trkpt>
      <trkpt lat="45.60704" lon="4.85937">
        <ele>220</ele>
        <time>2009-08-16T11:41:31Z</time>
      </trkpt>
      <trkpt lat="45.60715" lon="4.85954">
        <ele>220</ele>
        <time>2009-08-16T11:41:35Z</time>
      </trkpt>
      <trkpt lat="45.60726" lon="4.8597">
        <ele>221</ele>
        <time>2009-08-16T11:41:39Z</time>
      </trkpt>
      <trkpt lat="45.60737" lon="4.85983">
        <ele>221</ele>
        <time>2009-08-16T11:41:43Z</time>
      </trkpt>
      <trkpt lat="45.6075" lon="4.85984">
        <ele>220</ele>
        <time>2009-08-16T11:41:47Z</time>
      </trkpt>
      <trkpt lat="45.60764" lon="4.85983">
        <ele>220</ele>
        <time>2009-08-16T11:41:51Z</time>
      </trkpt>
      <trkpt lat="45.60776" lon="4.85998">
        <ele>220</ele>
        <time>2009-08-16T11:41:55Z</time>
      </trkpt>
      <trkpt lat="45.60786" lon="4.86018">
        <ele>221</ele>
        <time>2009-08-16T11:41:59Z</time>
      </trkpt>
      <trkpt lat="45.60796" lon="4.86041">
        <ele>221</ele>
        <time>2009-08-16T11:42:03Z</time>
      </trkpt>
      <trkpt lat="45.60805" lon="4.86063">
        <ele>221</ele>
        <time>2009-08-16T11:42:07Z</time>
      </trkpt>
      <trkpt lat="45.60814" lon="4.86089">
        <ele>221</ele>
        <time>2009-08-16T11:42:11Z</time>
      </trkpt>
      <trkpt lat="45.6082" lon="4.86117">
        <ele>221</ele>
        <time>2009-08-16T11:42:15Z</time>
      </trkpt>
      <trkpt lat="45.60822" lon="4.86143">
        <ele>221</ele>
        <time>2009-08-16T11:42:19Z</time>
      </trkpt>
      <trkpt lat="45.60822" lon="4.86167">
        <ele>221</ele>
        <time>2009-08-16T11:42:23Z</time>
      </trkpt>
      <trkpt lat="45.60823" lon="4.86189">
        <ele>221</ele>
        <time>2009-08-16T11:42:27Z</time>
      </trkpt>
      <trkpt lat="45.60828" lon="4.86206">
        <ele>222</ele>
        <time>2009-08-16T11:42:31Z</time>
      </trkpt>
      <trkpt lat="45.60838" lon="4.86221">
        <ele>220</ele>
        <time>2009-08-16T11:42:35Z</time>
      </trkpt>
      <trkpt lat="45.60851" lon="4.86236">
        <ele>221</ele>
        <time>2009-08-16T11:42:39Z</time>
      </trkpt>
      <trkpt lat="45.60869" lon="4.86245">
        <ele>220</ele>
        <time>2009-08-16T11:42:43Z</time>
      </trkpt>
      <trkpt lat="45.60895" lon="4.86239">
        <ele>219</ele>
        <time>2009-08-16T11:42:47Z</time>
      </trkpt>
      <trkpt lat="45.60924" lon="4.86227">
        <ele>218</ele>
        <time>2009-08-16T11:42:51Z</time>
      </trkpt>
      <trkpt lat="45.60952" lon="4.86214">
        <ele>217</ele>
        <time>2009-08-16T11:42:55Z</time>
      </trkpt>
      <trkpt lat="45.6098" lon="4.86201">
        <ele>217</ele>
        <time>2009-08-16T11:42:59Z</time>
      </trkpt>
      <trkpt lat="45.61008" lon="4.8619">
        <ele>215</ele>
        <time>2009-08-16T11:43:03Z</time>
      </trkpt>
      <trkpt lat="45.61036" lon="4.86182">
        <ele>214</ele>
        <time>2009-08-16T11:43:07Z</time>
      </trkpt>
      <trkpt lat="45.61064" lon="4.86174">
        <ele>214</ele>
        <time>2009-08-16T11:43:11Z</time>
      </trkpt>
      <trkpt lat="45.61091" lon="4.86166">
        <ele>213</ele>
        <time>2009-08-16T11:43:15Z</time>
      </trkpt>
      <trkpt lat="45.61117" lon="4.86156">
        <ele>212</ele>
        <time>2009-08-16T11:43:19Z</time>
      </trkpt>
      <trkpt lat="45.61143" lon="4.86148">
        <ele>211</ele>
        <time>2009-08-16T11:43:23Z</time>
      </trkpt>
      <trkpt lat="45.61169" lon="4.86142">
        <ele>209</ele>
        <time>2009-08-16T11:43:27Z</time>
      </trkpt>
      <trkpt lat="45.61189" lon="4.86137">
        <ele>209</ele>
        <time>2009-08-16T11:43:31Z</time>
      </trkpt>
      <trkpt lat="45.61198" lon="4.86154">
        <ele>209</ele>
        <time>2009-08-16T11:43:35Z</time>
      </trkpt>
      <trkpt lat="45.61203" lon="4.8618">
        <ele>209</ele>
        <time>2009-08-16T11:43:39Z</time>
      </trkpt>
      <trkpt lat="45.6121" lon="4.86204">
        <ele>209</ele>
        <time>2009-08-16T11:43:43Z</time>
      </trkpt>
      <trkpt lat="45.61218" lon="4.86231">
        <ele>209</ele>
        <time>2009-08-16T11:43:47Z</time>
      </trkpt>
      <trkpt lat="45.61225" lon="4.8626">
        <ele>210</ele>
        <time>2009-08-16T11:43:51Z</time>
      </trkpt>
      <trkpt lat="45.61233" lon="4.8629">
        <ele>210</ele>
        <time>2009-08-16T11:43:55Z</time>
      </trkpt>
      <trkpt lat="45.61243" lon="4.8632">
        <ele>210</ele>
        <time>2009-08-16T11:43:59Z</time>
      </trkpt>
      <trkpt lat="45.61249" lon="4.86346">
        <ele>210</ele>
        <time>2009-08-16T11:44:03Z</time>
      </trkpt>
      <trkpt lat="45.61257" lon="4.86372">
        <ele>209</ele>
        <time>2009-08-16T11:44:07Z</time>
      </trkpt>
      <trkpt lat="45.61264" lon="4.86399">
        <ele>208</ele>
        <time>2009-08-16T11:44:11Z</time>
      </trkpt>
      <trkpt lat="45.61273" lon="4.86428">
        <ele>208</ele>
        <time>2009-08-16T11:44:15Z</time>
      </trkpt>
      <trkpt lat="45.61281" lon="4.86457">
        <ele>208</ele>
        <time>2009-08-16T11:44:19Z</time>
      </trkpt>
      <trkpt lat="45.61289" lon="4.86486">
        <ele>208</ele>
        <time>2009-08-16T11:44:23Z</time>
      </trkpt>
      <trkpt lat="45.61297" lon="4.86515">
        <ele>209</ele>
        <time>2009-08-16T11:44:27Z</time>
      </trkpt>
      <trkpt lat="45.61307" lon="4.86547">
        <ele>209</ele>
        <time>2009-08-16T11:44:31Z</time>
      </trkpt>
      <trkpt lat="45.61314" lon="4.86577">
        <ele>209</ele>
        <time>2009-08-16T11:44:35Z</time>
      </trkpt>
      <trkpt lat="45.61322" lon="4.86606">
        <ele>210</ele>
        <time>2009-08-16T11:44:39Z</time>
      </trkpt>
      <trkpt lat="45.6133" lon="4.86632">
        <ele>210</ele>
        <time>2009-08-16T11:44:43Z</time>
      </trkpt>
      <trkpt lat="45.61338" lon="4.86658">
        <ele>209</ele>
        <time>2009-08-16T11:44:47Z</time>
      </trkpt>
      <trkpt lat="45.61346" lon="4.86686">
        <ele>209</ele>
        <time>2009-08-16T11:44:51Z</time>
      </trkpt>
      <trkpt lat="45.61355" lon="4.86717">
        <ele>208</ele>
        <time>2009-08-16T11:44:55Z</time>
      </trkpt>
      <trkpt lat="45.61363" lon="4.86749">
        <ele>208</ele>
        <time>2009-08-16T11:44:59Z</time>
      </trkpt>
      <trkpt lat="45.61372" lon="4.86778">
        <ele>208</ele>
        <time>2009-08-16T11:45:03Z</time>
      </trkpt>
      <trkpt lat="45.61381" lon="4.86806">
        <ele>207</ele>
        <time>2009-08-16T11:45:07Z</time>
      </trkpt>
      <trkpt lat="45.6139" lon="4.86835">
        <ele>207</ele>
        <time>2009-08-16T11:45:11Z</time>
      </trkpt>
      <trkpt lat="45.61398" lon="4.86865">
        <ele>207</ele>
        <time>2009-08-16T11:45:15Z</time>
      </trkpt>
      <trkpt lat="45.61407" lon="4.86893">
        <ele>207</ele>
        <time>2009-08-16T11:45:19Z</time>
      </trkpt>
      <trkpt lat="45.61404" lon="4.86912">
        <ele>207</ele>
        <time>2009-08-16T11:45:23Z</time>
      </trkpt>
      <trkpt lat="45.61394" lon="4.86926">
        <ele>208</ele>
        <time>2009-08-16T11:45:27Z</time>
      </trkpt>
      <trkpt lat="45.61385" lon="4.86944">
        <ele>209</ele>
        <time>2009-08-16T11:45:31Z</time>
      </trkpt>
      <trkpt lat="45.61379" lon="4.86962">
        <ele>209</ele>
        <time>2009-08-16T11:45:35Z</time>
      </trkpt>
      <trkpt lat="45.61374" lon="4.86979">
        <ele>210</ele>
        <time>2009-08-16T11:45:39Z</time>
      </trkpt>
      <trkpt lat="45.61366" lon="4.86995">
        <ele>210</ele>
        <time>2009-08-16T11:45:43Z</time>
      </trkpt>
      <trkpt lat="45.61359" lon="4.87011">
        <ele>211</ele>
        <time>2009-08-16T11:45:47Z</time>
      </trkpt>
      <trkpt lat="45.61354" lon="4.87031">
        <ele>212</ele>
        <time>2009-08-16T11:45:51Z</time>
      </trkpt>
      <trkpt lat="45.61344" lon="4.8705">
        <ele>212</ele>
        <time>2009-08-16T11:45:55Z</time>
      </trkpt>
      <trkpt lat="45.61333" lon="4.87071">
        <ele>213</ele>
        <time>2009-08-16T11:45:59Z</time>
      </trkpt>
      <trkpt lat="45.61323" lon="4.87091">
        <ele>213</ele>
        <time>2009-08-16T11:46:03Z</time>
      </trkpt>
      <trkpt lat="45.61313" lon="4.87107">
        <ele>214</ele>
        <time>2009-08-16T11:46:07Z</time>
      </trkpt>
      <trkpt lat="45.613" lon="4.87122">
        <ele>214</ele>
        <time>2009-08-16T11:46:11Z</time>
      </trkpt>
      <trkpt lat="45.61284" lon="4.87133">
        <ele>214</ele>
        <time>2009-08-16T11:46:15Z</time>
      </trkpt>
      <trkpt lat="45.61267" lon="4.8714">
        <ele>214</ele>
        <time>2009-08-16T11:46:19Z</time>
      </trkpt>
      <trkpt lat="45.61251" lon="4.87148">
        <ele>214</ele>
        <time>2009-08-16T11:46:23Z</time>
      </trkpt>
      <trkpt lat="45.61238" lon="4.87159">
        <ele>215</ele>
        <time>2009-08-16T11:46:27Z</time>
      </trkpt>
      <trkpt lat="45.6123" lon="4.87177">
        <ele>216</ele>
        <time>2009-08-16T11:46:31Z</time>
      </trkpt>
      <trkpt lat="45.61228" lon="4.87197">
        <ele>216</ele>
        <time>2009-08-16T11:46:35Z</time>
      </trkpt>
      <trkpt lat="45.6123" lon="4.87217">
        <ele>216</ele>
        <time>2009-08-16T11:46:39Z</time>
      </trkpt>
      <trkpt lat="45.61231" lon="4.87237">
        <ele>216</ele>
        <time>2009-08-16T11:46:43Z</time>
      </trkpt>
      <trkpt lat="45.61234" lon="4.87256">
        <ele>217</ele>
        <time>2009-08-16T11:46:47Z</time>
      </trkpt>
      <trkpt lat="45.61239" lon="4.87275">
        <ele>217</ele>
        <time>2009-08-16T11:46:51Z</time>
      </trkpt>
      <trkpt lat="45.61249" lon="4.87293">
        <ele>217</ele>
        <time>2009-08-16T11:46:55Z</time>
      </trkpt>
      <trkpt lat="45.61266" lon="4.87298">
        <ele>216</ele>
        <time>2009-08-16T11:46:59Z</time>
      </trkpt>
      <trkpt lat="45.61286" lon="4.87295">
        <ele>216</ele>
        <time>2009-08-16T11:47:03Z</time>
      </trkpt>
      <trkpt lat="45.61309" lon="4.87289">
        <ele>215</ele>
        <time>2009-08-16T11:47:07Z</time>
      </trkpt>
      <trkpt lat="45.61332" lon="4.87286">
        <ele>215</ele>
        <time>2009-08-16T11:47:11Z</time>
      </trkpt>
      <trkpt lat="45.61356" lon="4.87284">
        <ele>215</ele>
        <time>2009-08-16T11:47:15Z</time>
      </trkpt>
      <trkpt lat="45.61379" lon="4.87282">
        <ele>216</ele>
        <time>2009-08-16T11:47:19Z</time>
      </trkpt>
      <trkpt lat="45.61403" lon="4.87281">
        <ele>216</ele>
        <time>2009-08-16T11:47:23Z</time>
      </trkpt>
      <trkpt lat="45.61426" lon="4.87281">
        <ele>216</ele>
        <time>2009-08-16T11:47:27Z</time>
      </trkpt>
      <trkpt lat="45.61449" lon="4.87282">
        <ele>217</ele>
        <time>2009-08-16T11:47:31Z</time>
      </trkpt>
      <trkpt lat="45.6147" lon="4.8728">
        <ele>217</ele>
        <time>2009-08-16T11:47:35Z</time>
      </trkpt>
      <trkpt lat="45.61492" lon="4.87277">
        <ele>217</ele>
        <time>2009-08-16T11:47:39Z</time>
      </trkpt>
      <trkpt lat="45.61514" lon="4.87275">
        <ele>216</ele>
        <time>2009-08-16T11:47:43Z</time>
      </trkpt>
      <trkpt lat="45.61541" lon="4.8727">
        <ele>216</ele>
        <time>2009-08-16T11:47:47Z</time>
      </trkpt>
      <trkpt lat="45.61571" lon="4.87263">
        <ele>215</ele>
        <time>2009-08-16T11:47:51Z</time>
      </trkpt>
      <trkpt lat="45.61599" lon="4.87246">
        <ele>212</ele>
        <time>2009-08-16T11:47:55Z</time>
      </trkpt>
      <trkpt lat="45.6163" lon="4.87222">
        <ele>211</ele>
        <time>2009-08-16T11:47:59Z</time>
      </trkpt>
      <trkpt lat="45.61681" lon="4.87208">
        <ele>207</ele>
        <time>2009-08-16T11:48:04Z</time>
      </trkpt>
      <trkpt lat="45.61723" lon="4.87208">
        <ele>207</ele>
        <time>2009-08-16T11:48:08Z</time>
      </trkpt>
      <trkpt lat="45.61763" lon="4.87214">
        <ele>204</ele>
        <time>2009-08-16T11:48:12Z</time>
      </trkpt>
      <trkpt lat="45.61804" lon="4.87224">
        <ele>203</ele>
        <time>2009-08-16T11:48:16Z</time>
      </trkpt>
      <trkpt lat="45.61844" lon="4.87233">
        <ele>201</ele>
        <time>2009-08-16T11:48:20Z</time>
      </trkpt>
      <trkpt lat="45.61882" lon="4.8724">
        <ele>200</ele>
        <time>2009-08-16T11:48:24Z</time>
      </trkpt>
      <trkpt lat="45.61913" lon="4.87246">
        <ele>200</ele>
        <time>2009-08-16T11:48:28Z</time>
      </trkpt>
      <trkpt lat="45.61942" lon="4.87256">
        <ele>199</ele>
        <time>2009-08-16T11:48:32Z</time>
      </trkpt>
      <trkpt lat="45.61964" lon="4.87265">
        <ele>199</ele>
        <time>2009-08-16T11:48:36Z</time>
      </trkpt>
      <trkpt lat="45.61972" lon="4.8727">
        <ele>198</ele>
        <time>2009-08-16T11:48:40Z</time>
      </trkpt>
      <trkpt lat="45.61973" lon="4.87272">
        <ele>198</ele>
        <time>2009-08-16T11:48:53Z</time>
      </trkpt>
      <trkpt lat="45.61976" lon="4.87272">
        <ele>198</ele>
        <time>2009-08-16T11:48:57Z</time>
      </trkpt>
      <trkpt lat="45.61976" lon="4.87274">
        <ele>198</ele>
        <time>2009-08-16T11:49:10Z</time>
      </trkpt>
      <trkpt lat="45.61977" lon="4.87273">
        <ele>198</ele>
        <time>2009-08-16T11:49:19Z</time>
      </trkpt>
      <trkpt lat="45.61978" lon="4.87275">
        <ele>198</ele>
        <time>2009-08-16T11:49:24Z</time>
      </trkpt>
      <trkpt lat="45.61984" lon="4.87276">
        <ele>198</ele>
        <time>2009-08-16T11:49:28Z</time>
      </trkpt>
      <trkpt lat="45.61994" lon="4.87265">
        <ele>198</ele>
        <time>2009-08-16T11:49:33Z</time>
      </trkpt>
      <trkpt lat="45.62001" lon="4.87253">
        <ele>197</ele>
        <time>2009-08-16T11:49:37Z</time>
      </trkpt>
      <trkpt lat="45.62011" lon="4.8724">
        <ele>197</ele>
        <time>2009-08-16T11:49:41Z</time>
      </trkpt>
      <trkpt lat="45.62018" lon="4.87227">
        <ele>197</ele>
        <time>2009-08-16T11:49:45Z</time>
      </trkpt>
      <trkpt lat="45.62026" lon="4.87221">
        <ele>197</ele>
        <time>2009-08-16T11:49:49Z</time>
      </trkpt>
      <trkpt lat="45.62034" lon="4.87228">
        <ele>197</ele>
        <time>2009-08-16T11:49:53Z</time>
      </trkpt>
      <trkpt lat="45.62045" lon="4.87225">
        <ele>197</ele>
        <time>2009-08-16T11:49:57Z</time>
      </trkpt>
      <trkpt lat="45.62053" lon="4.87218">
        <ele>197</ele>
        <time>2009-08-16T11:50:01Z</time>
      </trkpt>
      <trkpt lat="45.62056" lon="4.87218">
        <ele>197</ele>
        <time>2009-08-16T11:50:17Z</time>
      </trkpt>
    </trkseg>
  </trk>
</gpx>